<?xml version="1.0" encoding="UTF-8" standalone="no" ?>
<gpx xmlns="http://www.topografix.com/GPX/1/1" xmlns:xsi="http://www.w3.org/2001/XMLSchema-instance" xsi:schemaLocation="http://www.topografix.com/GPX/1/1 http://www.topografix.com/GPX/1/1/gpx.xsd" version="1.1" creator="VisuGPX - https://www.visugpx.com">
  <metadata>
    <name>Balade du 09 avril 2012</name>
    <desc><![CDATA[Belle balade, temps excellent, pas de circulation (lundi de Pâques) et rodage des Michelin PR3.]]></desc>
  </metadata>
  <trk>
    <name><![CDATA[2012-04-09 14:31]]></name>
    <trkseg>
      <trkpt lat="43.62438" lon="3.83794">
        <ele>88.1</ele>
        <time>2012-04-09T12:31:19Z</time>
      </trkpt>
      <trkpt lat="43.62438" lon="3.83795">
        <ele>82.81</ele>
        <time>2012-04-09T12:32:35Z</time>
      </trkpt>
      <trkpt lat="43.62442" lon="3.83797">
        <ele>82.33</ele>
        <time>2012-04-09T12:32:40Z</time>
      </trkpt>
      <trkpt lat="43.62446" lon="3.83789">
        <ele>82.33</ele>
        <time>2012-04-09T12:32:44Z</time>
      </trkpt>
      <trkpt lat="43.62455" lon="3.83787">
        <ele>81.85</ele>
        <time>2012-04-09T12:32:47Z</time>
      </trkpt>
      <trkpt lat="43.62459" lon="3.83791">
        <ele>81.85</ele>
        <time>2012-04-09T12:32:48Z</time>
      </trkpt>
      <trkpt lat="43.62464" lon="3.83795">
        <ele>81.85</ele>
        <time>2012-04-09T12:32:49Z</time>
      </trkpt>
      <trkpt lat="43.62469" lon="3.838">
        <ele>81.85</ele>
        <time>2012-04-09T12:32:50Z</time>
      </trkpt>
      <trkpt lat="43.62516" lon="3.83836">
        <ele>80.41</ele>
        <time>2012-04-09T12:32:58Z</time>
      </trkpt>
      <trkpt lat="43.6252" lon="3.83841">
        <ele>79.93</ele>
        <time>2012-04-09T12:32:59Z</time>
      </trkpt>
      <trkpt lat="43.62522" lon="3.83847">
        <ele>79.93</ele>
        <time>2012-04-09T12:33:00Z</time>
      </trkpt>
      <trkpt lat="43.62524" lon="3.83853">
        <ele>79.45</ele>
        <time>2012-04-09T12:33:01Z</time>
      </trkpt>
      <trkpt lat="43.62526" lon="3.8386">
        <ele>79.45</ele>
        <time>2012-04-09T12:33:02Z</time>
      </trkpt>
      <trkpt lat="43.6253" lon="3.83882">
        <ele>78.48</ele>
        <time>2012-04-09T12:33:05Z</time>
      </trkpt>
      <trkpt lat="43.62529" lon="3.83889">
        <ele>78</ele>
        <time>2012-04-09T12:33:06Z</time>
      </trkpt>
      <trkpt lat="43.62528" lon="3.83895">
        <ele>78</ele>
        <time>2012-04-09T12:33:07Z</time>
      </trkpt>
      <trkpt lat="43.62529" lon="3.83901">
        <ele>77.52</ele>
        <time>2012-04-09T12:33:08Z</time>
      </trkpt>
      <trkpt lat="43.62531" lon="3.83905">
        <ele>77.52</ele>
        <time>2012-04-09T12:33:09Z</time>
      </trkpt>
      <trkpt lat="43.62534" lon="3.83906">
        <ele>77.52</ele>
        <time>2012-04-09T12:33:10Z</time>
      </trkpt>
      <trkpt lat="43.62538" lon="3.83905">
        <ele>77.52</ele>
        <time>2012-04-09T12:33:11Z</time>
      </trkpt>
      <trkpt lat="43.62543" lon="3.83901">
        <ele>77.52</ele>
        <time>2012-04-09T12:33:12Z</time>
      </trkpt>
      <trkpt lat="43.62548" lon="3.83897">
        <ele>77.52</ele>
        <time>2012-04-09T12:33:13Z</time>
      </trkpt>
      <trkpt lat="43.62554" lon="3.83895">
        <ele>77.04</ele>
        <time>2012-04-09T12:33:14Z</time>
      </trkpt>
      <trkpt lat="43.62561" lon="3.83893">
        <ele>77.04</ele>
        <time>2012-04-09T12:33:15Z</time>
      </trkpt>
      <trkpt lat="43.62584" lon="3.83887">
        <ele>75.6</ele>
        <time>2012-04-09T12:33:18Z</time>
      </trkpt>
      <trkpt lat="43.62592" lon="3.83888">
        <ele>75.12</ele>
        <time>2012-04-09T12:33:19Z</time>
      </trkpt>
      <trkpt lat="43.626" lon="3.83891">
        <ele>75.12</ele>
        <time>2012-04-09T12:33:20Z</time>
      </trkpt>
      <trkpt lat="43.62607" lon="3.83893">
        <ele>74.64</ele>
        <time>2012-04-09T12:33:21Z</time>
      </trkpt>
      <trkpt lat="43.62616" lon="3.83894">
        <ele>74.64</ele>
        <time>2012-04-09T12:33:22Z</time>
      </trkpt>
      <trkpt lat="43.62624" lon="3.83892">
        <ele>74.16</ele>
        <time>2012-04-09T12:33:23Z</time>
      </trkpt>
      <trkpt lat="43.62632" lon="3.83888">
        <ele>74.16</ele>
        <time>2012-04-09T12:33:24Z</time>
      </trkpt>
      <trkpt lat="43.6264" lon="3.83885">
        <ele>74.16</ele>
        <time>2012-04-09T12:33:25Z</time>
      </trkpt>
      <trkpt lat="43.62648" lon="3.83885">
        <ele>73.68</ele>
        <time>2012-04-09T12:33:26Z</time>
      </trkpt>
      <trkpt lat="43.62656" lon="3.83888">
        <ele>73.68</ele>
        <time>2012-04-09T12:33:27Z</time>
      </trkpt>
      <trkpt lat="43.62664" lon="3.83894">
        <ele>73.2</ele>
        <time>2012-04-09T12:33:28Z</time>
      </trkpt>
      <trkpt lat="43.62672" lon="3.83903">
        <ele>72.72</ele>
        <time>2012-04-09T12:33:29Z</time>
      </trkpt>
      <trkpt lat="43.62679" lon="3.83913">
        <ele>72.24</ele>
        <time>2012-04-09T12:33:30Z</time>
      </trkpt>
      <trkpt lat="43.62769" lon="3.8403">
        <ele>68.39</ele>
        <time>2012-04-09T12:33:40Z</time>
      </trkpt>
      <trkpt lat="43.6292" lon="3.84161">
        <ele>64.07</ele>
        <time>2012-04-09T12:33:53Z</time>
      </trkpt>
      <trkpt lat="43.63034" lon="3.84204">
        <ele>63.58</ele>
        <time>2012-04-09T12:34:03Z</time>
      </trkpt>
      <trkpt lat="43.63059" lon="3.84215">
        <ele>63.1</ele>
        <time>2012-04-09T12:34:06Z</time>
      </trkpt>
      <trkpt lat="43.63066" lon="3.84221">
        <ele>63.1</ele>
        <time>2012-04-09T12:34:07Z</time>
      </trkpt>
      <trkpt lat="43.63073" lon="3.8423">
        <ele>63.1</ele>
        <time>2012-04-09T12:34:08Z</time>
      </trkpt>
      <trkpt lat="43.63079" lon="3.8424">
        <ele>62.62</ele>
        <time>2012-04-09T12:34:09Z</time>
      </trkpt>
      <trkpt lat="43.63084" lon="3.84251">
        <ele>62.62</ele>
        <time>2012-04-09T12:34:10Z</time>
      </trkpt>
      <trkpt lat="43.63091" lon="3.84262">
        <ele>62.14</ele>
        <time>2012-04-09T12:34:11Z</time>
      </trkpt>
      <trkpt lat="43.63098" lon="3.84272">
        <ele>62.14</ele>
        <time>2012-04-09T12:34:12Z</time>
      </trkpt>
      <trkpt lat="43.63106" lon="3.84279">
        <ele>61.66</ele>
        <time>2012-04-09T12:34:13Z</time>
      </trkpt>
      <trkpt lat="43.63116" lon="3.84284">
        <ele>61.18</ele>
        <time>2012-04-09T12:34:14Z</time>
      </trkpt>
      <trkpt lat="43.63126" lon="3.84285">
        <ele>61.18</ele>
        <time>2012-04-09T12:34:15Z</time>
      </trkpt>
      <trkpt lat="43.63136" lon="3.84284">
        <ele>60.7</ele>
        <time>2012-04-09T12:34:16Z</time>
      </trkpt>
      <trkpt lat="43.63146" lon="3.8428">
        <ele>60.7</ele>
        <time>2012-04-09T12:34:17Z</time>
      </trkpt>
      <trkpt lat="43.63154" lon="3.84273">
        <ele>60.7</ele>
        <time>2012-04-09T12:34:18Z</time>
      </trkpt>
      <trkpt lat="43.63161" lon="3.84264">
        <ele>60.7</ele>
        <time>2012-04-09T12:34:19Z</time>
      </trkpt>
      <trkpt lat="43.63167" lon="3.84252">
        <ele>60.7</ele>
        <time>2012-04-09T12:34:20Z</time>
      </trkpt>
      <trkpt lat="43.63171" lon="3.84238">
        <ele>61.18</ele>
        <time>2012-04-09T12:34:21Z</time>
      </trkpt>
      <trkpt lat="43.63172" lon="3.84223">
        <ele>61.66</ele>
        <time>2012-04-09T12:34:22Z</time>
      </trkpt>
      <trkpt lat="43.63171" lon="3.84207">
        <ele>62.14</ele>
        <time>2012-04-09T12:34:23Z</time>
      </trkpt>
      <trkpt lat="43.63167" lon="3.84193">
        <ele>62.14</ele>
        <time>2012-04-09T12:34:24Z</time>
      </trkpt>
      <trkpt lat="43.63161" lon="3.8418">
        <ele>62.14</ele>
        <time>2012-04-09T12:34:25Z</time>
      </trkpt>
      <trkpt lat="43.63153" lon="3.84169">
        <ele>62.14</ele>
        <time>2012-04-09T12:34:26Z</time>
      </trkpt>
      <trkpt lat="43.63144" lon="3.84159">
        <ele>62.14</ele>
        <time>2012-04-09T12:34:27Z</time>
      </trkpt>
      <trkpt lat="43.63136" lon="3.84148">
        <ele>62.14</ele>
        <time>2012-04-09T12:34:28Z</time>
      </trkpt>
      <trkpt lat="43.63129" lon="3.84136">
        <ele>62.14</ele>
        <time>2012-04-09T12:34:29Z</time>
      </trkpt>
      <trkpt lat="43.63124" lon="3.84122">
        <ele>62.62</ele>
        <time>2012-04-09T12:34:30Z</time>
      </trkpt>
      <trkpt lat="43.63122" lon="3.84106">
        <ele>62.62</ele>
        <time>2012-04-09T12:34:31Z</time>
      </trkpt>
      <trkpt lat="43.63122" lon="3.84089">
        <ele>63.1</ele>
        <time>2012-04-09T12:34:32Z</time>
      </trkpt>
      <trkpt lat="43.63125" lon="3.84069">
        <ele>64.07</ele>
        <time>2012-04-09T12:34:33Z</time>
      </trkpt>
      <trkpt lat="43.63128" lon="3.84048">
        <ele>64.07</ele>
        <time>2012-04-09T12:34:34Z</time>
      </trkpt>
      <trkpt lat="43.63181" lon="3.83836">
        <ele>67.91</ele>
        <time>2012-04-09T12:34:44Z</time>
      </trkpt>
      <trkpt lat="43.63278" lon="3.83715">
        <ele>69.35</ele>
        <time>2012-04-09T12:34:52Z</time>
      </trkpt>
      <trkpt lat="43.63387" lon="3.83547">
        <ele>73.2</ele>
        <time>2012-04-09T12:35:02Z</time>
      </trkpt>
      <trkpt lat="43.63445" lon="3.83417">
        <ele>76.56</ele>
        <time>2012-04-09T12:35:11Z</time>
      </trkpt>
      <trkpt lat="43.63449" lon="3.83412">
        <ele>77.04</ele>
        <time>2012-04-09T12:35:12Z</time>
      </trkpt>
      <trkpt lat="43.63453" lon="3.8341">
        <ele>77.52</ele>
        <time>2012-04-09T12:35:13Z</time>
      </trkpt>
      <trkpt lat="43.63458" lon="3.83411">
        <ele>77.52</ele>
        <time>2012-04-09T12:35:14Z</time>
      </trkpt>
      <trkpt lat="43.63463" lon="3.83417">
        <ele>78</ele>
        <time>2012-04-09T12:35:15Z</time>
      </trkpt>
      <trkpt lat="43.63468" lon="3.83425">
        <ele>78</ele>
        <time>2012-04-09T12:35:16Z</time>
      </trkpt>
      <trkpt lat="43.63474" lon="3.83434">
        <ele>78.48</ele>
        <time>2012-04-09T12:35:17Z</time>
      </trkpt>
      <trkpt lat="43.63481" lon="3.83443">
        <ele>78.48</ele>
        <time>2012-04-09T12:35:18Z</time>
      </trkpt>
      <trkpt lat="43.63491" lon="3.8345">
        <ele>78.97</ele>
        <time>2012-04-09T12:35:19Z</time>
      </trkpt>
      <trkpt lat="43.63501" lon="3.83457">
        <ele>79.45</ele>
        <time>2012-04-09T12:35:20Z</time>
      </trkpt>
      <trkpt lat="43.63512" lon="3.8346">
        <ele>80.41</ele>
        <time>2012-04-09T12:35:21Z</time>
      </trkpt>
      <trkpt lat="43.63524" lon="3.83462">
        <ele>80.89</ele>
        <time>2012-04-09T12:35:22Z</time>
      </trkpt>
      <trkpt lat="43.63535" lon="3.83464">
        <ele>81.85</ele>
        <time>2012-04-09T12:35:23Z</time>
      </trkpt>
      <trkpt lat="43.63546" lon="3.83466">
        <ele>82.81</ele>
        <time>2012-04-09T12:35:24Z</time>
      </trkpt>
      <trkpt lat="43.63556" lon="3.8347">
        <ele>83.29</ele>
        <time>2012-04-09T12:35:25Z</time>
      </trkpt>
      <trkpt lat="43.63565" lon="3.83476">
        <ele>83.77</ele>
        <time>2012-04-09T12:35:26Z</time>
      </trkpt>
      <trkpt lat="43.63574" lon="3.83483">
        <ele>84.25</ele>
        <time>2012-04-09T12:35:27Z</time>
      </trkpt>
      <trkpt lat="43.63584" lon="3.83491">
        <ele>85.21</ele>
        <time>2012-04-09T12:35:28Z</time>
      </trkpt>
      <trkpt lat="43.63675" lon="3.83574">
        <ele>93.39</ele>
        <time>2012-04-09T12:35:39Z</time>
      </trkpt>
      <trkpt lat="43.63678" lon="3.83578">
        <ele>93.87</ele>
        <time>2012-04-09T12:35:40Z</time>
      </trkpt>
      <trkpt lat="43.63679" lon="3.83581">
        <ele>94.35</ele>
        <time>2012-04-09T12:35:41Z</time>
      </trkpt>
      <trkpt lat="43.6368" lon="3.83584">
        <ele>94.35</ele>
        <time>2012-04-09T12:35:42Z</time>
      </trkpt>
      <trkpt lat="43.63679" lon="3.83588">
        <ele>94.35</ele>
        <time>2012-04-09T12:35:43Z</time>
      </trkpt>
      <trkpt lat="43.63677" lon="3.83594">
        <ele>93.87</ele>
        <time>2012-04-09T12:35:44Z</time>
      </trkpt>
      <trkpt lat="43.63673" lon="3.83602">
        <ele>93.87</ele>
        <time>2012-04-09T12:35:45Z</time>
      </trkpt>
      <trkpt lat="43.63667" lon="3.83611">
        <ele>93.39</ele>
        <time>2012-04-09T12:35:46Z</time>
      </trkpt>
      <trkpt lat="43.6362" lon="3.83712">
        <ele>89.54</ele>
        <time>2012-04-09T12:35:54Z</time>
      </trkpt>
      <trkpt lat="43.63598" lon="3.83785">
        <ele>85.21</ele>
        <time>2012-04-09T12:36:01Z</time>
      </trkpt>
      <trkpt lat="43.63578" lon="3.83856">
        <ele>80.41</ele>
        <time>2012-04-09T12:36:09Z</time>
      </trkpt>
      <trkpt lat="43.63551" lon="3.83947">
        <ele>75.12</ele>
        <time>2012-04-09T12:36:16Z</time>
      </trkpt>
      <trkpt lat="43.63475" lon="3.8419">
        <ele>61.18</ele>
        <time>2012-04-09T12:36:33Z</time>
      </trkpt>
      <trkpt lat="43.63464" lon="3.84216">
        <ele>60.22</ele>
        <time>2012-04-09T12:36:35Z</time>
      </trkpt>
      <trkpt lat="43.63457" lon="3.84228">
        <ele>59.74</ele>
        <time>2012-04-09T12:36:36Z</time>
      </trkpt>
      <trkpt lat="43.63449" lon="3.8424">
        <ele>59.26</ele>
        <time>2012-04-09T12:36:37Z</time>
      </trkpt>
      <trkpt lat="43.63391" lon="3.84306">
        <ele>55.89</ele>
        <time>2012-04-09T12:36:46Z</time>
      </trkpt>
      <trkpt lat="43.63387" lon="3.84309">
        <ele>55.89</ele>
        <time>2012-04-09T12:36:54Z</time>
      </trkpt>
      <trkpt lat="43.63382" lon="3.84323">
        <ele>54.45</ele>
        <time>2012-04-09T12:38:14Z</time>
      </trkpt>
      <trkpt lat="43.63382" lon="3.8433">
        <ele>53.97</ele>
        <time>2012-04-09T12:38:17Z</time>
      </trkpt>
      <trkpt lat="43.63385" lon="3.84334">
        <ele>53.97</ele>
        <time>2012-04-09T12:38:18Z</time>
      </trkpt>
      <trkpt lat="43.6339" lon="3.84338">
        <ele>53.97</ele>
        <time>2012-04-09T12:38:19Z</time>
      </trkpt>
      <trkpt lat="43.63397" lon="3.84341">
        <ele>53.97</ele>
        <time>2012-04-09T12:38:20Z</time>
      </trkpt>
      <trkpt lat="43.63407" lon="3.84344">
        <ele>53.97</ele>
        <time>2012-04-09T12:38:21Z</time>
      </trkpt>
      <trkpt lat="43.6349" lon="3.8438">
        <ele>52.53</ele>
        <time>2012-04-09T12:38:29Z</time>
      </trkpt>
      <trkpt lat="43.63507" lon="3.8439">
        <ele>52.05</ele>
        <time>2012-04-09T12:38:35Z</time>
      </trkpt>
      <trkpt lat="43.63534" lon="3.84409">
        <ele>51.57</ele>
        <time>2012-04-09T12:38:44Z</time>
      </trkpt>
      <trkpt lat="43.63607" lon="3.84453">
        <ele>49.16</ele>
        <time>2012-04-09T12:38:53Z</time>
      </trkpt>
      <trkpt lat="43.63624" lon="3.84462">
        <ele>49.65</ele>
        <time>2012-04-09T12:38:58Z</time>
      </trkpt>
      <trkpt lat="43.63634" lon="3.84467">
        <ele>49.65</ele>
        <time>2012-04-09T12:38:59Z</time>
      </trkpt>
      <trkpt lat="43.63725" lon="3.84541">
        <ele>53.01</ele>
        <time>2012-04-09T12:39:07Z</time>
      </trkpt>
      <trkpt lat="43.63898" lon="3.84736">
        <ele>53.49</ele>
        <time>2012-04-09T12:39:26Z</time>
      </trkpt>
      <trkpt lat="43.63915" lon="3.84736">
        <ele>55.41</ele>
        <time>2012-04-09T12:39:27Z</time>
      </trkpt>
      <trkpt lat="43.64018" lon="3.84747">
        <ele>61.66</ele>
        <time>2012-04-09T12:39:35Z</time>
      </trkpt>
      <trkpt lat="43.64046" lon="3.84749">
        <ele>62.62</ele>
        <time>2012-04-09T12:39:38Z</time>
      </trkpt>
      <trkpt lat="43.64055" lon="3.84753">
        <ele>63.1</ele>
        <time>2012-04-09T12:39:39Z</time>
      </trkpt>
      <trkpt lat="43.64064" lon="3.84759">
        <ele>63.1</ele>
        <time>2012-04-09T12:39:40Z</time>
      </trkpt>
      <trkpt lat="43.64073" lon="3.84764">
        <ele>63.58</ele>
        <time>2012-04-09T12:39:41Z</time>
      </trkpt>
      <trkpt lat="43.64082" lon="3.84767">
        <ele>63.58</ele>
        <time>2012-04-09T12:39:42Z</time>
      </trkpt>
      <trkpt lat="43.64091" lon="3.84766">
        <ele>64.07</ele>
        <time>2012-04-09T12:39:43Z</time>
      </trkpt>
      <trkpt lat="43.641" lon="3.84764">
        <ele>64.55</ele>
        <time>2012-04-09T12:39:44Z</time>
      </trkpt>
      <trkpt lat="43.64107" lon="3.84758">
        <ele>64.55</ele>
        <time>2012-04-09T12:39:45Z</time>
      </trkpt>
      <trkpt lat="43.64114" lon="3.84749">
        <ele>65.03</ele>
        <time>2012-04-09T12:39:46Z</time>
      </trkpt>
      <trkpt lat="43.64119" lon="3.84738">
        <ele>65.03</ele>
        <time>2012-04-09T12:39:47Z</time>
      </trkpt>
      <trkpt lat="43.64122" lon="3.84726">
        <ele>65.03</ele>
        <time>2012-04-09T12:39:48Z</time>
      </trkpt>
      <trkpt lat="43.64122" lon="3.84713">
        <ele>64.55</ele>
        <time>2012-04-09T12:39:49Z</time>
      </trkpt>
      <trkpt lat="43.6412" lon="3.847">
        <ele>64.55</ele>
        <time>2012-04-09T12:39:50Z</time>
      </trkpt>
      <trkpt lat="43.64116" lon="3.84688">
        <ele>64.07</ele>
        <time>2012-04-09T12:39:51Z</time>
      </trkpt>
      <trkpt lat="43.64109" lon="3.84678">
        <ele>64.07</ele>
        <time>2012-04-09T12:39:52Z</time>
      </trkpt>
      <trkpt lat="43.64102" lon="3.84669">
        <ele>63.58</ele>
        <time>2012-04-09T12:39:53Z</time>
      </trkpt>
      <trkpt lat="43.64094" lon="3.84661">
        <ele>63.1</ele>
        <time>2012-04-09T12:39:54Z</time>
      </trkpt>
      <trkpt lat="43.64087" lon="3.84654">
        <ele>63.1</ele>
        <time>2012-04-09T12:39:55Z</time>
      </trkpt>
      <trkpt lat="43.64082" lon="3.84646">
        <ele>62.62</ele>
        <time>2012-04-09T12:39:56Z</time>
      </trkpt>
      <trkpt lat="43.64078" lon="3.84636">
        <ele>62.62</ele>
        <time>2012-04-09T12:39:57Z</time>
      </trkpt>
      <trkpt lat="43.64077" lon="3.84626">
        <ele>62.62</ele>
        <time>2012-04-09T12:39:58Z</time>
      </trkpt>
      <trkpt lat="43.64079" lon="3.84617">
        <ele>62.14</ele>
        <time>2012-04-09T12:39:59Z</time>
      </trkpt>
      <trkpt lat="43.64081" lon="3.84607">
        <ele>62.14</ele>
        <time>2012-04-09T12:40:00Z</time>
      </trkpt>
      <trkpt lat="43.64083" lon="3.84598">
        <ele>62.14</ele>
        <time>2012-04-09T12:40:01Z</time>
      </trkpt>
      <trkpt lat="43.64086" lon="3.84591">
        <ele>62.62</ele>
        <time>2012-04-09T12:40:02Z</time>
      </trkpt>
      <trkpt lat="43.64089" lon="3.84587">
        <ele>62.14</ele>
        <time>2012-04-09T12:40:03Z</time>
      </trkpt>
      <trkpt lat="43.64093" lon="3.84586">
        <ele>62.14</ele>
        <time>2012-04-09T12:40:04Z</time>
      </trkpt>
      <trkpt lat="43.64097" lon="3.84587">
        <ele>62.14</ele>
        <time>2012-04-09T12:40:05Z</time>
      </trkpt>
      <trkpt lat="43.641" lon="3.84591">
        <ele>62.14</ele>
        <time>2012-04-09T12:40:06Z</time>
      </trkpt>
      <trkpt lat="43.64103" lon="3.84596">
        <ele>62.14</ele>
        <time>2012-04-09T12:40:07Z</time>
      </trkpt>
      <trkpt lat="43.64105" lon="3.84601">
        <ele>61.66</ele>
        <time>2012-04-09T12:40:08Z</time>
      </trkpt>
      <trkpt lat="43.64112" lon="3.84609">
        <ele>62.14</ele>
        <time>2012-04-09T12:40:16Z</time>
      </trkpt>
      <trkpt lat="43.64116" lon="3.84616">
        <ele>51.57</ele>
        <time>2012-04-09T12:41:26Z</time>
      </trkpt>
      <trkpt lat="43.64115" lon="3.84629">
        <ele>55.41</ele>
        <time>2012-04-09T12:42:09Z</time>
      </trkpt>
      <trkpt lat="43.64119" lon="3.84616">
        <ele>36.19</ele>
        <time>2012-04-09T12:43:23Z</time>
      </trkpt>
      <trkpt lat="43.64123" lon="3.84617">
        <ele>35.71</ele>
        <time>2012-04-09T12:44:30Z</time>
      </trkpt>
      <trkpt lat="43.64124" lon="3.84619">
        <ele>50.61</ele>
        <time>2012-04-09T12:44:43Z</time>
      </trkpt>
      <trkpt lat="43.64134" lon="3.8462">
        <ele>53.97</ele>
        <time>2012-04-09T12:44:51Z</time>
      </trkpt>
      <trkpt lat="43.64126" lon="3.84616">
        <ele>65.99</ele>
        <time>2012-04-09T12:46:00Z</time>
      </trkpt>
      <trkpt lat="43.64128" lon="3.84618">
        <ele>61.18</ele>
        <time>2012-04-09T12:47:19Z</time>
      </trkpt>
      <trkpt lat="43.6413" lon="3.84616">
        <ele>60.7</ele>
        <time>2012-04-09T12:47:51Z</time>
      </trkpt>
      <trkpt lat="43.64131" lon="3.84613">
        <ele>60.7</ele>
        <time>2012-04-09T12:47:52Z</time>
      </trkpt>
      <trkpt lat="43.64133" lon="3.84607">
        <ele>61.18</ele>
        <time>2012-04-09T12:47:53Z</time>
      </trkpt>
      <trkpt lat="43.64132" lon="3.846">
        <ele>61.66</ele>
        <time>2012-04-09T12:47:54Z</time>
      </trkpt>
      <trkpt lat="43.6413" lon="3.84592">
        <ele>62.14</ele>
        <time>2012-04-09T12:47:55Z</time>
      </trkpt>
      <trkpt lat="43.64129" lon="3.84585">
        <ele>62.14</ele>
        <time>2012-04-09T12:47:56Z</time>
      </trkpt>
      <trkpt lat="43.64127" lon="3.8458">
        <ele>62.62</ele>
        <time>2012-04-09T12:47:57Z</time>
      </trkpt>
      <trkpt lat="43.64123" lon="3.84577">
        <ele>62.62</ele>
        <time>2012-04-09T12:47:58Z</time>
      </trkpt>
      <trkpt lat="43.64118" lon="3.84576">
        <ele>62.62</ele>
        <time>2012-04-09T12:47:59Z</time>
      </trkpt>
      <trkpt lat="43.64106" lon="3.84576">
        <ele>62.62</ele>
        <time>2012-04-09T12:48:01Z</time>
      </trkpt>
      <trkpt lat="43.64095" lon="3.84575">
        <ele>63.1</ele>
        <time>2012-04-09T12:48:03Z</time>
      </trkpt>
      <trkpt lat="43.64092" lon="3.84575">
        <ele>63.1</ele>
        <time>2012-04-09T12:48:04Z</time>
      </trkpt>
      <trkpt lat="43.6409" lon="3.84576">
        <ele>63.1</ele>
        <time>2012-04-09T12:48:05Z</time>
      </trkpt>
      <trkpt lat="43.64087" lon="3.84579">
        <ele>63.1</ele>
        <time>2012-04-09T12:48:06Z</time>
      </trkpt>
      <trkpt lat="43.64084" lon="3.84583">
        <ele>63.1</ele>
        <time>2012-04-09T12:48:07Z</time>
      </trkpt>
      <trkpt lat="43.64081" lon="3.84591">
        <ele>62.62</ele>
        <time>2012-04-09T12:48:08Z</time>
      </trkpt>
      <trkpt lat="43.64077" lon="3.84601">
        <ele>62.62</ele>
        <time>2012-04-09T12:48:09Z</time>
      </trkpt>
      <trkpt lat="43.64075" lon="3.84611">
        <ele>62.62</ele>
        <time>2012-04-09T12:48:10Z</time>
      </trkpt>
      <trkpt lat="43.64064" lon="3.84656">
        <ele>62.62</ele>
        <time>2012-04-09T12:48:17Z</time>
      </trkpt>
      <trkpt lat="43.64051" lon="3.84681">
        <ele>63.1</ele>
        <time>2012-04-09T12:48:21Z</time>
      </trkpt>
      <trkpt lat="43.64047" lon="3.84692">
        <ele>63.1</ele>
        <time>2012-04-09T12:48:22Z</time>
      </trkpt>
      <trkpt lat="43.64044" lon="3.84704">
        <ele>63.58</ele>
        <time>2012-04-09T12:48:23Z</time>
      </trkpt>
      <trkpt lat="43.64043" lon="3.84717">
        <ele>63.58</ele>
        <time>2012-04-09T12:48:24Z</time>
      </trkpt>
      <trkpt lat="43.64044" lon="3.8473">
        <ele>63.58</ele>
        <time>2012-04-09T12:48:25Z</time>
      </trkpt>
      <trkpt lat="43.64047" lon="3.84742">
        <ele>64.07</ele>
        <time>2012-04-09T12:48:26Z</time>
      </trkpt>
      <trkpt lat="43.64053" lon="3.84753">
        <ele>63.58</ele>
        <time>2012-04-09T12:48:27Z</time>
      </trkpt>
      <trkpt lat="43.64061" lon="3.84761">
        <ele>64.07</ele>
        <time>2012-04-09T12:48:28Z</time>
      </trkpt>
      <trkpt lat="43.6407" lon="3.84766">
        <ele>64.07</ele>
        <time>2012-04-09T12:48:29Z</time>
      </trkpt>
      <trkpt lat="43.6408" lon="3.84769">
        <ele>64.07</ele>
        <time>2012-04-09T12:48:30Z</time>
      </trkpt>
      <trkpt lat="43.64091" lon="3.84768">
        <ele>64.07</ele>
        <time>2012-04-09T12:48:31Z</time>
      </trkpt>
      <trkpt lat="43.64101" lon="3.84765">
        <ele>64.07</ele>
        <time>2012-04-09T12:48:32Z</time>
      </trkpt>
      <trkpt lat="43.64113" lon="3.84763">
        <ele>63.58</ele>
        <time>2012-04-09T12:48:33Z</time>
      </trkpt>
      <trkpt lat="43.64125" lon="3.84762">
        <ele>63.58</ele>
        <time>2012-04-09T12:48:34Z</time>
      </trkpt>
      <trkpt lat="43.64139" lon="3.84762">
        <ele>63.58</ele>
        <time>2012-04-09T12:48:35Z</time>
      </trkpt>
      <trkpt lat="43.64209" lon="3.84763">
        <ele>64.07</ele>
        <time>2012-04-09T12:48:40Z</time>
      </trkpt>
      <trkpt lat="43.64222" lon="3.84768">
        <ele>65.03</ele>
        <time>2012-04-09T12:48:41Z</time>
      </trkpt>
      <trkpt lat="43.64234" lon="3.84774">
        <ele>65.99</ele>
        <time>2012-04-09T12:48:42Z</time>
      </trkpt>
      <trkpt lat="43.64245" lon="3.84781">
        <ele>66.95</ele>
        <time>2012-04-09T12:48:43Z</time>
      </trkpt>
      <trkpt lat="43.64256" lon="3.8479">
        <ele>67.91</ele>
        <time>2012-04-09T12:48:44Z</time>
      </trkpt>
      <trkpt lat="43.64267" lon="3.84801">
        <ele>68.87</ele>
        <time>2012-04-09T12:48:45Z</time>
      </trkpt>
      <trkpt lat="43.64292" lon="3.84828">
        <ele>70.79</ele>
        <time>2012-04-09T12:48:47Z</time>
      </trkpt>
      <trkpt lat="43.64303" lon="3.84846">
        <ele>71.76</ele>
        <time>2012-04-09T12:48:48Z</time>
      </trkpt>
      <trkpt lat="43.64314" lon="3.84865">
        <ele>72.72</ele>
        <time>2012-04-09T12:48:49Z</time>
      </trkpt>
      <trkpt lat="43.64324" lon="3.84885">
        <ele>73.68</ele>
        <time>2012-04-09T12:48:50Z</time>
      </trkpt>
      <trkpt lat="43.64332" lon="3.84906">
        <ele>74.64</ele>
        <time>2012-04-09T12:48:51Z</time>
      </trkpt>
      <trkpt lat="43.64338" lon="3.84928">
        <ele>75.6</ele>
        <time>2012-04-09T12:48:52Z</time>
      </trkpt>
      <trkpt lat="43.64344" lon="3.8495">
        <ele>76.08</ele>
        <time>2012-04-09T12:48:53Z</time>
      </trkpt>
      <trkpt lat="43.6441" lon="3.85098">
        <ele>74.16</ele>
        <time>2012-04-09T12:49:00Z</time>
      </trkpt>
      <trkpt lat="43.64538" lon="3.85298">
        <ele>71.76</ele>
        <time>2012-04-09T12:49:11Z</time>
      </trkpt>
      <trkpt lat="43.64622" lon="3.8539">
        <ele>67.43</ele>
        <time>2012-04-09T12:49:18Z</time>
      </trkpt>
      <trkpt lat="43.64652" lon="3.85413">
        <ele>66.47</ele>
        <time>2012-04-09T12:49:23Z</time>
      </trkpt>
      <trkpt lat="43.6466" lon="3.85418">
        <ele>66.47</ele>
        <time>2012-04-09T12:49:31Z</time>
      </trkpt>
      <trkpt lat="43.64718" lon="3.8545">
        <ele>65.03</ele>
        <time>2012-04-09T12:49:37Z</time>
      </trkpt>
      <trkpt lat="43.64845" lon="3.85539">
        <ele>57.82</ele>
        <time>2012-04-09T12:49:48Z</time>
      </trkpt>
      <trkpt lat="43.64921" lon="3.85651">
        <ele>56.37</ele>
        <time>2012-04-09T12:49:55Z</time>
      </trkpt>
      <trkpt lat="43.65006" lon="3.85883">
        <ele>54.93</ele>
        <time>2012-04-09T12:50:06Z</time>
      </trkpt>
      <trkpt lat="43.65048" lon="3.86138">
        <ele>48.2</ele>
        <time>2012-04-09T12:50:16Z</time>
      </trkpt>
      <trkpt lat="43.65073" lon="3.86432">
        <ele>40.51</ele>
        <time>2012-04-09T12:50:28Z</time>
      </trkpt>
      <trkpt lat="43.65077" lon="3.86532">
        <ele>40.99</ele>
        <time>2012-04-09T12:50:34Z</time>
      </trkpt>
      <trkpt lat="43.65075" lon="3.86543">
        <ele>40.99</ele>
        <time>2012-04-09T12:50:35Z</time>
      </trkpt>
      <trkpt lat="43.65071" lon="3.86555">
        <ele>41.47</ele>
        <time>2012-04-09T12:50:36Z</time>
      </trkpt>
      <trkpt lat="43.65065" lon="3.86566">
        <ele>41.47</ele>
        <time>2012-04-09T12:50:37Z</time>
      </trkpt>
      <trkpt lat="43.6506" lon="3.86579">
        <ele>41.95</ele>
        <time>2012-04-09T12:50:38Z</time>
      </trkpt>
      <trkpt lat="43.65055" lon="3.86592">
        <ele>42.44</ele>
        <time>2012-04-09T12:50:39Z</time>
      </trkpt>
      <trkpt lat="43.65053" lon="3.86606">
        <ele>42.44</ele>
        <time>2012-04-09T12:50:40Z</time>
      </trkpt>
      <trkpt lat="43.65055" lon="3.8662">
        <ele>42.92</ele>
        <time>2012-04-09T12:50:41Z</time>
      </trkpt>
      <trkpt lat="43.65059" lon="3.86633">
        <ele>43.4</ele>
        <time>2012-04-09T12:50:42Z</time>
      </trkpt>
      <trkpt lat="43.65065" lon="3.86644">
        <ele>43.4</ele>
        <time>2012-04-09T12:50:43Z</time>
      </trkpt>
      <trkpt lat="43.65073" lon="3.86653">
        <ele>43.4</ele>
        <time>2012-04-09T12:50:44Z</time>
      </trkpt>
      <trkpt lat="43.65083" lon="3.86658">
        <ele>42.92</ele>
        <time>2012-04-09T12:50:45Z</time>
      </trkpt>
      <trkpt lat="43.65093" lon="3.8666">
        <ele>42.92</ele>
        <time>2012-04-09T12:50:46Z</time>
      </trkpt>
      <trkpt lat="43.65103" lon="3.86659">
        <ele>42.44</ele>
        <time>2012-04-09T12:50:47Z</time>
      </trkpt>
      <trkpt lat="43.65113" lon="3.86654">
        <ele>41.95</ele>
        <time>2012-04-09T12:50:48Z</time>
      </trkpt>
      <trkpt lat="43.65122" lon="3.86647">
        <ele>41.47</ele>
        <time>2012-04-09T12:50:49Z</time>
      </trkpt>
      <trkpt lat="43.6513" lon="3.86637">
        <ele>41.47</ele>
        <time>2012-04-09T12:50:50Z</time>
      </trkpt>
      <trkpt lat="43.65138" lon="3.86626">
        <ele>41.47</ele>
        <time>2012-04-09T12:50:51Z</time>
      </trkpt>
      <trkpt lat="43.65147" lon="3.86615">
        <ele>41.47</ele>
        <time>2012-04-09T12:50:52Z</time>
      </trkpt>
      <trkpt lat="43.65158" lon="3.86607">
        <ele>40.99</ele>
        <time>2012-04-09T12:50:53Z</time>
      </trkpt>
      <trkpt lat="43.6517" lon="3.866">
        <ele>41.47</ele>
        <time>2012-04-09T12:50:54Z</time>
      </trkpt>
      <trkpt lat="43.65195" lon="3.86578">
        <ele>41.47</ele>
        <time>2012-04-09T12:50:56Z</time>
      </trkpt>
      <trkpt lat="43.65314" lon="3.8651">
        <ele>41.95</ele>
        <time>2012-04-09T12:51:05Z</time>
      </trkpt>
      <trkpt lat="43.65426" lon="3.86483">
        <ele>38.59</ele>
        <time>2012-04-09T12:51:14Z</time>
      </trkpt>
      <trkpt lat="43.65558" lon="3.86431">
        <ele>40.99</ele>
        <time>2012-04-09T12:51:25Z</time>
      </trkpt>
      <trkpt lat="43.65704" lon="3.86376">
        <ele>42.92</ele>
        <time>2012-04-09T12:51:36Z</time>
      </trkpt>
      <trkpt lat="43.65782" lon="3.86354">
        <ele>43.88</ele>
        <time>2012-04-09T12:51:44Z</time>
      </trkpt>
      <trkpt lat="43.65868" lon="3.86332">
        <ele>43.88</ele>
        <time>2012-04-09T12:51:50Z</time>
      </trkpt>
      <trkpt lat="43.65956" lon="3.86316">
        <ele>44.84</ele>
        <time>2012-04-09T12:51:56Z</time>
      </trkpt>
      <trkpt lat="43.65971" lon="3.86317">
        <ele>44.84</ele>
        <time>2012-04-09T12:51:57Z</time>
      </trkpt>
      <trkpt lat="43.6611" lon="3.86308">
        <ele>43.4</ele>
        <time>2012-04-09T12:52:06Z</time>
      </trkpt>
      <trkpt lat="43.66193" lon="3.86293">
        <ele>42.44</ele>
        <time>2012-04-09T12:52:13Z</time>
      </trkpt>
      <trkpt lat="43.6621" lon="3.86291">
        <ele>42.44</ele>
        <time>2012-04-09T12:52:16Z</time>
      </trkpt>
      <trkpt lat="43.66272" lon="3.86292">
        <ele>43.88</ele>
        <time>2012-04-09T12:52:22Z</time>
      </trkpt>
      <trkpt lat="43.66317" lon="3.86305">
        <ele>44.36</ele>
        <time>2012-04-09T12:52:25Z</time>
      </trkpt>
      <trkpt lat="43.66332" lon="3.86314">
        <ele>43.88</ele>
        <time>2012-04-09T12:52:26Z</time>
      </trkpt>
      <trkpt lat="43.66389" lon="3.86352">
        <ele>43.88</ele>
        <time>2012-04-09T12:52:30Z</time>
      </trkpt>
      <trkpt lat="43.66405" lon="3.86357">
        <ele>44.36</ele>
        <time>2012-04-09T12:52:31Z</time>
      </trkpt>
      <trkpt lat="43.6642" lon="3.86359">
        <ele>44.36</ele>
        <time>2012-04-09T12:52:32Z</time>
      </trkpt>
      <trkpt lat="43.66434" lon="3.86359">
        <ele>44.36</ele>
        <time>2012-04-09T12:52:33Z</time>
      </trkpt>
      <trkpt lat="43.66447" lon="3.86355">
        <ele>44.36</ele>
        <time>2012-04-09T12:52:34Z</time>
      </trkpt>
      <trkpt lat="43.66457" lon="3.86351">
        <ele>45.32</ele>
        <time>2012-04-09T12:52:35Z</time>
      </trkpt>
      <trkpt lat="43.66466" lon="3.86346">
        <ele>45.8</ele>
        <time>2012-04-09T12:52:36Z</time>
      </trkpt>
      <trkpt lat="43.66477" lon="3.86342">
        <ele>45.8</ele>
        <time>2012-04-09T12:52:37Z</time>
      </trkpt>
      <trkpt lat="43.66574" lon="3.86316">
        <ele>46.28</ele>
        <time>2012-04-09T12:52:44Z</time>
      </trkpt>
      <trkpt lat="43.66667" lon="3.86333">
        <ele>46.28</ele>
        <time>2012-04-09T12:52:51Z</time>
      </trkpt>
      <trkpt lat="43.66695" lon="3.86344">
        <ele>46.28</ele>
        <time>2012-04-09T12:52:53Z</time>
      </trkpt>
      <trkpt lat="43.6671" lon="3.86347">
        <ele>46.28</ele>
        <time>2012-04-09T12:52:54Z</time>
      </trkpt>
      <trkpt lat="43.66725" lon="3.86348">
        <ele>46.76</ele>
        <time>2012-04-09T12:52:55Z</time>
      </trkpt>
      <trkpt lat="43.66739" lon="3.86348">
        <ele>46.76</ele>
        <time>2012-04-09T12:52:56Z</time>
      </trkpt>
      <trkpt lat="43.66753" lon="3.86347">
        <ele>46.76</ele>
        <time>2012-04-09T12:52:57Z</time>
      </trkpt>
      <trkpt lat="43.66834" lon="3.86324">
        <ele>48.2</ele>
        <time>2012-04-09T12:53:03Z</time>
      </trkpt>
      <trkpt lat="43.66846" lon="3.86314">
        <ele>48.68</ele>
        <time>2012-04-09T12:53:04Z</time>
      </trkpt>
      <trkpt lat="43.66855" lon="3.86305">
        <ele>49.16</ele>
        <time>2012-04-09T12:53:05Z</time>
      </trkpt>
      <trkpt lat="43.66889" lon="3.86266">
        <ele>49.16</ele>
        <time>2012-04-09T12:53:11Z</time>
      </trkpt>
      <trkpt lat="43.66937" lon="3.86216">
        <ele>50.13</ele>
        <time>2012-04-09T12:53:21Z</time>
      </trkpt>
      <trkpt lat="43.66974" lon="3.8618">
        <ele>52.05</ele>
        <time>2012-04-09T12:53:26Z</time>
      </trkpt>
      <trkpt lat="43.66984" lon="3.86174">
        <ele>53.01</ele>
        <time>2012-04-09T12:53:27Z</time>
      </trkpt>
      <trkpt lat="43.66993" lon="3.86169">
        <ele>53.97</ele>
        <time>2012-04-09T12:53:28Z</time>
      </trkpt>
      <trkpt lat="43.67018" lon="3.86163">
        <ele>54.45</ele>
        <time>2012-04-09T12:53:31Z</time>
      </trkpt>
      <trkpt lat="43.67026" lon="3.86163">
        <ele>54.45</ele>
        <time>2012-04-09T12:53:32Z</time>
      </trkpt>
      <trkpt lat="43.67032" lon="3.86164">
        <ele>53.97</ele>
        <time>2012-04-09T12:53:33Z</time>
      </trkpt>
      <trkpt lat="43.67038" lon="3.86166">
        <ele>53.97</ele>
        <time>2012-04-09T12:53:34Z</time>
      </trkpt>
      <trkpt lat="43.67043" lon="3.86168">
        <ele>53.97</ele>
        <time>2012-04-09T12:53:35Z</time>
      </trkpt>
      <trkpt lat="43.67048" lon="3.86172">
        <ele>53.49</ele>
        <time>2012-04-09T12:53:36Z</time>
      </trkpt>
      <trkpt lat="43.67053" lon="3.86177">
        <ele>53.49</ele>
        <time>2012-04-09T12:53:37Z</time>
      </trkpt>
      <trkpt lat="43.67058" lon="3.86181">
        <ele>53.01</ele>
        <time>2012-04-09T12:53:38Z</time>
      </trkpt>
      <trkpt lat="43.67063" lon="3.86182">
        <ele>53.01</ele>
        <time>2012-04-09T12:53:39Z</time>
      </trkpt>
      <trkpt lat="43.67067" lon="3.8618">
        <ele>53.01</ele>
        <time>2012-04-09T12:53:40Z</time>
      </trkpt>
      <trkpt lat="43.6707" lon="3.86176">
        <ele>53.49</ele>
        <time>2012-04-09T12:53:41Z</time>
      </trkpt>
      <trkpt lat="43.67073" lon="3.86169">
        <ele>53.49</ele>
        <time>2012-04-09T12:53:42Z</time>
      </trkpt>
      <trkpt lat="43.67078" lon="3.8616">
        <ele>53.97</ele>
        <time>2012-04-09T12:53:43Z</time>
      </trkpt>
      <trkpt lat="43.67084" lon="3.8615">
        <ele>54.45</ele>
        <time>2012-04-09T12:53:44Z</time>
      </trkpt>
      <trkpt lat="43.67092" lon="3.86138">
        <ele>54.93</ele>
        <time>2012-04-09T12:53:45Z</time>
      </trkpt>
      <trkpt lat="43.67102" lon="3.86127">
        <ele>54.93</ele>
        <time>2012-04-09T12:53:46Z</time>
      </trkpt>
      <trkpt lat="43.67114" lon="3.86116">
        <ele>55.41</ele>
        <time>2012-04-09T12:53:47Z</time>
      </trkpt>
      <trkpt lat="43.67128" lon="3.86106">
        <ele>55.89</ele>
        <time>2012-04-09T12:53:48Z</time>
      </trkpt>
      <trkpt lat="43.67142" lon="3.86097">
        <ele>55.89</ele>
        <time>2012-04-09T12:53:49Z</time>
      </trkpt>
      <trkpt lat="43.67308" lon="3.85979">
        <ele>60.7</ele>
        <time>2012-04-09T12:54:01Z</time>
      </trkpt>
      <trkpt lat="43.67322" lon="3.85972">
        <ele>60.7</ele>
        <time>2012-04-09T12:54:02Z</time>
      </trkpt>
      <trkpt lat="43.67379" lon="3.85945">
        <ele>62.14</ele>
        <time>2012-04-09T12:54:06Z</time>
      </trkpt>
      <trkpt lat="43.67394" lon="3.85934">
        <ele>62.14</ele>
        <time>2012-04-09T12:54:07Z</time>
      </trkpt>
      <trkpt lat="43.67408" lon="3.8592">
        <ele>62.14</ele>
        <time>2012-04-09T12:54:08Z</time>
      </trkpt>
      <trkpt lat="43.67526" lon="3.85795">
        <ele>61.66</ele>
        <time>2012-04-09T12:54:16Z</time>
      </trkpt>
      <trkpt lat="43.67711" lon="3.85612">
        <ele>63.58</ele>
        <time>2012-04-09T12:54:27Z</time>
      </trkpt>
      <trkpt lat="43.67728" lon="3.85605">
        <ele>63.58</ele>
        <time>2012-04-09T12:54:28Z</time>
      </trkpt>
      <trkpt lat="43.67746" lon="3.85602">
        <ele>63.58</ele>
        <time>2012-04-09T12:54:29Z</time>
      </trkpt>
      <trkpt lat="43.67764" lon="3.85602">
        <ele>63.58</ele>
        <time>2012-04-09T12:54:30Z</time>
      </trkpt>
      <trkpt lat="43.67782" lon="3.85605">
        <ele>63.58</ele>
        <time>2012-04-09T12:54:31Z</time>
      </trkpt>
      <trkpt lat="43.678" lon="3.85611">
        <ele>63.58</ele>
        <time>2012-04-09T12:54:32Z</time>
      </trkpt>
      <trkpt lat="43.67818" lon="3.85619">
        <ele>63.58</ele>
        <time>2012-04-09T12:54:33Z</time>
      </trkpt>
      <trkpt lat="43.67955" lon="3.85664">
        <ele>60.7</ele>
        <time>2012-04-09T12:54:39Z</time>
      </trkpt>
      <trkpt lat="43.68107" lon="3.85698">
        <ele>60.7</ele>
        <time>2012-04-09T12:54:46Z</time>
      </trkpt>
      <trkpt lat="43.68129" lon="3.85696">
        <ele>60.7</ele>
        <time>2012-04-09T12:54:47Z</time>
      </trkpt>
      <trkpt lat="43.68333" lon="3.85662">
        <ele>60.7</ele>
        <time>2012-04-09T12:54:57Z</time>
      </trkpt>
      <trkpt lat="43.6847" lon="3.85644">
        <ele>58.78</ele>
        <time>2012-04-09T12:55:04Z</time>
      </trkpt>
      <trkpt lat="43.68489" lon="3.85647">
        <ele>58.78</ele>
        <time>2012-04-09T12:55:05Z</time>
      </trkpt>
      <trkpt lat="43.68546" lon="3.85657">
        <ele>58.3</ele>
        <time>2012-04-09T12:55:08Z</time>
      </trkpt>
      <trkpt lat="43.68567" lon="3.85655">
        <ele>58.78</ele>
        <time>2012-04-09T12:55:09Z</time>
      </trkpt>
      <trkpt lat="43.6859" lon="3.85651">
        <ele>58.78</ele>
        <time>2012-04-09T12:55:10Z</time>
      </trkpt>
      <trkpt lat="43.68773" lon="3.85587">
        <ele>60.22</ele>
        <time>2012-04-09T12:55:18Z</time>
      </trkpt>
      <trkpt lat="43.68876" lon="3.85514">
        <ele>63.1</ele>
        <time>2012-04-09T12:55:24Z</time>
      </trkpt>
      <trkpt lat="43.68979" lon="3.85402">
        <ele>65.03</ele>
        <time>2012-04-09T12:55:33Z</time>
      </trkpt>
      <trkpt lat="43.69104" lon="3.85287">
        <ele>64.55</ele>
        <time>2012-04-09T12:55:44Z</time>
      </trkpt>
      <trkpt lat="43.69117" lon="3.85281">
        <ele>64.55</ele>
        <time>2012-04-09T12:55:45Z</time>
      </trkpt>
      <trkpt lat="43.69131" lon="3.85278">
        <ele>64.55</ele>
        <time>2012-04-09T12:55:46Z</time>
      </trkpt>
      <trkpt lat="43.69145" lon="3.85277">
        <ele>64.55</ele>
        <time>2012-04-09T12:55:47Z</time>
      </trkpt>
      <trkpt lat="43.6916" lon="3.85279">
        <ele>64.55</ele>
        <time>2012-04-09T12:55:48Z</time>
      </trkpt>
      <trkpt lat="43.69174" lon="3.85283">
        <ele>65.03</ele>
        <time>2012-04-09T12:55:49Z</time>
      </trkpt>
      <trkpt lat="43.69189" lon="3.85289">
        <ele>65.03</ele>
        <time>2012-04-09T12:55:50Z</time>
      </trkpt>
      <trkpt lat="43.69204" lon="3.85296">
        <ele>65.03</ele>
        <time>2012-04-09T12:55:51Z</time>
      </trkpt>
      <trkpt lat="43.69313" lon="3.85331">
        <ele>64.55</ele>
        <time>2012-04-09T12:55:56Z</time>
      </trkpt>
      <trkpt lat="43.69529" lon="3.85375">
        <ele>63.58</ele>
        <time>2012-04-09T12:56:05Z</time>
      </trkpt>
      <trkpt lat="43.69687" lon="3.85376">
        <ele>62.14</ele>
        <time>2012-04-09T12:56:11Z</time>
      </trkpt>
      <trkpt lat="43.69948" lon="3.85387">
        <ele>66.47</ele>
        <time>2012-04-09T12:56:22Z</time>
      </trkpt>
      <trkpt lat="43.69965" lon="3.85384">
        <ele>66.95</ele>
        <time>2012-04-09T12:56:23Z</time>
      </trkpt>
      <trkpt lat="43.69983" lon="3.85373">
        <ele>66.95</ele>
        <time>2012-04-09T12:56:24Z</time>
      </trkpt>
      <trkpt lat="43.70036" lon="3.8535">
        <ele>67.43</ele>
        <time>2012-04-09T12:56:27Z</time>
      </trkpt>
      <trkpt lat="43.70054" lon="3.85349">
        <ele>66.95</ele>
        <time>2012-04-09T12:56:28Z</time>
      </trkpt>
      <trkpt lat="43.70072" lon="3.85351">
        <ele>66.95</ele>
        <time>2012-04-09T12:56:29Z</time>
      </trkpt>
      <trkpt lat="43.70163" lon="3.85369">
        <ele>65.51</ele>
        <time>2012-04-09T12:56:35Z</time>
      </trkpt>
      <trkpt lat="43.7017" lon="3.85372">
        <ele>65.51</ele>
        <time>2012-04-09T12:56:36Z</time>
      </trkpt>
      <trkpt lat="43.70174" lon="3.85376">
        <ele>65.51</ele>
        <time>2012-04-09T12:56:37Z</time>
      </trkpt>
      <trkpt lat="43.70176" lon="3.85379">
        <ele>65.51</ele>
        <time>2012-04-09T12:56:38Z</time>
      </trkpt>
      <trkpt lat="43.70178" lon="3.85384">
        <ele>65.03</ele>
        <time>2012-04-09T12:56:39Z</time>
      </trkpt>
      <trkpt lat="43.7018" lon="3.8539">
        <ele>65.03</ele>
        <time>2012-04-09T12:56:40Z</time>
      </trkpt>
      <trkpt lat="43.70183" lon="3.85398">
        <ele>64.55</ele>
        <time>2012-04-09T12:56:41Z</time>
      </trkpt>
      <trkpt lat="43.70186" lon="3.85404">
        <ele>64.55</ele>
        <time>2012-04-09T12:56:42Z</time>
      </trkpt>
      <trkpt lat="43.70191" lon="3.85407">
        <ele>64.07</ele>
        <time>2012-04-09T12:56:43Z</time>
      </trkpt>
      <trkpt lat="43.70197" lon="3.85407">
        <ele>64.07</ele>
        <time>2012-04-09T12:56:44Z</time>
      </trkpt>
      <trkpt lat="43.70203" lon="3.85404">
        <ele>64.07</ele>
        <time>2012-04-09T12:56:45Z</time>
      </trkpt>
      <trkpt lat="43.70208" lon="3.85398">
        <ele>64.07</ele>
        <time>2012-04-09T12:56:46Z</time>
      </trkpt>
      <trkpt lat="43.7021" lon="3.85386">
        <ele>64.55</ele>
        <time>2012-04-09T12:56:47Z</time>
      </trkpt>
      <trkpt lat="43.70215" lon="3.85374">
        <ele>65.03</ele>
        <time>2012-04-09T12:56:48Z</time>
      </trkpt>
      <trkpt lat="43.70221" lon="3.85364">
        <ele>65.51</ele>
        <time>2012-04-09T12:56:49Z</time>
      </trkpt>
      <trkpt lat="43.70229" lon="3.85354">
        <ele>65.99</ele>
        <time>2012-04-09T12:56:50Z</time>
      </trkpt>
      <trkpt lat="43.70291" lon="3.85254">
        <ele>69.35</ele>
        <time>2012-04-09T12:56:56Z</time>
      </trkpt>
      <trkpt lat="43.70299" lon="3.85229">
        <ele>70.31</ele>
        <time>2012-04-09T12:56:57Z</time>
      </trkpt>
      <trkpt lat="43.70308" lon="3.85201">
        <ele>71.27</ele>
        <time>2012-04-09T12:56:58Z</time>
      </trkpt>
      <trkpt lat="43.70315" lon="3.8517">
        <ele>72.24</ele>
        <time>2012-04-09T12:56:59Z</time>
      </trkpt>
      <trkpt lat="43.70323" lon="3.85136">
        <ele>73.2</ele>
        <time>2012-04-09T12:57:00Z</time>
      </trkpt>
      <trkpt lat="43.70377" lon="3.84834">
        <ele>82.33</ele>
        <time>2012-04-09T12:57:08Z</time>
      </trkpt>
      <trkpt lat="43.7044" lon="3.84597">
        <ele>88.1</ele>
        <time>2012-04-09T12:57:15Z</time>
      </trkpt>
      <trkpt lat="43.70476" lon="3.84372">
        <ele>90.98</ele>
        <time>2012-04-09T12:57:22Z</time>
      </trkpt>
      <trkpt lat="43.70482" lon="3.84317">
        <ele>91.46</ele>
        <time>2012-04-09T12:57:24Z</time>
      </trkpt>
      <trkpt lat="43.70488" lon="3.84292">
        <ele>91.46</ele>
        <time>2012-04-09T12:57:25Z</time>
      </trkpt>
      <trkpt lat="43.70504" lon="3.84218">
        <ele>92.42</ele>
        <time>2012-04-09T12:57:28Z</time>
      </trkpt>
      <trkpt lat="43.70505" lon="3.84194">
        <ele>92.9</ele>
        <time>2012-04-09T12:57:29Z</time>
      </trkpt>
      <trkpt lat="43.70502" lon="3.84169">
        <ele>93.39</ele>
        <time>2012-04-09T12:57:30Z</time>
      </trkpt>
      <trkpt lat="43.70493" lon="3.84143">
        <ele>93.39</ele>
        <time>2012-04-09T12:57:31Z</time>
      </trkpt>
      <trkpt lat="43.70483" lon="3.84116">
        <ele>93.87</ele>
        <time>2012-04-09T12:57:32Z</time>
      </trkpt>
      <trkpt lat="43.70473" lon="3.84088">
        <ele>93.87</ele>
        <time>2012-04-09T12:57:33Z</time>
      </trkpt>
      <trkpt lat="43.70464" lon="3.84058">
        <ele>94.35</ele>
        <time>2012-04-09T12:57:34Z</time>
      </trkpt>
      <trkpt lat="43.70457" lon="3.84028">
        <ele>94.35</ele>
        <time>2012-04-09T12:57:35Z</time>
      </trkpt>
      <trkpt lat="43.70453" lon="3.83997">
        <ele>94.83</ele>
        <time>2012-04-09T12:57:36Z</time>
      </trkpt>
      <trkpt lat="43.70451" lon="3.83966">
        <ele>94.83</ele>
        <time>2012-04-09T12:57:37Z</time>
      </trkpt>
      <trkpt lat="43.7045" lon="3.83935">
        <ele>95.31</ele>
        <time>2012-04-09T12:57:38Z</time>
      </trkpt>
      <trkpt lat="43.70445" lon="3.83858">
        <ele>97.23</ele>
        <time>2012-04-09T12:57:41Z</time>
      </trkpt>
      <trkpt lat="43.7044" lon="3.83836">
        <ele>97.71</ele>
        <time>2012-04-09T12:57:42Z</time>
      </trkpt>
      <trkpt lat="43.7043" lon="3.8379">
        <ele>98.19</ele>
        <time>2012-04-09T12:57:44Z</time>
      </trkpt>
      <trkpt lat="43.70428" lon="3.83766">
        <ele>98.67</ele>
        <time>2012-04-09T12:57:45Z</time>
      </trkpt>
      <trkpt lat="43.70428" lon="3.83742">
        <ele>99.15</ele>
        <time>2012-04-09T12:57:46Z</time>
      </trkpt>
      <trkpt lat="43.70429" lon="3.83719">
        <ele>99.63</ele>
        <time>2012-04-09T12:57:47Z</time>
      </trkpt>
      <trkpt lat="43.70431" lon="3.83699">
        <ele>100.11</ele>
        <time>2012-04-09T12:57:48Z</time>
      </trkpt>
      <trkpt lat="43.70441" lon="3.83621">
        <ele>102.52</ele>
        <time>2012-04-09T12:57:53Z</time>
      </trkpt>
      <trkpt lat="43.70445" lon="3.8361">
        <ele>103</ele>
        <time>2012-04-09T12:57:54Z</time>
      </trkpt>
      <trkpt lat="43.70449" lon="3.83598">
        <ele>103</ele>
        <time>2012-04-09T12:57:55Z</time>
      </trkpt>
      <trkpt lat="43.7048" lon="3.83517">
        <ele>105.4</ele>
        <time>2012-04-09T12:58:01Z</time>
      </trkpt>
      <trkpt lat="43.70523" lon="3.83391">
        <ele>108.77</ele>
        <time>2012-04-09T12:58:08Z</time>
      </trkpt>
      <trkpt lat="43.70579" lon="3.83251">
        <ele>113.57</ele>
        <time>2012-04-09T12:58:13Z</time>
      </trkpt>
      <trkpt lat="43.7064" lon="3.83122">
        <ele>115.98</ele>
        <time>2012-04-09T12:58:19Z</time>
      </trkpt>
      <trkpt lat="43.70651" lon="3.83108">
        <ele>115.5</ele>
        <time>2012-04-09T12:58:20Z</time>
      </trkpt>
      <trkpt lat="43.70662" lon="3.83096">
        <ele>115.5</ele>
        <time>2012-04-09T12:58:21Z</time>
      </trkpt>
      <trkpt lat="43.70673" lon="3.83086">
        <ele>115.01</ele>
        <time>2012-04-09T12:58:22Z</time>
      </trkpt>
      <trkpt lat="43.70682" lon="3.83079">
        <ele>115.01</ele>
        <time>2012-04-09T12:58:23Z</time>
      </trkpt>
      <trkpt lat="43.70691" lon="3.83074">
        <ele>114.53</ele>
        <time>2012-04-09T12:58:24Z</time>
      </trkpt>
      <trkpt lat="43.70699" lon="3.83073">
        <ele>114.53</ele>
        <time>2012-04-09T12:58:25Z</time>
      </trkpt>
      <trkpt lat="43.70706" lon="3.83073">
        <ele>114.05</ele>
        <time>2012-04-09T12:58:26Z</time>
      </trkpt>
      <trkpt lat="43.70713" lon="3.83074">
        <ele>114.05</ele>
        <time>2012-04-09T12:58:27Z</time>
      </trkpt>
      <trkpt lat="43.7072" lon="3.83074">
        <ele>114.05</ele>
        <time>2012-04-09T12:58:28Z</time>
      </trkpt>
      <trkpt lat="43.70724" lon="3.8307">
        <ele>114.05</ele>
        <time>2012-04-09T12:58:29Z</time>
      </trkpt>
      <trkpt lat="43.70727" lon="3.83064">
        <ele>114.05</ele>
        <time>2012-04-09T12:58:30Z</time>
      </trkpt>
      <trkpt lat="43.70727" lon="3.83054">
        <ele>114.05</ele>
        <time>2012-04-09T12:58:31Z</time>
      </trkpt>
      <trkpt lat="43.70728" lon="3.83042">
        <ele>113.57</ele>
        <time>2012-04-09T12:58:32Z</time>
      </trkpt>
      <trkpt lat="43.7073" lon="3.83027">
        <ele>113.09</ele>
        <time>2012-04-09T12:58:33Z</time>
      </trkpt>
      <trkpt lat="43.70735" lon="3.83012">
        <ele>113.09</ele>
        <time>2012-04-09T12:58:34Z</time>
      </trkpt>
      <trkpt lat="43.70746" lon="3.82974">
        <ele>112.13</ele>
        <time>2012-04-09T12:58:36Z</time>
      </trkpt>
      <trkpt lat="43.7075" lon="3.82952">
        <ele>111.65</ele>
        <time>2012-04-09T12:58:37Z</time>
      </trkpt>
      <trkpt lat="43.70752" lon="3.82928">
        <ele>111.17</ele>
        <time>2012-04-09T12:58:38Z</time>
      </trkpt>
      <trkpt lat="43.70753" lon="3.82901">
        <ele>111.17</ele>
        <time>2012-04-09T12:58:39Z</time>
      </trkpt>
      <trkpt lat="43.7075" lon="3.82873">
        <ele>110.69</ele>
        <time>2012-04-09T12:58:40Z</time>
      </trkpt>
      <trkpt lat="43.70746" lon="3.82843">
        <ele>110.69</ele>
        <time>2012-04-09T12:58:41Z</time>
      </trkpt>
      <trkpt lat="43.70739" lon="3.82812">
        <ele>109.25</ele>
        <time>2012-04-09T12:58:42Z</time>
      </trkpt>
      <trkpt lat="43.70731" lon="3.82779">
        <ele>108.29</ele>
        <time>2012-04-09T12:58:43Z</time>
      </trkpt>
      <trkpt lat="43.70669" lon="3.82607">
        <ele>104.44</ele>
        <time>2012-04-09T12:58:49Z</time>
      </trkpt>
      <trkpt lat="43.70644" lon="3.8254">
        <ele>102.52</ele>
        <time>2012-04-09T12:58:52Z</time>
      </trkpt>
      <trkpt lat="43.70639" lon="3.82518">
        <ele>102.52</ele>
        <time>2012-04-09T12:58:53Z</time>
      </trkpt>
      <trkpt lat="43.70637" lon="3.82496">
        <ele>102.04</ele>
        <time>2012-04-09T12:58:54Z</time>
      </trkpt>
      <trkpt lat="43.70637" lon="3.82476">
        <ele>101.08</ele>
        <time>2012-04-09T12:58:55Z</time>
      </trkpt>
      <trkpt lat="43.70639" lon="3.82457">
        <ele>100.6</ele>
        <time>2012-04-09T12:58:56Z</time>
      </trkpt>
      <trkpt lat="43.70642" lon="3.8244">
        <ele>100.6</ele>
        <time>2012-04-09T12:58:57Z</time>
      </trkpt>
      <trkpt lat="43.70648" lon="3.82427">
        <ele>100.11</ele>
        <time>2012-04-09T12:58:58Z</time>
      </trkpt>
      <trkpt lat="43.70654" lon="3.82417">
        <ele>100.11</ele>
        <time>2012-04-09T12:58:59Z</time>
      </trkpt>
      <trkpt lat="43.70661" lon="3.8241">
        <ele>99.63</ele>
        <time>2012-04-09T12:59:00Z</time>
      </trkpt>
      <trkpt lat="43.7067" lon="3.82406">
        <ele>99.63</ele>
        <time>2012-04-09T12:59:01Z</time>
      </trkpt>
      <trkpt lat="43.70679" lon="3.82401">
        <ele>99.63</ele>
        <time>2012-04-09T12:59:02Z</time>
      </trkpt>
      <trkpt lat="43.70688" lon="3.82395">
        <ele>99.63</ele>
        <time>2012-04-09T12:59:03Z</time>
      </trkpt>
      <trkpt lat="43.70695" lon="3.82386">
        <ele>99.63</ele>
        <time>2012-04-09T12:59:04Z</time>
      </trkpt>
      <trkpt lat="43.70703" lon="3.82379">
        <ele>99.63</ele>
        <time>2012-04-09T12:59:05Z</time>
      </trkpt>
      <trkpt lat="43.70712" lon="3.82372">
        <ele>99.15</ele>
        <time>2012-04-09T12:59:06Z</time>
      </trkpt>
      <trkpt lat="43.70725" lon="3.82366">
        <ele>99.15</ele>
        <time>2012-04-09T12:59:07Z</time>
      </trkpt>
      <trkpt lat="43.7074" lon="3.8236">
        <ele>99.15</ele>
        <time>2012-04-09T12:59:08Z</time>
      </trkpt>
      <trkpt lat="43.70758" lon="3.82354">
        <ele>99.63</ele>
        <time>2012-04-09T12:59:09Z</time>
      </trkpt>
      <trkpt lat="43.70859" lon="3.82276">
        <ele>101.56</ele>
        <time>2012-04-09T12:59:15Z</time>
      </trkpt>
      <trkpt lat="43.70883" lon="3.8224">
        <ele>103</ele>
        <time>2012-04-09T12:59:17Z</time>
      </trkpt>
      <trkpt lat="43.70892" lon="3.82221">
        <ele>103.96</ele>
        <time>2012-04-09T12:59:18Z</time>
      </trkpt>
      <trkpt lat="43.70901" lon="3.82201">
        <ele>104.92</ele>
        <time>2012-04-09T12:59:19Z</time>
      </trkpt>
      <trkpt lat="43.70937" lon="3.82043">
        <ele>113.09</ele>
        <time>2012-04-09T12:59:27Z</time>
      </trkpt>
      <trkpt lat="43.70937" lon="3.82001">
        <ele>115.5</ele>
        <time>2012-04-09T12:59:29Z</time>
      </trkpt>
      <trkpt lat="43.70935" lon="3.81981">
        <ele>116.46</ele>
        <time>2012-04-09T12:59:30Z</time>
      </trkpt>
      <trkpt lat="43.70931" lon="3.81962">
        <ele>117.42</ele>
        <time>2012-04-09T12:59:31Z</time>
      </trkpt>
      <trkpt lat="43.70926" lon="3.81945">
        <ele>118.38</ele>
        <time>2012-04-09T12:59:32Z</time>
      </trkpt>
      <trkpt lat="43.70919" lon="3.8193">
        <ele>118.86</ele>
        <time>2012-04-09T12:59:33Z</time>
      </trkpt>
      <trkpt lat="43.70912" lon="3.81917">
        <ele>119.82</ele>
        <time>2012-04-09T12:59:34Z</time>
      </trkpt>
      <trkpt lat="43.70905" lon="3.81906">
        <ele>120.3</ele>
        <time>2012-04-09T12:59:35Z</time>
      </trkpt>
      <trkpt lat="43.709" lon="3.81896">
        <ele>120.3</ele>
        <time>2012-04-09T12:59:36Z</time>
      </trkpt>
      <trkpt lat="43.70897" lon="3.81887">
        <ele>120.78</ele>
        <time>2012-04-09T12:59:37Z</time>
      </trkpt>
      <trkpt lat="43.70895" lon="3.81878">
        <ele>121.26</ele>
        <time>2012-04-09T12:59:38Z</time>
      </trkpt>
      <trkpt lat="43.70895" lon="3.8187">
        <ele>121.26</ele>
        <time>2012-04-09T12:59:39Z</time>
      </trkpt>
      <trkpt lat="43.70897" lon="3.81861">
        <ele>121.74</ele>
        <time>2012-04-09T12:59:40Z</time>
      </trkpt>
      <trkpt lat="43.709" lon="3.81852">
        <ele>121.74</ele>
        <time>2012-04-09T12:59:41Z</time>
      </trkpt>
      <trkpt lat="43.70903" lon="3.81841">
        <ele>122.22</ele>
        <time>2012-04-09T12:59:42Z</time>
      </trkpt>
      <trkpt lat="43.70904" lon="3.81829">
        <ele>122.71</ele>
        <time>2012-04-09T12:59:43Z</time>
      </trkpt>
      <trkpt lat="43.70902" lon="3.81817">
        <ele>123.19</ele>
        <time>2012-04-09T12:59:44Z</time>
      </trkpt>
      <trkpt lat="43.70899" lon="3.81804">
        <ele>123.19</ele>
        <time>2012-04-09T12:59:45Z</time>
      </trkpt>
      <trkpt lat="43.70893" lon="3.81793">
        <ele>123.67</ele>
        <time>2012-04-09T12:59:46Z</time>
      </trkpt>
      <trkpt lat="43.70885" lon="3.81782">
        <ele>123.67</ele>
        <time>2012-04-09T12:59:47Z</time>
      </trkpt>
      <trkpt lat="43.70876" lon="3.8177">
        <ele>123.67</ele>
        <time>2012-04-09T12:59:48Z</time>
      </trkpt>
      <trkpt lat="43.70868" lon="3.81757">
        <ele>124.15</ele>
        <time>2012-04-09T12:59:49Z</time>
      </trkpt>
      <trkpt lat="43.7086" lon="3.81739">
        <ele>124.63</ele>
        <time>2012-04-09T12:59:50Z</time>
      </trkpt>
      <trkpt lat="43.70852" lon="3.81716">
        <ele>125.11</ele>
        <time>2012-04-09T12:59:51Z</time>
      </trkpt>
      <trkpt lat="43.70771" lon="3.81527">
        <ele>133.76</ele>
        <time>2012-04-09T12:59:59Z</time>
      </trkpt>
      <trkpt lat="43.70724" lon="3.81377">
        <ele>139.05</ele>
        <time>2012-04-09T13:00:05Z</time>
      </trkpt>
      <trkpt lat="43.70721" lon="3.81351">
        <ele>139.53</ele>
        <time>2012-04-09T13:00:06Z</time>
      </trkpt>
      <trkpt lat="43.70721" lon="3.81325">
        <ele>140.01</ele>
        <time>2012-04-09T13:00:07Z</time>
      </trkpt>
      <trkpt lat="43.70721" lon="3.813">
        <ele>140.01</ele>
        <time>2012-04-09T13:00:08Z</time>
      </trkpt>
      <trkpt lat="43.70723" lon="3.81274">
        <ele>140.49</ele>
        <time>2012-04-09T13:00:09Z</time>
      </trkpt>
      <trkpt lat="43.70726" lon="3.81248">
        <ele>140.49</ele>
        <time>2012-04-09T13:00:10Z</time>
      </trkpt>
      <trkpt lat="43.70731" lon="3.81221">
        <ele>140.97</ele>
        <time>2012-04-09T13:00:11Z</time>
      </trkpt>
      <trkpt lat="43.70737" lon="3.81193">
        <ele>140.97</ele>
        <time>2012-04-09T13:00:12Z</time>
      </trkpt>
      <trkpt lat="43.70787" lon="3.80985">
        <ele>141.45</ele>
        <time>2012-04-09T13:00:18Z</time>
      </trkpt>
      <trkpt lat="43.70859" lon="3.80696">
        <ele>142.89</ele>
        <time>2012-04-09T13:00:26Z</time>
      </trkpt>
      <trkpt lat="43.70883" lon="3.80409">
        <ele>147.22</ele>
        <time>2012-04-09T13:00:33Z</time>
      </trkpt>
      <trkpt lat="43.70922" lon="3.80145">
        <ele>157.31</ele>
        <time>2012-04-09T13:00:40Z</time>
      </trkpt>
      <trkpt lat="43.70984" lon="3.79977">
        <ele>163.56</ele>
        <time>2012-04-09T13:00:46Z</time>
      </trkpt>
      <trkpt lat="43.71094" lon="3.79807">
        <ele>164.04</ele>
        <time>2012-04-09T13:00:54Z</time>
      </trkpt>
      <trkpt lat="43.71298" lon="3.79596">
        <ele>153.47</ele>
        <time>2012-04-09T13:01:06Z</time>
      </trkpt>
      <trkpt lat="43.71467" lon="3.79462">
        <ele>145.3</ele>
        <time>2012-04-09T13:01:15Z</time>
      </trkpt>
      <trkpt lat="43.71632" lon="3.79412">
        <ele>150.58</ele>
        <time>2012-04-09T13:01:23Z</time>
      </trkpt>
      <trkpt lat="43.7179" lon="3.79429">
        <ele>153.47</ele>
        <time>2012-04-09T13:01:30Z</time>
      </trkpt>
      <trkpt lat="43.72048" lon="3.7947">
        <ele>157.79</ele>
        <time>2012-04-09T13:01:40Z</time>
      </trkpt>
      <trkpt lat="43.72338" lon="3.7951">
        <ele>166.93</ele>
        <time>2012-04-09T13:01:52Z</time>
      </trkpt>
      <trkpt lat="43.72542" lon="3.79465">
        <ele>176.06</ele>
        <time>2012-04-09T13:02:00Z</time>
      </trkpt>
      <trkpt lat="43.7259" lon="3.79456">
        <ele>178.46</ele>
        <time>2012-04-09T13:02:02Z</time>
      </trkpt>
      <trkpt lat="43.72613" lon="3.79457">
        <ele>179.42</ele>
        <time>2012-04-09T13:02:03Z</time>
      </trkpt>
      <trkpt lat="43.72634" lon="3.79463">
        <ele>180.38</ele>
        <time>2012-04-09T13:02:04Z</time>
      </trkpt>
      <trkpt lat="43.72657" lon="3.79473">
        <ele>181.83</ele>
        <time>2012-04-09T13:02:05Z</time>
      </trkpt>
      <trkpt lat="43.7268" lon="3.79486">
        <ele>182.79</ele>
        <time>2012-04-09T13:02:06Z</time>
      </trkpt>
      <trkpt lat="43.72702" lon="3.79502">
        <ele>183.75</ele>
        <time>2012-04-09T13:02:07Z</time>
      </trkpt>
      <trkpt lat="43.7285" lon="3.79565">
        <ele>190.96</ele>
        <time>2012-04-09T13:02:13Z</time>
      </trkpt>
      <trkpt lat="43.72938" lon="3.79583">
        <ele>193.84</ele>
        <time>2012-04-09T13:02:17Z</time>
      </trkpt>
      <trkpt lat="43.72959" lon="3.79581">
        <ele>194.32</ele>
        <time>2012-04-09T13:02:18Z</time>
      </trkpt>
      <trkpt lat="43.72979" lon="3.79576">
        <ele>194.8</ele>
        <time>2012-04-09T13:02:19Z</time>
      </trkpt>
      <trkpt lat="43.73" lon="3.79567">
        <ele>195.28</ele>
        <time>2012-04-09T13:02:20Z</time>
      </trkpt>
      <trkpt lat="43.7302" lon="3.79555">
        <ele>194.8</ele>
        <time>2012-04-09T13:02:21Z</time>
      </trkpt>
      <trkpt lat="43.73041" lon="3.7954">
        <ele>194.32</ele>
        <time>2012-04-09T13:02:22Z</time>
      </trkpt>
      <trkpt lat="43.73226" lon="3.79391">
        <ele>190.96</ele>
        <time>2012-04-09T13:02:30Z</time>
      </trkpt>
      <trkpt lat="43.73408" lon="3.79162">
        <ele>195.28</ele>
        <time>2012-04-09T13:02:38Z</time>
      </trkpt>
      <trkpt lat="43.73566" lon="3.78959">
        <ele>199.13</ele>
        <time>2012-04-09T13:02:46Z</time>
      </trkpt>
      <trkpt lat="43.73725" lon="3.78782">
        <ele>200.57</ele>
        <time>2012-04-09T13:02:53Z</time>
      </trkpt>
      <trkpt lat="43.73917" lon="3.78551">
        <ele>206.34</ele>
        <time>2012-04-09T13:03:03Z</time>
      </trkpt>
      <trkpt lat="43.73975" lon="3.78462">
        <ele>208.74</ele>
        <time>2012-04-09T13:03:07Z</time>
      </trkpt>
      <trkpt lat="43.73987" lon="3.78438">
        <ele>209.7</ele>
        <time>2012-04-09T13:03:08Z</time>
      </trkpt>
      <trkpt lat="43.73996" lon="3.78412">
        <ele>210.19</ele>
        <time>2012-04-09T13:03:09Z</time>
      </trkpt>
      <trkpt lat="43.74002" lon="3.78382">
        <ele>210.67</ele>
        <time>2012-04-09T13:03:10Z</time>
      </trkpt>
      <trkpt lat="43.74005" lon="3.7835">
        <ele>211.15</ele>
        <time>2012-04-09T13:03:11Z</time>
      </trkpt>
      <trkpt lat="43.74007" lon="3.78317">
        <ele>212.11</ele>
        <time>2012-04-09T13:03:12Z</time>
      </trkpt>
      <trkpt lat="43.74006" lon="3.78282">
        <ele>212.59</ele>
        <time>2012-04-09T13:03:13Z</time>
      </trkpt>
      <trkpt lat="43.74005" lon="3.78245">
        <ele>213.55</ele>
        <time>2012-04-09T13:03:14Z</time>
      </trkpt>
      <trkpt lat="43.7399" lon="3.77841">
        <ele>224.61</ele>
        <time>2012-04-09T13:03:25Z</time>
      </trkpt>
      <trkpt lat="43.73993" lon="3.77656">
        <ele>229.41</ele>
        <time>2012-04-09T13:03:31Z</time>
      </trkpt>
      <trkpt lat="43.73999" lon="3.77627">
        <ele>230.37</ele>
        <time>2012-04-09T13:03:32Z</time>
      </trkpt>
      <trkpt lat="43.74007" lon="3.77597">
        <ele>231.33</ele>
        <time>2012-04-09T13:03:33Z</time>
      </trkpt>
      <trkpt lat="43.74106" lon="3.77321">
        <ele>231.33</ele>
        <time>2012-04-09T13:03:42Z</time>
      </trkpt>
      <trkpt lat="43.74278" lon="3.76868">
        <ele>227.97</ele>
        <time>2012-04-09T13:03:57Z</time>
      </trkpt>
      <trkpt lat="43.74476" lon="3.76513">
        <ele>225.57</ele>
        <time>2012-04-09T13:04:10Z</time>
      </trkpt>
      <trkpt lat="43.74638" lon="3.76259">
        <ele>223.64</ele>
        <time>2012-04-09T13:04:20Z</time>
      </trkpt>
      <trkpt lat="43.74782" lon="3.76109">
        <ele>224.61</ele>
        <time>2012-04-09T13:04:28Z</time>
      </trkpt>
      <trkpt lat="43.7502" lon="3.75874">
        <ele>227.97</ele>
        <time>2012-04-09T13:04:42Z</time>
      </trkpt>
      <trkpt lat="43.75167" lon="3.75731">
        <ele>229.41</ele>
        <time>2012-04-09T13:04:51Z</time>
      </trkpt>
      <trkpt lat="43.75317" lon="3.75584">
        <ele>230.85</ele>
        <time>2012-04-09T13:04:59Z</time>
      </trkpt>
      <trkpt lat="43.75479" lon="3.75426">
        <ele>232.3</ele>
        <time>2012-04-09T13:05:07Z</time>
      </trkpt>
      <trkpt lat="43.7566" lon="3.75247">
        <ele>234.7</ele>
        <time>2012-04-09T13:05:16Z</time>
      </trkpt>
      <trkpt lat="43.75742" lon="3.75165">
        <ele>237.1</ele>
        <time>2012-04-09T13:05:22Z</time>
      </trkpt>
      <trkpt lat="43.75778" lon="3.75133">
        <ele>238.54</ele>
        <time>2012-04-09T13:05:26Z</time>
      </trkpt>
      <trkpt lat="43.75787" lon="3.75129">
        <ele>238.54</ele>
        <time>2012-04-09T13:05:27Z</time>
      </trkpt>
      <trkpt lat="43.75796" lon="3.75127">
        <ele>239.02</ele>
        <time>2012-04-09T13:05:28Z</time>
      </trkpt>
      <trkpt lat="43.75804" lon="3.75123">
        <ele>239.02</ele>
        <time>2012-04-09T13:05:29Z</time>
      </trkpt>
      <trkpt lat="43.75811" lon="3.75116">
        <ele>239.51</ele>
        <time>2012-04-09T13:05:30Z</time>
      </trkpt>
      <trkpt lat="43.75818" lon="3.75106">
        <ele>239.51</ele>
        <time>2012-04-09T13:05:31Z</time>
      </trkpt>
      <trkpt lat="43.75826" lon="3.75093">
        <ele>239.99</ele>
        <time>2012-04-09T13:05:32Z</time>
      </trkpt>
      <trkpt lat="43.75836" lon="3.7508">
        <ele>239.99</ele>
        <time>2012-04-09T13:05:33Z</time>
      </trkpt>
      <trkpt lat="43.75849" lon="3.75066">
        <ele>240.47</ele>
        <time>2012-04-09T13:05:34Z</time>
      </trkpt>
      <trkpt lat="43.75865" lon="3.75052">
        <ele>240.47</ele>
        <time>2012-04-09T13:05:35Z</time>
      </trkpt>
      <trkpt lat="43.7601" lon="3.74909">
        <ele>245.27</ele>
        <time>2012-04-09T13:05:43Z</time>
      </trkpt>
      <trkpt lat="43.76203" lon="3.74756">
        <ele>252</ele>
        <time>2012-04-09T13:05:52Z</time>
      </trkpt>
      <trkpt lat="43.76575" lon="3.7457">
        <ele>262.1</ele>
        <time>2012-04-09T13:06:08Z</time>
      </trkpt>
      <trkpt lat="43.76743" lon="3.7455">
        <ele>265.46</ele>
        <time>2012-04-09T13:06:15Z</time>
      </trkpt>
      <trkpt lat="43.76766" lon="3.74552">
        <ele>265.46</ele>
        <time>2012-04-09T13:06:16Z</time>
      </trkpt>
      <trkpt lat="43.7679" lon="3.74558">
        <ele>265.94</ele>
        <time>2012-04-09T13:06:17Z</time>
      </trkpt>
      <trkpt lat="43.76949" lon="3.74601">
        <ele>269.79</ele>
        <time>2012-04-09T13:06:24Z</time>
      </trkpt>
      <trkpt lat="43.7706" lon="3.74624">
        <ele>271.23</ele>
        <time>2012-04-09T13:06:31Z</time>
      </trkpt>
      <trkpt lat="43.77189" lon="3.74597">
        <ele>268.83</ele>
        <time>2012-04-09T13:06:40Z</time>
      </trkpt>
      <trkpt lat="43.77321" lon="3.74506">
        <ele>261.62</ele>
        <time>2012-04-09T13:06:49Z</time>
      </trkpt>
      <trkpt lat="43.77461" lon="3.74351">
        <ele>250.56</ele>
        <time>2012-04-09T13:07:00Z</time>
      </trkpt>
      <trkpt lat="43.77577" lon="3.74212">
        <ele>241.91</ele>
        <time>2012-04-09T13:07:09Z</time>
      </trkpt>
      <trkpt lat="43.77707" lon="3.74127">
        <ele>234.22</ele>
        <time>2012-04-09T13:07:18Z</time>
      </trkpt>
      <trkpt lat="43.77784" lon="3.74021">
        <ele>227.01</ele>
        <time>2012-04-09T13:07:25Z</time>
      </trkpt>
      <trkpt lat="43.77875" lon="3.73907">
        <ele>221.24</ele>
        <time>2012-04-09T13:07:33Z</time>
      </trkpt>
      <trkpt lat="43.7797" lon="3.73784">
        <ele>212.59</ele>
        <time>2012-04-09T13:07:42Z</time>
      </trkpt>
      <trkpt lat="43.78119" lon="3.73689">
        <ele>206.82</ele>
        <time>2012-04-09T13:07:53Z</time>
      </trkpt>
      <trkpt lat="43.78269" lon="3.73624">
        <ele>203.46</ele>
        <time>2012-04-09T13:08:05Z</time>
      </trkpt>
      <trkpt lat="43.7828" lon="3.73624">
        <ele>202.98</ele>
        <time>2012-04-09T13:08:06Z</time>
      </trkpt>
      <trkpt lat="43.7829" lon="3.73625">
        <ele>202.98</ele>
        <time>2012-04-09T13:08:07Z</time>
      </trkpt>
      <trkpt lat="43.78298" lon="3.73628">
        <ele>202.49</ele>
        <time>2012-04-09T13:08:08Z</time>
      </trkpt>
      <trkpt lat="43.78307" lon="3.73634">
        <ele>202.49</ele>
        <time>2012-04-09T13:08:09Z</time>
      </trkpt>
      <trkpt lat="43.78316" lon="3.7364">
        <ele>202.01</ele>
        <time>2012-04-09T13:08:10Z</time>
      </trkpt>
      <trkpt lat="43.78326" lon="3.73645">
        <ele>201.53</ele>
        <time>2012-04-09T13:08:11Z</time>
      </trkpt>
      <trkpt lat="43.78338" lon="3.73648">
        <ele>201.05</ele>
        <time>2012-04-09T13:08:12Z</time>
      </trkpt>
      <trkpt lat="43.7835" lon="3.73652">
        <ele>201.05</ele>
        <time>2012-04-09T13:08:13Z</time>
      </trkpt>
      <trkpt lat="43.78363" lon="3.73659">
        <ele>200.57</ele>
        <time>2012-04-09T13:08:14Z</time>
      </trkpt>
      <trkpt lat="43.78392" lon="3.73676">
        <ele>200.09</ele>
        <time>2012-04-09T13:08:16Z</time>
      </trkpt>
      <trkpt lat="43.78408" lon="3.73682">
        <ele>200.09</ele>
        <time>2012-04-09T13:08:17Z</time>
      </trkpt>
      <trkpt lat="43.78424" lon="3.73684">
        <ele>200.09</ele>
        <time>2012-04-09T13:08:18Z</time>
      </trkpt>
      <trkpt lat="43.78441" lon="3.73684">
        <ele>200.09</ele>
        <time>2012-04-09T13:08:19Z</time>
      </trkpt>
      <trkpt lat="43.78458" lon="3.73681">
        <ele>199.61</ele>
        <time>2012-04-09T13:08:20Z</time>
      </trkpt>
      <trkpt lat="43.78476" lon="3.73675">
        <ele>199.61</ele>
        <time>2012-04-09T13:08:21Z</time>
      </trkpt>
      <trkpt lat="43.78494" lon="3.73667">
        <ele>199.13</ele>
        <time>2012-04-09T13:08:22Z</time>
      </trkpt>
      <trkpt lat="43.7867" lon="3.73618">
        <ele>195.77</ele>
        <time>2012-04-09T13:08:31Z</time>
      </trkpt>
      <trkpt lat="43.78814" lon="3.73644">
        <ele>192.4</ele>
        <time>2012-04-09T13:08:38Z</time>
      </trkpt>
      <trkpt lat="43.78916" lon="3.73666">
        <ele>191.44</ele>
        <time>2012-04-09T13:08:45Z</time>
      </trkpt>
      <trkpt lat="43.78924" lon="3.7367">
        <ele>191.44</ele>
        <time>2012-04-09T13:08:46Z</time>
      </trkpt>
      <trkpt lat="43.78931" lon="3.73676">
        <ele>191.44</ele>
        <time>2012-04-09T13:08:47Z</time>
      </trkpt>
      <trkpt lat="43.78937" lon="3.73685">
        <ele>190.96</ele>
        <time>2012-04-09T13:08:48Z</time>
      </trkpt>
      <trkpt lat="43.78942" lon="3.73697">
        <ele>190.96</ele>
        <time>2012-04-09T13:08:49Z</time>
      </trkpt>
      <trkpt lat="43.78945" lon="3.73712">
        <ele>190.96</ele>
        <time>2012-04-09T13:08:50Z</time>
      </trkpt>
      <trkpt lat="43.78947" lon="3.7373">
        <ele>190.96</ele>
        <time>2012-04-09T13:08:51Z</time>
      </trkpt>
      <trkpt lat="43.78947" lon="3.73751">
        <ele>190.96</ele>
        <time>2012-04-09T13:08:52Z</time>
      </trkpt>
      <trkpt lat="43.78946" lon="3.73774">
        <ele>190.96</ele>
        <time>2012-04-09T13:08:53Z</time>
      </trkpt>
      <trkpt lat="43.78939" lon="3.73843">
        <ele>191.44</ele>
        <time>2012-04-09T13:08:56Z</time>
      </trkpt>
      <trkpt lat="43.78934" lon="3.73865">
        <ele>191.92</ele>
        <time>2012-04-09T13:08:57Z</time>
      </trkpt>
      <trkpt lat="43.78926" lon="3.73886">
        <ele>192.4</ele>
        <time>2012-04-09T13:08:58Z</time>
      </trkpt>
      <trkpt lat="43.78915" lon="3.73906">
        <ele>192.88</ele>
        <time>2012-04-09T13:08:59Z</time>
      </trkpt>
      <trkpt lat="43.78902" lon="3.73924">
        <ele>193.84</ele>
        <time>2012-04-09T13:09:00Z</time>
      </trkpt>
      <trkpt lat="43.78886" lon="3.73941">
        <ele>194.8</ele>
        <time>2012-04-09T13:09:01Z</time>
      </trkpt>
      <trkpt lat="43.78869" lon="3.73959">
        <ele>195.77</ele>
        <time>2012-04-09T13:09:02Z</time>
      </trkpt>
      <trkpt lat="43.78818" lon="3.74005">
        <ele>198.17</ele>
        <time>2012-04-09T13:09:05Z</time>
      </trkpt>
      <trkpt lat="43.78801" lon="3.74015">
        <ele>199.13</ele>
        <time>2012-04-09T13:09:06Z</time>
      </trkpt>
      <trkpt lat="43.78783" lon="3.74024">
        <ele>200.09</ele>
        <time>2012-04-09T13:09:07Z</time>
      </trkpt>
      <trkpt lat="43.78748" lon="3.74042">
        <ele>201.53</ele>
        <time>2012-04-09T13:09:09Z</time>
      </trkpt>
      <trkpt lat="43.78731" lon="3.74056">
        <ele>202.49</ele>
        <time>2012-04-09T13:09:10Z</time>
      </trkpt>
      <trkpt lat="43.78714" lon="3.74072">
        <ele>202.98</ele>
        <time>2012-04-09T13:09:11Z</time>
      </trkpt>
      <trkpt lat="43.78698" lon="3.7409">
        <ele>203.46</ele>
        <time>2012-04-09T13:09:12Z</time>
      </trkpt>
      <trkpt lat="43.78683" lon="3.74109">
        <ele>203.94</ele>
        <time>2012-04-09T13:09:13Z</time>
      </trkpt>
      <trkpt lat="43.7867" lon="3.74131">
        <ele>203.94</ele>
        <time>2012-04-09T13:09:14Z</time>
      </trkpt>
      <trkpt lat="43.78658" lon="3.74155">
        <ele>203.46</ele>
        <time>2012-04-09T13:09:15Z</time>
      </trkpt>
      <trkpt lat="43.78647" lon="3.74183">
        <ele>203.46</ele>
        <time>2012-04-09T13:09:16Z</time>
      </trkpt>
      <trkpt lat="43.78575" lon="3.74409">
        <ele>201.05</ele>
        <time>2012-04-09T13:09:23Z</time>
      </trkpt>
      <trkpt lat="43.78496" lon="3.74774">
        <ele>201.53</ele>
        <time>2012-04-09T13:09:34Z</time>
      </trkpt>
      <trkpt lat="43.78482" lon="3.74852">
        <ele>203.46</ele>
        <time>2012-04-09T13:09:37Z</time>
      </trkpt>
      <trkpt lat="43.78474" lon="3.74878">
        <ele>204.42</ele>
        <time>2012-04-09T13:09:38Z</time>
      </trkpt>
      <trkpt lat="43.78464" lon="3.74903">
        <ele>205.38</ele>
        <time>2012-04-09T13:09:39Z</time>
      </trkpt>
      <trkpt lat="43.78436" lon="3.74972">
        <ele>207.78</ele>
        <time>2012-04-09T13:09:42Z</time>
      </trkpt>
      <trkpt lat="43.7843" lon="3.74994">
        <ele>208.26</ele>
        <time>2012-04-09T13:09:43Z</time>
      </trkpt>
      <trkpt lat="43.78427" lon="3.75018">
        <ele>208.26</ele>
        <time>2012-04-09T13:09:44Z</time>
      </trkpt>
      <trkpt lat="43.78428" lon="3.75043">
        <ele>208.26</ele>
        <time>2012-04-09T13:09:45Z</time>
      </trkpt>
      <trkpt lat="43.78431" lon="3.75067">
        <ele>207.78</ele>
        <time>2012-04-09T13:09:46Z</time>
      </trkpt>
      <trkpt lat="43.78437" lon="3.75094">
        <ele>206.82</ele>
        <time>2012-04-09T13:09:47Z</time>
      </trkpt>
      <trkpt lat="43.78445" lon="3.75124">
        <ele>205.86</ele>
        <time>2012-04-09T13:09:48Z</time>
      </trkpt>
      <trkpt lat="43.78489" lon="3.75314">
        <ele>202.01</ele>
        <time>2012-04-09T13:09:54Z</time>
      </trkpt>
      <trkpt lat="43.78516" lon="3.75452">
        <ele>203.46</ele>
        <time>2012-04-09T13:10:01Z</time>
      </trkpt>
      <trkpt lat="43.78536" lon="3.75578">
        <ele>202.98</ele>
        <time>2012-04-09T13:10:08Z</time>
      </trkpt>
      <trkpt lat="43.78541" lon="3.75596">
        <ele>202.98</ele>
        <time>2012-04-09T13:10:09Z</time>
      </trkpt>
      <trkpt lat="43.78599" lon="3.75759">
        <ele>202.98</ele>
        <time>2012-04-09T13:10:19Z</time>
      </trkpt>
      <trkpt lat="43.78607" lon="3.75771">
        <ele>202.49</ele>
        <time>2012-04-09T13:10:20Z</time>
      </trkpt>
      <trkpt lat="43.78617" lon="3.75782">
        <ele>202.01</ele>
        <time>2012-04-09T13:10:21Z</time>
      </trkpt>
      <trkpt lat="43.78628" lon="3.75791">
        <ele>201.53</ele>
        <time>2012-04-09T13:10:22Z</time>
      </trkpt>
      <trkpt lat="43.78641" lon="3.75798">
        <ele>201.05</ele>
        <time>2012-04-09T13:10:23Z</time>
      </trkpt>
      <trkpt lat="43.78654" lon="3.75805">
        <ele>200.57</ele>
        <time>2012-04-09T13:10:24Z</time>
      </trkpt>
      <trkpt lat="43.78828" lon="3.75899">
        <ele>194.8</ele>
        <time>2012-04-09T13:10:36Z</time>
      </trkpt>
      <trkpt lat="43.78847" lon="3.75912">
        <ele>193.84</ele>
        <time>2012-04-09T13:10:37Z</time>
      </trkpt>
      <trkpt lat="43.78865" lon="3.75929">
        <ele>193.36</ele>
        <time>2012-04-09T13:10:38Z</time>
      </trkpt>
      <trkpt lat="43.79008" lon="3.76051">
        <ele>190</ele>
        <time>2012-04-09T13:10:45Z</time>
      </trkpt>
      <trkpt lat="43.79089" lon="3.76099">
        <ele>187.11</ele>
        <time>2012-04-09T13:10:49Z</time>
      </trkpt>
      <trkpt lat="43.79107" lon="3.76116">
        <ele>186.15</ele>
        <time>2012-04-09T13:10:50Z</time>
      </trkpt>
      <trkpt lat="43.79123" lon="3.76136">
        <ele>185.19</ele>
        <time>2012-04-09T13:10:51Z</time>
      </trkpt>
      <trkpt lat="43.79139" lon="3.76159">
        <ele>184.23</ele>
        <time>2012-04-09T13:10:52Z</time>
      </trkpt>
      <trkpt lat="43.79154" lon="3.76185">
        <ele>183.27</ele>
        <time>2012-04-09T13:10:53Z</time>
      </trkpt>
      <trkpt lat="43.79168" lon="3.76212">
        <ele>183.27</ele>
        <time>2012-04-09T13:10:54Z</time>
      </trkpt>
      <trkpt lat="43.79248" lon="3.76411">
        <ele>184.23</ele>
        <time>2012-04-09T13:11:01Z</time>
      </trkpt>
      <trkpt lat="43.79341" lon="3.76678">
        <ele>183.27</ele>
        <time>2012-04-09T13:11:10Z</time>
      </trkpt>
      <trkpt lat="43.79391" lon="3.76817">
        <ele>182.79</ele>
        <time>2012-04-09T13:11:15Z</time>
      </trkpt>
      <trkpt lat="43.79398" lon="3.76847">
        <ele>182.31</ele>
        <time>2012-04-09T13:11:16Z</time>
      </trkpt>
      <trkpt lat="43.79402" lon="3.76879">
        <ele>182.31</ele>
        <time>2012-04-09T13:11:17Z</time>
      </trkpt>
      <trkpt lat="43.79405" lon="3.76912">
        <ele>181.83</ele>
        <time>2012-04-09T13:11:18Z</time>
      </trkpt>
      <trkpt lat="43.79406" lon="3.76946">
        <ele>181.83</ele>
        <time>2012-04-09T13:11:19Z</time>
      </trkpt>
      <trkpt lat="43.79441" lon="3.7719">
        <ele>182.79</ele>
        <time>2012-04-09T13:11:26Z</time>
      </trkpt>
      <trkpt lat="43.79527" lon="3.77612">
        <ele>188.08</ele>
        <time>2012-04-09T13:11:39Z</time>
      </trkpt>
      <trkpt lat="43.79537" lon="3.77712">
        <ele>188.56</ele>
        <time>2012-04-09T13:11:43Z</time>
      </trkpt>
      <trkpt lat="43.79535" lon="3.77737">
        <ele>188.56</ele>
        <time>2012-04-09T13:11:44Z</time>
      </trkpt>
      <trkpt lat="43.79529" lon="3.77763">
        <ele>189.04</ele>
        <time>2012-04-09T13:11:45Z</time>
      </trkpt>
      <trkpt lat="43.79478" lon="3.77976">
        <ele>190.48</ele>
        <time>2012-04-09T13:11:52Z</time>
      </trkpt>
      <trkpt lat="43.79464" lon="3.78127">
        <ele>190</ele>
        <time>2012-04-09T13:11:57Z</time>
      </trkpt>
      <trkpt lat="43.79467" lon="3.78155">
        <ele>190</ele>
        <time>2012-04-09T13:11:58Z</time>
      </trkpt>
      <trkpt lat="43.79471" lon="3.78181">
        <ele>190</ele>
        <time>2012-04-09T13:11:59Z</time>
      </trkpt>
      <trkpt lat="43.79475" lon="3.78205">
        <ele>189.52</ele>
        <time>2012-04-09T13:12:00Z</time>
      </trkpt>
      <trkpt lat="43.79477" lon="3.78229">
        <ele>189.52</ele>
        <time>2012-04-09T13:12:01Z</time>
      </trkpt>
      <trkpt lat="43.79476" lon="3.78254">
        <ele>189.52</ele>
        <time>2012-04-09T13:12:02Z</time>
      </trkpt>
      <trkpt lat="43.79472" lon="3.78278">
        <ele>190</ele>
        <time>2012-04-09T13:12:03Z</time>
      </trkpt>
      <trkpt lat="43.79464" lon="3.78303">
        <ele>190</ele>
        <time>2012-04-09T13:12:04Z</time>
      </trkpt>
      <trkpt lat="43.79451" lon="3.78324">
        <ele>190</ele>
        <time>2012-04-09T13:12:05Z</time>
      </trkpt>
      <trkpt lat="43.79435" lon="3.78343">
        <ele>190</ele>
        <time>2012-04-09T13:12:06Z</time>
      </trkpt>
      <trkpt lat="43.79418" lon="3.78361">
        <ele>190</ele>
        <time>2012-04-09T13:12:07Z</time>
      </trkpt>
      <trkpt lat="43.794" lon="3.78379">
        <ele>190</ele>
        <time>2012-04-09T13:12:08Z</time>
      </trkpt>
      <trkpt lat="43.79314" lon="3.78504">
        <ele>191.44</ele>
        <time>2012-04-09T13:12:14Z</time>
      </trkpt>
      <trkpt lat="43.79238" lon="3.78721">
        <ele>189.52</ele>
        <time>2012-04-09T13:12:21Z</time>
      </trkpt>
      <trkpt lat="43.79225" lon="3.78783">
        <ele>188.56</ele>
        <time>2012-04-09T13:12:23Z</time>
      </trkpt>
      <trkpt lat="43.79222" lon="3.78816">
        <ele>188.08</ele>
        <time>2012-04-09T13:12:24Z</time>
      </trkpt>
      <trkpt lat="43.79221" lon="3.78851">
        <ele>187.59</ele>
        <time>2012-04-09T13:12:25Z</time>
      </trkpt>
      <trkpt lat="43.79222" lon="3.78887">
        <ele>187.11</ele>
        <time>2012-04-09T13:12:26Z</time>
      </trkpt>
      <trkpt lat="43.79225" lon="3.78925">
        <ele>186.63</ele>
        <time>2012-04-09T13:12:27Z</time>
      </trkpt>
      <trkpt lat="43.79242" lon="3.79096">
        <ele>187.11</ele>
        <time>2012-04-09T13:12:32Z</time>
      </trkpt>
      <trkpt lat="43.79241" lon="3.79127">
        <ele>187.11</ele>
        <time>2012-04-09T13:12:33Z</time>
      </trkpt>
      <trkpt lat="43.79237" lon="3.79158">
        <ele>187.11</ele>
        <time>2012-04-09T13:12:34Z</time>
      </trkpt>
      <trkpt lat="43.79231" lon="3.7919">
        <ele>187.59</ele>
        <time>2012-04-09T13:12:35Z</time>
      </trkpt>
      <trkpt lat="43.79223" lon="3.79224">
        <ele>188.08</ele>
        <time>2012-04-09T13:12:36Z</time>
      </trkpt>
      <trkpt lat="43.79184" lon="3.7942">
        <ele>189.52</ele>
        <time>2012-04-09T13:12:42Z</time>
      </trkpt>
      <trkpt lat="43.79183" lon="3.7945">
        <ele>189.04</ele>
        <time>2012-04-09T13:12:43Z</time>
      </trkpt>
      <trkpt lat="43.79184" lon="3.79481">
        <ele>189.04</ele>
        <time>2012-04-09T13:12:44Z</time>
      </trkpt>
      <trkpt lat="43.79189" lon="3.79511">
        <ele>189.04</ele>
        <time>2012-04-09T13:12:45Z</time>
      </trkpt>
      <trkpt lat="43.79197" lon="3.79541">
        <ele>189.04</ele>
        <time>2012-04-09T13:12:46Z</time>
      </trkpt>
      <trkpt lat="43.79207" lon="3.7957">
        <ele>188.56</ele>
        <time>2012-04-09T13:12:47Z</time>
      </trkpt>
      <trkpt lat="43.79222" lon="3.79595">
        <ele>188.56</ele>
        <time>2012-04-09T13:12:48Z</time>
      </trkpt>
      <trkpt lat="43.7924" lon="3.7962">
        <ele>189.04</ele>
        <time>2012-04-09T13:12:49Z</time>
      </trkpt>
      <trkpt lat="43.79259" lon="3.79644">
        <ele>189.04</ele>
        <time>2012-04-09T13:12:50Z</time>
      </trkpt>
      <trkpt lat="43.79293" lon="3.79696">
        <ele>188.56</ele>
        <time>2012-04-09T13:12:52Z</time>
      </trkpt>
      <trkpt lat="43.79307" lon="3.79724">
        <ele>188.56</ele>
        <time>2012-04-09T13:12:53Z</time>
      </trkpt>
      <trkpt lat="43.79319" lon="3.79754">
        <ele>188.08</ele>
        <time>2012-04-09T13:12:54Z</time>
      </trkpt>
      <trkpt lat="43.79328" lon="3.79787">
        <ele>188.08</ele>
        <time>2012-04-09T13:12:55Z</time>
      </trkpt>
      <trkpt lat="43.79335" lon="3.79822">
        <ele>187.59</ele>
        <time>2012-04-09T13:12:56Z</time>
      </trkpt>
      <trkpt lat="43.79341" lon="3.79858">
        <ele>187.59</ele>
        <time>2012-04-09T13:12:57Z</time>
      </trkpt>
      <trkpt lat="43.79374" lon="3.80078">
        <ele>189.04</ele>
        <time>2012-04-09T13:13:04Z</time>
      </trkpt>
      <trkpt lat="43.79374" lon="3.80104">
        <ele>189.52</ele>
        <time>2012-04-09T13:13:05Z</time>
      </trkpt>
      <trkpt lat="43.79371" lon="3.80131">
        <ele>190</ele>
        <time>2012-04-09T13:13:06Z</time>
      </trkpt>
      <trkpt lat="43.79366" lon="3.80157">
        <ele>190.96</ele>
        <time>2012-04-09T13:13:07Z</time>
      </trkpt>
      <trkpt lat="43.7936" lon="3.80184">
        <ele>191.92</ele>
        <time>2012-04-09T13:13:08Z</time>
      </trkpt>
      <trkpt lat="43.79351" lon="3.8021">
        <ele>193.36</ele>
        <time>2012-04-09T13:13:09Z</time>
      </trkpt>
      <trkpt lat="43.79339" lon="3.80234">
        <ele>194.8</ele>
        <time>2012-04-09T13:13:10Z</time>
      </trkpt>
      <trkpt lat="43.79326" lon="3.80256">
        <ele>196.25</ele>
        <time>2012-04-09T13:13:11Z</time>
      </trkpt>
      <trkpt lat="43.7931" lon="3.80276">
        <ele>197.69</ele>
        <time>2012-04-09T13:13:12Z</time>
      </trkpt>
      <trkpt lat="43.79293" lon="3.80293">
        <ele>199.13</ele>
        <time>2012-04-09T13:13:13Z</time>
      </trkpt>
      <trkpt lat="43.79274" lon="3.80308">
        <ele>200.57</ele>
        <time>2012-04-09T13:13:14Z</time>
      </trkpt>
      <trkpt lat="43.79253" lon="3.80321">
        <ele>202.01</ele>
        <time>2012-04-09T13:13:15Z</time>
      </trkpt>
      <trkpt lat="43.79126" lon="3.80403">
        <ele>210.67</ele>
        <time>2012-04-09T13:13:22Z</time>
      </trkpt>
      <trkpt lat="43.79112" lon="3.80415">
        <ele>211.63</ele>
        <time>2012-04-09T13:13:23Z</time>
      </trkpt>
      <trkpt lat="43.79099" lon="3.80431">
        <ele>212.59</ele>
        <time>2012-04-09T13:13:24Z</time>
      </trkpt>
      <trkpt lat="43.79086" lon="3.80449">
        <ele>213.55</ele>
        <time>2012-04-09T13:13:25Z</time>
      </trkpt>
      <trkpt lat="43.79016" lon="3.80551">
        <ele>219.32</ele>
        <time>2012-04-09T13:13:31Z</time>
      </trkpt>
      <trkpt lat="43.79005" lon="3.80556">
        <ele>220.28</ele>
        <time>2012-04-09T13:13:32Z</time>
      </trkpt>
      <trkpt lat="43.78992" lon="3.80557">
        <ele>220.76</ele>
        <time>2012-04-09T13:13:33Z</time>
      </trkpt>
      <trkpt lat="43.7898" lon="3.80552">
        <ele>221.72</ele>
        <time>2012-04-09T13:13:34Z</time>
      </trkpt>
      <trkpt lat="43.78967" lon="3.8054">
        <ele>222.2</ele>
        <time>2012-04-09T13:13:35Z</time>
      </trkpt>
      <trkpt lat="43.78954" lon="3.80524">
        <ele>223.16</ele>
        <time>2012-04-09T13:13:36Z</time>
      </trkpt>
      <trkpt lat="43.78941" lon="3.80505">
        <ele>224.12</ele>
        <time>2012-04-09T13:13:37Z</time>
      </trkpt>
      <trkpt lat="43.78928" lon="3.80486">
        <ele>225.09</ele>
        <time>2012-04-09T13:13:38Z</time>
      </trkpt>
      <trkpt lat="43.78849" lon="3.80401">
        <ele>229.89</ele>
        <time>2012-04-09T13:13:44Z</time>
      </trkpt>
      <trkpt lat="43.7884" lon="3.80396">
        <ele>230.37</ele>
        <time>2012-04-09T13:13:45Z</time>
      </trkpt>
      <trkpt lat="43.78833" lon="3.80398">
        <ele>230.37</ele>
        <time>2012-04-09T13:13:46Z</time>
      </trkpt>
      <trkpt lat="43.78827" lon="3.80403">
        <ele>230.37</ele>
        <time>2012-04-09T13:13:47Z</time>
      </trkpt>
      <trkpt lat="43.78823" lon="3.80412">
        <ele>230.37</ele>
        <time>2012-04-09T13:13:48Z</time>
      </trkpt>
      <trkpt lat="43.78821" lon="3.80422">
        <ele>230.37</ele>
        <time>2012-04-09T13:13:49Z</time>
      </trkpt>
      <trkpt lat="43.78823" lon="3.80436">
        <ele>230.85</ele>
        <time>2012-04-09T13:13:50Z</time>
      </trkpt>
      <trkpt lat="43.78829" lon="3.80452">
        <ele>231.33</ele>
        <time>2012-04-09T13:13:51Z</time>
      </trkpt>
      <trkpt lat="43.78836" lon="3.8047">
        <ele>232.3</ele>
        <time>2012-04-09T13:13:52Z</time>
      </trkpt>
      <trkpt lat="43.78846" lon="3.80489">
        <ele>232.78</ele>
        <time>2012-04-09T13:13:53Z</time>
      </trkpt>
      <trkpt lat="43.78857" lon="3.80508">
        <ele>233.74</ele>
        <time>2012-04-09T13:13:54Z</time>
      </trkpt>
      <trkpt lat="43.78869" lon="3.80526">
        <ele>234.22</ele>
        <time>2012-04-09T13:13:55Z</time>
      </trkpt>
      <trkpt lat="43.78882" lon="3.80541">
        <ele>235.18</ele>
        <time>2012-04-09T13:13:56Z</time>
      </trkpt>
      <trkpt lat="43.78895" lon="3.80554">
        <ele>235.66</ele>
        <time>2012-04-09T13:13:57Z</time>
      </trkpt>
      <trkpt lat="43.78906" lon="3.80564">
        <ele>236.62</ele>
        <time>2012-04-09T13:13:58Z</time>
      </trkpt>
      <trkpt lat="43.78922" lon="3.8058">
        <ele>237.58</ele>
        <time>2012-04-09T13:14:00Z</time>
      </trkpt>
      <trkpt lat="43.78927" lon="3.80588">
        <ele>237.58</ele>
        <time>2012-04-09T13:14:01Z</time>
      </trkpt>
      <trkpt lat="43.78929" lon="3.80596">
        <ele>238.06</ele>
        <time>2012-04-09T13:14:02Z</time>
      </trkpt>
      <trkpt lat="43.78924" lon="3.80602">
        <ele>238.54</ele>
        <time>2012-04-09T13:14:03Z</time>
      </trkpt>
      <trkpt lat="43.78918" lon="3.80605">
        <ele>239.02</ele>
        <time>2012-04-09T13:14:04Z</time>
      </trkpt>
      <trkpt lat="43.78912" lon="3.80602">
        <ele>239.02</ele>
        <time>2012-04-09T13:14:05Z</time>
      </trkpt>
      <trkpt lat="43.78905" lon="3.80597">
        <ele>239.51</ele>
        <time>2012-04-09T13:14:06Z</time>
      </trkpt>
      <trkpt lat="43.78896" lon="3.80589">
        <ele>239.99</ele>
        <time>2012-04-09T13:14:07Z</time>
      </trkpt>
      <trkpt lat="43.78885" lon="3.80582">
        <ele>240.47</ele>
        <time>2012-04-09T13:14:08Z</time>
      </trkpt>
      <trkpt lat="43.78873" lon="3.80577">
        <ele>241.43</ele>
        <time>2012-04-09T13:14:09Z</time>
      </trkpt>
      <trkpt lat="43.7886" lon="3.80575">
        <ele>241.91</ele>
        <time>2012-04-09T13:14:10Z</time>
      </trkpt>
      <trkpt lat="43.78849" lon="3.80576">
        <ele>242.39</ele>
        <time>2012-04-09T13:14:11Z</time>
      </trkpt>
      <trkpt lat="43.78838" lon="3.8058">
        <ele>242.87</ele>
        <time>2012-04-09T13:14:12Z</time>
      </trkpt>
      <trkpt lat="43.78828" lon="3.80584">
        <ele>243.35</ele>
        <time>2012-04-09T13:14:13Z</time>
      </trkpt>
      <trkpt lat="43.78812" lon="3.80593">
        <ele>243.83</ele>
        <time>2012-04-09T13:14:15Z</time>
      </trkpt>
      <trkpt lat="43.78807" lon="3.806">
        <ele>243.83</ele>
        <time>2012-04-09T13:14:16Z</time>
      </trkpt>
      <trkpt lat="43.78806" lon="3.8061">
        <ele>244.31</ele>
        <time>2012-04-09T13:14:17Z</time>
      </trkpt>
      <trkpt lat="43.78808" lon="3.80621">
        <ele>244.31</ele>
        <time>2012-04-09T13:14:18Z</time>
      </trkpt>
      <trkpt lat="43.78816" lon="3.80629">
        <ele>244.79</ele>
        <time>2012-04-09T13:14:19Z</time>
      </trkpt>
      <trkpt lat="43.78827" lon="3.80637">
        <ele>245.27</ele>
        <time>2012-04-09T13:14:20Z</time>
      </trkpt>
      <trkpt lat="43.7884" lon="3.80644">
        <ele>245.27</ele>
        <time>2012-04-09T13:14:21Z</time>
      </trkpt>
      <trkpt lat="43.78854" lon="3.80652">
        <ele>245.27</ele>
        <time>2012-04-09T13:14:22Z</time>
      </trkpt>
      <trkpt lat="43.78866" lon="3.80661">
        <ele>245.27</ele>
        <time>2012-04-09T13:14:23Z</time>
      </trkpt>
      <trkpt lat="43.78876" lon="3.80672">
        <ele>245.27</ele>
        <time>2012-04-09T13:14:24Z</time>
      </trkpt>
      <trkpt lat="43.78884" lon="3.80689">
        <ele>244.79</ele>
        <time>2012-04-09T13:14:25Z</time>
      </trkpt>
      <trkpt lat="43.78891" lon="3.8071">
        <ele>244.31</ele>
        <time>2012-04-09T13:14:26Z</time>
      </trkpt>
      <trkpt lat="43.78898" lon="3.80732">
        <ele>243.83</ele>
        <time>2012-04-09T13:14:27Z</time>
      </trkpt>
      <trkpt lat="43.78907" lon="3.80754">
        <ele>242.87</ele>
        <time>2012-04-09T13:14:28Z</time>
      </trkpt>
      <trkpt lat="43.78916" lon="3.80774">
        <ele>241.91</ele>
        <time>2012-04-09T13:14:29Z</time>
      </trkpt>
      <trkpt lat="43.78928" lon="3.80791">
        <ele>241.43</ele>
        <time>2012-04-09T13:14:30Z</time>
      </trkpt>
      <trkpt lat="43.78942" lon="3.80807">
        <ele>240.47</ele>
        <time>2012-04-09T13:14:31Z</time>
      </trkpt>
      <trkpt lat="43.78958" lon="3.80821">
        <ele>239.51</ele>
        <time>2012-04-09T13:14:32Z</time>
      </trkpt>
      <trkpt lat="43.78974" lon="3.80836">
        <ele>239.02</ele>
        <time>2012-04-09T13:14:33Z</time>
      </trkpt>
      <trkpt lat="43.79015" lon="3.8088">
        <ele>236.14</ele>
        <time>2012-04-09T13:14:36Z</time>
      </trkpt>
      <trkpt lat="43.79026" lon="3.80898">
        <ele>235.18</ele>
        <time>2012-04-09T13:14:37Z</time>
      </trkpt>
      <trkpt lat="43.79035" lon="3.80919">
        <ele>234.22</ele>
        <time>2012-04-09T13:14:38Z</time>
      </trkpt>
      <trkpt lat="43.79043" lon="3.8094">
        <ele>233.26</ele>
        <time>2012-04-09T13:14:39Z</time>
      </trkpt>
      <trkpt lat="43.79049" lon="3.80962">
        <ele>232.78</ele>
        <time>2012-04-09T13:14:40Z</time>
      </trkpt>
      <trkpt lat="43.79054" lon="3.80987">
        <ele>231.81</ele>
        <time>2012-04-09T13:14:41Z</time>
      </trkpt>
      <trkpt lat="43.79091" lon="3.81201">
        <ele>224.61</ele>
        <time>2012-04-09T13:14:48Z</time>
      </trkpt>
      <trkpt lat="43.79109" lon="3.8142">
        <ele>217.4</ele>
        <time>2012-04-09T13:14:55Z</time>
      </trkpt>
      <trkpt lat="43.79112" lon="3.81657">
        <ele>210.67</ele>
        <time>2012-04-09T13:15:01Z</time>
      </trkpt>
      <trkpt lat="43.79103" lon="3.8196">
        <ele>202.49</ele>
        <time>2012-04-09T13:15:10Z</time>
      </trkpt>
      <trkpt lat="43.7909" lon="3.82166">
        <ele>196.25</ele>
        <time>2012-04-09T13:15:18Z</time>
      </trkpt>
      <trkpt lat="43.79047" lon="3.82378">
        <ele>189.04</ele>
        <time>2012-04-09T13:15:25Z</time>
      </trkpt>
      <trkpt lat="43.78996" lon="3.82642">
        <ele>180.87</ele>
        <time>2012-04-09T13:15:34Z</time>
      </trkpt>
      <trkpt lat="43.7895" lon="3.82779">
        <ele>177.02</ele>
        <time>2012-04-09T13:15:40Z</time>
      </trkpt>
      <trkpt lat="43.78866" lon="3.83007">
        <ele>170.29</ele>
        <time>2012-04-09T13:15:49Z</time>
      </trkpt>
      <trkpt lat="43.78826" lon="3.83205">
        <ele>164.04</ele>
        <time>2012-04-09T13:15:56Z</time>
      </trkpt>
      <trkpt lat="43.78803" lon="3.8342">
        <ele>157.79</ele>
        <time>2012-04-09T13:16:03Z</time>
      </trkpt>
      <trkpt lat="43.78786" lon="3.83519">
        <ele>155.39</ele>
        <time>2012-04-09T13:16:07Z</time>
      </trkpt>
      <trkpt lat="43.78785" lon="3.83544">
        <ele>154.91</ele>
        <time>2012-04-09T13:16:08Z</time>
      </trkpt>
      <trkpt lat="43.78786" lon="3.83571">
        <ele>153.95</ele>
        <time>2012-04-09T13:16:09Z</time>
      </trkpt>
      <trkpt lat="43.78789" lon="3.83601">
        <ele>152.51</ele>
        <time>2012-04-09T13:16:10Z</time>
      </trkpt>
      <trkpt lat="43.78794" lon="3.83632">
        <ele>152.03</ele>
        <time>2012-04-09T13:16:11Z</time>
      </trkpt>
      <trkpt lat="43.78858" lon="3.83989">
        <ele>140.97</ele>
        <time>2012-04-09T13:16:22Z</time>
      </trkpt>
      <trkpt lat="43.78941" lon="3.84426">
        <ele>130.88</ele>
        <time>2012-04-09T13:16:35Z</time>
      </trkpt>
      <trkpt lat="43.79064" lon="3.84887">
        <ele>126.07</ele>
        <time>2012-04-09T13:16:49Z</time>
      </trkpt>
      <trkpt lat="43.79099" lon="3.85035">
        <ele>126.07</ele>
        <time>2012-04-09T13:16:55Z</time>
      </trkpt>
      <trkpt lat="43.791" lon="3.85063">
        <ele>125.59</ele>
        <time>2012-04-09T13:16:56Z</time>
      </trkpt>
      <trkpt lat="43.791" lon="3.85093">
        <ele>125.59</ele>
        <time>2012-04-09T13:16:57Z</time>
      </trkpt>
      <trkpt lat="43.79083" lon="3.85327">
        <ele>125.11</ele>
        <time>2012-04-09T13:17:05Z</time>
      </trkpt>
      <trkpt lat="43.79056" lon="3.85536">
        <ele>124.63</ele>
        <time>2012-04-09T13:17:13Z</time>
      </trkpt>
      <trkpt lat="43.79049" lon="3.85561">
        <ele>124.63</ele>
        <time>2012-04-09T13:17:14Z</time>
      </trkpt>
      <trkpt lat="43.79039" lon="3.85585">
        <ele>124.63</ele>
        <time>2012-04-09T13:17:15Z</time>
      </trkpt>
      <trkpt lat="43.79028" lon="3.85607">
        <ele>124.63</ele>
        <time>2012-04-09T13:17:16Z</time>
      </trkpt>
      <trkpt lat="43.79012" lon="3.85625">
        <ele>124.63</ele>
        <time>2012-04-09T13:17:17Z</time>
      </trkpt>
      <trkpt lat="43.78997" lon="3.85643">
        <ele>124.63</ele>
        <time>2012-04-09T13:17:18Z</time>
      </trkpt>
      <trkpt lat="43.78981" lon="3.85657">
        <ele>124.63</ele>
        <time>2012-04-09T13:17:19Z</time>
      </trkpt>
      <trkpt lat="43.78965" lon="3.85667">
        <ele>124.63</ele>
        <time>2012-04-09T13:17:20Z</time>
      </trkpt>
      <trkpt lat="43.78949" lon="3.85676">
        <ele>124.15</ele>
        <time>2012-04-09T13:17:21Z</time>
      </trkpt>
      <trkpt lat="43.78934" lon="3.85682">
        <ele>123.67</ele>
        <time>2012-04-09T13:17:22Z</time>
      </trkpt>
      <trkpt lat="43.78918" lon="3.85688">
        <ele>123.67</ele>
        <time>2012-04-09T13:17:23Z</time>
      </trkpt>
      <trkpt lat="43.78901" lon="3.85693">
        <ele>123.67</ele>
        <time>2012-04-09T13:17:24Z</time>
      </trkpt>
      <trkpt lat="43.78711" lon="3.85737">
        <ele>121.74</ele>
        <time>2012-04-09T13:17:34Z</time>
      </trkpt>
      <trkpt lat="43.78473" lon="3.85794">
        <ele>120.3</ele>
        <time>2012-04-09T13:17:45Z</time>
      </trkpt>
      <trkpt lat="43.78378" lon="3.85808">
        <ele>119.82</ele>
        <time>2012-04-09T13:17:50Z</time>
      </trkpt>
      <trkpt lat="43.78358" lon="3.85805">
        <ele>119.82</ele>
        <time>2012-04-09T13:17:51Z</time>
      </trkpt>
      <trkpt lat="43.7813" lon="3.85756">
        <ele>119.82</ele>
        <time>2012-04-09T13:18:01Z</time>
      </trkpt>
      <trkpt lat="43.77989" lon="3.85692">
        <ele>120.3</ele>
        <time>2012-04-09T13:18:08Z</time>
      </trkpt>
      <trkpt lat="43.77944" lon="3.85674">
        <ele>120.3</ele>
        <time>2012-04-09T13:18:11Z</time>
      </trkpt>
      <trkpt lat="43.7793" lon="3.85672">
        <ele>120.3</ele>
        <time>2012-04-09T13:18:12Z</time>
      </trkpt>
      <trkpt lat="43.77917" lon="3.85675">
        <ele>119.82</ele>
        <time>2012-04-09T13:18:13Z</time>
      </trkpt>
      <trkpt lat="43.77905" lon="3.85683">
        <ele>119.82</ele>
        <time>2012-04-09T13:18:14Z</time>
      </trkpt>
      <trkpt lat="43.7789" lon="3.85694">
        <ele>119.34</ele>
        <time>2012-04-09T13:18:15Z</time>
      </trkpt>
      <trkpt lat="43.77875" lon="3.8571">
        <ele>119.34</ele>
        <time>2012-04-09T13:18:16Z</time>
      </trkpt>
      <trkpt lat="43.77859" lon="3.85727">
        <ele>118.86</ele>
        <time>2012-04-09T13:18:17Z</time>
      </trkpt>
      <trkpt lat="43.77774" lon="3.85821">
        <ele>118.38</ele>
        <time>2012-04-09T13:18:23Z</time>
      </trkpt>
      <trkpt lat="43.77763" lon="3.85839">
        <ele>118.38</ele>
        <time>2012-04-09T13:18:24Z</time>
      </trkpt>
      <trkpt lat="43.77754" lon="3.85861">
        <ele>117.9</ele>
        <time>2012-04-09T13:18:25Z</time>
      </trkpt>
      <trkpt lat="43.77746" lon="3.85887">
        <ele>117.9</ele>
        <time>2012-04-09T13:18:26Z</time>
      </trkpt>
      <trkpt lat="43.77737" lon="3.85915">
        <ele>117.9</ele>
        <time>2012-04-09T13:18:27Z</time>
      </trkpt>
      <trkpt lat="43.7762" lon="3.86317">
        <ele>107.81</ele>
        <time>2012-04-09T13:18:41Z</time>
      </trkpt>
      <trkpt lat="43.77501" lon="3.86712">
        <ele>110.69</ele>
        <time>2012-04-09T13:18:55Z</time>
      </trkpt>
      <trkpt lat="43.77449" lon="3.86881">
        <ele>113.57</ele>
        <time>2012-04-09T13:19:03Z</time>
      </trkpt>
      <trkpt lat="43.77442" lon="3.86922">
        <ele>113.57</ele>
        <time>2012-04-09T13:19:06Z</time>
      </trkpt>
      <trkpt lat="43.7744" lon="3.86926">
        <ele>114.05</ele>
        <time>2012-04-09T13:19:07Z</time>
      </trkpt>
      <trkpt lat="43.77436" lon="3.86929">
        <ele>114.05</ele>
        <time>2012-04-09T13:19:08Z</time>
      </trkpt>
      <trkpt lat="43.77432" lon="3.86932">
        <ele>113.57</ele>
        <time>2012-04-09T13:19:09Z</time>
      </trkpt>
      <trkpt lat="43.77425" lon="3.86934">
        <ele>113.57</ele>
        <time>2012-04-09T13:19:10Z</time>
      </trkpt>
      <trkpt lat="43.77417" lon="3.86937">
        <ele>113.57</ele>
        <time>2012-04-09T13:19:11Z</time>
      </trkpt>
      <trkpt lat="43.7741" lon="3.86941">
        <ele>113.57</ele>
        <time>2012-04-09T13:19:12Z</time>
      </trkpt>
      <trkpt lat="43.77402" lon="3.86948">
        <ele>113.57</ele>
        <time>2012-04-09T13:19:13Z</time>
      </trkpt>
      <trkpt lat="43.77396" lon="3.86958">
        <ele>113.09</ele>
        <time>2012-04-09T13:19:14Z</time>
      </trkpt>
      <trkpt lat="43.77392" lon="3.86971">
        <ele>113.09</ele>
        <time>2012-04-09T13:19:15Z</time>
      </trkpt>
      <trkpt lat="43.7739" lon="3.86986">
        <ele>112.61</ele>
        <time>2012-04-09T13:19:16Z</time>
      </trkpt>
      <trkpt lat="43.77392" lon="3.87">
        <ele>112.61</ele>
        <time>2012-04-09T13:19:17Z</time>
      </trkpt>
      <trkpt lat="43.77397" lon="3.87013">
        <ele>112.13</ele>
        <time>2012-04-09T13:19:18Z</time>
      </trkpt>
      <trkpt lat="43.77403" lon="3.87026">
        <ele>112.13</ele>
        <time>2012-04-09T13:19:19Z</time>
      </trkpt>
      <trkpt lat="43.77409" lon="3.87038">
        <ele>111.65</ele>
        <time>2012-04-09T13:19:20Z</time>
      </trkpt>
      <trkpt lat="43.77414" lon="3.87053">
        <ele>111.65</ele>
        <time>2012-04-09T13:19:21Z</time>
      </trkpt>
      <trkpt lat="43.77414" lon="3.8707">
        <ele>111.65</ele>
        <time>2012-04-09T13:19:22Z</time>
      </trkpt>
      <trkpt lat="43.77413" lon="3.87089">
        <ele>111.65</ele>
        <time>2012-04-09T13:19:23Z</time>
      </trkpt>
      <trkpt lat="43.77411" lon="3.8711">
        <ele>111.65</ele>
        <time>2012-04-09T13:19:24Z</time>
      </trkpt>
      <trkpt lat="43.77396" lon="3.87337">
        <ele>110.21</ele>
        <time>2012-04-09T13:19:33Z</time>
      </trkpt>
      <trkpt lat="43.77362" lon="3.87677">
        <ele>113.09</ele>
        <time>2012-04-09T13:19:45Z</time>
      </trkpt>
      <trkpt lat="43.77362" lon="3.87706">
        <ele>113.09</ele>
        <time>2012-04-09T13:19:46Z</time>
      </trkpt>
      <trkpt lat="43.77364" lon="3.87735">
        <ele>113.09</ele>
        <time>2012-04-09T13:19:47Z</time>
      </trkpt>
      <trkpt lat="43.77368" lon="3.87766">
        <ele>113.09</ele>
        <time>2012-04-09T13:19:48Z</time>
      </trkpt>
      <trkpt lat="43.77373" lon="3.87796">
        <ele>113.57</ele>
        <time>2012-04-09T13:19:49Z</time>
      </trkpt>
      <trkpt lat="43.7738" lon="3.87828">
        <ele>113.57</ele>
        <time>2012-04-09T13:19:50Z</time>
      </trkpt>
      <trkpt lat="43.77493" lon="3.88278">
        <ele>119.82</ele>
        <time>2012-04-09T13:20:04Z</time>
      </trkpt>
      <trkpt lat="43.77609" lon="3.88623">
        <ele>125.11</ele>
        <time>2012-04-09T13:20:15Z</time>
      </trkpt>
      <trkpt lat="43.77708" lon="3.88982">
        <ele>124.15</ele>
        <time>2012-04-09T13:20:26Z</time>
      </trkpt>
      <trkpt lat="43.7779" lon="3.89634">
        <ele>116.94</ele>
        <time>2012-04-09T13:20:44Z</time>
      </trkpt>
      <trkpt lat="43.77872" lon="3.90291">
        <ele>113.09</ele>
        <time>2012-04-09T13:21:02Z</time>
      </trkpt>
      <trkpt lat="43.77941" lon="3.90768">
        <ele>112.61</ele>
        <time>2012-04-09T13:21:16Z</time>
      </trkpt>
      <trkpt lat="43.77999" lon="3.91027">
        <ele>112.13</ele>
        <time>2012-04-09T13:21:26Z</time>
      </trkpt>
      <trkpt lat="43.78013" lon="3.91208">
        <ele>111.17</ele>
        <time>2012-04-09T13:21:33Z</time>
      </trkpt>
      <trkpt lat="43.78008" lon="3.91414">
        <ele>110.69</ele>
        <time>2012-04-09T13:21:39Z</time>
      </trkpt>
      <trkpt lat="43.7801" lon="3.91808">
        <ele>112.13</ele>
        <time>2012-04-09T13:21:50Z</time>
      </trkpt>
      <trkpt lat="43.78025" lon="3.91942">
        <ele>113.57</ele>
        <time>2012-04-09T13:21:54Z</time>
      </trkpt>
      <trkpt lat="43.78033" lon="3.91975">
        <ele>114.05</ele>
        <time>2012-04-09T13:21:55Z</time>
      </trkpt>
      <trkpt lat="43.78069" lon="3.921">
        <ele>116.46</ele>
        <time>2012-04-09T13:21:59Z</time>
      </trkpt>
      <trkpt lat="43.78074" lon="3.92133">
        <ele>116.94</ele>
        <time>2012-04-09T13:22:00Z</time>
      </trkpt>
      <trkpt lat="43.78076" lon="3.92168">
        <ele>117.42</ele>
        <time>2012-04-09T13:22:01Z</time>
      </trkpt>
      <trkpt lat="43.78076" lon="3.92206">
        <ele>117.9</ele>
        <time>2012-04-09T13:22:02Z</time>
      </trkpt>
      <trkpt lat="43.78076" lon="3.92243">
        <ele>118.38</ele>
        <time>2012-04-09T13:22:03Z</time>
      </trkpt>
      <trkpt lat="43.7807" lon="3.9243">
        <ele>120.78</ele>
        <time>2012-04-09T13:22:09Z</time>
      </trkpt>
      <trkpt lat="43.78062" lon="3.92631">
        <ele>118.38</ele>
        <time>2012-04-09T13:22:15Z</time>
      </trkpt>
      <trkpt lat="43.78073" lon="3.92876">
        <ele>115.5</ele>
        <time>2012-04-09T13:22:22Z</time>
      </trkpt>
      <trkpt lat="43.78077" lon="3.92905">
        <ele>115.01</ele>
        <time>2012-04-09T13:22:23Z</time>
      </trkpt>
      <trkpt lat="43.78084" lon="3.92932">
        <ele>114.53</ele>
        <time>2012-04-09T13:22:24Z</time>
      </trkpt>
      <trkpt lat="43.78098" lon="3.92981">
        <ele>113.57</ele>
        <time>2012-04-09T13:22:26Z</time>
      </trkpt>
      <trkpt lat="43.78102" lon="3.93007">
        <ele>113.09</ele>
        <time>2012-04-09T13:22:27Z</time>
      </trkpt>
      <trkpt lat="43.78104" lon="3.93035">
        <ele>112.61</ele>
        <time>2012-04-09T13:22:28Z</time>
      </trkpt>
      <trkpt lat="43.78104" lon="3.93064">
        <ele>112.61</ele>
        <time>2012-04-09T13:22:29Z</time>
      </trkpt>
      <trkpt lat="43.78104" lon="3.93094">
        <ele>112.13</ele>
        <time>2012-04-09T13:22:30Z</time>
      </trkpt>
      <trkpt lat="43.781" lon="3.93174">
        <ele>111.17</ele>
        <time>2012-04-09T13:22:33Z</time>
      </trkpt>
      <trkpt lat="43.78095" lon="3.93198">
        <ele>110.69</ele>
        <time>2012-04-09T13:22:34Z</time>
      </trkpt>
      <trkpt lat="43.78087" lon="3.93221">
        <ele>110.21</ele>
        <time>2012-04-09T13:22:35Z</time>
      </trkpt>
      <trkpt lat="43.78076" lon="3.93242">
        <ele>109.73</ele>
        <time>2012-04-09T13:22:36Z</time>
      </trkpt>
      <trkpt lat="43.7806" lon="3.93259">
        <ele>110.21</ele>
        <time>2012-04-09T13:22:37Z</time>
      </trkpt>
      <trkpt lat="43.78043" lon="3.93275">
        <ele>110.69</ele>
        <time>2012-04-09T13:22:38Z</time>
      </trkpt>
      <trkpt lat="43.78024" lon="3.93292">
        <ele>111.17</ele>
        <time>2012-04-09T13:22:39Z</time>
      </trkpt>
      <trkpt lat="43.77929" lon="3.93365">
        <ele>115.01</ele>
        <time>2012-04-09T13:22:44Z</time>
      </trkpt>
      <trkpt lat="43.7791" lon="3.93373">
        <ele>115.5</ele>
        <time>2012-04-09T13:22:45Z</time>
      </trkpt>
      <trkpt lat="43.77891" lon="3.93378">
        <ele>116.46</ele>
        <time>2012-04-09T13:22:46Z</time>
      </trkpt>
      <trkpt lat="43.77759" lon="3.93398">
        <ele>119.82</ele>
        <time>2012-04-09T13:22:52Z</time>
      </trkpt>
      <trkpt lat="43.77736" lon="3.93406">
        <ele>119.82</ele>
        <time>2012-04-09T13:22:53Z</time>
      </trkpt>
      <trkpt lat="43.77672" lon="3.93429">
        <ele>121.26</ele>
        <time>2012-04-09T13:22:56Z</time>
      </trkpt>
      <trkpt lat="43.77649" lon="3.93431">
        <ele>121.74</ele>
        <time>2012-04-09T13:22:57Z</time>
      </trkpt>
      <trkpt lat="43.77341" lon="3.93456">
        <ele>125.59</ele>
        <time>2012-04-09T13:23:10Z</time>
      </trkpt>
      <trkpt lat="43.77191" lon="3.93528">
        <ele>127.03</ele>
        <time>2012-04-09T13:23:17Z</time>
      </trkpt>
      <trkpt lat="43.77173" lon="3.93547">
        <ele>127.51</ele>
        <time>2012-04-09T13:23:18Z</time>
      </trkpt>
      <trkpt lat="43.77156" lon="3.93571">
        <ele>127.99</ele>
        <time>2012-04-09T13:23:19Z</time>
      </trkpt>
      <trkpt lat="43.7714" lon="3.93597">
        <ele>128.47</ele>
        <time>2012-04-09T13:23:20Z</time>
      </trkpt>
      <trkpt lat="43.77123" lon="3.93624">
        <ele>128.95</ele>
        <time>2012-04-09T13:23:21Z</time>
      </trkpt>
      <trkpt lat="43.77009" lon="3.93812">
        <ele>132.32</ele>
        <time>2012-04-09T13:23:28Z</time>
      </trkpt>
      <trkpt lat="43.76998" lon="3.93839">
        <ele>132.32</ele>
        <time>2012-04-09T13:23:29Z</time>
      </trkpt>
      <trkpt lat="43.76987" lon="3.93868">
        <ele>132.32</ele>
        <time>2012-04-09T13:23:30Z</time>
      </trkpt>
      <trkpt lat="43.76979" lon="3.93898">
        <ele>132.32</ele>
        <time>2012-04-09T13:23:31Z</time>
      </trkpt>
      <trkpt lat="43.76972" lon="3.9393">
        <ele>132.8</ele>
        <time>2012-04-09T13:23:32Z</time>
      </trkpt>
      <trkpt lat="43.76967" lon="3.93964">
        <ele>132.8</ele>
        <time>2012-04-09T13:23:33Z</time>
      </trkpt>
      <trkpt lat="43.76964" lon="3.93998">
        <ele>132.8</ele>
        <time>2012-04-09T13:23:34Z</time>
      </trkpt>
      <trkpt lat="43.76963" lon="3.94032">
        <ele>132.8</ele>
        <time>2012-04-09T13:23:35Z</time>
      </trkpt>
      <trkpt lat="43.76964" lon="3.94067">
        <ele>132.8</ele>
        <time>2012-04-09T13:23:36Z</time>
      </trkpt>
      <trkpt lat="43.76967" lon="3.94103">
        <ele>132.8</ele>
        <time>2012-04-09T13:23:37Z</time>
      </trkpt>
      <trkpt lat="43.76971" lon="3.9414">
        <ele>132.8</ele>
        <time>2012-04-09T13:23:38Z</time>
      </trkpt>
      <trkpt lat="43.77013" lon="3.94383">
        <ele>130.88</ele>
        <time>2012-04-09T13:23:45Z</time>
      </trkpt>
      <trkpt lat="43.77042" lon="3.94547">
        <ele>130.4</ele>
        <time>2012-04-09T13:23:52Z</time>
      </trkpt>
      <trkpt lat="43.77048" lon="3.94603">
        <ele>130.88</ele>
        <time>2012-04-09T13:23:56Z</time>
      </trkpt>
      <trkpt lat="43.77051" lon="3.94614">
        <ele>130.4</ele>
        <time>2012-04-09T13:23:57Z</time>
      </trkpt>
      <trkpt lat="43.77058" lon="3.94641">
        <ele>130.4</ele>
        <time>2012-04-09T13:23:59Z</time>
      </trkpt>
      <trkpt lat="43.7706" lon="3.94657">
        <ele>129.92</ele>
        <time>2012-04-09T13:24:00Z</time>
      </trkpt>
      <trkpt lat="43.77062" lon="3.94675">
        <ele>129.92</ele>
        <time>2012-04-09T13:24:01Z</time>
      </trkpt>
      <trkpt lat="43.77062" lon="3.94693">
        <ele>129.92</ele>
        <time>2012-04-09T13:24:02Z</time>
      </trkpt>
      <trkpt lat="43.77062" lon="3.94712">
        <ele>129.43</ele>
        <time>2012-04-09T13:24:03Z</time>
      </trkpt>
      <trkpt lat="43.7706" lon="3.94731">
        <ele>128.95</ele>
        <time>2012-04-09T13:24:04Z</time>
      </trkpt>
      <trkpt lat="43.77057" lon="3.94749">
        <ele>128.47</ele>
        <time>2012-04-09T13:24:05Z</time>
      </trkpt>
      <trkpt lat="43.77053" lon="3.94767">
        <ele>127.99</ele>
        <time>2012-04-09T13:24:06Z</time>
      </trkpt>
      <trkpt lat="43.77048" lon="3.94785">
        <ele>127.51</ele>
        <time>2012-04-09T13:24:07Z</time>
      </trkpt>
      <trkpt lat="43.77042" lon="3.94802">
        <ele>127.03</ele>
        <time>2012-04-09T13:24:08Z</time>
      </trkpt>
      <trkpt lat="43.76993" lon="3.94935">
        <ele>123.67</ele>
        <time>2012-04-09T13:24:16Z</time>
      </trkpt>
      <trkpt lat="43.76983" lon="3.94978">
        <ele>121.74</ele>
        <time>2012-04-09T13:24:19Z</time>
      </trkpt>
      <trkpt lat="43.76979" lon="3.94989">
        <ele>121.26</ele>
        <time>2012-04-09T13:24:20Z</time>
      </trkpt>
      <trkpt lat="43.76974" lon="3.94994">
        <ele>121.26</ele>
        <time>2012-04-09T13:24:21Z</time>
      </trkpt>
      <trkpt lat="43.7697" lon="3.95">
        <ele>120.78</ele>
        <time>2012-04-09T13:24:22Z</time>
      </trkpt>
      <trkpt lat="43.76968" lon="3.95007">
        <ele>120.3</ele>
        <time>2012-04-09T13:24:23Z</time>
      </trkpt>
      <trkpt lat="43.76969" lon="3.95016">
        <ele>120.3</ele>
        <time>2012-04-09T13:24:24Z</time>
      </trkpt>
      <trkpt lat="43.76972" lon="3.95026">
        <ele>120.3</ele>
        <time>2012-04-09T13:24:25Z</time>
      </trkpt>
      <trkpt lat="43.76974" lon="3.95036">
        <ele>119.82</ele>
        <time>2012-04-09T13:24:26Z</time>
      </trkpt>
      <trkpt lat="43.76973" lon="3.95047">
        <ele>119.34</ele>
        <time>2012-04-09T13:24:27Z</time>
      </trkpt>
      <trkpt lat="43.7697" lon="3.9506">
        <ele>119.34</ele>
        <time>2012-04-09T13:24:28Z</time>
      </trkpt>
      <trkpt lat="43.76968" lon="3.95074">
        <ele>118.86</ele>
        <time>2012-04-09T13:24:29Z</time>
      </trkpt>
      <trkpt lat="43.7695" lon="3.95184">
        <ele>115.5</ele>
        <time>2012-04-09T13:24:39Z</time>
      </trkpt>
      <trkpt lat="43.76944" lon="3.95269">
        <ele>113.57</ele>
        <time>2012-04-09T13:24:47Z</time>
      </trkpt>
      <trkpt lat="43.76935" lon="3.95394">
        <ele>112.13</ele>
        <time>2012-04-09T13:24:58Z</time>
      </trkpt>
      <trkpt lat="43.76934" lon="3.95454">
        <ele>111.65</ele>
        <time>2012-04-09T13:25:04Z</time>
      </trkpt>
      <trkpt lat="43.76937" lon="3.95464">
        <ele>111.65</ele>
        <time>2012-04-09T13:25:05Z</time>
      </trkpt>
      <trkpt lat="43.76973" lon="3.95604">
        <ele>112.13</ele>
        <time>2012-04-09T13:25:17Z</time>
      </trkpt>
      <trkpt lat="43.7701" lon="3.95702">
        <ele>112.61</ele>
        <time>2012-04-09T13:25:28Z</time>
      </trkpt>
      <trkpt lat="43.77051" lon="3.95826">
        <ele>111.17</ele>
        <time>2012-04-09T13:25:40Z</time>
      </trkpt>
      <trkpt lat="43.77051" lon="3.95837">
        <ele>110.69</ele>
        <time>2012-04-09T13:25:41Z</time>
      </trkpt>
      <trkpt lat="43.77049" lon="3.95848">
        <ele>110.21</ele>
        <time>2012-04-09T13:25:42Z</time>
      </trkpt>
      <trkpt lat="43.77047" lon="3.95858">
        <ele>109.73</ele>
        <time>2012-04-09T13:25:43Z</time>
      </trkpt>
      <trkpt lat="43.77045" lon="3.95866">
        <ele>109.25</ele>
        <time>2012-04-09T13:25:44Z</time>
      </trkpt>
      <trkpt lat="43.77039" lon="3.9588">
        <ele>109.25</ele>
        <time>2012-04-09T13:25:50Z</time>
      </trkpt>
      <trkpt lat="43.77038" lon="3.95886">
        <ele>109.25</ele>
        <time>2012-04-09T13:25:51Z</time>
      </trkpt>
      <trkpt lat="43.77037" lon="3.95895">
        <ele>109.25</ele>
        <time>2012-04-09T13:25:52Z</time>
      </trkpt>
      <trkpt lat="43.77036" lon="3.95905">
        <ele>108.77</ele>
        <time>2012-04-09T13:25:53Z</time>
      </trkpt>
      <trkpt lat="43.77033" lon="3.95917">
        <ele>108.77</ele>
        <time>2012-04-09T13:25:54Z</time>
      </trkpt>
      <trkpt lat="43.77029" lon="3.9593">
        <ele>108.77</ele>
        <time>2012-04-09T13:25:55Z</time>
      </trkpt>
      <trkpt lat="43.76999" lon="3.96089">
        <ele>103.96</ele>
        <time>2012-04-09T13:26:04Z</time>
      </trkpt>
      <trkpt lat="43.76954" lon="3.96313">
        <ele>97.23</ele>
        <time>2012-04-09T13:26:14Z</time>
      </trkpt>
      <trkpt lat="43.76906" lon="3.96516">
        <ele>90.02</ele>
        <time>2012-04-09T13:26:20Z</time>
      </trkpt>
      <trkpt lat="43.76887" lon="3.96816">
        <ele>85.21</ele>
        <time>2012-04-09T13:26:28Z</time>
      </trkpt>
      <trkpt lat="43.76857" lon="3.97056">
        <ele>83.29</ele>
        <time>2012-04-09T13:26:35Z</time>
      </trkpt>
      <trkpt lat="43.768" lon="3.97351">
        <ele>80.89</ele>
        <time>2012-04-09T13:26:43Z</time>
      </trkpt>
      <trkpt lat="43.76758" lon="3.97765">
        <ele>76.56</ele>
        <time>2012-04-09T13:26:54Z</time>
      </trkpt>
      <trkpt lat="43.76765" lon="3.97981">
        <ele>74.64</ele>
        <time>2012-04-09T13:27:01Z</time>
      </trkpt>
      <trkpt lat="43.76795" lon="3.98256">
        <ele>73.2</ele>
        <time>2012-04-09T13:27:09Z</time>
      </trkpt>
      <trkpt lat="43.7679" lon="3.98507">
        <ele>72.72</ele>
        <time>2012-04-09T13:27:16Z</time>
      </trkpt>
      <trkpt lat="43.76774" lon="3.98702">
        <ele>75.6</ele>
        <time>2012-04-09T13:27:22Z</time>
      </trkpt>
      <trkpt lat="43.76778" lon="3.98736">
        <ele>76.56</ele>
        <time>2012-04-09T13:27:23Z</time>
      </trkpt>
      <trkpt lat="43.7683" lon="3.99009">
        <ele>82.81</ele>
        <time>2012-04-09T13:27:31Z</time>
      </trkpt>
      <trkpt lat="43.76866" lon="3.99234">
        <ele>84.73</ele>
        <time>2012-04-09T13:27:38Z</time>
      </trkpt>
      <trkpt lat="43.7691" lon="3.99452">
        <ele>80.89</ele>
        <time>2012-04-09T13:27:45Z</time>
      </trkpt>
      <trkpt lat="43.76929" lon="3.99622">
        <ele>78</ele>
        <time>2012-04-09T13:27:51Z</time>
      </trkpt>
      <trkpt lat="43.76965" lon="3.99807">
        <ele>70.31</ele>
        <time>2012-04-09T13:27:59Z</time>
      </trkpt>
      <trkpt lat="43.76977" lon="3.99872">
        <ele>67.91</ele>
        <time>2012-04-09T13:28:02Z</time>
      </trkpt>
      <trkpt lat="43.76978" lon="3.99894">
        <ele>66.95</ele>
        <time>2012-04-09T13:28:03Z</time>
      </trkpt>
      <trkpt lat="43.76977" lon="3.99917">
        <ele>66.47</ele>
        <time>2012-04-09T13:28:04Z</time>
      </trkpt>
      <trkpt lat="43.76971" lon="4.00086">
        <ele>66.95</ele>
        <time>2012-04-09T13:28:11Z</time>
      </trkpt>
      <trkpt lat="43.76974" lon="4.00111">
        <ele>67.43</ele>
        <time>2012-04-09T13:28:12Z</time>
      </trkpt>
      <trkpt lat="43.76979" lon="4.00133">
        <ele>67.91</ele>
        <time>2012-04-09T13:28:13Z</time>
      </trkpt>
      <trkpt lat="43.76985" lon="4.00153">
        <ele>68.39</ele>
        <time>2012-04-09T13:28:14Z</time>
      </trkpt>
      <trkpt lat="43.76992" lon="4.00171">
        <ele>68.87</ele>
        <time>2012-04-09T13:28:15Z</time>
      </trkpt>
      <trkpt lat="43.76997" lon="4.00188">
        <ele>68.87</ele>
        <time>2012-04-09T13:28:16Z</time>
      </trkpt>
      <trkpt lat="43.77" lon="4.00205">
        <ele>69.35</ele>
        <time>2012-04-09T13:28:17Z</time>
      </trkpt>
      <trkpt lat="43.77001" lon="4.00221">
        <ele>69.83</ele>
        <time>2012-04-09T13:28:18Z</time>
      </trkpt>
      <trkpt lat="43.77" lon="4.00236">
        <ele>69.83</ele>
        <time>2012-04-09T13:28:19Z</time>
      </trkpt>
      <trkpt lat="43.76997" lon="4.0025">
        <ele>70.31</ele>
        <time>2012-04-09T13:28:20Z</time>
      </trkpt>
      <trkpt lat="43.76994" lon="4.00263">
        <ele>70.31</ele>
        <time>2012-04-09T13:28:21Z</time>
      </trkpt>
      <trkpt lat="43.76989" lon="4.00275">
        <ele>69.83</ele>
        <time>2012-04-09T13:28:22Z</time>
      </trkpt>
      <trkpt lat="43.76983" lon="4.00286">
        <ele>69.83</ele>
        <time>2012-04-09T13:28:23Z</time>
      </trkpt>
      <trkpt lat="43.76978" lon="4.00296">
        <ele>69.35</ele>
        <time>2012-04-09T13:28:24Z</time>
      </trkpt>
      <trkpt lat="43.76968" lon="4.00316">
        <ele>69.35</ele>
        <time>2012-04-09T13:28:26Z</time>
      </trkpt>
      <trkpt lat="43.76965" lon="4.00327">
        <ele>68.87</ele>
        <time>2012-04-09T13:28:27Z</time>
      </trkpt>
      <trkpt lat="43.76963" lon="4.00337">
        <ele>68.87</ele>
        <time>2012-04-09T13:28:28Z</time>
      </trkpt>
      <trkpt lat="43.76962" lon="4.0035">
        <ele>68.39</ele>
        <time>2012-04-09T13:28:30Z</time>
      </trkpt>
      <trkpt lat="43.76964" lon="4.00367">
        <ele>67.91</ele>
        <time>2012-04-09T13:28:33Z</time>
      </trkpt>
      <trkpt lat="43.76965" lon="4.00375">
        <ele>67.43</ele>
        <time>2012-04-09T13:28:34Z</time>
      </trkpt>
      <trkpt lat="43.76968" lon="4.00383">
        <ele>67.43</ele>
        <time>2012-04-09T13:28:35Z</time>
      </trkpt>
      <trkpt lat="43.76972" lon="4.0039">
        <ele>66.95</ele>
        <time>2012-04-09T13:28:36Z</time>
      </trkpt>
      <trkpt lat="43.76977" lon="4.00396">
        <ele>66.95</ele>
        <time>2012-04-09T13:28:37Z</time>
      </trkpt>
      <trkpt lat="43.76981" lon="4.00402">
        <ele>66.95</ele>
        <time>2012-04-09T13:28:38Z</time>
      </trkpt>
      <trkpt lat="43.76985" lon="4.00406">
        <ele>66.95</ele>
        <time>2012-04-09T13:28:39Z</time>
      </trkpt>
      <trkpt lat="43.77016" lon="4.00434">
        <ele>66.47</ele>
        <time>2012-04-09T13:28:45Z</time>
      </trkpt>
      <trkpt lat="43.77021" lon="4.00442">
        <ele>65.99</ele>
        <time>2012-04-09T13:28:46Z</time>
      </trkpt>
      <trkpt lat="43.77026" lon="4.00449">
        <ele>65.99</ele>
        <time>2012-04-09T13:28:47Z</time>
      </trkpt>
      <trkpt lat="43.77028" lon="4.00459">
        <ele>65.51</ele>
        <time>2012-04-09T13:28:48Z</time>
      </trkpt>
      <trkpt lat="43.77031" lon="4.00469">
        <ele>65.51</ele>
        <time>2012-04-09T13:28:49Z</time>
      </trkpt>
      <trkpt lat="43.77073" lon="4.00574">
        <ele>62.14</ele>
        <time>2012-04-09T13:29:00Z</time>
      </trkpt>
      <trkpt lat="43.77103" lon="4.00607">
        <ele>60.7</ele>
        <time>2012-04-09T13:29:07Z</time>
      </trkpt>
      <trkpt lat="43.77153" lon="4.00638">
        <ele>60.22</ele>
        <time>2012-04-09T13:29:14Z</time>
      </trkpt>
      <trkpt lat="43.77206" lon="4.00668">
        <ele>59.74</ele>
        <time>2012-04-09T13:29:23Z</time>
      </trkpt>
      <trkpt lat="43.77215" lon="4.00674">
        <ele>59.74</ele>
        <time>2012-04-09T13:29:24Z</time>
      </trkpt>
      <trkpt lat="43.77223" lon="4.00683">
        <ele>59.74</ele>
        <time>2012-04-09T13:29:25Z</time>
      </trkpt>
      <trkpt lat="43.77231" lon="4.00694">
        <ele>59.26</ele>
        <time>2012-04-09T13:29:26Z</time>
      </trkpt>
      <trkpt lat="43.77236" lon="4.00706">
        <ele>59.26</ele>
        <time>2012-04-09T13:29:27Z</time>
      </trkpt>
      <trkpt lat="43.7724" lon="4.00721">
        <ele>59.26</ele>
        <time>2012-04-09T13:29:28Z</time>
      </trkpt>
      <trkpt lat="43.77241" lon="4.00736">
        <ele>58.78</ele>
        <time>2012-04-09T13:29:29Z</time>
      </trkpt>
      <trkpt lat="43.7724" lon="4.00753">
        <ele>58.78</ele>
        <time>2012-04-09T13:29:30Z</time>
      </trkpt>
      <trkpt lat="43.77238" lon="4.0077">
        <ele>58.78</ele>
        <time>2012-04-09T13:29:31Z</time>
      </trkpt>
      <trkpt lat="43.77234" lon="4.00787">
        <ele>58.3</ele>
        <time>2012-04-09T13:29:32Z</time>
      </trkpt>
      <trkpt lat="43.7723" lon="4.00802">
        <ele>58.3</ele>
        <time>2012-04-09T13:29:33Z</time>
      </trkpt>
      <trkpt lat="43.77221" lon="4.00826">
        <ele>57.82</ele>
        <time>2012-04-09T13:29:36Z</time>
      </trkpt>
      <trkpt lat="43.7722" lon="4.00828">
        <ele>57.82</ele>
        <time>2012-04-09T13:29:37Z</time>
      </trkpt>
      <trkpt lat="43.77218" lon="4.00829">
        <ele>57.82</ele>
        <time>2012-04-09T13:29:38Z</time>
      </trkpt>
      <trkpt lat="43.77217" lon="4.0083">
        <ele>57.34</ele>
        <time>2012-04-09T13:29:39Z</time>
      </trkpt>
      <trkpt lat="43.77216" lon="4.0083">
        <ele>60.22</ele>
        <time>2012-04-09T13:29:59Z</time>
      </trkpt>
      <trkpt lat="43.77207" lon="4.0087">
        <ele>61.18</ele>
        <time>2012-04-09T13:30:21Z</time>
      </trkpt>
      <trkpt lat="43.77168" lon="4.01014">
        <ele>58.3</ele>
        <time>2012-04-09T13:30:29Z</time>
      </trkpt>
      <trkpt lat="43.77095" lon="4.01292">
        <ele>56.86</ele>
        <time>2012-04-09T13:30:43Z</time>
      </trkpt>
      <trkpt lat="43.77026" lon="4.01554">
        <ele>53.49</ele>
        <time>2012-04-09T13:30:56Z</time>
      </trkpt>
      <trkpt lat="43.76981" lon="4.01786">
        <ele>51.09</ele>
        <time>2012-04-09T13:31:08Z</time>
      </trkpt>
      <trkpt lat="43.76996" lon="4.01924">
        <ele>50.61</ele>
        <time>2012-04-09T13:31:17Z</time>
      </trkpt>
      <trkpt lat="43.77021" lon="4.02048">
        <ele>50.61</ele>
        <time>2012-04-09T13:31:29Z</time>
      </trkpt>
      <trkpt lat="43.77026" lon="4.02069">
        <ele>50.61</ele>
        <time>2012-04-09T13:31:31Z</time>
      </trkpt>
      <trkpt lat="43.77029" lon="4.02079">
        <ele>50.61</ele>
        <time>2012-04-09T13:31:32Z</time>
      </trkpt>
      <trkpt lat="43.77033" lon="4.02086">
        <ele>51.09</ele>
        <time>2012-04-09T13:31:33Z</time>
      </trkpt>
      <trkpt lat="43.77035" lon="4.02092">
        <ele>51.09</ele>
        <time>2012-04-09T13:31:34Z</time>
      </trkpt>
      <trkpt lat="43.77038" lon="4.02096">
        <ele>51.09</ele>
        <time>2012-04-09T13:31:35Z</time>
      </trkpt>
      <trkpt lat="43.77056" lon="4.02138">
        <ele>52.53</ele>
        <time>2012-04-09T13:31:43Z</time>
      </trkpt>
      <trkpt lat="43.77061" lon="4.02144">
        <ele>52.53</ele>
        <time>2012-04-09T13:31:44Z</time>
      </trkpt>
      <trkpt lat="43.77138" lon="4.02244">
        <ele>52.53</ele>
        <time>2012-04-09T13:31:57Z</time>
      </trkpt>
      <trkpt lat="43.77156" lon="4.02275">
        <ele>52.53</ele>
        <time>2012-04-09T13:32:00Z</time>
      </trkpt>
      <trkpt lat="43.7716" lon="4.02287">
        <ele>52.05</ele>
        <time>2012-04-09T13:32:01Z</time>
      </trkpt>
      <trkpt lat="43.77163" lon="4.023">
        <ele>52.05</ele>
        <time>2012-04-09T13:32:02Z</time>
      </trkpt>
      <trkpt lat="43.77165" lon="4.02315">
        <ele>52.05</ele>
        <time>2012-04-09T13:32:03Z</time>
      </trkpt>
      <trkpt lat="43.77167" lon="4.02331">
        <ele>52.05</ele>
        <time>2012-04-09T13:32:04Z</time>
      </trkpt>
      <trkpt lat="43.77198" lon="4.02558">
        <ele>50.13</ele>
        <time>2012-04-09T13:32:18Z</time>
      </trkpt>
      <trkpt lat="43.77216" lon="4.02702">
        <ele>48.68</ele>
        <time>2012-04-09T13:32:25Z</time>
      </trkpt>
      <trkpt lat="43.77245" lon="4.02914">
        <ele>45.32</ele>
        <time>2012-04-09T13:32:32Z</time>
      </trkpt>
      <trkpt lat="43.77294" lon="4.03268">
        <ele>44.84</ele>
        <time>2012-04-09T13:32:43Z</time>
      </trkpt>
      <trkpt lat="43.77341" lon="4.03448">
        <ele>44.84</ele>
        <time>2012-04-09T13:32:49Z</time>
      </trkpt>
      <trkpt lat="43.77357" lon="4.03495">
        <ele>44.36</ele>
        <time>2012-04-09T13:32:51Z</time>
      </trkpt>
      <trkpt lat="43.77366" lon="4.03515">
        <ele>44.84</ele>
        <time>2012-04-09T13:32:52Z</time>
      </trkpt>
      <trkpt lat="43.77379" lon="4.03533">
        <ele>44.84</ele>
        <time>2012-04-09T13:32:53Z</time>
      </trkpt>
      <trkpt lat="43.77394" lon="4.03551">
        <ele>45.8</ele>
        <time>2012-04-09T13:32:54Z</time>
      </trkpt>
      <trkpt lat="43.77412" lon="4.03568">
        <ele>45.8</ele>
        <time>2012-04-09T13:32:55Z</time>
      </trkpt>
      <trkpt lat="43.77432" lon="4.03586">
        <ele>46.28</ele>
        <time>2012-04-09T13:32:56Z</time>
      </trkpt>
      <trkpt lat="43.77562" lon="4.03706">
        <ele>49.16</ele>
        <time>2012-04-09T13:33:03Z</time>
      </trkpt>
      <trkpt lat="43.77646" lon="4.03829">
        <ele>46.76</ele>
        <time>2012-04-09T13:33:08Z</time>
      </trkpt>
      <trkpt lat="43.77764" lon="4.04087">
        <ele>45.8</ele>
        <time>2012-04-09T13:33:16Z</time>
      </trkpt>
      <trkpt lat="43.77872" lon="4.04273">
        <ele>48.68</ele>
        <time>2012-04-09T13:33:23Z</time>
      </trkpt>
      <trkpt lat="43.77996" lon="4.045">
        <ele>49.16</ele>
        <time>2012-04-09T13:33:32Z</time>
      </trkpt>
      <trkpt lat="43.78047" lon="4.04665">
        <ele>50.13</ele>
        <time>2012-04-09T13:33:38Z</time>
      </trkpt>
      <trkpt lat="43.78081" lon="4.04843">
        <ele>52.05</ele>
        <time>2012-04-09T13:33:44Z</time>
      </trkpt>
      <trkpt lat="43.78082" lon="4.0487">
        <ele>52.53</ele>
        <time>2012-04-09T13:33:45Z</time>
      </trkpt>
      <trkpt lat="43.78081" lon="4.04898">
        <ele>52.53</ele>
        <time>2012-04-09T13:33:46Z</time>
      </trkpt>
      <trkpt lat="43.78059" lon="4.05133">
        <ele>51.09</ele>
        <time>2012-04-09T13:33:53Z</time>
      </trkpt>
      <trkpt lat="43.78022" lon="4.05485">
        <ele>49.16</ele>
        <time>2012-04-09T13:34:04Z</time>
      </trkpt>
      <trkpt lat="43.77934" lon="4.05816">
        <ele>49.16</ele>
        <time>2012-04-09T13:34:14Z</time>
      </trkpt>
      <trkpt lat="43.77912" lon="4.0589">
        <ele>48.68</ele>
        <time>2012-04-09T13:34:17Z</time>
      </trkpt>
      <trkpt lat="43.7791" lon="4.05916">
        <ele>48.2</ele>
        <time>2012-04-09T13:34:18Z</time>
      </trkpt>
      <trkpt lat="43.77911" lon="4.05942">
        <ele>48.2</ele>
        <time>2012-04-09T13:34:19Z</time>
      </trkpt>
      <trkpt lat="43.77911" lon="4.05992">
        <ele>47.24</ele>
        <time>2012-04-09T13:34:21Z</time>
      </trkpt>
      <trkpt lat="43.77908" lon="4.06016">
        <ele>47.24</ele>
        <time>2012-04-09T13:34:22Z</time>
      </trkpt>
      <trkpt lat="43.77902" lon="4.0604">
        <ele>47.24</ele>
        <time>2012-04-09T13:34:23Z</time>
      </trkpt>
      <trkpt lat="43.77893" lon="4.06063">
        <ele>47.24</ele>
        <time>2012-04-09T13:34:24Z</time>
      </trkpt>
      <trkpt lat="43.77882" lon="4.06085">
        <ele>47.24</ele>
        <time>2012-04-09T13:34:25Z</time>
      </trkpt>
      <trkpt lat="43.77867" lon="4.06107">
        <ele>47.72</ele>
        <time>2012-04-09T13:34:26Z</time>
      </trkpt>
      <trkpt lat="43.77852" lon="4.06129">
        <ele>48.2</ele>
        <time>2012-04-09T13:34:27Z</time>
      </trkpt>
      <trkpt lat="43.77801" lon="4.06215">
        <ele>50.13</ele>
        <time>2012-04-09T13:34:31Z</time>
      </trkpt>
      <trkpt lat="43.77793" lon="4.06239">
        <ele>51.09</ele>
        <time>2012-04-09T13:34:32Z</time>
      </trkpt>
      <trkpt lat="43.77787" lon="4.06265">
        <ele>52.05</ele>
        <time>2012-04-09T13:34:33Z</time>
      </trkpt>
      <trkpt lat="43.77783" lon="4.06292">
        <ele>52.53</ele>
        <time>2012-04-09T13:34:34Z</time>
      </trkpt>
      <trkpt lat="43.7778" lon="4.06318">
        <ele>53.49</ele>
        <time>2012-04-09T13:34:35Z</time>
      </trkpt>
      <trkpt lat="43.77772" lon="4.06365">
        <ele>55.41</ele>
        <time>2012-04-09T13:34:37Z</time>
      </trkpt>
      <trkpt lat="43.77764" lon="4.06386">
        <ele>55.89</ele>
        <time>2012-04-09T13:34:38Z</time>
      </trkpt>
      <trkpt lat="43.77754" lon="4.06406">
        <ele>56.86</ele>
        <time>2012-04-09T13:34:39Z</time>
      </trkpt>
      <trkpt lat="43.77735" lon="4.06449">
        <ele>58.3</ele>
        <time>2012-04-09T13:34:41Z</time>
      </trkpt>
      <trkpt lat="43.77727" lon="4.06475">
        <ele>59.26</ele>
        <time>2012-04-09T13:34:42Z</time>
      </trkpt>
      <trkpt lat="43.77693" lon="4.06618">
        <ele>61.66</ele>
        <time>2012-04-09T13:34:48Z</time>
      </trkpt>
      <trkpt lat="43.77692" lon="4.06641">
        <ele>61.18</ele>
        <time>2012-04-09T13:34:49Z</time>
      </trkpt>
      <trkpt lat="43.77693" lon="4.06665">
        <ele>59.74</ele>
        <time>2012-04-09T13:34:50Z</time>
      </trkpt>
      <trkpt lat="43.77711" lon="4.06906">
        <ele>50.13</ele>
        <time>2012-04-09T13:34:58Z</time>
      </trkpt>
      <trkpt lat="43.77738" lon="4.07257">
        <ele>39.55</ele>
        <time>2012-04-09T13:35:10Z</time>
      </trkpt>
      <trkpt lat="43.77738" lon="4.07336">
        <ele>37.63</ele>
        <time>2012-04-09T13:35:13Z</time>
      </trkpt>
      <trkpt lat="43.77735" lon="4.07361">
        <ele>37.15</ele>
        <time>2012-04-09T13:35:14Z</time>
      </trkpt>
      <trkpt lat="43.77729" lon="4.07387">
        <ele>36.67</ele>
        <time>2012-04-09T13:35:15Z</time>
      </trkpt>
      <trkpt lat="43.7771" lon="4.07483">
        <ele>34.74</ele>
        <time>2012-04-09T13:35:19Z</time>
      </trkpt>
      <trkpt lat="43.77708" lon="4.07505">
        <ele>34.26</ele>
        <time>2012-04-09T13:35:20Z</time>
      </trkpt>
      <trkpt lat="43.77709" lon="4.07527">
        <ele>34.26</ele>
        <time>2012-04-09T13:35:21Z</time>
      </trkpt>
      <trkpt lat="43.77711" lon="4.07548">
        <ele>34.26</ele>
        <time>2012-04-09T13:35:22Z</time>
      </trkpt>
      <trkpt lat="43.77715" lon="4.07566">
        <ele>33.78</ele>
        <time>2012-04-09T13:35:23Z</time>
      </trkpt>
      <trkpt lat="43.7772" lon="4.07583">
        <ele>33.3</ele>
        <time>2012-04-09T13:35:24Z</time>
      </trkpt>
      <trkpt lat="43.77729" lon="4.07598">
        <ele>33.3</ele>
        <time>2012-04-09T13:35:25Z</time>
      </trkpt>
      <trkpt lat="43.77741" lon="4.07613">
        <ele>33.78</ele>
        <time>2012-04-09T13:35:26Z</time>
      </trkpt>
      <trkpt lat="43.77755" lon="4.07628">
        <ele>33.3</ele>
        <time>2012-04-09T13:35:27Z</time>
      </trkpt>
      <trkpt lat="43.77838" lon="4.07719">
        <ele>32.34</ele>
        <time>2012-04-09T13:35:34Z</time>
      </trkpt>
      <trkpt lat="43.77846" lon="4.07733">
        <ele>31.86</ele>
        <time>2012-04-09T13:35:35Z</time>
      </trkpt>
      <trkpt lat="43.77853" lon="4.07749">
        <ele>31.86</ele>
        <time>2012-04-09T13:35:36Z</time>
      </trkpt>
      <trkpt lat="43.77858" lon="4.07767">
        <ele>31.38</ele>
        <time>2012-04-09T13:35:37Z</time>
      </trkpt>
      <trkpt lat="43.77861" lon="4.07787">
        <ele>31.38</ele>
        <time>2012-04-09T13:35:38Z</time>
      </trkpt>
      <trkpt lat="43.77865" lon="4.07806">
        <ele>31.38</ele>
        <time>2012-04-09T13:35:39Z</time>
      </trkpt>
      <trkpt lat="43.77869" lon="4.07824">
        <ele>31.38</ele>
        <time>2012-04-09T13:35:40Z</time>
      </trkpt>
      <trkpt lat="43.77876" lon="4.07841">
        <ele>30.9</ele>
        <time>2012-04-09T13:35:41Z</time>
      </trkpt>
      <trkpt lat="43.77884" lon="4.07858">
        <ele>30.9</ele>
        <time>2012-04-09T13:35:42Z</time>
      </trkpt>
      <trkpt lat="43.77894" lon="4.07874">
        <ele>30.42</ele>
        <time>2012-04-09T13:35:43Z</time>
      </trkpt>
      <trkpt lat="43.77904" lon="4.0789">
        <ele>30.42</ele>
        <time>2012-04-09T13:35:44Z</time>
      </trkpt>
      <trkpt lat="43.77953" lon="4.07968">
        <ele>29.94</ele>
        <time>2012-04-09T13:35:50Z</time>
      </trkpt>
      <trkpt lat="43.77967" lon="4.07992">
        <ele>29.94</ele>
        <time>2012-04-09T13:35:52Z</time>
      </trkpt>
      <trkpt lat="43.7804" lon="4.08096">
        <ele>28.98</ele>
        <time>2012-04-09T13:36:00Z</time>
      </trkpt>
      <trkpt lat="43.78093" lon="4.08182">
        <ele>28.5</ele>
        <time>2012-04-09T13:36:08Z</time>
      </trkpt>
      <trkpt lat="43.78098" lon="4.08195">
        <ele>28.5</ele>
        <time>2012-04-09T13:36:09Z</time>
      </trkpt>
      <trkpt lat="43.78102" lon="4.0821">
        <ele>28.5</ele>
        <time>2012-04-09T13:36:10Z</time>
      </trkpt>
      <trkpt lat="43.78104" lon="4.08225">
        <ele>28.5</ele>
        <time>2012-04-09T13:36:11Z</time>
      </trkpt>
      <trkpt lat="43.78107" lon="4.08303">
        <ele>28.5</ele>
        <time>2012-04-09T13:36:18Z</time>
      </trkpt>
      <trkpt lat="43.78113" lon="4.08401">
        <ele>28.02</ele>
        <time>2012-04-09T13:36:26Z</time>
      </trkpt>
      <trkpt lat="43.78117" lon="4.08407">
        <ele>28.02</ele>
        <time>2012-04-09T13:36:27Z</time>
      </trkpt>
      <trkpt lat="43.78117" lon="4.08413">
        <ele>28.02</ele>
        <time>2012-04-09T13:36:28Z</time>
      </trkpt>
      <trkpt lat="43.78123" lon="4.08483">
        <ele>28.5</ele>
        <time>2012-04-09T13:36:35Z</time>
      </trkpt>
      <trkpt lat="43.78136" lon="4.08597">
        <ele>28.02</ele>
        <time>2012-04-09T13:36:47Z</time>
      </trkpt>
      <trkpt lat="43.78138" lon="4.08607">
        <ele>28.02</ele>
        <time>2012-04-09T13:36:48Z</time>
      </trkpt>
      <trkpt lat="43.78141" lon="4.08615">
        <ele>27.53</ele>
        <time>2012-04-09T13:36:49Z</time>
      </trkpt>
      <trkpt lat="43.78145" lon="4.08622">
        <ele>27.53</ele>
        <time>2012-04-09T13:36:50Z</time>
      </trkpt>
      <trkpt lat="43.78151" lon="4.08627">
        <ele>27.53</ele>
        <time>2012-04-09T13:36:51Z</time>
      </trkpt>
      <trkpt lat="43.78157" lon="4.08631">
        <ele>28.02</ele>
        <time>2012-04-09T13:36:52Z</time>
      </trkpt>
      <trkpt lat="43.78164" lon="4.08634">
        <ele>28.02</ele>
        <time>2012-04-09T13:36:53Z</time>
      </trkpt>
      <trkpt lat="43.78171" lon="4.08635">
        <ele>28.02</ele>
        <time>2012-04-09T13:36:54Z</time>
      </trkpt>
      <trkpt lat="43.78177" lon="4.08637">
        <ele>28.02</ele>
        <time>2012-04-09T13:36:55Z</time>
      </trkpt>
      <trkpt lat="43.78183" lon="4.0864">
        <ele>28.02</ele>
        <time>2012-04-09T13:36:56Z</time>
      </trkpt>
      <trkpt lat="43.78188" lon="4.08644">
        <ele>28.02</ele>
        <time>2012-04-09T13:36:57Z</time>
      </trkpt>
      <trkpt lat="43.78191" lon="4.08649">
        <ele>27.53</ele>
        <time>2012-04-09T13:36:58Z</time>
      </trkpt>
      <trkpt lat="43.78193" lon="4.08653">
        <ele>27.53</ele>
        <time>2012-04-09T13:36:59Z</time>
      </trkpt>
      <trkpt lat="43.78194" lon="4.08658">
        <ele>27.53</ele>
        <time>2012-04-09T13:37:00Z</time>
      </trkpt>
      <trkpt lat="43.78193" lon="4.08664">
        <ele>27.53</ele>
        <time>2012-04-09T13:37:01Z</time>
      </trkpt>
      <trkpt lat="43.7819" lon="4.0867">
        <ele>27.53</ele>
        <time>2012-04-09T13:37:02Z</time>
      </trkpt>
      <trkpt lat="43.78186" lon="4.08676">
        <ele>27.53</ele>
        <time>2012-04-09T13:37:03Z</time>
      </trkpt>
      <trkpt lat="43.78183" lon="4.08682">
        <ele>27.05</ele>
        <time>2012-04-09T13:37:04Z</time>
      </trkpt>
      <trkpt lat="43.78181" lon="4.08688">
        <ele>27.05</ele>
        <time>2012-04-09T13:37:05Z</time>
      </trkpt>
      <trkpt lat="43.78181" lon="4.08696">
        <ele>27.05</ele>
        <time>2012-04-09T13:37:06Z</time>
      </trkpt>
      <trkpt lat="43.78183" lon="4.08702">
        <ele>27.05</ele>
        <time>2012-04-09T13:37:07Z</time>
      </trkpt>
      <trkpt lat="43.78187" lon="4.08707">
        <ele>27.05</ele>
        <time>2012-04-09T13:37:08Z</time>
      </trkpt>
      <trkpt lat="43.78191" lon="4.08712">
        <ele>27.05</ele>
        <time>2012-04-09T13:37:09Z</time>
      </trkpt>
      <trkpt lat="43.78195" lon="4.08716">
        <ele>27.05</ele>
        <time>2012-04-09T13:37:10Z</time>
      </trkpt>
      <trkpt lat="43.782" lon="4.08718">
        <ele>27.05</ele>
        <time>2012-04-09T13:37:11Z</time>
      </trkpt>
      <trkpt lat="43.78206" lon="4.08719">
        <ele>27.05</ele>
        <time>2012-04-09T13:37:12Z</time>
      </trkpt>
      <trkpt lat="43.78211" lon="4.08718">
        <ele>27.05</ele>
        <time>2012-04-09T13:37:13Z</time>
      </trkpt>
      <trkpt lat="43.78215" lon="4.08714">
        <ele>27.05</ele>
        <time>2012-04-09T13:37:14Z</time>
      </trkpt>
      <trkpt lat="43.78218" lon="4.08708">
        <ele>26.57</ele>
        <time>2012-04-09T13:37:15Z</time>
      </trkpt>
      <trkpt lat="43.78218" lon="4.087">
        <ele>26.57</ele>
        <time>2012-04-09T13:37:16Z</time>
      </trkpt>
      <trkpt lat="43.78216" lon="4.08693">
        <ele>26.57</ele>
        <time>2012-04-09T13:37:17Z</time>
      </trkpt>
      <trkpt lat="43.78213" lon="4.08686">
        <ele>26.57</ele>
        <time>2012-04-09T13:37:18Z</time>
      </trkpt>
      <trkpt lat="43.78208" lon="4.0868">
        <ele>26.57</ele>
        <time>2012-04-09T13:37:19Z</time>
      </trkpt>
      <trkpt lat="43.78202" lon="4.08676">
        <ele>26.57</ele>
        <time>2012-04-09T13:37:20Z</time>
      </trkpt>
      <trkpt lat="43.78196" lon="4.08673">
        <ele>26.57</ele>
        <time>2012-04-09T13:37:21Z</time>
      </trkpt>
      <trkpt lat="43.78189" lon="4.08673">
        <ele>26.57</ele>
        <time>2012-04-09T13:37:22Z</time>
      </trkpt>
      <trkpt lat="43.78184" lon="4.08677">
        <ele>26.57</ele>
        <time>2012-04-09T13:37:23Z</time>
      </trkpt>
      <trkpt lat="43.7818" lon="4.08683">
        <ele>26.57</ele>
        <time>2012-04-09T13:37:24Z</time>
      </trkpt>
      <trkpt lat="43.78179" lon="4.0869">
        <ele>26.09</ele>
        <time>2012-04-09T13:37:25Z</time>
      </trkpt>
      <trkpt lat="43.7818" lon="4.08697">
        <ele>26.09</ele>
        <time>2012-04-09T13:37:26Z</time>
      </trkpt>
      <trkpt lat="43.78183" lon="4.08703">
        <ele>26.09</ele>
        <time>2012-04-09T13:37:27Z</time>
      </trkpt>
      <trkpt lat="43.78186" lon="4.08708">
        <ele>26.09</ele>
        <time>2012-04-09T13:37:28Z</time>
      </trkpt>
      <trkpt lat="43.78195" lon="4.08737">
        <ele>26.57</ele>
        <time>2012-04-09T13:37:36Z</time>
      </trkpt>
      <trkpt lat="43.78222" lon="4.08734">
        <ele>27.53</ele>
        <time>2012-04-09T13:37:45Z</time>
      </trkpt>
      <trkpt lat="43.78221" lon="4.08732">
        <ele>29.46</ele>
        <time>2012-04-09T13:38:03Z</time>
      </trkpt>
      <trkpt lat="43.78223" lon="4.08725">
        <ele>49.65</ele>
        <time>2012-04-09T13:54:03Z</time>
      </trkpt>
      <trkpt lat="43.78221" lon="4.08729">
        <ele>41.95</ele>
        <time>2012-04-09T13:55:39Z</time>
      </trkpt>
      <trkpt lat="43.78226" lon="4.08725">
        <ele>41.95</ele>
        <time>2012-04-09T13:55:43Z</time>
      </trkpt>
      <trkpt lat="43.78236" lon="4.08724">
        <ele>41.47</ele>
        <time>2012-04-09T13:55:57Z</time>
      </trkpt>
      <trkpt lat="43.78246" lon="4.08727">
        <ele>41.95</ele>
        <time>2012-04-09T13:55:59Z</time>
      </trkpt>
      <trkpt lat="43.78253" lon="4.08726">
        <ele>41.47</ele>
        <time>2012-04-09T13:56:00Z</time>
      </trkpt>
      <trkpt lat="43.78261" lon="4.08724">
        <ele>40.99</ele>
        <time>2012-04-09T13:56:01Z</time>
      </trkpt>
      <trkpt lat="43.78348" lon="4.08664">
        <ele>38.11</ele>
        <time>2012-04-09T13:56:11Z</time>
      </trkpt>
      <trkpt lat="43.7845" lon="4.0855">
        <ele>37.63</ele>
        <time>2012-04-09T13:56:22Z</time>
      </trkpt>
      <trkpt lat="43.78521" lon="4.08474">
        <ele>37.15</ele>
        <time>2012-04-09T13:56:30Z</time>
      </trkpt>
      <trkpt lat="43.7853" lon="4.08468">
        <ele>36.67</ele>
        <time>2012-04-09T13:56:31Z</time>
      </trkpt>
      <trkpt lat="43.78539" lon="4.08463">
        <ele>36.67</ele>
        <time>2012-04-09T13:56:32Z</time>
      </trkpt>
      <trkpt lat="43.78547" lon="4.08455">
        <ele>36.67</ele>
        <time>2012-04-09T13:56:33Z</time>
      </trkpt>
      <trkpt lat="43.78554" lon="4.08446">
        <ele>36.67</ele>
        <time>2012-04-09T13:56:34Z</time>
      </trkpt>
      <trkpt lat="43.78561" lon="4.08437">
        <ele>36.19</ele>
        <time>2012-04-09T13:56:35Z</time>
      </trkpt>
      <trkpt lat="43.7857" lon="4.08428">
        <ele>36.19</ele>
        <time>2012-04-09T13:56:36Z</time>
      </trkpt>
      <trkpt lat="43.7858" lon="4.08422">
        <ele>36.19</ele>
        <time>2012-04-09T13:56:37Z</time>
      </trkpt>
      <trkpt lat="43.78592" lon="4.08416">
        <ele>36.19</ele>
        <time>2012-04-09T13:56:38Z</time>
      </trkpt>
      <trkpt lat="43.78677" lon="4.08373">
        <ele>36.19</ele>
        <time>2012-04-09T13:56:47Z</time>
      </trkpt>
      <trkpt lat="43.78772" lon="4.08298">
        <ele>35.71</ele>
        <time>2012-04-09T13:56:57Z</time>
      </trkpt>
      <trkpt lat="43.78867" lon="4.08225">
        <ele>38.11</ele>
        <time>2012-04-09T13:57:08Z</time>
      </trkpt>
      <trkpt lat="43.78874" lon="4.08224">
        <ele>38.59</ele>
        <time>2012-04-09T13:57:09Z</time>
      </trkpt>
      <trkpt lat="43.78881" lon="4.08225">
        <ele>38.59</ele>
        <time>2012-04-09T13:57:10Z</time>
      </trkpt>
      <trkpt lat="43.78897" lon="4.0823">
        <ele>39.07</ele>
        <time>2012-04-09T13:57:12Z</time>
      </trkpt>
      <trkpt lat="43.78905" lon="4.08228">
        <ele>39.07</ele>
        <time>2012-04-09T13:57:13Z</time>
      </trkpt>
      <trkpt lat="43.78912" lon="4.08224">
        <ele>39.07</ele>
        <time>2012-04-09T13:57:14Z</time>
      </trkpt>
      <trkpt lat="43.78917" lon="4.08217">
        <ele>39.07</ele>
        <time>2012-04-09T13:57:15Z</time>
      </trkpt>
      <trkpt lat="43.78921" lon="4.08208">
        <ele>39.07</ele>
        <time>2012-04-09T13:57:16Z</time>
      </trkpt>
      <trkpt lat="43.78924" lon="4.08198">
        <ele>38.59</ele>
        <time>2012-04-09T13:57:17Z</time>
      </trkpt>
      <trkpt lat="43.78929" lon="4.08189">
        <ele>38.11</ele>
        <time>2012-04-09T13:57:18Z</time>
      </trkpt>
      <trkpt lat="43.78937" lon="4.08181">
        <ele>38.11</ele>
        <time>2012-04-09T13:57:19Z</time>
      </trkpt>
      <trkpt lat="43.78946" lon="4.08176">
        <ele>38.11</ele>
        <time>2012-04-09T13:57:20Z</time>
      </trkpt>
      <trkpt lat="43.78956" lon="4.0817">
        <ele>37.63</ele>
        <time>2012-04-09T13:57:21Z</time>
      </trkpt>
      <trkpt lat="43.78977" lon="4.08154">
        <ele>37.63</ele>
        <time>2012-04-09T13:57:23Z</time>
      </trkpt>
      <trkpt lat="43.78987" lon="4.08143">
        <ele>37.15</ele>
        <time>2012-04-09T13:57:24Z</time>
      </trkpt>
      <trkpt lat="43.78997" lon="4.0813">
        <ele>37.15</ele>
        <time>2012-04-09T13:57:25Z</time>
      </trkpt>
      <trkpt lat="43.79007" lon="4.08114">
        <ele>37.15</ele>
        <time>2012-04-09T13:57:26Z</time>
      </trkpt>
      <trkpt lat="43.79018" lon="4.08097">
        <ele>37.15</ele>
        <time>2012-04-09T13:57:27Z</time>
      </trkpt>
      <trkpt lat="43.79113" lon="4.0793">
        <ele>37.15</ele>
        <time>2012-04-09T13:57:35Z</time>
      </trkpt>
      <trkpt lat="43.7923" lon="4.07769">
        <ele>37.15</ele>
        <time>2012-04-09T13:57:44Z</time>
      </trkpt>
      <trkpt lat="43.79243" lon="4.07756">
        <ele>37.63</ele>
        <time>2012-04-09T13:57:45Z</time>
      </trkpt>
      <trkpt lat="43.79257" lon="4.07745">
        <ele>37.63</ele>
        <time>2012-04-09T13:57:46Z</time>
      </trkpt>
      <trkpt lat="43.79286" lon="4.07726">
        <ele>37.63</ele>
        <time>2012-04-09T13:57:48Z</time>
      </trkpt>
      <trkpt lat="43.79299" lon="4.07712">
        <ele>37.63</ele>
        <time>2012-04-09T13:57:49Z</time>
      </trkpt>
      <trkpt lat="43.79312" lon="4.07698">
        <ele>37.63</ele>
        <time>2012-04-09T13:57:50Z</time>
      </trkpt>
      <trkpt lat="43.79415" lon="4.07539">
        <ele>35.71</ele>
        <time>2012-04-09T13:58:00Z</time>
      </trkpt>
      <trkpt lat="43.79456" lon="4.07427">
        <ele>35.23</ele>
        <time>2012-04-09T13:58:06Z</time>
      </trkpt>
      <trkpt lat="43.79467" lon="4.0741">
        <ele>35.23</ele>
        <time>2012-04-09T13:58:07Z</time>
      </trkpt>
      <trkpt lat="43.79481" lon="4.07396">
        <ele>35.23</ele>
        <time>2012-04-09T13:58:08Z</time>
      </trkpt>
      <trkpt lat="43.79497" lon="4.07384">
        <ele>35.23</ele>
        <time>2012-04-09T13:58:09Z</time>
      </trkpt>
      <trkpt lat="43.79514" lon="4.07379">
        <ele>35.23</ele>
        <time>2012-04-09T13:58:10Z</time>
      </trkpt>
      <trkpt lat="43.79533" lon="4.0738">
        <ele>35.23</ele>
        <time>2012-04-09T13:58:11Z</time>
      </trkpt>
      <trkpt lat="43.79553" lon="4.07384">
        <ele>34.74</ele>
        <time>2012-04-09T13:58:12Z</time>
      </trkpt>
      <trkpt lat="43.79573" lon="4.07391">
        <ele>34.74</ele>
        <time>2012-04-09T13:58:13Z</time>
      </trkpt>
      <trkpt lat="43.79594" lon="4.07399">
        <ele>34.74</ele>
        <time>2012-04-09T13:58:14Z</time>
      </trkpt>
      <trkpt lat="43.79694" lon="4.07429">
        <ele>33.78</ele>
        <time>2012-04-09T13:58:19Z</time>
      </trkpt>
      <trkpt lat="43.79714" lon="4.07426">
        <ele>33.3</ele>
        <time>2012-04-09T13:58:20Z</time>
      </trkpt>
      <trkpt lat="43.79735" lon="4.0742">
        <ele>33.3</ele>
        <time>2012-04-09T13:58:21Z</time>
      </trkpt>
      <trkpt lat="43.79758" lon="4.07412">
        <ele>33.3</ele>
        <time>2012-04-09T13:58:22Z</time>
      </trkpt>
      <trkpt lat="43.79781" lon="4.07402">
        <ele>33.3</ele>
        <time>2012-04-09T13:58:23Z</time>
      </trkpt>
      <trkpt lat="43.79956" lon="4.07326">
        <ele>33.3</ele>
        <time>2012-04-09T13:58:31Z</time>
      </trkpt>
      <trkpt lat="43.80156" lon="4.07287">
        <ele>35.23</ele>
        <time>2012-04-09T13:58:41Z</time>
      </trkpt>
      <trkpt lat="43.80244" lon="4.07254">
        <ele>35.71</ele>
        <time>2012-04-09T13:58:47Z</time>
      </trkpt>
      <trkpt lat="43.80255" lon="4.07253">
        <ele>35.71</ele>
        <time>2012-04-09T13:58:48Z</time>
      </trkpt>
      <trkpt lat="43.80265" lon="4.07252">
        <ele>35.71</ele>
        <time>2012-04-09T13:58:49Z</time>
      </trkpt>
      <trkpt lat="43.80331" lon="4.07262">
        <ele>35.71</ele>
        <time>2012-04-09T13:58:54Z</time>
      </trkpt>
      <trkpt lat="43.80346" lon="4.0726">
        <ele>35.71</ele>
        <time>2012-04-09T13:58:55Z</time>
      </trkpt>
      <trkpt lat="43.80363" lon="4.07253">
        <ele>36.19</ele>
        <time>2012-04-09T13:58:56Z</time>
      </trkpt>
      <trkpt lat="43.80381" lon="4.07243">
        <ele>36.67</ele>
        <time>2012-04-09T13:58:57Z</time>
      </trkpt>
      <trkpt lat="43.804" lon="4.07231">
        <ele>37.63</ele>
        <time>2012-04-09T13:58:58Z</time>
      </trkpt>
      <trkpt lat="43.80535" lon="4.07146">
        <ele>44.36</ele>
        <time>2012-04-09T13:59:05Z</time>
      </trkpt>
      <trkpt lat="43.80671" lon="4.07062">
        <ele>48.2</ele>
        <time>2012-04-09T13:59:15Z</time>
      </trkpt>
      <trkpt lat="43.80713" lon="4.07033">
        <ele>48.68</ele>
        <time>2012-04-09T13:59:21Z</time>
      </trkpt>
      <trkpt lat="43.80798" lon="4.06969">
        <ele>47.24</ele>
        <time>2012-04-09T13:59:29Z</time>
      </trkpt>
      <trkpt lat="43.80838" lon="4.06946">
        <ele>47.72</ele>
        <time>2012-04-09T13:59:35Z</time>
      </trkpt>
      <trkpt lat="43.80914" lon="4.06905">
        <ele>49.16</ele>
        <time>2012-04-09T13:59:44Z</time>
      </trkpt>
      <trkpt lat="43.80996" lon="4.0684">
        <ele>48.2</ele>
        <time>2012-04-09T13:59:55Z</time>
      </trkpt>
      <trkpt lat="43.81004" lon="4.06834">
        <ele>48.2</ele>
        <time>2012-04-09T13:59:56Z</time>
      </trkpt>
      <trkpt lat="43.81011" lon="4.06831">
        <ele>48.68</ele>
        <time>2012-04-09T13:59:57Z</time>
      </trkpt>
      <trkpt lat="43.81051" lon="4.06808">
        <ele>50.13</ele>
        <time>2012-04-09T14:00:02Z</time>
      </trkpt>
      <trkpt lat="43.81065" lon="4.06795">
        <ele>50.61</ele>
        <time>2012-04-09T14:00:05Z</time>
      </trkpt>
      <trkpt lat="43.81068" lon="4.0679">
        <ele>50.13</ele>
        <time>2012-04-09T14:00:06Z</time>
      </trkpt>
      <trkpt lat="43.81112" lon="4.06717">
        <ele>51.09</ele>
        <time>2012-04-09T14:00:14Z</time>
      </trkpt>
      <trkpt lat="43.8121" lon="4.06557">
        <ele>51.09</ele>
        <time>2012-04-09T14:00:29Z</time>
      </trkpt>
      <trkpt lat="43.81246" lon="4.06494">
        <ele>51.57</ele>
        <time>2012-04-09T14:00:35Z</time>
      </trkpt>
      <trkpt lat="43.81304" lon="4.06382">
        <ele>53.49</ele>
        <time>2012-04-09T14:00:45Z</time>
      </trkpt>
      <trkpt lat="43.81308" lon="4.0637">
        <ele>53.49</ele>
        <time>2012-04-09T14:00:46Z</time>
      </trkpt>
      <trkpt lat="43.81312" lon="4.06357">
        <ele>53.49</ele>
        <time>2012-04-09T14:00:47Z</time>
      </trkpt>
      <trkpt lat="43.81318" lon="4.06343">
        <ele>53.49</ele>
        <time>2012-04-09T14:00:48Z</time>
      </trkpt>
      <trkpt lat="43.81324" lon="4.06329">
        <ele>53.49</ele>
        <time>2012-04-09T14:00:49Z</time>
      </trkpt>
      <trkpt lat="43.81339" lon="4.06293">
        <ele>54.45</ele>
        <time>2012-04-09T14:00:52Z</time>
      </trkpt>
      <trkpt lat="43.8134" lon="4.06282">
        <ele>54.93</ele>
        <time>2012-04-09T14:00:53Z</time>
      </trkpt>
      <trkpt lat="43.81339" lon="4.06269">
        <ele>54.93</ele>
        <time>2012-04-09T14:00:54Z</time>
      </trkpt>
      <trkpt lat="43.81336" lon="4.06255">
        <ele>54.93</ele>
        <time>2012-04-09T14:00:55Z</time>
      </trkpt>
      <trkpt lat="43.81333" lon="4.0624">
        <ele>54.93</ele>
        <time>2012-04-09T14:00:56Z</time>
      </trkpt>
      <trkpt lat="43.81332" lon="4.06223">
        <ele>54.93</ele>
        <time>2012-04-09T14:00:57Z</time>
      </trkpt>
      <trkpt lat="43.81331" lon="4.06205">
        <ele>54.93</ele>
        <time>2012-04-09T14:00:58Z</time>
      </trkpt>
      <trkpt lat="43.81334" lon="4.06052">
        <ele>56.86</ele>
        <time>2012-04-09T14:01:07Z</time>
      </trkpt>
      <trkpt lat="43.81338" lon="4.06039">
        <ele>56.86</ele>
        <time>2012-04-09T14:01:08Z</time>
      </trkpt>
      <trkpt lat="43.81346" lon="4.06028">
        <ele>57.34</ele>
        <time>2012-04-09T14:01:09Z</time>
      </trkpt>
      <trkpt lat="43.81357" lon="4.06017">
        <ele>57.34</ele>
        <time>2012-04-09T14:01:10Z</time>
      </trkpt>
      <trkpt lat="43.81372" lon="4.06007">
        <ele>57.82</ele>
        <time>2012-04-09T14:01:11Z</time>
      </trkpt>
      <trkpt lat="43.81388" lon="4.05997">
        <ele>58.3</ele>
        <time>2012-04-09T14:01:12Z</time>
      </trkpt>
      <trkpt lat="43.81405" lon="4.05988">
        <ele>58.78</ele>
        <time>2012-04-09T14:01:13Z</time>
      </trkpt>
      <trkpt lat="43.81423" lon="4.0598">
        <ele>59.74</ele>
        <time>2012-04-09T14:01:14Z</time>
      </trkpt>
      <trkpt lat="43.81535" lon="4.05905">
        <ele>67.91</ele>
        <time>2012-04-09T14:01:21Z</time>
      </trkpt>
      <trkpt lat="43.8164" lon="4.05784">
        <ele>74.16</ele>
        <time>2012-04-09T14:01:28Z</time>
      </trkpt>
      <trkpt lat="43.818" lon="4.05604">
        <ele>88.58</ele>
        <time>2012-04-09T14:01:37Z</time>
      </trkpt>
      <trkpt lat="43.81813" lon="4.05582">
        <ele>89.54</ele>
        <time>2012-04-09T14:01:38Z</time>
      </trkpt>
      <trkpt lat="43.81824" lon="4.05559">
        <ele>90.5</ele>
        <time>2012-04-09T14:01:39Z</time>
      </trkpt>
      <trkpt lat="43.81833" lon="4.05536">
        <ele>90.98</ele>
        <time>2012-04-09T14:01:40Z</time>
      </trkpt>
      <trkpt lat="43.8184" lon="4.0551">
        <ele>90.98</ele>
        <time>2012-04-09T14:01:41Z</time>
      </trkpt>
      <trkpt lat="43.81846" lon="4.05482">
        <ele>90.98</ele>
        <time>2012-04-09T14:01:42Z</time>
      </trkpt>
      <trkpt lat="43.81849" lon="4.05454">
        <ele>90.98</ele>
        <time>2012-04-09T14:01:43Z</time>
      </trkpt>
      <trkpt lat="43.8185" lon="4.05427">
        <ele>90.98</ele>
        <time>2012-04-09T14:01:44Z</time>
      </trkpt>
      <trkpt lat="43.81854" lon="4.05374">
        <ele>90.5</ele>
        <time>2012-04-09T14:01:46Z</time>
      </trkpt>
      <trkpt lat="43.81858" lon="4.05349">
        <ele>90.5</ele>
        <time>2012-04-09T14:01:47Z</time>
      </trkpt>
      <trkpt lat="43.81864" lon="4.05326">
        <ele>89.54</ele>
        <time>2012-04-09T14:01:48Z</time>
      </trkpt>
      <trkpt lat="43.81873" lon="4.05305">
        <ele>88.58</ele>
        <time>2012-04-09T14:01:49Z</time>
      </trkpt>
      <trkpt lat="43.81885" lon="4.05285">
        <ele>87.14</ele>
        <time>2012-04-09T14:01:50Z</time>
      </trkpt>
      <trkpt lat="43.819" lon="4.05269">
        <ele>86.18</ele>
        <time>2012-04-09T14:01:51Z</time>
      </trkpt>
      <trkpt lat="43.81918" lon="4.05257">
        <ele>84.73</ele>
        <time>2012-04-09T14:01:52Z</time>
      </trkpt>
      <trkpt lat="43.81937" lon="4.05247">
        <ele>83.29</ele>
        <time>2012-04-09T14:01:53Z</time>
      </trkpt>
      <trkpt lat="43.81959" lon="4.0524">
        <ele>82.33</ele>
        <time>2012-04-09T14:01:54Z</time>
      </trkpt>
      <trkpt lat="43.81981" lon="4.05234">
        <ele>81.37</ele>
        <time>2012-04-09T14:01:55Z</time>
      </trkpt>
      <trkpt lat="43.82218" lon="4.05183">
        <ele>72.72</ele>
        <time>2012-04-09T14:02:05Z</time>
      </trkpt>
      <trkpt lat="43.82414" lon="4.05183">
        <ele>72.24</ele>
        <time>2012-04-09T14:02:14Z</time>
      </trkpt>
      <trkpt lat="43.82429" lon="4.05175">
        <ele>72.72</ele>
        <time>2012-04-09T14:02:15Z</time>
      </trkpt>
      <trkpt lat="43.82444" lon="4.05163">
        <ele>72.72</ele>
        <time>2012-04-09T14:02:16Z</time>
      </trkpt>
      <trkpt lat="43.82459" lon="4.05148">
        <ele>72.24</ele>
        <time>2012-04-09T14:02:17Z</time>
      </trkpt>
      <trkpt lat="43.82474" lon="4.05131">
        <ele>71.27</ele>
        <time>2012-04-09T14:02:18Z</time>
      </trkpt>
      <trkpt lat="43.82571" lon="4.04972">
        <ele>63.58</ele>
        <time>2012-04-09T14:02:25Z</time>
      </trkpt>
      <trkpt lat="43.82595" lon="4.04921">
        <ele>60.7</ele>
        <time>2012-04-09T14:02:27Z</time>
      </trkpt>
      <trkpt lat="43.82626" lon="4.04845">
        <ele>58.3</ele>
        <time>2012-04-09T14:02:30Z</time>
      </trkpt>
      <trkpt lat="43.82639" lon="4.04822">
        <ele>57.82</ele>
        <time>2012-04-09T14:02:31Z</time>
      </trkpt>
      <trkpt lat="43.82757" lon="4.04637">
        <ele>51.57</ele>
        <time>2012-04-09T14:02:39Z</time>
      </trkpt>
      <trkpt lat="43.82767" lon="4.04611">
        <ele>51.09</ele>
        <time>2012-04-09T14:02:40Z</time>
      </trkpt>
      <trkpt lat="43.82776" lon="4.04585">
        <ele>50.61</ele>
        <time>2012-04-09T14:02:41Z</time>
      </trkpt>
      <trkpt lat="43.82818" lon="4.04449">
        <ele>48.68</ele>
        <time>2012-04-09T14:02:46Z</time>
      </trkpt>
      <trkpt lat="43.8283" lon="4.04424">
        <ele>48.2</ele>
        <time>2012-04-09T14:02:47Z</time>
      </trkpt>
      <trkpt lat="43.82844" lon="4.04402">
        <ele>47.72</ele>
        <time>2012-04-09T14:02:48Z</time>
      </trkpt>
      <trkpt lat="43.83034" lon="4.04164">
        <ele>53.49</ele>
        <time>2012-04-09T14:02:59Z</time>
      </trkpt>
      <trkpt lat="43.83147" lon="4.04036">
        <ele>56.37</ele>
        <time>2012-04-09T14:03:06Z</time>
      </trkpt>
      <trkpt lat="43.83194" lon="4.03969">
        <ele>57.34</ele>
        <time>2012-04-09T14:03:10Z</time>
      </trkpt>
      <trkpt lat="43.8321" lon="4.03953">
        <ele>57.34</ele>
        <time>2012-04-09T14:03:11Z</time>
      </trkpt>
      <trkpt lat="43.83326" lon="4.03855">
        <ele>59.26</ele>
        <time>2012-04-09T14:03:17Z</time>
      </trkpt>
      <trkpt lat="43.83344" lon="4.03833">
        <ele>59.74</ele>
        <time>2012-04-09T14:03:18Z</time>
      </trkpt>
      <trkpt lat="43.83361" lon="4.03809">
        <ele>59.74</ele>
        <time>2012-04-09T14:03:19Z</time>
      </trkpt>
      <trkpt lat="43.83377" lon="4.03782">
        <ele>60.22</ele>
        <time>2012-04-09T14:03:20Z</time>
      </trkpt>
      <trkpt lat="43.83391" lon="4.03754">
        <ele>60.7</ele>
        <time>2012-04-09T14:03:21Z</time>
      </trkpt>
      <trkpt lat="43.83405" lon="4.03725">
        <ele>61.66</ele>
        <time>2012-04-09T14:03:22Z</time>
      </trkpt>
      <trkpt lat="43.83566" lon="4.03431">
        <ele>71.27</ele>
        <time>2012-04-09T14:03:33Z</time>
      </trkpt>
      <trkpt lat="43.83725" lon="4.03189">
        <ele>78</ele>
        <time>2012-04-09T14:03:43Z</time>
      </trkpt>
      <trkpt lat="43.83951" lon="4.02964">
        <ele>88.1</ele>
        <time>2012-04-09T14:03:55Z</time>
      </trkpt>
      <trkpt lat="43.83992" lon="4.02926">
        <ele>90.98</ele>
        <time>2012-04-09T14:03:58Z</time>
      </trkpt>
      <trkpt lat="43.84008" lon="4.02916">
        <ele>92.42</ele>
        <time>2012-04-09T14:03:59Z</time>
      </trkpt>
      <trkpt lat="43.84028" lon="4.02911">
        <ele>93.39</ele>
        <time>2012-04-09T14:04:00Z</time>
      </trkpt>
      <trkpt lat="43.84049" lon="4.02907">
        <ele>94.35</ele>
        <time>2012-04-09T14:04:01Z</time>
      </trkpt>
      <trkpt lat="43.84072" lon="4.02903">
        <ele>95.79</ele>
        <time>2012-04-09T14:04:02Z</time>
      </trkpt>
      <trkpt lat="43.84208" lon="4.02873">
        <ele>103.96</ele>
        <time>2012-04-09T14:04:09Z</time>
      </trkpt>
      <trkpt lat="43.84225" lon="4.02866">
        <ele>104.92</ele>
        <time>2012-04-09T14:04:10Z</time>
      </trkpt>
      <trkpt lat="43.8424" lon="4.02856">
        <ele>105.88</ele>
        <time>2012-04-09T14:04:11Z</time>
      </trkpt>
      <trkpt lat="43.84254" lon="4.02844">
        <ele>106.84</ele>
        <time>2012-04-09T14:04:12Z</time>
      </trkpt>
      <trkpt lat="43.84264" lon="4.02829">
        <ele>107.81</ele>
        <time>2012-04-09T14:04:13Z</time>
      </trkpt>
      <trkpt lat="43.8427" lon="4.0281">
        <ele>108.77</ele>
        <time>2012-04-09T14:04:14Z</time>
      </trkpt>
      <trkpt lat="43.84272" lon="4.0279">
        <ele>110.21</ele>
        <time>2012-04-09T14:04:15Z</time>
      </trkpt>
      <trkpt lat="43.84271" lon="4.0277">
        <ele>111.17</ele>
        <time>2012-04-09T14:04:16Z</time>
      </trkpt>
      <trkpt lat="43.84269" lon="4.02748">
        <ele>112.13</ele>
        <time>2012-04-09T14:04:17Z</time>
      </trkpt>
      <trkpt lat="43.84265" lon="4.02723">
        <ele>113.09</ele>
        <time>2012-04-09T14:04:18Z</time>
      </trkpt>
      <trkpt lat="43.84258" lon="4.02695">
        <ele>114.05</ele>
        <time>2012-04-09T14:04:19Z</time>
      </trkpt>
      <trkpt lat="43.84249" lon="4.02667">
        <ele>115.01</ele>
        <time>2012-04-09T14:04:20Z</time>
      </trkpt>
      <trkpt lat="43.8424" lon="4.02641">
        <ele>115.5</ele>
        <time>2012-04-09T14:04:21Z</time>
      </trkpt>
      <trkpt lat="43.84231" lon="4.02615">
        <ele>116.46</ele>
        <time>2012-04-09T14:04:22Z</time>
      </trkpt>
      <trkpt lat="43.84217" lon="4.02565">
        <ele>116.94</ele>
        <time>2012-04-09T14:04:24Z</time>
      </trkpt>
      <trkpt lat="43.84213" lon="4.02539">
        <ele>117.42</ele>
        <time>2012-04-09T14:04:25Z</time>
      </trkpt>
      <trkpt lat="43.84212" lon="4.02512">
        <ele>118.38</ele>
        <time>2012-04-09T14:04:26Z</time>
      </trkpt>
      <trkpt lat="43.84213" lon="4.02486">
        <ele>118.86</ele>
        <time>2012-04-09T14:04:27Z</time>
      </trkpt>
      <trkpt lat="43.84217" lon="4.02462">
        <ele>118.86</ele>
        <time>2012-04-09T14:04:28Z</time>
      </trkpt>
      <trkpt lat="43.84221" lon="4.02439">
        <ele>119.82</ele>
        <time>2012-04-09T14:04:29Z</time>
      </trkpt>
      <trkpt lat="43.84225" lon="4.02395">
        <ele>121.26</ele>
        <time>2012-04-09T14:04:31Z</time>
      </trkpt>
      <trkpt lat="43.84223" lon="4.02373">
        <ele>121.74</ele>
        <time>2012-04-09T14:04:32Z</time>
      </trkpt>
      <trkpt lat="43.84217" lon="4.02353">
        <ele>122.22</ele>
        <time>2012-04-09T14:04:33Z</time>
      </trkpt>
      <trkpt lat="43.8421" lon="4.02335">
        <ele>122.22</ele>
        <time>2012-04-09T14:04:34Z</time>
      </trkpt>
      <trkpt lat="43.84205" lon="4.02319">
        <ele>122.22</ele>
        <time>2012-04-09T14:04:35Z</time>
      </trkpt>
      <trkpt lat="43.84203" lon="4.02303">
        <ele>122.22</ele>
        <time>2012-04-09T14:04:36Z</time>
      </trkpt>
      <trkpt lat="43.84205" lon="4.02288">
        <ele>121.74</ele>
        <time>2012-04-09T14:04:37Z</time>
      </trkpt>
      <trkpt lat="43.8421" lon="4.02273">
        <ele>120.78</ele>
        <time>2012-04-09T14:04:38Z</time>
      </trkpt>
      <trkpt lat="43.84224" lon="4.02262">
        <ele>120.3</ele>
        <time>2012-04-09T14:04:39Z</time>
      </trkpt>
      <trkpt lat="43.84243" lon="4.02251">
        <ele>119.82</ele>
        <time>2012-04-09T14:04:40Z</time>
      </trkpt>
      <trkpt lat="43.84262" lon="4.0224">
        <ele>119.34</ele>
        <time>2012-04-09T14:04:41Z</time>
      </trkpt>
      <trkpt lat="43.84281" lon="4.02229">
        <ele>118.38</ele>
        <time>2012-04-09T14:04:42Z</time>
      </trkpt>
      <trkpt lat="43.84316" lon="4.02205">
        <ele>116.94</ele>
        <time>2012-04-09T14:04:44Z</time>
      </trkpt>
      <trkpt lat="43.8433" lon="4.02189">
        <ele>116.46</ele>
        <time>2012-04-09T14:04:45Z</time>
      </trkpt>
      <trkpt lat="43.84343" lon="4.02172">
        <ele>115.98</ele>
        <time>2012-04-09T14:04:46Z</time>
      </trkpt>
      <trkpt lat="43.84377" lon="4.02128">
        <ele>114.05</ele>
        <time>2012-04-09T14:04:49Z</time>
      </trkpt>
      <trkpt lat="43.84391" lon="4.02122">
        <ele>113.09</ele>
        <time>2012-04-09T14:04:50Z</time>
      </trkpt>
      <trkpt lat="43.84408" lon="4.02118">
        <ele>112.61</ele>
        <time>2012-04-09T14:04:51Z</time>
      </trkpt>
      <trkpt lat="43.84429" lon="4.02118">
        <ele>112.13</ele>
        <time>2012-04-09T14:04:52Z</time>
      </trkpt>
      <trkpt lat="43.84452" lon="4.02118">
        <ele>110.69</ele>
        <time>2012-04-09T14:04:53Z</time>
      </trkpt>
      <trkpt lat="43.84475" lon="4.02117">
        <ele>110.21</ele>
        <time>2012-04-09T14:04:54Z</time>
      </trkpt>
      <trkpt lat="43.84522" lon="4.0211">
        <ele>107.81</ele>
        <time>2012-04-09T14:04:56Z</time>
      </trkpt>
      <trkpt lat="43.84546" lon="4.02101">
        <ele>106.84</ele>
        <time>2012-04-09T14:04:57Z</time>
      </trkpt>
      <trkpt lat="43.84698" lon="4.02025">
        <ele>103</ele>
        <time>2012-04-09T14:05:04Z</time>
      </trkpt>
      <trkpt lat="43.84882" lon="4.01913">
        <ele>100.6</ele>
        <time>2012-04-09T14:05:12Z</time>
      </trkpt>
      <trkpt lat="43.85206" lon="4.01774">
        <ele>95.31</ele>
        <time>2012-04-09T14:05:24Z</time>
      </trkpt>
      <trkpt lat="43.85369" lon="4.01731">
        <ele>93.39</ele>
        <time>2012-04-09T14:05:30Z</time>
      </trkpt>
      <trkpt lat="43.857" lon="4.01692">
        <ele>90.5</ele>
        <time>2012-04-09T14:05:43Z</time>
      </trkpt>
      <trkpt lat="43.85981" lon="4.01704">
        <ele>88.58</ele>
        <time>2012-04-09T14:05:54Z</time>
      </trkpt>
      <trkpt lat="43.86181" lon="4.01694">
        <ele>87.62</ele>
        <time>2012-04-09T14:06:03Z</time>
      </trkpt>
      <trkpt lat="43.86294" lon="4.01714">
        <ele>85.69</ele>
        <time>2012-04-09T14:06:08Z</time>
      </trkpt>
      <trkpt lat="43.86318" lon="4.01712">
        <ele>84.73</ele>
        <time>2012-04-09T14:06:09Z</time>
      </trkpt>
      <trkpt lat="43.86341" lon="4.01708">
        <ele>83.77</ele>
        <time>2012-04-09T14:06:10Z</time>
      </trkpt>
      <trkpt lat="43.86363" lon="4.017">
        <ele>82.33</ele>
        <time>2012-04-09T14:06:11Z</time>
      </trkpt>
      <trkpt lat="43.86385" lon="4.01689">
        <ele>80.89</ele>
        <time>2012-04-09T14:06:12Z</time>
      </trkpt>
      <trkpt lat="43.86408" lon="4.01674">
        <ele>79.45</ele>
        <time>2012-04-09T14:06:13Z</time>
      </trkpt>
      <trkpt lat="43.86432" lon="4.01659">
        <ele>78</ele>
        <time>2012-04-09T14:06:14Z</time>
      </trkpt>
      <trkpt lat="43.86515" lon="4.01618">
        <ele>74.16</ele>
        <time>2012-04-09T14:06:17Z</time>
      </trkpt>
      <trkpt lat="43.86727" lon="4.01567">
        <ele>71.76</ele>
        <time>2012-04-09T14:06:24Z</time>
      </trkpt>
      <trkpt lat="43.86857" lon="4.01546">
        <ele>70.79</ele>
        <time>2012-04-09T14:06:29Z</time>
      </trkpt>
      <trkpt lat="43.86882" lon="4.01549">
        <ele>69.83</ele>
        <time>2012-04-09T14:06:30Z</time>
      </trkpt>
      <trkpt lat="43.87082" lon="4.01584">
        <ele>69.83</ele>
        <time>2012-04-09T14:06:39Z</time>
      </trkpt>
      <trkpt lat="43.8714" lon="4.01584">
        <ele>70.79</ele>
        <time>2012-04-09T14:06:42Z</time>
      </trkpt>
      <trkpt lat="43.87159" lon="4.01579">
        <ele>71.27</ele>
        <time>2012-04-09T14:06:43Z</time>
      </trkpt>
      <trkpt lat="43.87178" lon="4.01572">
        <ele>71.76</ele>
        <time>2012-04-09T14:06:44Z</time>
      </trkpt>
      <trkpt lat="43.87197" lon="4.01562">
        <ele>72.24</ele>
        <time>2012-04-09T14:06:45Z</time>
      </trkpt>
      <trkpt lat="43.87215" lon="4.0155">
        <ele>73.2</ele>
        <time>2012-04-09T14:06:46Z</time>
      </trkpt>
      <trkpt lat="43.87232" lon="4.01536">
        <ele>74.16</ele>
        <time>2012-04-09T14:06:47Z</time>
      </trkpt>
      <trkpt lat="43.87249" lon="4.01519">
        <ele>75.12</ele>
        <time>2012-04-09T14:06:48Z</time>
      </trkpt>
      <trkpt lat="43.87265" lon="4.015">
        <ele>76.08</ele>
        <time>2012-04-09T14:06:49Z</time>
      </trkpt>
      <trkpt lat="43.87434" lon="4.01337">
        <ele>84.25</ele>
        <time>2012-04-09T14:06:59Z</time>
      </trkpt>
      <trkpt lat="43.87621" lon="4.01265">
        <ele>87.62</ele>
        <time>2012-04-09T14:07:08Z</time>
      </trkpt>
      <trkpt lat="43.87656" lon="4.01251">
        <ele>88.1</ele>
        <time>2012-04-09T14:07:10Z</time>
      </trkpt>
      <trkpt lat="43.87674" lon="4.01237">
        <ele>87.62</ele>
        <time>2012-04-09T14:07:11Z</time>
      </trkpt>
      <trkpt lat="43.87692" lon="4.01219">
        <ele>87.14</ele>
        <time>2012-04-09T14:07:12Z</time>
      </trkpt>
      <trkpt lat="43.8771" lon="4.012">
        <ele>87.14</ele>
        <time>2012-04-09T14:07:13Z</time>
      </trkpt>
      <trkpt lat="43.87727" lon="4.0118">
        <ele>86.66</ele>
        <time>2012-04-09T14:07:14Z</time>
      </trkpt>
      <trkpt lat="43.87867" lon="4.01017">
        <ele>82.33</ele>
        <time>2012-04-09T14:07:23Z</time>
      </trkpt>
      <trkpt lat="43.87975" lon="4.00849">
        <ele>81.37</ele>
        <time>2012-04-09T14:07:31Z</time>
      </trkpt>
      <trkpt lat="43.88024" lon="4.00767">
        <ele>81.37</ele>
        <time>2012-04-09T14:07:35Z</time>
      </trkpt>
      <trkpt lat="43.88039" lon="4.00751">
        <ele>80.89</ele>
        <time>2012-04-09T14:07:36Z</time>
      </trkpt>
      <trkpt lat="43.88056" lon="4.00737">
        <ele>79.93</ele>
        <time>2012-04-09T14:07:37Z</time>
      </trkpt>
      <trkpt lat="43.88075" lon="4.00726">
        <ele>79.45</ele>
        <time>2012-04-09T14:07:38Z</time>
      </trkpt>
      <trkpt lat="43.88096" lon="4.00719">
        <ele>78.48</ele>
        <time>2012-04-09T14:07:39Z</time>
      </trkpt>
      <trkpt lat="43.88117" lon="4.00715">
        <ele>77.52</ele>
        <time>2012-04-09T14:07:40Z</time>
      </trkpt>
      <trkpt lat="43.88139" lon="4.00713">
        <ele>77.04</ele>
        <time>2012-04-09T14:07:41Z</time>
      </trkpt>
      <trkpt lat="43.8816" lon="4.00714">
        <ele>76.08</ele>
        <time>2012-04-09T14:07:42Z</time>
      </trkpt>
      <trkpt lat="43.88181" lon="4.00717">
        <ele>76.56</ele>
        <time>2012-04-09T14:07:43Z</time>
      </trkpt>
      <trkpt lat="43.88201" lon="4.00722">
        <ele>76.56</ele>
        <time>2012-04-09T14:07:44Z</time>
      </trkpt>
      <trkpt lat="43.8822" lon="4.00728">
        <ele>77.52</ele>
        <time>2012-04-09T14:07:45Z</time>
      </trkpt>
      <trkpt lat="43.88314" lon="4.0075">
        <ele>79.93</ele>
        <time>2012-04-09T14:07:50Z</time>
      </trkpt>
      <trkpt lat="43.88334" lon="4.00748">
        <ele>79.45</ele>
        <time>2012-04-09T14:07:51Z</time>
      </trkpt>
      <trkpt lat="43.88355" lon="4.00743">
        <ele>78.97</ele>
        <time>2012-04-09T14:07:52Z</time>
      </trkpt>
      <trkpt lat="43.88378" lon="4.00733">
        <ele>78</ele>
        <time>2012-04-09T14:07:53Z</time>
      </trkpt>
      <trkpt lat="43.88401" lon="4.00718">
        <ele>77.52</ele>
        <time>2012-04-09T14:07:54Z</time>
      </trkpt>
      <trkpt lat="43.88425" lon="4.00699">
        <ele>77.04</ele>
        <time>2012-04-09T14:07:55Z</time>
      </trkpt>
      <trkpt lat="43.88449" lon="4.00679">
        <ele>76.56</ele>
        <time>2012-04-09T14:07:56Z</time>
      </trkpt>
      <trkpt lat="43.88634" lon="4.0053">
        <ele>76.08</ele>
        <time>2012-04-09T14:08:03Z</time>
      </trkpt>
      <trkpt lat="43.88787" lon="4.00397">
        <ele>77.04</ele>
        <time>2012-04-09T14:08:10Z</time>
      </trkpt>
      <trkpt lat="43.88807" lon="4.00381">
        <ele>77.04</ele>
        <time>2012-04-09T14:08:11Z</time>
      </trkpt>
      <trkpt lat="43.88825" lon="4.00361">
        <ele>77.52</ele>
        <time>2012-04-09T14:08:12Z</time>
      </trkpt>
      <trkpt lat="43.88842" lon="4.00338">
        <ele>78</ele>
        <time>2012-04-09T14:08:13Z</time>
      </trkpt>
      <trkpt lat="43.88857" lon="4.00312">
        <ele>78.48</ele>
        <time>2012-04-09T14:08:14Z</time>
      </trkpt>
      <trkpt lat="43.88872" lon="4.00285">
        <ele>78.48</ele>
        <time>2012-04-09T14:08:15Z</time>
      </trkpt>
      <trkpt lat="43.88936" lon="4.00197">
        <ele>79.93</ele>
        <time>2012-04-09T14:08:19Z</time>
      </trkpt>
      <trkpt lat="43.88952" lon="4.00185">
        <ele>80.41</ele>
        <time>2012-04-09T14:08:20Z</time>
      </trkpt>
      <trkpt lat="43.88971" lon="4.00178">
        <ele>80.89</ele>
        <time>2012-04-09T14:08:21Z</time>
      </trkpt>
      <trkpt lat="43.88993" lon="4.00172">
        <ele>81.37</ele>
        <time>2012-04-09T14:08:22Z</time>
      </trkpt>
      <trkpt lat="43.89016" lon="4.00167">
        <ele>82.33</ele>
        <time>2012-04-09T14:08:23Z</time>
      </trkpt>
      <trkpt lat="43.8904" lon="4.00163">
        <ele>83.29</ele>
        <time>2012-04-09T14:08:24Z</time>
      </trkpt>
      <trkpt lat="43.89194" lon="4.00156">
        <ele>83.77</ele>
        <time>2012-04-09T14:08:31Z</time>
      </trkpt>
      <trkpt lat="43.89228" lon="4.00159">
        <ele>82.81</ele>
        <time>2012-04-09T14:08:33Z</time>
      </trkpt>
      <trkpt lat="43.89244" lon="4.00164">
        <ele>82.81</ele>
        <time>2012-04-09T14:08:34Z</time>
      </trkpt>
      <trkpt lat="43.89258" lon="4.00173">
        <ele>82.33</ele>
        <time>2012-04-09T14:08:35Z</time>
      </trkpt>
      <trkpt lat="43.89272" lon="4.00185">
        <ele>81.37</ele>
        <time>2012-04-09T14:08:36Z</time>
      </trkpt>
      <trkpt lat="43.89285" lon="4.002">
        <ele>80.89</ele>
        <time>2012-04-09T14:08:37Z</time>
      </trkpt>
      <trkpt lat="43.89297" lon="4.00217">
        <ele>80.41</ele>
        <time>2012-04-09T14:08:38Z</time>
      </trkpt>
      <trkpt lat="43.89324" lon="4.00249">
        <ele>79.45</ele>
        <time>2012-04-09T14:08:40Z</time>
      </trkpt>
      <trkpt lat="43.8934" lon="4.0026">
        <ele>79.45</ele>
        <time>2012-04-09T14:08:41Z</time>
      </trkpt>
      <trkpt lat="43.89357" lon="4.00268">
        <ele>78.97</ele>
        <time>2012-04-09T14:08:42Z</time>
      </trkpt>
      <trkpt lat="43.89376" lon="4.00274">
        <ele>78.48</ele>
        <time>2012-04-09T14:08:43Z</time>
      </trkpt>
      <trkpt lat="43.89398" lon="4.00277">
        <ele>78</ele>
        <time>2012-04-09T14:08:44Z</time>
      </trkpt>
      <trkpt lat="43.89423" lon="4.00276">
        <ele>77.52</ele>
        <time>2012-04-09T14:08:45Z</time>
      </trkpt>
      <trkpt lat="43.89449" lon="4.00272">
        <ele>77.04</ele>
        <time>2012-04-09T14:08:46Z</time>
      </trkpt>
      <trkpt lat="43.89477" lon="4.00266">
        <ele>77.04</ele>
        <time>2012-04-09T14:08:47Z</time>
      </trkpt>
      <trkpt lat="43.89705" lon="4.00217">
        <ele>76.56</ele>
        <time>2012-04-09T14:08:55Z</time>
      </trkpt>
      <trkpt lat="43.90001" lon="4.00124">
        <ele>75.6</ele>
        <time>2012-04-09T14:09:05Z</time>
      </trkpt>
      <trkpt lat="43.90116" lon="4.0011">
        <ele>77.52</ele>
        <time>2012-04-09T14:09:10Z</time>
      </trkpt>
      <trkpt lat="43.90244" lon="4.0012">
        <ele>80.41</ele>
        <time>2012-04-09T14:09:17Z</time>
      </trkpt>
      <trkpt lat="43.90257" lon="4.00126">
        <ele>80.41</ele>
        <time>2012-04-09T14:09:18Z</time>
      </trkpt>
      <trkpt lat="43.90281" lon="4.00136">
        <ele>80.89</ele>
        <time>2012-04-09T14:09:20Z</time>
      </trkpt>
      <trkpt lat="43.90291" lon="4.00138">
        <ele>81.37</ele>
        <time>2012-04-09T14:09:21Z</time>
      </trkpt>
      <trkpt lat="43.90325" lon="4.00148">
        <ele>81.37</ele>
        <time>2012-04-09T14:09:24Z</time>
      </trkpt>
      <trkpt lat="43.90338" lon="4.00155">
        <ele>81.37</ele>
        <time>2012-04-09T14:09:25Z</time>
      </trkpt>
      <trkpt lat="43.90351" lon="4.00164">
        <ele>81.37</ele>
        <time>2012-04-09T14:09:26Z</time>
      </trkpt>
      <trkpt lat="43.90365" lon="4.00178">
        <ele>81.37</ele>
        <time>2012-04-09T14:09:27Z</time>
      </trkpt>
      <trkpt lat="43.9038" lon="4.00194">
        <ele>81.85</ele>
        <time>2012-04-09T14:09:28Z</time>
      </trkpt>
      <trkpt lat="43.90395" lon="4.00213">
        <ele>81.85</ele>
        <time>2012-04-09T14:09:29Z</time>
      </trkpt>
      <trkpt lat="43.90506" lon="4.00361">
        <ele>81.85</ele>
        <time>2012-04-09T14:09:37Z</time>
      </trkpt>
      <trkpt lat="43.9056" lon="4.00445">
        <ele>80.89</ele>
        <time>2012-04-09T14:09:43Z</time>
      </trkpt>
      <trkpt lat="43.90563" lon="4.00457">
        <ele>80.89</ele>
        <time>2012-04-09T14:09:44Z</time>
      </trkpt>
      <trkpt lat="43.90565" lon="4.0047">
        <ele>80.89</ele>
        <time>2012-04-09T14:09:45Z</time>
      </trkpt>
      <trkpt lat="43.90568" lon="4.00484">
        <ele>81.37</ele>
        <time>2012-04-09T14:09:46Z</time>
      </trkpt>
      <trkpt lat="43.90572" lon="4.00496">
        <ele>81.37</ele>
        <time>2012-04-09T14:09:47Z</time>
      </trkpt>
      <trkpt lat="43.90577" lon="4.00504">
        <ele>80.89</ele>
        <time>2012-04-09T14:09:48Z</time>
      </trkpt>
      <trkpt lat="43.90585" lon="4.00507">
        <ele>80.89</ele>
        <time>2012-04-09T14:09:49Z</time>
      </trkpt>
      <trkpt lat="43.90594" lon="4.00506">
        <ele>80.89</ele>
        <time>2012-04-09T14:09:50Z</time>
      </trkpt>
      <trkpt lat="43.90603" lon="4.00502">
        <ele>80.89</ele>
        <time>2012-04-09T14:09:51Z</time>
      </trkpt>
      <trkpt lat="43.90614" lon="4.00497">
        <ele>80.89</ele>
        <time>2012-04-09T14:09:52Z</time>
      </trkpt>
      <trkpt lat="43.90625" lon="4.00494">
        <ele>80.89</ele>
        <time>2012-04-09T14:09:53Z</time>
      </trkpt>
      <trkpt lat="43.90638" lon="4.00493">
        <ele>80.89</ele>
        <time>2012-04-09T14:09:54Z</time>
      </trkpt>
      <trkpt lat="43.90652" lon="4.0049">
        <ele>80.89</ele>
        <time>2012-04-09T14:09:55Z</time>
      </trkpt>
      <trkpt lat="43.90665" lon="4.00484">
        <ele>80.89</ele>
        <time>2012-04-09T14:09:56Z</time>
      </trkpt>
      <trkpt lat="43.90677" lon="4.00477">
        <ele>80.89</ele>
        <time>2012-04-09T14:09:57Z</time>
      </trkpt>
      <trkpt lat="43.90687" lon="4.00468">
        <ele>81.37</ele>
        <time>2012-04-09T14:09:58Z</time>
      </trkpt>
      <trkpt lat="43.90696" lon="4.0046">
        <ele>81.37</ele>
        <time>2012-04-09T14:09:59Z</time>
      </trkpt>
      <trkpt lat="43.90704" lon="4.00451">
        <ele>81.37</ele>
        <time>2012-04-09T14:10:00Z</time>
      </trkpt>
      <trkpt lat="43.90778" lon="4.00351">
        <ele>82.81</ele>
        <time>2012-04-09T14:10:09Z</time>
      </trkpt>
      <trkpt lat="43.90864" lon="4.00302">
        <ele>84.73</ele>
        <time>2012-04-09T14:10:17Z</time>
      </trkpt>
      <trkpt lat="43.91019" lon="4.00222">
        <ele>89.54</ele>
        <time>2012-04-09T14:10:32Z</time>
      </trkpt>
      <trkpt lat="43.91045" lon="4.00193">
        <ele>90.02</ele>
        <time>2012-04-09T14:10:39Z</time>
      </trkpt>
      <trkpt lat="43.91075" lon="4.00139">
        <ele>90.98</ele>
        <time>2012-04-09T14:10:45Z</time>
      </trkpt>
      <trkpt lat="43.91125" lon="3.99989">
        <ele>93.39</ele>
        <time>2012-04-09T14:10:54Z</time>
      </trkpt>
      <trkpt lat="43.91209" lon="3.99754">
        <ele>93.39</ele>
        <time>2012-04-09T14:11:08Z</time>
      </trkpt>
      <trkpt lat="43.913" lon="3.99638">
        <ele>92.9</ele>
        <time>2012-04-09T14:11:17Z</time>
      </trkpt>
      <trkpt lat="43.91413" lon="3.99538">
        <ele>92.9</ele>
        <time>2012-04-09T14:11:28Z</time>
      </trkpt>
      <trkpt lat="43.91486" lon="3.9948">
        <ele>93.87</ele>
        <time>2012-04-09T14:11:35Z</time>
      </trkpt>
      <trkpt lat="43.91654" lon="3.99376">
        <ele>100.11</ele>
        <time>2012-04-09T14:11:49Z</time>
      </trkpt>
      <trkpt lat="43.91674" lon="3.99371">
        <ele>100.6</ele>
        <time>2012-04-09T14:11:51Z</time>
      </trkpt>
      <trkpt lat="43.91682" lon="3.99371">
        <ele>101.08</ele>
        <time>2012-04-09T14:11:52Z</time>
      </trkpt>
      <trkpt lat="43.91691" lon="3.99372">
        <ele>101.08</ele>
        <time>2012-04-09T14:11:53Z</time>
      </trkpt>
      <trkpt lat="43.91699" lon="3.99375">
        <ele>100.6</ele>
        <time>2012-04-09T14:11:54Z</time>
      </trkpt>
      <trkpt lat="43.91708" lon="3.99375">
        <ele>100.6</ele>
        <time>2012-04-09T14:11:55Z</time>
      </trkpt>
      <trkpt lat="43.91714" lon="3.99371">
        <ele>100.6</ele>
        <time>2012-04-09T14:11:56Z</time>
      </trkpt>
      <trkpt lat="43.91718" lon="3.99364">
        <ele>100.6</ele>
        <time>2012-04-09T14:11:57Z</time>
      </trkpt>
      <trkpt lat="43.9172" lon="3.99354">
        <ele>100.6</ele>
        <time>2012-04-09T14:11:58Z</time>
      </trkpt>
      <trkpt lat="43.91723" lon="3.99343">
        <ele>100.6</ele>
        <time>2012-04-09T14:11:59Z</time>
      </trkpt>
      <trkpt lat="43.91729" lon="3.99331">
        <ele>100.6</ele>
        <time>2012-04-09T14:12:00Z</time>
      </trkpt>
      <trkpt lat="43.9174" lon="3.99319">
        <ele>100.6</ele>
        <time>2012-04-09T14:12:01Z</time>
      </trkpt>
      <trkpt lat="43.91752" lon="3.99306">
        <ele>100.6</ele>
        <time>2012-04-09T14:12:02Z</time>
      </trkpt>
      <trkpt lat="43.91766" lon="3.99292">
        <ele>100.6</ele>
        <time>2012-04-09T14:12:03Z</time>
      </trkpt>
      <trkpt lat="43.91871" lon="3.99186">
        <ele>102.04</ele>
        <time>2012-04-09T14:12:09Z</time>
      </trkpt>
      <trkpt lat="43.92019" lon="3.99032">
        <ele>104.92</ele>
        <time>2012-04-09T14:12:15Z</time>
      </trkpt>
      <trkpt lat="43.92231" lon="3.98791">
        <ele>102.04</ele>
        <time>2012-04-09T14:12:24Z</time>
      </trkpt>
      <trkpt lat="43.9234" lon="3.98638">
        <ele>104.44</ele>
        <time>2012-04-09T14:12:31Z</time>
      </trkpt>
      <trkpt lat="43.92455" lon="3.98515">
        <ele>105.4</ele>
        <time>2012-04-09T14:12:39Z</time>
      </trkpt>
      <trkpt lat="43.9266" lon="3.98335">
        <ele>96.75</ele>
        <time>2012-04-09T14:12:52Z</time>
      </trkpt>
      <trkpt lat="43.92689" lon="3.98301">
        <ele>96.27</ele>
        <time>2012-04-09T14:12:54Z</time>
      </trkpt>
      <trkpt lat="43.92702" lon="3.98282">
        <ele>96.27</ele>
        <time>2012-04-09T14:12:55Z</time>
      </trkpt>
      <trkpt lat="43.92714" lon="3.98261">
        <ele>96.27</ele>
        <time>2012-04-09T14:12:56Z</time>
      </trkpt>
      <trkpt lat="43.9281" lon="3.98068">
        <ele>98.67</ele>
        <time>2012-04-09T14:13:05Z</time>
      </trkpt>
      <trkpt lat="43.92907" lon="3.97978">
        <ele>101.08</ele>
        <time>2012-04-09T14:13:11Z</time>
      </trkpt>
      <trkpt lat="43.93107" lon="3.97901">
        <ele>98.67</ele>
        <time>2012-04-09T14:13:21Z</time>
      </trkpt>
      <trkpt lat="43.93242" lon="3.97809">
        <ele>99.15</ele>
        <time>2012-04-09T14:13:29Z</time>
      </trkpt>
      <trkpt lat="43.93339" lon="3.97642">
        <ele>99.15</ele>
        <time>2012-04-09T14:13:37Z</time>
      </trkpt>
      <trkpt lat="43.9349" lon="3.97315">
        <ele>100.6</ele>
        <time>2012-04-09T14:13:51Z</time>
      </trkpt>
      <trkpt lat="43.93642" lon="3.97006">
        <ele>104.44</ele>
        <time>2012-04-09T14:14:05Z</time>
      </trkpt>
      <trkpt lat="43.937" lon="3.96845">
        <ele>104.92</ele>
        <time>2012-04-09T14:14:13Z</time>
      </trkpt>
      <trkpt lat="43.93703" lon="3.96823">
        <ele>105.4</ele>
        <time>2012-04-09T14:14:14Z</time>
      </trkpt>
      <trkpt lat="43.93705" lon="3.96801">
        <ele>105.4</ele>
        <time>2012-04-09T14:14:15Z</time>
      </trkpt>
      <trkpt lat="43.93706" lon="3.96779">
        <ele>105.88</ele>
        <time>2012-04-09T14:14:16Z</time>
      </trkpt>
      <trkpt lat="43.93705" lon="3.96756">
        <ele>106.36</ele>
        <time>2012-04-09T14:14:17Z</time>
      </trkpt>
      <trkpt lat="43.93704" lon="3.96733">
        <ele>106.36</ele>
        <time>2012-04-09T14:14:18Z</time>
      </trkpt>
      <trkpt lat="43.93677" lon="3.96369">
        <ele>107.32</ele>
        <time>2012-04-09T14:14:35Z</time>
      </trkpt>
      <trkpt lat="43.9366" lon="3.96124">
        <ele>106.36</ele>
        <time>2012-04-09T14:14:48Z</time>
      </trkpt>
      <trkpt lat="43.93683" lon="3.95965">
        <ele>105.88</ele>
        <time>2012-04-09T14:14:56Z</time>
      </trkpt>
      <trkpt lat="43.93765" lon="3.95753">
        <ele>104.44</ele>
        <time>2012-04-09T14:15:06Z</time>
      </trkpt>
      <trkpt lat="43.93831" lon="3.95594">
        <ele>105.4</ele>
        <time>2012-04-09T14:15:13Z</time>
      </trkpt>
      <trkpt lat="43.93945" lon="3.95323">
        <ele>105.4</ele>
        <time>2012-04-09T14:15:27Z</time>
      </trkpt>
      <trkpt lat="43.93965" lon="3.95292">
        <ele>104.92</ele>
        <time>2012-04-09T14:15:29Z</time>
      </trkpt>
      <trkpt lat="43.93976" lon="3.95278">
        <ele>104.44</ele>
        <time>2012-04-09T14:15:30Z</time>
      </trkpt>
      <trkpt lat="43.93988" lon="3.95266">
        <ele>104.44</ele>
        <time>2012-04-09T14:15:31Z</time>
      </trkpt>
      <trkpt lat="43.94114" lon="3.95164">
        <ele>105.88</ele>
        <time>2012-04-09T14:15:42Z</time>
      </trkpt>
      <trkpt lat="43.94223" lon="3.95149">
        <ele>105.88</ele>
        <time>2012-04-09T14:15:50Z</time>
      </trkpt>
      <trkpt lat="43.94351" lon="3.95149">
        <ele>104.44</ele>
        <time>2012-04-09T14:15:58Z</time>
      </trkpt>
      <trkpt lat="43.94367" lon="3.95142">
        <ele>104.44</ele>
        <time>2012-04-09T14:15:59Z</time>
      </trkpt>
      <trkpt lat="43.94382" lon="3.95133">
        <ele>104.44</ele>
        <time>2012-04-09T14:16:00Z</time>
      </trkpt>
      <trkpt lat="43.94397" lon="3.95123">
        <ele>104.44</ele>
        <time>2012-04-09T14:16:01Z</time>
      </trkpt>
      <trkpt lat="43.94411" lon="3.95111">
        <ele>104.44</ele>
        <time>2012-04-09T14:16:02Z</time>
      </trkpt>
      <trkpt lat="43.94424" lon="3.95097">
        <ele>104.44</ele>
        <time>2012-04-09T14:16:03Z</time>
      </trkpt>
      <trkpt lat="43.94436" lon="3.95081">
        <ele>104.44</ele>
        <time>2012-04-09T14:16:04Z</time>
      </trkpt>
      <trkpt lat="43.94447" lon="3.95064">
        <ele>104.44</ele>
        <time>2012-04-09T14:16:05Z</time>
      </trkpt>
      <trkpt lat="43.94457" lon="3.95046">
        <ele>104.44</ele>
        <time>2012-04-09T14:16:06Z</time>
      </trkpt>
      <trkpt lat="43.94466" lon="3.95026">
        <ele>104.92</ele>
        <time>2012-04-09T14:16:07Z</time>
      </trkpt>
      <trkpt lat="43.94473" lon="3.95006">
        <ele>105.4</ele>
        <time>2012-04-09T14:16:08Z</time>
      </trkpt>
      <trkpt lat="43.94479" lon="3.94984">
        <ele>105.88</ele>
        <time>2012-04-09T14:16:09Z</time>
      </trkpt>
      <trkpt lat="43.94485" lon="3.94962">
        <ele>106.84</ele>
        <time>2012-04-09T14:16:10Z</time>
      </trkpt>
      <trkpt lat="43.94518" lon="3.94732">
        <ele>114.05</ele>
        <time>2012-04-09T14:16:20Z</time>
      </trkpt>
      <trkpt lat="43.94498" lon="3.94453">
        <ele>119.34</ele>
        <time>2012-04-09T14:16:33Z</time>
      </trkpt>
      <trkpt lat="43.94466" lon="3.94041">
        <ele>125.59</ele>
        <time>2012-04-09T14:16:52Z</time>
      </trkpt>
      <trkpt lat="43.94435" lon="3.93637">
        <ele>125.11</ele>
        <time>2012-04-09T14:17:11Z</time>
      </trkpt>
      <trkpt lat="43.94417" lon="3.93414">
        <ele>124.63</ele>
        <time>2012-04-09T14:17:20Z</time>
      </trkpt>
      <trkpt lat="43.9439" lon="3.93057">
        <ele>133.28</ele>
        <time>2012-04-09T14:17:32Z</time>
      </trkpt>
      <trkpt lat="43.94361" lon="3.92679">
        <ele>140.01</ele>
        <time>2012-04-09T14:17:44Z</time>
      </trkpt>
      <trkpt lat="43.94341" lon="3.92353">
        <ele>141.93</ele>
        <time>2012-04-09T14:17:54Z</time>
      </trkpt>
      <trkpt lat="43.94345" lon="3.92319">
        <ele>142.41</ele>
        <time>2012-04-09T14:17:55Z</time>
      </trkpt>
      <trkpt lat="43.94351" lon="3.92285">
        <ele>142.41</ele>
        <time>2012-04-09T14:17:56Z</time>
      </trkpt>
      <trkpt lat="43.94425" lon="3.91919">
        <ele>134.72</ele>
        <time>2012-04-09T14:18:07Z</time>
      </trkpt>
      <trkpt lat="43.94471" lon="3.91684">
        <ele>130.88</ele>
        <time>2012-04-09T14:18:14Z</time>
      </trkpt>
      <trkpt lat="43.94566" lon="3.912">
        <ele>129.43</ele>
        <time>2012-04-09T14:18:28Z</time>
      </trkpt>
      <trkpt lat="43.94664" lon="3.90699">
        <ele>133.28</ele>
        <time>2012-04-09T14:18:45Z</time>
      </trkpt>
      <trkpt lat="43.94759" lon="3.90214">
        <ele>133.76</ele>
        <time>2012-04-09T14:19:01Z</time>
      </trkpt>
      <trkpt lat="43.94833" lon="3.89794">
        <ele>135.2</ele>
        <time>2012-04-09T14:19:14Z</time>
      </trkpt>
      <trkpt lat="43.94895" lon="3.89424">
        <ele>147.22</ele>
        <time>2012-04-09T14:19:26Z</time>
      </trkpt>
      <trkpt lat="43.94905" lon="3.89341">
        <ele>149.62</ele>
        <time>2012-04-09T14:19:29Z</time>
      </trkpt>
      <trkpt lat="43.94903" lon="3.89312">
        <ele>150.58</ele>
        <time>2012-04-09T14:19:30Z</time>
      </trkpt>
      <trkpt lat="43.94899" lon="3.89281">
        <ele>151.06</ele>
        <time>2012-04-09T14:19:31Z</time>
      </trkpt>
      <trkpt lat="43.94892" lon="3.89249">
        <ele>152.03</ele>
        <time>2012-04-09T14:19:32Z</time>
      </trkpt>
      <trkpt lat="43.94885" lon="3.89217">
        <ele>152.99</ele>
        <time>2012-04-09T14:19:33Z</time>
      </trkpt>
      <trkpt lat="43.94849" lon="3.89068">
        <ele>159.72</ele>
        <time>2012-04-09T14:19:38Z</time>
      </trkpt>
      <trkpt lat="43.94847" lon="3.89038">
        <ele>161.16</ele>
        <time>2012-04-09T14:19:39Z</time>
      </trkpt>
      <trkpt lat="43.94849" lon="3.89006">
        <ele>162.6</ele>
        <time>2012-04-09T14:19:40Z</time>
      </trkpt>
      <trkpt lat="43.94856" lon="3.88777">
        <ele>169.33</ele>
        <time>2012-04-09T14:19:47Z</time>
      </trkpt>
      <trkpt lat="43.9486" lon="3.88747">
        <ele>169.81</ele>
        <time>2012-04-09T14:19:48Z</time>
      </trkpt>
      <trkpt lat="43.94866" lon="3.88718">
        <ele>170.29</ele>
        <time>2012-04-09T14:19:49Z</time>
      </trkpt>
      <trkpt lat="43.94877" lon="3.88691">
        <ele>169.33</ele>
        <time>2012-04-09T14:19:50Z</time>
      </trkpt>
      <trkpt lat="43.95025" lon="3.8835">
        <ele>159.72</ele>
        <time>2012-04-09T14:20:02Z</time>
      </trkpt>
      <trkpt lat="43.95206" lon="3.87931">
        <ele>155.87</ele>
        <time>2012-04-09T14:20:16Z</time>
      </trkpt>
      <trkpt lat="43.95298" lon="3.87718">
        <ele>156.35</ele>
        <time>2012-04-09T14:20:24Z</time>
      </trkpt>
      <trkpt lat="43.95377" lon="3.87547">
        <ele>156.83</ele>
        <time>2012-04-09T14:20:33Z</time>
      </trkpt>
      <trkpt lat="43.95391" lon="3.87523">
        <ele>156.83</ele>
        <time>2012-04-09T14:20:36Z</time>
      </trkpt>
      <trkpt lat="43.95394" lon="3.87519">
        <ele>156.83</ele>
        <time>2012-04-09T14:20:37Z</time>
      </trkpt>
      <trkpt lat="43.95398" lon="3.87516">
        <ele>156.83</ele>
        <time>2012-04-09T14:20:38Z</time>
      </trkpt>
      <trkpt lat="43.95403" lon="3.87512">
        <ele>157.31</ele>
        <time>2012-04-09T14:20:39Z</time>
      </trkpt>
      <trkpt lat="43.95407" lon="3.87509">
        <ele>156.83</ele>
        <time>2012-04-09T14:20:40Z</time>
      </trkpt>
      <trkpt lat="43.95411" lon="3.87505">
        <ele>157.31</ele>
        <time>2012-04-09T14:20:41Z</time>
      </trkpt>
      <trkpt lat="43.95414" lon="3.875">
        <ele>157.31</ele>
        <time>2012-04-09T14:20:42Z</time>
      </trkpt>
      <trkpt lat="43.95416" lon="3.87494">
        <ele>157.31</ele>
        <time>2012-04-09T14:20:43Z</time>
      </trkpt>
      <trkpt lat="43.95417" lon="3.87486">
        <ele>156.83</ele>
        <time>2012-04-09T14:20:44Z</time>
      </trkpt>
      <trkpt lat="43.95417" lon="3.87477">
        <ele>156.83</ele>
        <time>2012-04-09T14:20:45Z</time>
      </trkpt>
      <trkpt lat="43.95417" lon="3.87467">
        <ele>156.83</ele>
        <time>2012-04-09T14:20:46Z</time>
      </trkpt>
      <trkpt lat="43.9542" lon="3.87456">
        <ele>156.83</ele>
        <time>2012-04-09T14:20:47Z</time>
      </trkpt>
      <trkpt lat="43.95423" lon="3.87445">
        <ele>156.83</ele>
        <time>2012-04-09T14:20:48Z</time>
      </trkpt>
      <trkpt lat="43.95474" lon="3.87316">
        <ele>156.35</ele>
        <time>2012-04-09T14:20:57Z</time>
      </trkpt>
      <trkpt lat="43.95526" lon="3.87184">
        <ele>157.31</ele>
        <time>2012-04-09T14:21:03Z</time>
      </trkpt>
      <trkpt lat="43.95569" lon="3.87076">
        <ele>157.31</ele>
        <time>2012-04-09T14:21:08Z</time>
      </trkpt>
      <trkpt lat="43.95575" lon="3.87052">
        <ele>157.31</ele>
        <time>2012-04-09T14:21:09Z</time>
      </trkpt>
      <trkpt lat="43.95614" lon="3.86837">
        <ele>157.79</ele>
        <time>2012-04-09T14:21:18Z</time>
      </trkpt>
      <trkpt lat="43.95686" lon="3.86605">
        <ele>161.64</ele>
        <time>2012-04-09T14:21:28Z</time>
      </trkpt>
      <trkpt lat="43.95747" lon="3.86298">
        <ele>164.04</ele>
        <time>2012-04-09T14:21:41Z</time>
      </trkpt>
      <trkpt lat="43.95782" lon="3.86135">
        <ele>165.48</ele>
        <time>2012-04-09T14:21:49Z</time>
      </trkpt>
      <trkpt lat="43.95789" lon="3.86123">
        <ele>165.48</ele>
        <time>2012-04-09T14:21:50Z</time>
      </trkpt>
      <trkpt lat="43.95797" lon="3.86116">
        <ele>165.48</ele>
        <time>2012-04-09T14:21:51Z</time>
      </trkpt>
      <trkpt lat="43.95806" lon="3.86116">
        <ele>165.48</ele>
        <time>2012-04-09T14:21:52Z</time>
      </trkpt>
      <trkpt lat="43.95816" lon="3.86116">
        <ele>165.96</ele>
        <time>2012-04-09T14:21:53Z</time>
      </trkpt>
      <trkpt lat="43.95825" lon="3.86117">
        <ele>165.96</ele>
        <time>2012-04-09T14:21:54Z</time>
      </trkpt>
      <trkpt lat="43.95833" lon="3.86113">
        <ele>165.96</ele>
        <time>2012-04-09T14:21:55Z</time>
      </trkpt>
      <trkpt lat="43.95839" lon="3.86107">
        <ele>165.96</ele>
        <time>2012-04-09T14:21:56Z</time>
      </trkpt>
      <trkpt lat="43.95844" lon="3.86098">
        <ele>165.96</ele>
        <time>2012-04-09T14:21:57Z</time>
      </trkpt>
      <trkpt lat="43.95851" lon="3.86087">
        <ele>165.48</ele>
        <time>2012-04-09T14:21:58Z</time>
      </trkpt>
      <trkpt lat="43.95861" lon="3.86077">
        <ele>165.48</ele>
        <time>2012-04-09T14:21:59Z</time>
      </trkpt>
      <trkpt lat="43.95871" lon="3.86066">
        <ele>165</ele>
        <time>2012-04-09T14:22:00Z</time>
      </trkpt>
      <trkpt lat="43.95957" lon="3.85956">
        <ele>165</ele>
        <time>2012-04-09T14:22:08Z</time>
      </trkpt>
      <trkpt lat="43.96084" lon="3.85798">
        <ele>165.96</ele>
        <time>2012-04-09T14:22:21Z</time>
      </trkpt>
      <trkpt lat="43.96124" lon="3.85755">
        <ele>166.45</ele>
        <time>2012-04-09T14:22:26Z</time>
      </trkpt>
      <trkpt lat="43.9613" lon="3.85744">
        <ele>166.45</ele>
        <time>2012-04-09T14:22:27Z</time>
      </trkpt>
      <trkpt lat="43.96141" lon="3.85721">
        <ele>167.41</ele>
        <time>2012-04-09T14:22:29Z</time>
      </trkpt>
      <trkpt lat="43.96147" lon="3.85711">
        <ele>167.41</ele>
        <time>2012-04-09T14:22:30Z</time>
      </trkpt>
      <trkpt lat="43.96155" lon="3.85703">
        <ele>167.41</ele>
        <time>2012-04-09T14:22:31Z</time>
      </trkpt>
      <trkpt lat="43.96183" lon="3.85675">
        <ele>168.37</ele>
        <time>2012-04-09T14:22:35Z</time>
      </trkpt>
      <trkpt lat="43.9619" lon="3.85673">
        <ele>168.85</ele>
        <time>2012-04-09T14:22:36Z</time>
      </trkpt>
      <trkpt lat="43.96196" lon="3.85673">
        <ele>168.37</ele>
        <time>2012-04-09T14:22:37Z</time>
      </trkpt>
      <trkpt lat="43.96201" lon="3.85672">
        <ele>168.37</ele>
        <time>2012-04-09T14:22:38Z</time>
      </trkpt>
      <trkpt lat="43.96206" lon="3.85668">
        <ele>168.85</ele>
        <time>2012-04-09T14:22:39Z</time>
      </trkpt>
      <trkpt lat="43.96209" lon="3.85661">
        <ele>169.33</ele>
        <time>2012-04-09T14:22:40Z</time>
      </trkpt>
      <trkpt lat="43.96212" lon="3.85651">
        <ele>169.81</ele>
        <time>2012-04-09T14:22:41Z</time>
      </trkpt>
      <trkpt lat="43.96216" lon="3.85641">
        <ele>170.29</ele>
        <time>2012-04-09T14:22:42Z</time>
      </trkpt>
      <trkpt lat="43.9622" lon="3.8563">
        <ele>170.77</ele>
        <time>2012-04-09T14:22:43Z</time>
      </trkpt>
      <trkpt lat="43.96227" lon="3.8562">
        <ele>171.25</ele>
        <time>2012-04-09T14:22:44Z</time>
      </trkpt>
      <trkpt lat="43.96235" lon="3.8561">
        <ele>171.73</ele>
        <time>2012-04-09T14:22:45Z</time>
      </trkpt>
      <trkpt lat="43.96243" lon="3.856">
        <ele>172.21</ele>
        <time>2012-04-09T14:22:46Z</time>
      </trkpt>
      <trkpt lat="43.96347" lon="3.8547">
        <ele>175.1</ele>
        <time>2012-04-09T14:22:59Z</time>
      </trkpt>
      <trkpt lat="43.96422" lon="3.85367">
        <ele>179.42</ele>
        <time>2012-04-09T14:23:10Z</time>
      </trkpt>
      <trkpt lat="43.96422" lon="3.85359">
        <ele>179.42</ele>
        <time>2012-04-09T14:23:11Z</time>
      </trkpt>
      <trkpt lat="43.9642" lon="3.8535">
        <ele>179.42</ele>
        <time>2012-04-09T14:23:12Z</time>
      </trkpt>
      <trkpt lat="43.96415" lon="3.85339">
        <ele>179.9</ele>
        <time>2012-04-09T14:23:13Z</time>
      </trkpt>
      <trkpt lat="43.9641" lon="3.85327">
        <ele>179.9</ele>
        <time>2012-04-09T14:23:14Z</time>
      </trkpt>
      <trkpt lat="43.96322" lon="3.85162">
        <ele>180.38</ele>
        <time>2012-04-09T14:23:26Z</time>
      </trkpt>
      <trkpt lat="43.96222" lon="3.84966">
        <ele>179.42</ele>
        <time>2012-04-09T14:23:37Z</time>
      </trkpt>
      <trkpt lat="43.96175" lon="3.84859">
        <ele>181.35</ele>
        <time>2012-04-09T14:23:42Z</time>
      </trkpt>
      <trkpt lat="43.96162" lon="3.84839">
        <ele>181.83</ele>
        <time>2012-04-09T14:23:43Z</time>
      </trkpt>
      <trkpt lat="43.96148" lon="3.8482">
        <ele>182.79</ele>
        <time>2012-04-09T14:23:44Z</time>
      </trkpt>
      <trkpt lat="43.95981" lon="3.84606">
        <ele>182.79</ele>
        <time>2012-04-09T14:23:56Z</time>
      </trkpt>
      <trkpt lat="43.9597" lon="3.84583">
        <ele>183.27</ele>
        <time>2012-04-09T14:23:57Z</time>
      </trkpt>
      <trkpt lat="43.95961" lon="3.84558">
        <ele>183.27</ele>
        <time>2012-04-09T14:23:58Z</time>
      </trkpt>
      <trkpt lat="43.95891" lon="3.843">
        <ele>187.59</ele>
        <time>2012-04-09T14:24:07Z</time>
      </trkpt>
      <trkpt lat="43.95855" lon="3.83945">
        <ele>192.88</ele>
        <time>2012-04-09T14:24:18Z</time>
      </trkpt>
      <trkpt lat="43.95811" lon="3.83456">
        <ele>198.65</ele>
        <time>2012-04-09T14:24:33Z</time>
      </trkpt>
      <trkpt lat="43.95826" lon="3.83268">
        <ele>199.13</ele>
        <time>2012-04-09T14:24:39Z</time>
      </trkpt>
      <trkpt lat="43.95833" lon="3.83239">
        <ele>199.13</ele>
        <time>2012-04-09T14:24:40Z</time>
      </trkpt>
      <trkpt lat="43.95842" lon="3.83211">
        <ele>199.13</ele>
        <time>2012-04-09T14:24:41Z</time>
      </trkpt>
      <trkpt lat="43.95854" lon="3.83185">
        <ele>199.13</ele>
        <time>2012-04-09T14:24:42Z</time>
      </trkpt>
      <trkpt lat="43.95866" lon="3.83159">
        <ele>199.13</ele>
        <time>2012-04-09T14:24:43Z</time>
      </trkpt>
      <trkpt lat="43.95887" lon="3.83106">
        <ele>199.13</ele>
        <time>2012-04-09T14:24:45Z</time>
      </trkpt>
      <trkpt lat="43.95893" lon="3.83079">
        <ele>199.13</ele>
        <time>2012-04-09T14:24:46Z</time>
      </trkpt>
      <trkpt lat="43.95898" lon="3.83051">
        <ele>199.61</ele>
        <time>2012-04-09T14:24:47Z</time>
      </trkpt>
      <trkpt lat="43.95899" lon="3.83024">
        <ele>200.57</ele>
        <time>2012-04-09T14:24:48Z</time>
      </trkpt>
      <trkpt lat="43.95899" lon="3.82997">
        <ele>200.57</ele>
        <time>2012-04-09T14:24:49Z</time>
      </trkpt>
      <trkpt lat="43.95898" lon="3.82972">
        <ele>201.05</ele>
        <time>2012-04-09T14:24:50Z</time>
      </trkpt>
      <trkpt lat="43.95869" lon="3.82719">
        <ele>208.74</ele>
        <time>2012-04-09T14:25:01Z</time>
      </trkpt>
      <trkpt lat="43.95822" lon="3.82526">
        <ele>214.03</ele>
        <time>2012-04-09T14:25:09Z</time>
      </trkpt>
      <trkpt lat="43.95773" lon="3.82329">
        <ele>217.88</ele>
        <time>2012-04-09T14:25:15Z</time>
      </trkpt>
      <trkpt lat="43.9568" lon="3.81945">
        <ele>226.05</ele>
        <time>2012-04-09T14:25:26Z</time>
      </trkpt>
      <trkpt lat="43.95567" lon="3.81425">
        <ele>233.26</ele>
        <time>2012-04-09T14:25:42Z</time>
      </trkpt>
      <trkpt lat="43.95486" lon="3.81053">
        <ele>239.51</ele>
        <time>2012-04-09T14:25:54Z</time>
      </trkpt>
      <trkpt lat="43.95417" lon="3.80742">
        <ele>239.02</ele>
        <time>2012-04-09T14:26:05Z</time>
      </trkpt>
      <trkpt lat="43.95322" lon="3.80353">
        <ele>227.97</ele>
        <time>2012-04-09T14:26:17Z</time>
      </trkpt>
      <trkpt lat="43.95193" lon="3.79808">
        <ele>216.43</ele>
        <time>2012-04-09T14:26:33Z</time>
      </trkpt>
      <trkpt lat="43.95069" lon="3.79287">
        <ele>212.59</ele>
        <time>2012-04-09T14:26:48Z</time>
      </trkpt>
      <trkpt lat="43.95002" lon="3.78951">
        <ele>212.11</ele>
        <time>2012-04-09T14:26:58Z</time>
      </trkpt>
      <trkpt lat="43.94948" lon="3.7831">
        <ele>212.11</ele>
        <time>2012-04-09T14:27:16Z</time>
      </trkpt>
      <trkpt lat="43.94902" lon="3.77769">
        <ele>214.03</ele>
        <time>2012-04-09T14:27:31Z</time>
      </trkpt>
      <trkpt lat="43.9485" lon="3.77204">
        <ele>217.4</ele>
        <time>2012-04-09T14:27:47Z</time>
      </trkpt>
      <trkpt lat="43.94806" lon="3.76726">
        <ele>215.47</ele>
        <time>2012-04-09T14:28:01Z</time>
      </trkpt>
      <trkpt lat="43.9477" lon="3.76324">
        <ele>223.64</ele>
        <time>2012-04-09T14:28:14Z</time>
      </trkpt>
      <trkpt lat="43.94756" lon="3.7617">
        <ele>225.57</ele>
        <time>2012-04-09T14:28:20Z</time>
      </trkpt>
      <trkpt lat="43.94751" lon="3.76144">
        <ele>225.57</ele>
        <time>2012-04-09T14:28:21Z</time>
      </trkpt>
      <trkpt lat="43.94742" lon="3.76118">
        <ele>225.57</ele>
        <time>2012-04-09T14:28:22Z</time>
      </trkpt>
      <trkpt lat="43.94672" lon="3.75956">
        <ele>229.89</ele>
        <time>2012-04-09T14:28:28Z</time>
      </trkpt>
      <trkpt lat="43.94638" lon="3.75864">
        <ele>229.89</ele>
        <time>2012-04-09T14:28:32Z</time>
      </trkpt>
      <trkpt lat="43.94633" lon="3.75836">
        <ele>229.41</ele>
        <time>2012-04-09T14:28:33Z</time>
      </trkpt>
      <trkpt lat="43.94631" lon="3.75806">
        <ele>228.45</ele>
        <time>2012-04-09T14:28:34Z</time>
      </trkpt>
      <trkpt lat="43.9463" lon="3.75773">
        <ele>227.01</ele>
        <time>2012-04-09T14:28:35Z</time>
      </trkpt>
      <trkpt lat="43.94631" lon="3.75739">
        <ele>225.09</ele>
        <time>2012-04-09T14:28:36Z</time>
      </trkpt>
      <trkpt lat="43.94637" lon="3.75291">
        <ele>211.15</ele>
        <time>2012-04-09T14:28:49Z</time>
      </trkpt>
      <trkpt lat="43.94644" lon="3.74621">
        <ele>211.63</ele>
        <time>2012-04-09T14:29:08Z</time>
      </trkpt>
      <trkpt lat="43.94646" lon="3.7427">
        <ele>209.22</ele>
        <time>2012-04-09T14:29:18Z</time>
      </trkpt>
      <trkpt lat="43.94622" lon="3.74072">
        <ele>205.86</ele>
        <time>2012-04-09T14:29:24Z</time>
      </trkpt>
      <trkpt lat="43.94558" lon="3.73782">
        <ele>194.32</ele>
        <time>2012-04-09T14:29:33Z</time>
      </trkpt>
      <trkpt lat="43.94526" lon="3.73635">
        <ele>190</ele>
        <time>2012-04-09T14:29:40Z</time>
      </trkpt>
      <trkpt lat="43.94511" lon="3.73548">
        <ele>187.11</ele>
        <time>2012-04-09T14:29:45Z</time>
      </trkpt>
      <trkpt lat="43.94495" lon="3.7347">
        <ele>185.19</ele>
        <time>2012-04-09T14:29:50Z</time>
      </trkpt>
      <trkpt lat="43.94485" lon="3.73436">
        <ele>185.19</ele>
        <time>2012-04-09T14:29:54Z</time>
      </trkpt>
      <trkpt lat="43.94484" lon="3.73424">
        <ele>185.19</ele>
        <time>2012-04-09T14:29:55Z</time>
      </trkpt>
      <trkpt lat="43.94482" lon="3.73413">
        <ele>185.19</ele>
        <time>2012-04-09T14:29:56Z</time>
      </trkpt>
      <trkpt lat="43.94479" lon="3.73401">
        <ele>184.71</ele>
        <time>2012-04-09T14:29:57Z</time>
      </trkpt>
      <trkpt lat="43.94475" lon="3.73389">
        <ele>184.23</ele>
        <time>2012-04-09T14:29:58Z</time>
      </trkpt>
      <trkpt lat="43.94471" lon="3.73374">
        <ele>183.75</ele>
        <time>2012-04-09T14:29:59Z</time>
      </trkpt>
      <trkpt lat="43.94439" lon="3.73218">
        <ele>177.02</ele>
        <time>2012-04-09T14:30:06Z</time>
      </trkpt>
      <trkpt lat="43.94374" lon="3.72913">
        <ele>172.69</ele>
        <time>2012-04-09T14:30:18Z</time>
      </trkpt>
      <trkpt lat="43.94341" lon="3.72642">
        <ele>177.98</ele>
        <time>2012-04-09T14:30:29Z</time>
      </trkpt>
      <trkpt lat="43.94362" lon="3.72436">
        <ele>180.87</ele>
        <time>2012-04-09T14:30:36Z</time>
      </trkpt>
      <trkpt lat="43.94417" lon="3.72048">
        <ele>184.71</ele>
        <time>2012-04-09T14:30:47Z</time>
      </trkpt>
      <trkpt lat="43.94437" lon="3.71862">
        <ele>190.48</ele>
        <time>2012-04-09T14:30:54Z</time>
      </trkpt>
      <trkpt lat="43.94434" lon="3.71842">
        <ele>191.44</ele>
        <time>2012-04-09T14:30:55Z</time>
      </trkpt>
      <trkpt lat="43.94429" lon="3.71823">
        <ele>191.92</ele>
        <time>2012-04-09T14:30:56Z</time>
      </trkpt>
      <trkpt lat="43.94409" lon="3.71755">
        <ele>193.36</ele>
        <time>2012-04-09T14:31:00Z</time>
      </trkpt>
      <trkpt lat="43.94409" lon="3.71741">
        <ele>193.36</ele>
        <time>2012-04-09T14:31:01Z</time>
      </trkpt>
      <trkpt lat="43.9441" lon="3.71728">
        <ele>192.88</ele>
        <time>2012-04-09T14:31:02Z</time>
      </trkpt>
      <trkpt lat="43.94414" lon="3.71717">
        <ele>192.88</ele>
        <time>2012-04-09T14:31:03Z</time>
      </trkpt>
      <trkpt lat="43.9442" lon="3.71706">
        <ele>192.4</ele>
        <time>2012-04-09T14:31:04Z</time>
      </trkpt>
      <trkpt lat="43.94425" lon="3.71696">
        <ele>192.4</ele>
        <time>2012-04-09T14:31:05Z</time>
      </trkpt>
      <trkpt lat="43.94428" lon="3.71684">
        <ele>191.92</ele>
        <time>2012-04-09T14:31:06Z</time>
      </trkpt>
      <trkpt lat="43.94428" lon="3.71671">
        <ele>191.92</ele>
        <time>2012-04-09T14:31:07Z</time>
      </trkpt>
      <trkpt lat="43.94425" lon="3.71659">
        <ele>191.92</ele>
        <time>2012-04-09T14:31:08Z</time>
      </trkpt>
      <trkpt lat="43.94418" lon="3.71651">
        <ele>191.44</ele>
        <time>2012-04-09T14:31:09Z</time>
      </trkpt>
      <trkpt lat="43.94408" lon="3.71647">
        <ele>191.44</ele>
        <time>2012-04-09T14:31:10Z</time>
      </trkpt>
      <trkpt lat="43.94395" lon="3.71647">
        <ele>190.96</ele>
        <time>2012-04-09T14:31:11Z</time>
      </trkpt>
      <trkpt lat="43.94384" lon="3.71646">
        <ele>190.96</ele>
        <time>2012-04-09T14:31:12Z</time>
      </trkpt>
      <trkpt lat="43.94373" lon="3.71642">
        <ele>190.48</ele>
        <time>2012-04-09T14:31:13Z</time>
      </trkpt>
      <trkpt lat="43.94363" lon="3.71634">
        <ele>190</ele>
        <time>2012-04-09T14:31:14Z</time>
      </trkpt>
      <trkpt lat="43.94354" lon="3.71623">
        <ele>190</ele>
        <time>2012-04-09T14:31:15Z</time>
      </trkpt>
      <trkpt lat="43.94347" lon="3.71611">
        <ele>189.52</ele>
        <time>2012-04-09T14:31:16Z</time>
      </trkpt>
      <trkpt lat="43.9434" lon="3.71597">
        <ele>189.04</ele>
        <time>2012-04-09T14:31:17Z</time>
      </trkpt>
      <trkpt lat="43.94335" lon="3.71583">
        <ele>188.56</ele>
        <time>2012-04-09T14:31:18Z</time>
      </trkpt>
      <trkpt lat="43.9433" lon="3.71566">
        <ele>188.08</ele>
        <time>2012-04-09T14:31:19Z</time>
      </trkpt>
      <trkpt lat="43.94328" lon="3.71548">
        <ele>188.08</ele>
        <time>2012-04-09T14:31:20Z</time>
      </trkpt>
      <trkpt lat="43.94326" lon="3.7153">
        <ele>187.59</ele>
        <time>2012-04-09T14:31:21Z</time>
      </trkpt>
      <trkpt lat="43.94326" lon="3.71512">
        <ele>187.11</ele>
        <time>2012-04-09T14:31:22Z</time>
      </trkpt>
      <trkpt lat="43.94327" lon="3.71494">
        <ele>187.11</ele>
        <time>2012-04-09T14:31:23Z</time>
      </trkpt>
      <trkpt lat="43.94333" lon="3.714">
        <ele>185.67</ele>
        <time>2012-04-09T14:31:29Z</time>
      </trkpt>
      <trkpt lat="43.94332" lon="3.71388">
        <ele>185.67</ele>
        <time>2012-04-09T14:31:30Z</time>
      </trkpt>
      <trkpt lat="43.94329" lon="3.71377">
        <ele>185.19</ele>
        <time>2012-04-09T14:31:31Z</time>
      </trkpt>
      <trkpt lat="43.94326" lon="3.71367">
        <ele>184.71</ele>
        <time>2012-04-09T14:31:32Z</time>
      </trkpt>
      <trkpt lat="43.94322" lon="3.71359">
        <ele>184.23</ele>
        <time>2012-04-09T14:31:33Z</time>
      </trkpt>
      <trkpt lat="43.94318" lon="3.71351">
        <ele>184.23</ele>
        <time>2012-04-09T14:31:34Z</time>
      </trkpt>
      <trkpt lat="43.94312" lon="3.71343">
        <ele>183.75</ele>
        <time>2012-04-09T14:31:35Z</time>
      </trkpt>
      <trkpt lat="43.94307" lon="3.71335">
        <ele>183.27</ele>
        <time>2012-04-09T14:31:36Z</time>
      </trkpt>
      <trkpt lat="43.943" lon="3.71328">
        <ele>183.27</ele>
        <time>2012-04-09T14:31:37Z</time>
      </trkpt>
      <trkpt lat="43.94292" lon="3.71321">
        <ele>182.79</ele>
        <time>2012-04-09T14:31:38Z</time>
      </trkpt>
      <trkpt lat="43.94284" lon="3.71317">
        <ele>182.31</ele>
        <time>2012-04-09T14:31:39Z</time>
      </trkpt>
      <trkpt lat="43.94274" lon="3.71314">
        <ele>181.83</ele>
        <time>2012-04-09T14:31:40Z</time>
      </trkpt>
      <trkpt lat="43.94262" lon="3.71314">
        <ele>180.87</ele>
        <time>2012-04-09T14:31:41Z</time>
      </trkpt>
      <trkpt lat="43.9425" lon="3.71316">
        <ele>180.38</ele>
        <time>2012-04-09T14:31:42Z</time>
      </trkpt>
      <trkpt lat="43.94238" lon="3.7132">
        <ele>179.9</ele>
        <time>2012-04-09T14:31:43Z</time>
      </trkpt>
      <trkpt lat="43.94226" lon="3.71324">
        <ele>178.94</ele>
        <time>2012-04-09T14:31:44Z</time>
      </trkpt>
      <trkpt lat="43.94141" lon="3.71333">
        <ele>175.58</ele>
        <time>2012-04-09T14:31:52Z</time>
      </trkpt>
      <trkpt lat="43.94025" lon="3.71323">
        <ele>171.73</ele>
        <time>2012-04-09T14:32:03Z</time>
      </trkpt>
      <trkpt lat="43.94014" lon="3.71324">
        <ele>171.73</ele>
        <time>2012-04-09T14:32:04Z</time>
      </trkpt>
      <trkpt lat="43.94004" lon="3.71329">
        <ele>171.25</ele>
        <time>2012-04-09T14:32:05Z</time>
      </trkpt>
      <trkpt lat="43.93994" lon="3.71341">
        <ele>170.77</ele>
        <time>2012-04-09T14:32:06Z</time>
      </trkpt>
      <trkpt lat="43.93986" lon="3.71353">
        <ele>170.29</ele>
        <time>2012-04-09T14:32:07Z</time>
      </trkpt>
      <trkpt lat="43.93979" lon="3.71365">
        <ele>170.29</ele>
        <time>2012-04-09T14:32:08Z</time>
      </trkpt>
      <trkpt lat="43.93946" lon="3.71404">
        <ele>168.37</ele>
        <time>2012-04-09T14:32:13Z</time>
      </trkpt>
      <trkpt lat="43.93936" lon="3.71411">
        <ele>168.37</ele>
        <time>2012-04-09T14:32:14Z</time>
      </trkpt>
      <trkpt lat="43.93924" lon="3.71415">
        <ele>168.37</ele>
        <time>2012-04-09T14:32:15Z</time>
      </trkpt>
      <trkpt lat="43.93912" lon="3.71417">
        <ele>168.37</ele>
        <time>2012-04-09T14:32:16Z</time>
      </trkpt>
      <trkpt lat="43.93899" lon="3.71416">
        <ele>167.89</ele>
        <time>2012-04-09T14:32:17Z</time>
      </trkpt>
      <trkpt lat="43.93886" lon="3.71414">
        <ele>167.41</ele>
        <time>2012-04-09T14:32:18Z</time>
      </trkpt>
      <trkpt lat="43.93874" lon="3.71409">
        <ele>166.93</ele>
        <time>2012-04-09T14:32:19Z</time>
      </trkpt>
      <trkpt lat="43.93862" lon="3.71402">
        <ele>166.93</ele>
        <time>2012-04-09T14:32:20Z</time>
      </trkpt>
      <trkpt lat="43.93851" lon="3.71395">
        <ele>166.45</ele>
        <time>2012-04-09T14:32:21Z</time>
      </trkpt>
      <trkpt lat="43.93756" lon="3.71297">
        <ele>161.16</ele>
        <time>2012-04-09T14:32:31Z</time>
      </trkpt>
      <trkpt lat="43.93698" lon="3.71202">
        <ele>158.75</ele>
        <time>2012-04-09T14:32:39Z</time>
      </trkpt>
      <trkpt lat="43.93691" lon="3.71194">
        <ele>158.75</ele>
        <time>2012-04-09T14:32:40Z</time>
      </trkpt>
      <trkpt lat="43.93634" lon="3.71132">
        <ele>158.75</ele>
        <time>2012-04-09T14:32:49Z</time>
      </trkpt>
      <trkpt lat="43.93627" lon="3.71132">
        <ele>158.75</ele>
        <time>2012-04-09T14:32:50Z</time>
      </trkpt>
      <trkpt lat="43.9362" lon="3.71135">
        <ele>158.75</ele>
        <time>2012-04-09T14:32:51Z</time>
      </trkpt>
      <trkpt lat="43.93615" lon="3.71145">
        <ele>158.27</ele>
        <time>2012-04-09T14:32:52Z</time>
      </trkpt>
      <trkpt lat="43.9361" lon="3.71156">
        <ele>158.27</ele>
        <time>2012-04-09T14:32:53Z</time>
      </trkpt>
      <trkpt lat="43.93605" lon="3.71168">
        <ele>158.27</ele>
        <time>2012-04-09T14:32:54Z</time>
      </trkpt>
      <trkpt lat="43.936" lon="3.71181">
        <ele>158.27</ele>
        <time>2012-04-09T14:32:55Z</time>
      </trkpt>
      <trkpt lat="43.93558" lon="3.71276">
        <ele>157.79</ele>
        <time>2012-04-09T14:33:01Z</time>
      </trkpt>
      <trkpt lat="43.93548" lon="3.71291">
        <ele>157.31</ele>
        <time>2012-04-09T14:33:02Z</time>
      </trkpt>
      <trkpt lat="43.93536" lon="3.71305">
        <ele>156.83</ele>
        <time>2012-04-09T14:33:03Z</time>
      </trkpt>
      <trkpt lat="43.93523" lon="3.71317">
        <ele>156.35</ele>
        <time>2012-04-09T14:33:04Z</time>
      </trkpt>
      <trkpt lat="43.93507" lon="3.71326">
        <ele>156.35</ele>
        <time>2012-04-09T14:33:05Z</time>
      </trkpt>
      <trkpt lat="43.93491" lon="3.71332">
        <ele>155.87</ele>
        <time>2012-04-09T14:33:06Z</time>
      </trkpt>
      <trkpt lat="43.93474" lon="3.71334">
        <ele>155.39</ele>
        <time>2012-04-09T14:33:07Z</time>
      </trkpt>
      <trkpt lat="43.93456" lon="3.71333">
        <ele>154.91</ele>
        <time>2012-04-09T14:33:08Z</time>
      </trkpt>
      <trkpt lat="43.93438" lon="3.71327">
        <ele>154.91</ele>
        <time>2012-04-09T14:33:09Z</time>
      </trkpt>
      <trkpt lat="43.9342" lon="3.7132">
        <ele>154.91</ele>
        <time>2012-04-09T14:33:10Z</time>
      </trkpt>
      <trkpt lat="43.93317" lon="3.71264">
        <ele>155.39</ele>
        <time>2012-04-09T14:33:17Z</time>
      </trkpt>
      <trkpt lat="43.93306" lon="3.71252">
        <ele>154.91</ele>
        <time>2012-04-09T14:33:18Z</time>
      </trkpt>
      <trkpt lat="43.93295" lon="3.71239">
        <ele>154.91</ele>
        <time>2012-04-09T14:33:19Z</time>
      </trkpt>
      <trkpt lat="43.93286" lon="3.71224">
        <ele>155.39</ele>
        <time>2012-04-09T14:33:20Z</time>
      </trkpt>
      <trkpt lat="43.93278" lon="3.71208">
        <ele>154.91</ele>
        <time>2012-04-09T14:33:21Z</time>
      </trkpt>
      <trkpt lat="43.93271" lon="3.71193">
        <ele>155.39</ele>
        <time>2012-04-09T14:33:22Z</time>
      </trkpt>
      <trkpt lat="43.93265" lon="3.71178">
        <ele>155.39</ele>
        <time>2012-04-09T14:33:23Z</time>
      </trkpt>
      <trkpt lat="43.93251" lon="3.71137">
        <ele>156.35</ele>
        <time>2012-04-09T14:33:28Z</time>
      </trkpt>
      <trkpt lat="43.93249" lon="3.71127">
        <ele>156.35</ele>
        <time>2012-04-09T14:33:30Z</time>
      </trkpt>
      <trkpt lat="43.93248" lon="3.71119">
        <ele>156.35</ele>
        <time>2012-04-09T14:33:31Z</time>
      </trkpt>
      <trkpt lat="43.93249" lon="3.71109">
        <ele>156.83</ele>
        <time>2012-04-09T14:33:32Z</time>
      </trkpt>
      <trkpt lat="43.9325" lon="3.71099">
        <ele>156.83</ele>
        <time>2012-04-09T14:33:33Z</time>
      </trkpt>
      <trkpt lat="43.9325" lon="3.71089">
        <ele>156.83</ele>
        <time>2012-04-09T14:33:34Z</time>
      </trkpt>
      <trkpt lat="43.93248" lon="3.7108">
        <ele>156.83</ele>
        <time>2012-04-09T14:33:35Z</time>
      </trkpt>
      <trkpt lat="43.93243" lon="3.71072">
        <ele>156.83</ele>
        <time>2012-04-09T14:33:36Z</time>
      </trkpt>
      <trkpt lat="43.93237" lon="3.71067">
        <ele>156.83</ele>
        <time>2012-04-09T14:33:37Z</time>
      </trkpt>
      <trkpt lat="43.9323" lon="3.71065">
        <ele>156.83</ele>
        <time>2012-04-09T14:33:38Z</time>
      </trkpt>
      <trkpt lat="43.93222" lon="3.71067">
        <ele>156.83</ele>
        <time>2012-04-09T14:33:39Z</time>
      </trkpt>
      <trkpt lat="43.93217" lon="3.71073">
        <ele>156.83</ele>
        <time>2012-04-09T14:33:40Z</time>
      </trkpt>
      <trkpt lat="43.93213" lon="3.71083">
        <ele>156.35</ele>
        <time>2012-04-09T14:33:41Z</time>
      </trkpt>
      <trkpt lat="43.93211" lon="3.71093">
        <ele>155.87</ele>
        <time>2012-04-09T14:33:42Z</time>
      </trkpt>
      <trkpt lat="43.93208" lon="3.71103">
        <ele>155.87</ele>
        <time>2012-04-09T14:33:43Z</time>
      </trkpt>
      <trkpt lat="43.93205" lon="3.71112">
        <ele>155.39</ele>
        <time>2012-04-09T14:33:44Z</time>
      </trkpt>
      <trkpt lat="43.932" lon="3.7112">
        <ele>155.39</ele>
        <time>2012-04-09T14:33:45Z</time>
      </trkpt>
      <trkpt lat="43.93194" lon="3.71127">
        <ele>155.39</ele>
        <time>2012-04-09T14:33:46Z</time>
      </trkpt>
      <trkpt lat="43.93114" lon="3.71193">
        <ele>155.39</ele>
        <time>2012-04-09T14:33:56Z</time>
      </trkpt>
      <trkpt lat="43.93039" lon="3.71251">
        <ele>155.39</ele>
        <time>2012-04-09T14:34:04Z</time>
      </trkpt>
      <trkpt lat="43.92941" lon="3.7133">
        <ele>153.95</ele>
        <time>2012-04-09T14:34:15Z</time>
      </trkpt>
      <trkpt lat="43.92864" lon="3.71392">
        <ele>153.47</ele>
        <time>2012-04-09T14:34:24Z</time>
      </trkpt>
      <trkpt lat="43.92765" lon="3.71471">
        <ele>151.06</ele>
        <time>2012-04-09T14:34:34Z</time>
      </trkpt>
      <trkpt lat="43.9266" lon="3.71552">
        <ele>151.06</ele>
        <time>2012-04-09T14:34:45Z</time>
      </trkpt>
      <trkpt lat="43.92647" lon="3.7156">
        <ele>151.06</ele>
        <time>2012-04-09T14:34:47Z</time>
      </trkpt>
      <trkpt lat="43.92641" lon="3.7157">
        <ele>151.06</ele>
        <time>2012-04-09T14:34:48Z</time>
      </trkpt>
      <trkpt lat="43.92582" lon="3.71686">
        <ele>150.1</ele>
        <time>2012-04-09T14:34:56Z</time>
      </trkpt>
      <trkpt lat="43.92517" lon="3.71897">
        <ele>147.22</ele>
        <time>2012-04-09T14:35:07Z</time>
      </trkpt>
      <trkpt lat="43.92462" lon="3.72047">
        <ele>145.3</ele>
        <time>2012-04-09T14:35:16Z</time>
      </trkpt>
      <trkpt lat="43.92453" lon="3.72064">
        <ele>146.26</ele>
        <time>2012-04-09T14:35:21Z</time>
      </trkpt>
      <trkpt lat="43.92437" lon="3.72091">
        <ele>147.22</ele>
        <time>2012-04-09T14:35:34Z</time>
      </trkpt>
      <trkpt lat="43.92404" lon="3.72141">
        <ele>146.74</ele>
        <time>2012-04-09T14:35:39Z</time>
      </trkpt>
      <trkpt lat="43.92349" lon="3.72243">
        <ele>147.22</ele>
        <time>2012-04-09T14:35:46Z</time>
      </trkpt>
      <trkpt lat="43.92338" lon="3.72254">
        <ele>147.22</ele>
        <time>2012-04-09T14:35:47Z</time>
      </trkpt>
      <trkpt lat="43.92328" lon="3.72264">
        <ele>146.74</ele>
        <time>2012-04-09T14:35:48Z</time>
      </trkpt>
      <trkpt lat="43.92316" lon="3.72272">
        <ele>146.74</ele>
        <time>2012-04-09T14:35:49Z</time>
      </trkpt>
      <trkpt lat="43.92305" lon="3.72278">
        <ele>146.26</ele>
        <time>2012-04-09T14:35:50Z</time>
      </trkpt>
      <trkpt lat="43.92293" lon="3.72281">
        <ele>146.26</ele>
        <time>2012-04-09T14:35:51Z</time>
      </trkpt>
      <trkpt lat="43.92282" lon="3.72284">
        <ele>146.26</ele>
        <time>2012-04-09T14:35:52Z</time>
      </trkpt>
      <trkpt lat="43.92243" lon="3.72294">
        <ele>145.78</ele>
        <time>2012-04-09T14:35:57Z</time>
      </trkpt>
      <trkpt lat="43.92237" lon="3.72298">
        <ele>145.78</ele>
        <time>2012-04-09T14:35:58Z</time>
      </trkpt>
      <trkpt lat="43.92231" lon="3.72304">
        <ele>145.78</ele>
        <time>2012-04-09T14:35:59Z</time>
      </trkpt>
      <trkpt lat="43.92226" lon="3.72312">
        <ele>145.3</ele>
        <time>2012-04-09T14:36:00Z</time>
      </trkpt>
      <trkpt lat="43.92222" lon="3.72319">
        <ele>145.3</ele>
        <time>2012-04-09T14:36:01Z</time>
      </trkpt>
      <trkpt lat="43.92217" lon="3.72327">
        <ele>145.3</ele>
        <time>2012-04-09T14:36:02Z</time>
      </trkpt>
      <trkpt lat="43.92194" lon="3.72395">
        <ele>144.34</ele>
        <time>2012-04-09T14:36:09Z</time>
      </trkpt>
      <trkpt lat="43.92192" lon="3.72407">
        <ele>144.34</ele>
        <time>2012-04-09T14:36:10Z</time>
      </trkpt>
      <trkpt lat="43.92191" lon="3.72418">
        <ele>144.82</ele>
        <time>2012-04-09T14:36:11Z</time>
      </trkpt>
      <trkpt lat="43.92187" lon="3.72468">
        <ele>144.34</ele>
        <time>2012-04-09T14:36:16Z</time>
      </trkpt>
      <trkpt lat="43.92184" lon="3.72478">
        <ele>143.85</ele>
        <time>2012-04-09T14:36:17Z</time>
      </trkpt>
      <trkpt lat="43.92181" lon="3.72489">
        <ele>143.85</ele>
        <time>2012-04-09T14:36:18Z</time>
      </trkpt>
      <trkpt lat="43.92177" lon="3.725">
        <ele>143.37</ele>
        <time>2012-04-09T14:36:19Z</time>
      </trkpt>
      <trkpt lat="43.9217" lon="3.72512">
        <ele>143.37</ele>
        <time>2012-04-09T14:36:20Z</time>
      </trkpt>
      <trkpt lat="43.92163" lon="3.72524">
        <ele>143.37</ele>
        <time>2012-04-09T14:36:21Z</time>
      </trkpt>
      <trkpt lat="43.92155" lon="3.72534">
        <ele>142.89</ele>
        <time>2012-04-09T14:36:22Z</time>
      </trkpt>
      <trkpt lat="43.92147" lon="3.72544">
        <ele>142.89</ele>
        <time>2012-04-09T14:36:23Z</time>
      </trkpt>
      <trkpt lat="43.92138" lon="3.72552">
        <ele>142.89</ele>
        <time>2012-04-09T14:36:24Z</time>
      </trkpt>
      <trkpt lat="43.92119" lon="3.72567">
        <ele>142.41</ele>
        <time>2012-04-09T14:36:26Z</time>
      </trkpt>
      <trkpt lat="43.92106" lon="3.7257">
        <ele>142.41</ele>
        <time>2012-04-09T14:36:27Z</time>
      </trkpt>
      <trkpt lat="43.92092" lon="3.72568">
        <ele>142.41</ele>
        <time>2012-04-09T14:36:28Z</time>
      </trkpt>
      <trkpt lat="43.92079" lon="3.72564">
        <ele>142.41</ele>
        <time>2012-04-09T14:36:29Z</time>
      </trkpt>
      <trkpt lat="43.92067" lon="3.72559">
        <ele>141.93</ele>
        <time>2012-04-09T14:36:30Z</time>
      </trkpt>
      <trkpt lat="43.92055" lon="3.72556">
        <ele>141.93</ele>
        <time>2012-04-09T14:36:31Z</time>
      </trkpt>
      <trkpt lat="43.92043" lon="3.72557">
        <ele>141.93</ele>
        <time>2012-04-09T14:36:32Z</time>
      </trkpt>
      <trkpt lat="43.92031" lon="3.72562">
        <ele>141.45</ele>
        <time>2012-04-09T14:36:33Z</time>
      </trkpt>
      <trkpt lat="43.92019" lon="3.72569">
        <ele>141.45</ele>
        <time>2012-04-09T14:36:34Z</time>
      </trkpt>
      <trkpt lat="43.92009" lon="3.72576">
        <ele>141.45</ele>
        <time>2012-04-09T14:36:35Z</time>
      </trkpt>
      <trkpt lat="43.91884" lon="3.72667">
        <ele>141.45</ele>
        <time>2012-04-09T14:36:46Z</time>
      </trkpt>
      <trkpt lat="43.91833" lon="3.7275">
        <ele>140.97</ele>
        <time>2012-04-09T14:36:52Z</time>
      </trkpt>
      <trkpt lat="43.91822" lon="3.72763">
        <ele>140.97</ele>
        <time>2012-04-09T14:36:53Z</time>
      </trkpt>
      <trkpt lat="43.91809" lon="3.72775">
        <ele>140.97</ele>
        <time>2012-04-09T14:36:54Z</time>
      </trkpt>
      <trkpt lat="43.91795" lon="3.72785">
        <ele>140.97</ele>
        <time>2012-04-09T14:36:55Z</time>
      </trkpt>
      <trkpt lat="43.9178" lon="3.72792">
        <ele>140.97</ele>
        <time>2012-04-09T14:36:56Z</time>
      </trkpt>
      <trkpt lat="43.91763" lon="3.72796">
        <ele>140.97</ele>
        <time>2012-04-09T14:36:57Z</time>
      </trkpt>
      <trkpt lat="43.91745" lon="3.72797">
        <ele>140.97</ele>
        <time>2012-04-09T14:36:58Z</time>
      </trkpt>
      <trkpt lat="43.91727" lon="3.72794">
        <ele>140.97</ele>
        <time>2012-04-09T14:36:59Z</time>
      </trkpt>
      <trkpt lat="43.9171" lon="3.7279">
        <ele>140.97</ele>
        <time>2012-04-09T14:37:00Z</time>
      </trkpt>
      <trkpt lat="43.91632" lon="3.7277">
        <ele>140.97</ele>
        <time>2012-04-09T14:37:06Z</time>
      </trkpt>
      <trkpt lat="43.9161" lon="3.72766">
        <ele>140.49</ele>
        <time>2012-04-09T14:37:08Z</time>
      </trkpt>
      <trkpt lat="43.91598" lon="3.72767">
        <ele>140.49</ele>
        <time>2012-04-09T14:37:09Z</time>
      </trkpt>
      <trkpt lat="43.91587" lon="3.72771">
        <ele>140.49</ele>
        <time>2012-04-09T14:37:10Z</time>
      </trkpt>
      <trkpt lat="43.91577" lon="3.72779">
        <ele>140.49</ele>
        <time>2012-04-09T14:37:11Z</time>
      </trkpt>
      <trkpt lat="43.91571" lon="3.72792">
        <ele>140.49</ele>
        <time>2012-04-09T14:37:12Z</time>
      </trkpt>
      <trkpt lat="43.91571" lon="3.72808">
        <ele>140.97</ele>
        <time>2012-04-09T14:37:13Z</time>
      </trkpt>
      <trkpt lat="43.91569" lon="3.72824">
        <ele>140.97</ele>
        <time>2012-04-09T14:37:14Z</time>
      </trkpt>
      <trkpt lat="43.91572" lon="3.72842">
        <ele>141.45</ele>
        <time>2012-04-09T14:37:15Z</time>
      </trkpt>
      <trkpt lat="43.91577" lon="3.72858">
        <ele>142.41</ele>
        <time>2012-04-09T14:37:16Z</time>
      </trkpt>
      <trkpt lat="43.91588" lon="3.72876">
        <ele>141.93</ele>
        <time>2012-04-09T14:37:17Z</time>
      </trkpt>
      <trkpt lat="43.91598" lon="3.72894">
        <ele>141.93</ele>
        <time>2012-04-09T14:37:18Z</time>
      </trkpt>
      <trkpt lat="43.91645" lon="3.73025">
        <ele>141.45</ele>
        <time>2012-04-09T14:37:23Z</time>
      </trkpt>
      <trkpt lat="43.91684" lon="3.73216">
        <ele>140.49</ele>
        <time>2012-04-09T14:37:29Z</time>
      </trkpt>
      <trkpt lat="43.91685" lon="3.73245">
        <ele>140.49</ele>
        <time>2012-04-09T14:37:30Z</time>
      </trkpt>
      <trkpt lat="43.91683" lon="3.73276">
        <ele>140.01</ele>
        <time>2012-04-09T14:37:31Z</time>
      </trkpt>
      <trkpt lat="43.91668" lon="3.73393">
        <ele>139.05</ele>
        <time>2012-04-09T14:37:35Z</time>
      </trkpt>
      <trkpt lat="43.9166" lon="3.73422">
        <ele>138.09</ele>
        <time>2012-04-09T14:37:36Z</time>
      </trkpt>
      <trkpt lat="43.91648" lon="3.73454">
        <ele>138.09</ele>
        <time>2012-04-09T14:37:37Z</time>
      </trkpt>
      <trkpt lat="43.91538" lon="3.73687">
        <ele>137.61</ele>
        <time>2012-04-09T14:37:45Z</time>
      </trkpt>
      <trkpt lat="43.91512" lon="3.7373">
        <ele>137.13</ele>
        <time>2012-04-09T14:37:47Z</time>
      </trkpt>
      <trkpt lat="43.91497" lon="3.73746">
        <ele>137.13</ele>
        <time>2012-04-09T14:37:48Z</time>
      </trkpt>
      <trkpt lat="43.91479" lon="3.7376">
        <ele>137.13</ele>
        <time>2012-04-09T14:37:49Z</time>
      </trkpt>
      <trkpt lat="43.91384" lon="3.73816">
        <ele>136.16</ele>
        <time>2012-04-09T14:37:54Z</time>
      </trkpt>
      <trkpt lat="43.91366" lon="3.73819">
        <ele>135.68</ele>
        <time>2012-04-09T14:37:55Z</time>
      </trkpt>
      <trkpt lat="43.91348" lon="3.73821">
        <ele>135.2</ele>
        <time>2012-04-09T14:37:56Z</time>
      </trkpt>
      <trkpt lat="43.91331" lon="3.73819">
        <ele>135.2</ele>
        <time>2012-04-09T14:37:57Z</time>
      </trkpt>
      <trkpt lat="43.91313" lon="3.73806">
        <ele>134.72</ele>
        <time>2012-04-09T14:37:58Z</time>
      </trkpt>
      <trkpt lat="43.91294" lon="3.73788">
        <ele>134.72</ele>
        <time>2012-04-09T14:37:59Z</time>
      </trkpt>
      <trkpt lat="43.91275" lon="3.7377">
        <ele>134.24</ele>
        <time>2012-04-09T14:38:00Z</time>
      </trkpt>
      <trkpt lat="43.91256" lon="3.7375">
        <ele>134.24</ele>
        <time>2012-04-09T14:38:01Z</time>
      </trkpt>
      <trkpt lat="43.91238" lon="3.73731">
        <ele>134.24</ele>
        <time>2012-04-09T14:38:02Z</time>
      </trkpt>
      <trkpt lat="43.91185" lon="3.73685">
        <ele>133.76</ele>
        <time>2012-04-09T14:38:05Z</time>
      </trkpt>
      <trkpt lat="43.91166" lon="3.73674">
        <ele>133.28</ele>
        <time>2012-04-09T14:38:06Z</time>
      </trkpt>
      <trkpt lat="43.91145" lon="3.73665">
        <ele>133.28</ele>
        <time>2012-04-09T14:38:07Z</time>
      </trkpt>
      <trkpt lat="43.91123" lon="3.73658">
        <ele>133.28</ele>
        <time>2012-04-09T14:38:08Z</time>
      </trkpt>
      <trkpt lat="43.91101" lon="3.73652">
        <ele>132.8</ele>
        <time>2012-04-09T14:38:09Z</time>
      </trkpt>
      <trkpt lat="43.91079" lon="3.73649">
        <ele>132.32</ele>
        <time>2012-04-09T14:38:10Z</time>
      </trkpt>
      <trkpt lat="43.91058" lon="3.73648">
        <ele>132.32</ele>
        <time>2012-04-09T14:38:11Z</time>
      </trkpt>
      <trkpt lat="43.91038" lon="3.7365">
        <ele>132.32</ele>
        <time>2012-04-09T14:38:12Z</time>
      </trkpt>
      <trkpt lat="43.91019" lon="3.73655">
        <ele>131.84</ele>
        <time>2012-04-09T14:38:13Z</time>
      </trkpt>
      <trkpt lat="43.91001" lon="3.73662">
        <ele>131.84</ele>
        <time>2012-04-09T14:38:14Z</time>
      </trkpt>
      <trkpt lat="43.90983" lon="3.73671">
        <ele>131.84</ele>
        <time>2012-04-09T14:38:15Z</time>
      </trkpt>
      <trkpt lat="43.90965" lon="3.73684">
        <ele>131.84</ele>
        <time>2012-04-09T14:38:16Z</time>
      </trkpt>
      <trkpt lat="43.90945" lon="3.737">
        <ele>131.84</ele>
        <time>2012-04-09T14:38:17Z</time>
      </trkpt>
      <trkpt lat="43.90845" lon="3.73772">
        <ele>131.36</ele>
        <time>2012-04-09T14:38:22Z</time>
      </trkpt>
      <trkpt lat="43.90825" lon="3.73778">
        <ele>131.36</ele>
        <time>2012-04-09T14:38:23Z</time>
      </trkpt>
      <trkpt lat="43.90803" lon="3.73778">
        <ele>131.36</ele>
        <time>2012-04-09T14:38:24Z</time>
      </trkpt>
      <trkpt lat="43.9078" lon="3.73775">
        <ele>131.36</ele>
        <time>2012-04-09T14:38:25Z</time>
      </trkpt>
      <trkpt lat="43.90755" lon="3.73771">
        <ele>131.84</ele>
        <time>2012-04-09T14:38:26Z</time>
      </trkpt>
      <trkpt lat="43.90604" lon="3.73753">
        <ele>135.68</ele>
        <time>2012-04-09T14:38:33Z</time>
      </trkpt>
      <trkpt lat="43.9045" lon="3.73793">
        <ele>140.01</ele>
        <time>2012-04-09T14:38:42Z</time>
      </trkpt>
      <trkpt lat="43.90391" lon="3.73806">
        <ele>140.97</ele>
        <time>2012-04-09T14:38:46Z</time>
      </trkpt>
      <trkpt lat="43.90379" lon="3.73806">
        <ele>140.97</ele>
        <time>2012-04-09T14:38:47Z</time>
      </trkpt>
      <trkpt lat="43.90368" lon="3.73804">
        <ele>141.45</ele>
        <time>2012-04-09T14:38:48Z</time>
      </trkpt>
      <trkpt lat="43.90273" lon="3.73779">
        <ele>140.97</ele>
        <time>2012-04-09T14:38:54Z</time>
      </trkpt>
      <trkpt lat="43.90156" lon="3.73747">
        <ele>140.01</ele>
        <time>2012-04-09T14:39:02Z</time>
      </trkpt>
      <trkpt lat="43.90024" lon="3.73711">
        <ele>138.09</ele>
        <time>2012-04-09T14:39:12Z</time>
      </trkpt>
      <trkpt lat="43.89896" lon="3.73676">
        <ele>137.13</ele>
        <time>2012-04-09T14:39:23Z</time>
      </trkpt>
      <trkpt lat="43.89873" lon="3.73671">
        <ele>137.13</ele>
        <time>2012-04-09T14:39:25Z</time>
      </trkpt>
      <trkpt lat="43.89861" lon="3.73672">
        <ele>136.64</ele>
        <time>2012-04-09T14:39:26Z</time>
      </trkpt>
      <trkpt lat="43.89849" lon="3.73674">
        <ele>136.64</ele>
        <time>2012-04-09T14:39:27Z</time>
      </trkpt>
      <trkpt lat="43.89836" lon="3.73678">
        <ele>136.16</ele>
        <time>2012-04-09T14:39:28Z</time>
      </trkpt>
      <trkpt lat="43.89824" lon="3.73683">
        <ele>136.16</ele>
        <time>2012-04-09T14:39:29Z</time>
      </trkpt>
      <trkpt lat="43.89667" lon="3.73734">
        <ele>137.61</ele>
        <time>2012-04-09T14:39:43Z</time>
      </trkpt>
      <trkpt lat="43.89513" lon="3.73783">
        <ele>140.01</ele>
        <time>2012-04-09T14:39:58Z</time>
      </trkpt>
      <trkpt lat="43.89425" lon="3.73812">
        <ele>140.01</ele>
        <time>2012-04-09T14:40:07Z</time>
      </trkpt>
      <trkpt lat="43.89288" lon="3.73855">
        <ele>137.13</ele>
        <time>2012-04-09T14:40:20Z</time>
      </trkpt>
      <trkpt lat="43.89209" lon="3.7388">
        <ele>135.2</ele>
        <time>2012-04-09T14:40:30Z</time>
      </trkpt>
      <trkpt lat="43.89143" lon="3.739">
        <ele>134.24</ele>
        <time>2012-04-09T14:40:37Z</time>
      </trkpt>
      <trkpt lat="43.88995" lon="3.73946">
        <ele>133.28</ele>
        <time>2012-04-09T14:40:49Z</time>
      </trkpt>
      <trkpt lat="43.88958" lon="3.73957">
        <ele>132.8</ele>
        <time>2012-04-09T14:40:53Z</time>
      </trkpt>
      <trkpt lat="43.88951" lon="3.73956">
        <ele>132.8</ele>
        <time>2012-04-09T14:40:54Z</time>
      </trkpt>
      <trkpt lat="43.88944" lon="3.73952">
        <ele>132.8</ele>
        <time>2012-04-09T14:40:55Z</time>
      </trkpt>
      <trkpt lat="43.88939" lon="3.73945">
        <ele>132.8</ele>
        <time>2012-04-09T14:40:56Z</time>
      </trkpt>
      <trkpt lat="43.88937" lon="3.73938">
        <ele>132.8</ele>
        <time>2012-04-09T14:40:57Z</time>
      </trkpt>
      <trkpt lat="43.88937" lon="3.73929">
        <ele>132.8</ele>
        <time>2012-04-09T14:40:58Z</time>
      </trkpt>
      <trkpt lat="43.8894" lon="3.73918">
        <ele>132.8</ele>
        <time>2012-04-09T14:40:59Z</time>
      </trkpt>
      <trkpt lat="43.88944" lon="3.73904">
        <ele>132.8</ele>
        <time>2012-04-09T14:41:00Z</time>
      </trkpt>
      <trkpt lat="43.88992" lon="3.7373">
        <ele>132.8</ele>
        <time>2012-04-09T14:41:10Z</time>
      </trkpt>
      <trkpt lat="43.89041" lon="3.73549">
        <ele>131.84</ele>
        <time>2012-04-09T14:41:19Z</time>
      </trkpt>
      <trkpt lat="43.89057" lon="3.7348">
        <ele>130.88</ele>
        <time>2012-04-09T14:41:22Z</time>
      </trkpt>
      <trkpt lat="43.8906" lon="3.73456">
        <ele>130.88</ele>
        <time>2012-04-09T14:41:23Z</time>
      </trkpt>
      <trkpt lat="43.89061" lon="3.73432">
        <ele>130.4</ele>
        <time>2012-04-09T14:41:24Z</time>
      </trkpt>
      <trkpt lat="43.89061" lon="3.73407">
        <ele>130.4</ele>
        <time>2012-04-09T14:41:25Z</time>
      </trkpt>
      <trkpt lat="43.89059" lon="3.73383">
        <ele>130.4</ele>
        <time>2012-04-09T14:41:26Z</time>
      </trkpt>
      <trkpt lat="43.89046" lon="3.73252">
        <ele>130.88</ele>
        <time>2012-04-09T14:41:33Z</time>
      </trkpt>
      <trkpt lat="43.89034" lon="3.73109">
        <ele>131.36</ele>
        <time>2012-04-09T14:41:44Z</time>
      </trkpt>
      <trkpt lat="43.89032" lon="3.73074">
        <ele>130.4</ele>
        <time>2012-04-09T14:41:48Z</time>
      </trkpt>
      <trkpt lat="43.89032" lon="3.73066">
        <ele>130.4</ele>
        <time>2012-04-09T14:41:49Z</time>
      </trkpt>
      <trkpt lat="43.8903" lon="3.73058">
        <ele>130.4</ele>
        <time>2012-04-09T14:41:50Z</time>
      </trkpt>
      <trkpt lat="43.89025" lon="3.73049">
        <ele>130.4</ele>
        <time>2012-04-09T14:41:51Z</time>
      </trkpt>
      <trkpt lat="43.89018" lon="3.73038">
        <ele>130.4</ele>
        <time>2012-04-09T14:41:52Z</time>
      </trkpt>
      <trkpt lat="43.89009" lon="3.73028">
        <ele>129.92</ele>
        <time>2012-04-09T14:41:53Z</time>
      </trkpt>
      <trkpt lat="43.88999" lon="3.73017">
        <ele>129.92</ele>
        <time>2012-04-09T14:41:54Z</time>
      </trkpt>
      <trkpt lat="43.88988" lon="3.73008">
        <ele>130.4</ele>
        <time>2012-04-09T14:41:55Z</time>
      </trkpt>
      <trkpt lat="43.88905" lon="3.72937">
        <ele>130.88</ele>
        <time>2012-04-09T14:42:04Z</time>
      </trkpt>
      <trkpt lat="43.88816" lon="3.7286">
        <ele>130.88</ele>
        <time>2012-04-09T14:42:12Z</time>
      </trkpt>
      <trkpt lat="43.8869" lon="3.7275">
        <ele>131.36</ele>
        <time>2012-04-09T14:42:23Z</time>
      </trkpt>
      <trkpt lat="43.88611" lon="3.72677">
        <ele>131.84</ele>
        <time>2012-04-09T14:42:29Z</time>
      </trkpt>
      <trkpt lat="43.88599" lon="3.72659">
        <ele>131.36</ele>
        <time>2012-04-09T14:42:30Z</time>
      </trkpt>
      <trkpt lat="43.88588" lon="3.72639">
        <ele>131.36</ele>
        <time>2012-04-09T14:42:31Z</time>
      </trkpt>
      <trkpt lat="43.88458" lon="3.72401">
        <ele>129.92</ele>
        <time>2012-04-09T14:42:41Z</time>
      </trkpt>
      <trkpt lat="43.88367" lon="3.72229">
        <ele>131.36</ele>
        <time>2012-04-09T14:42:49Z</time>
      </trkpt>
      <trkpt lat="43.88273" lon="3.72099">
        <ele>129.92</ele>
        <time>2012-04-09T14:42:59Z</time>
      </trkpt>
      <trkpt lat="43.88261" lon="3.72091">
        <ele>130.4</ele>
        <time>2012-04-09T14:43:00Z</time>
      </trkpt>
      <trkpt lat="43.88137" lon="3.72011">
        <ele>132.8</ele>
        <time>2012-04-09T14:43:10Z</time>
      </trkpt>
      <trkpt lat="43.88035" lon="3.71915">
        <ele>134.72</ele>
        <time>2012-04-09T14:43:19Z</time>
      </trkpt>
      <trkpt lat="43.87976" lon="3.71817">
        <ele>134.72</ele>
        <time>2012-04-09T14:43:24Z</time>
      </trkpt>
      <trkpt lat="43.87964" lon="3.71801">
        <ele>134.24</ele>
        <time>2012-04-09T14:43:25Z</time>
      </trkpt>
      <trkpt lat="43.87951" lon="3.71788">
        <ele>134.24</ele>
        <time>2012-04-09T14:43:26Z</time>
      </trkpt>
      <trkpt lat="43.87935" lon="3.71778">
        <ele>134.72</ele>
        <time>2012-04-09T14:43:27Z</time>
      </trkpt>
      <trkpt lat="43.87917" lon="3.7177">
        <ele>135.2</ele>
        <time>2012-04-09T14:43:28Z</time>
      </trkpt>
      <trkpt lat="43.87898" lon="3.71761">
        <ele>135.2</ele>
        <time>2012-04-09T14:43:29Z</time>
      </trkpt>
      <trkpt lat="43.87742" lon="3.7169">
        <ele>140.49</ele>
        <time>2012-04-09T14:43:37Z</time>
      </trkpt>
      <trkpt lat="43.87673" lon="3.7166">
        <ele>141.45</ele>
        <time>2012-04-09T14:43:41Z</time>
      </trkpt>
      <trkpt lat="43.87656" lon="3.71647">
        <ele>140.97</ele>
        <time>2012-04-09T14:43:42Z</time>
      </trkpt>
      <trkpt lat="43.875" lon="3.71521">
        <ele>139.05</ele>
        <time>2012-04-09T14:43:51Z</time>
      </trkpt>
      <trkpt lat="43.87292" lon="3.71348">
        <ele>148.66</ele>
        <time>2012-04-09T14:44:02Z</time>
      </trkpt>
      <trkpt lat="43.87189" lon="3.7123">
        <ele>152.03</ele>
        <time>2012-04-09T14:44:09Z</time>
      </trkpt>
      <trkpt lat="43.87167" lon="3.71199">
        <ele>153.47</ele>
        <time>2012-04-09T14:44:11Z</time>
      </trkpt>
      <trkpt lat="43.87158" lon="3.71182">
        <ele>153.47</ele>
        <time>2012-04-09T14:44:12Z</time>
      </trkpt>
      <trkpt lat="43.87151" lon="3.71163">
        <ele>153.95</ele>
        <time>2012-04-09T14:44:13Z</time>
      </trkpt>
      <trkpt lat="43.87083" lon="3.70981">
        <ele>151.06</ele>
        <time>2012-04-09T14:44:22Z</time>
      </trkpt>
      <trkpt lat="43.86989" lon="3.70836">
        <ele>139.53</ele>
        <time>2012-04-09T14:44:29Z</time>
      </trkpt>
      <trkpt lat="43.86953" lon="3.70778">
        <ele>132.8</ele>
        <time>2012-04-09T14:44:34Z</time>
      </trkpt>
      <trkpt lat="43.86948" lon="3.70771">
        <ele>132.8</ele>
        <time>2012-04-09T14:44:35Z</time>
      </trkpt>
      <trkpt lat="43.86942" lon="3.70766">
        <ele>131.84</ele>
        <time>2012-04-09T14:44:36Z</time>
      </trkpt>
      <trkpt lat="43.86882" lon="3.70721">
        <ele>128.95</ele>
        <time>2012-04-09T14:44:41Z</time>
      </trkpt>
      <trkpt lat="43.86868" lon="3.70715">
        <ele>128.47</ele>
        <time>2012-04-09T14:44:42Z</time>
      </trkpt>
      <trkpt lat="43.86853" lon="3.70711">
        <ele>127.51</ele>
        <time>2012-04-09T14:44:43Z</time>
      </trkpt>
      <trkpt lat="43.86837" lon="3.70713">
        <ele>127.03</ele>
        <time>2012-04-09T14:44:44Z</time>
      </trkpt>
      <trkpt lat="43.8682" lon="3.7072">
        <ele>126.55</ele>
        <time>2012-04-09T14:44:45Z</time>
      </trkpt>
      <trkpt lat="43.86803" lon="3.70729">
        <ele>125.59</ele>
        <time>2012-04-09T14:44:46Z</time>
      </trkpt>
      <trkpt lat="43.86787" lon="3.70738">
        <ele>125.11</ele>
        <time>2012-04-09T14:44:47Z</time>
      </trkpt>
      <trkpt lat="43.86773" lon="3.70752">
        <ele>124.63</ele>
        <time>2012-04-09T14:44:48Z</time>
      </trkpt>
      <trkpt lat="43.86759" lon="3.7077">
        <ele>124.15</ele>
        <time>2012-04-09T14:44:49Z</time>
      </trkpt>
      <trkpt lat="43.86745" lon="3.70791">
        <ele>123.67</ele>
        <time>2012-04-09T14:44:50Z</time>
      </trkpt>
      <trkpt lat="43.8673" lon="3.70812">
        <ele>123.67</ele>
        <time>2012-04-09T14:44:51Z</time>
      </trkpt>
      <trkpt lat="43.86689" lon="3.70864">
        <ele>122.71</ele>
        <time>2012-04-09T14:44:54Z</time>
      </trkpt>
      <trkpt lat="43.86675" lon="3.70875">
        <ele>122.22</ele>
        <time>2012-04-09T14:44:55Z</time>
      </trkpt>
      <trkpt lat="43.8666" lon="3.70881">
        <ele>121.74</ele>
        <time>2012-04-09T14:44:56Z</time>
      </trkpt>
      <trkpt lat="43.86643" lon="3.70883">
        <ele>121.26</ele>
        <time>2012-04-09T14:44:57Z</time>
      </trkpt>
      <trkpt lat="43.86624" lon="3.70884">
        <ele>121.74</ele>
        <time>2012-04-09T14:44:58Z</time>
      </trkpt>
      <trkpt lat="43.86603" lon="3.70883">
        <ele>121.26</ele>
        <time>2012-04-09T14:44:59Z</time>
      </trkpt>
      <trkpt lat="43.86583" lon="3.70883">
        <ele>122.22</ele>
        <time>2012-04-09T14:45:00Z</time>
      </trkpt>
      <trkpt lat="43.86513" lon="3.7088">
        <ele>121.74</ele>
        <time>2012-04-09T14:45:04Z</time>
      </trkpt>
      <trkpt lat="43.865" lon="3.70875">
        <ele>121.26</ele>
        <time>2012-04-09T14:45:05Z</time>
      </trkpt>
      <trkpt lat="43.8649" lon="3.70863">
        <ele>120.3</ele>
        <time>2012-04-09T14:45:06Z</time>
      </trkpt>
      <trkpt lat="43.86479" lon="3.70845">
        <ele>120.78</ele>
        <time>2012-04-09T14:45:07Z</time>
      </trkpt>
      <trkpt lat="43.86471" lon="3.70825">
        <ele>120.78</ele>
        <time>2012-04-09T14:45:08Z</time>
      </trkpt>
      <trkpt lat="43.86463" lon="3.70804">
        <ele>120.3</ele>
        <time>2012-04-09T14:45:09Z</time>
      </trkpt>
      <trkpt lat="43.86455" lon="3.70781">
        <ele>120.3</ele>
        <time>2012-04-09T14:45:10Z</time>
      </trkpt>
      <trkpt lat="43.86447" lon="3.7076">
        <ele>119.82</ele>
        <time>2012-04-09T14:45:11Z</time>
      </trkpt>
      <trkpt lat="43.86408" lon="3.70659">
        <ele>118.86</ele>
        <time>2012-04-09T14:45:16Z</time>
      </trkpt>
      <trkpt lat="43.86396" lon="3.70646">
        <ele>118.86</ele>
        <time>2012-04-09T14:45:17Z</time>
      </trkpt>
      <trkpt lat="43.86382" lon="3.70634">
        <ele>119.34</ele>
        <time>2012-04-09T14:45:18Z</time>
      </trkpt>
      <trkpt lat="43.86366" lon="3.70626">
        <ele>119.82</ele>
        <time>2012-04-09T14:45:19Z</time>
      </trkpt>
      <trkpt lat="43.8635" lon="3.70619">
        <ele>120.3</ele>
        <time>2012-04-09T14:45:20Z</time>
      </trkpt>
      <trkpt lat="43.86336" lon="3.70612">
        <ele>120.3</ele>
        <time>2012-04-09T14:45:21Z</time>
      </trkpt>
      <trkpt lat="43.86226" lon="3.70565">
        <ele>119.82</ele>
        <time>2012-04-09T14:45:29Z</time>
      </trkpt>
      <trkpt lat="43.86209" lon="3.70565">
        <ele>119.34</ele>
        <time>2012-04-09T14:45:30Z</time>
      </trkpt>
      <trkpt lat="43.86192" lon="3.70566">
        <ele>119.34</ele>
        <time>2012-04-09T14:45:31Z</time>
      </trkpt>
      <trkpt lat="43.86174" lon="3.70569">
        <ele>119.34</ele>
        <time>2012-04-09T14:45:32Z</time>
      </trkpt>
      <trkpt lat="43.86158" lon="3.70574">
        <ele>118.86</ele>
        <time>2012-04-09T14:45:33Z</time>
      </trkpt>
      <trkpt lat="43.86143" lon="3.7058">
        <ele>118.86</ele>
        <time>2012-04-09T14:45:34Z</time>
      </trkpt>
      <trkpt lat="43.86129" lon="3.7059">
        <ele>118.86</ele>
        <time>2012-04-09T14:45:35Z</time>
      </trkpt>
      <trkpt lat="43.86116" lon="3.70602">
        <ele>118.38</ele>
        <time>2012-04-09T14:45:36Z</time>
      </trkpt>
      <trkpt lat="43.86104" lon="3.70613">
        <ele>118.38</ele>
        <time>2012-04-09T14:45:37Z</time>
      </trkpt>
      <trkpt lat="43.86077" lon="3.70624">
        <ele>118.38</ele>
        <time>2012-04-09T14:45:39Z</time>
      </trkpt>
      <trkpt lat="43.86063" lon="3.70623">
        <ele>118.38</ele>
        <time>2012-04-09T14:45:40Z</time>
      </trkpt>
      <trkpt lat="43.86047" lon="3.70624">
        <ele>118.38</ele>
        <time>2012-04-09T14:45:41Z</time>
      </trkpt>
      <trkpt lat="43.86031" lon="3.7063">
        <ele>118.86</ele>
        <time>2012-04-09T14:45:42Z</time>
      </trkpt>
      <trkpt lat="43.86015" lon="3.70639">
        <ele>119.34</ele>
        <time>2012-04-09T14:45:43Z</time>
      </trkpt>
      <trkpt lat="43.85997" lon="3.70649">
        <ele>119.34</ele>
        <time>2012-04-09T14:45:44Z</time>
      </trkpt>
      <trkpt lat="43.85979" lon="3.70661">
        <ele>119.82</ele>
        <time>2012-04-09T14:45:45Z</time>
      </trkpt>
      <trkpt lat="43.85962" lon="3.70675">
        <ele>119.82</ele>
        <time>2012-04-09T14:45:46Z</time>
      </trkpt>
      <trkpt lat="43.85947" lon="3.70691">
        <ele>120.3</ele>
        <time>2012-04-09T14:45:47Z</time>
      </trkpt>
      <trkpt lat="43.85932" lon="3.70706">
        <ele>119.82</ele>
        <time>2012-04-09T14:45:48Z</time>
      </trkpt>
      <trkpt lat="43.85821" lon="3.70782">
        <ele>118.86</ele>
        <time>2012-04-09T14:45:55Z</time>
      </trkpt>
      <trkpt lat="43.85804" lon="3.70787">
        <ele>118.38</ele>
        <time>2012-04-09T14:45:56Z</time>
      </trkpt>
      <trkpt lat="43.85786" lon="3.70789">
        <ele>118.38</ele>
        <time>2012-04-09T14:45:57Z</time>
      </trkpt>
      <trkpt lat="43.85767" lon="3.70789">
        <ele>117.9</ele>
        <time>2012-04-09T14:45:58Z</time>
      </trkpt>
      <trkpt lat="43.85748" lon="3.70784">
        <ele>117.42</ele>
        <time>2012-04-09T14:45:59Z</time>
      </trkpt>
      <trkpt lat="43.85729" lon="3.70777">
        <ele>117.42</ele>
        <time>2012-04-09T14:46:00Z</time>
      </trkpt>
      <trkpt lat="43.85711" lon="3.70769">
        <ele>117.9</ele>
        <time>2012-04-09T14:46:01Z</time>
      </trkpt>
      <trkpt lat="43.85629" lon="3.70745">
        <ele>117.9</ele>
        <time>2012-04-09T14:46:05Z</time>
      </trkpt>
      <trkpt lat="43.85607" lon="3.70749">
        <ele>118.38</ele>
        <time>2012-04-09T14:46:06Z</time>
      </trkpt>
      <trkpt lat="43.85487" lon="3.70727">
        <ele>120.78</ele>
        <time>2012-04-09T14:46:12Z</time>
      </trkpt>
      <trkpt lat="43.8543" lon="3.70701">
        <ele>119.82</ele>
        <time>2012-04-09T14:46:15Z</time>
      </trkpt>
      <trkpt lat="43.85196" lon="3.70651">
        <ele>117.42</ele>
        <time>2012-04-09T14:46:25Z</time>
      </trkpt>
      <trkpt lat="43.85047" lon="3.70619">
        <ele>116.94</ele>
        <time>2012-04-09T14:46:33Z</time>
      </trkpt>
      <trkpt lat="43.84928" lon="3.70596">
        <ele>117.42</ele>
        <time>2012-04-09T14:46:40Z</time>
      </trkpt>
      <trkpt lat="43.84915" lon="3.70599">
        <ele>117.9</ele>
        <time>2012-04-09T14:46:41Z</time>
      </trkpt>
      <trkpt lat="43.84905" lon="3.70612">
        <ele>118.38</ele>
        <time>2012-04-09T14:46:42Z</time>
      </trkpt>
      <trkpt lat="43.84894" lon="3.70629">
        <ele>119.34</ele>
        <time>2012-04-09T14:46:43Z</time>
      </trkpt>
      <trkpt lat="43.84881" lon="3.70644">
        <ele>119.82</ele>
        <time>2012-04-09T14:46:44Z</time>
      </trkpt>
      <trkpt lat="43.84855" lon="3.70672">
        <ele>120.78</ele>
        <time>2012-04-09T14:46:46Z</time>
      </trkpt>
      <trkpt lat="43.84841" lon="3.7068">
        <ele>121.26</ele>
        <time>2012-04-09T14:46:47Z</time>
      </trkpt>
      <trkpt lat="43.84824" lon="3.70684">
        <ele>122.22</ele>
        <time>2012-04-09T14:46:48Z</time>
      </trkpt>
      <trkpt lat="43.84808" lon="3.70684">
        <ele>123.67</ele>
        <time>2012-04-09T14:46:49Z</time>
      </trkpt>
      <trkpt lat="43.84793" lon="3.7068">
        <ele>124.63</ele>
        <time>2012-04-09T14:46:50Z</time>
      </trkpt>
      <trkpt lat="43.84779" lon="3.70672">
        <ele>125.59</ele>
        <time>2012-04-09T14:46:51Z</time>
      </trkpt>
      <trkpt lat="43.84766" lon="3.70662">
        <ele>126.55</ele>
        <time>2012-04-09T14:46:52Z</time>
      </trkpt>
      <trkpt lat="43.84754" lon="3.70649">
        <ele>127.03</ele>
        <time>2012-04-09T14:46:53Z</time>
      </trkpt>
      <trkpt lat="43.84743" lon="3.70632">
        <ele>127.03</ele>
        <time>2012-04-09T14:46:54Z</time>
      </trkpt>
      <trkpt lat="43.8473" lon="3.70612">
        <ele>126.55</ele>
        <time>2012-04-09T14:46:55Z</time>
      </trkpt>
      <trkpt lat="43.84718" lon="3.70589">
        <ele>126.07</ele>
        <time>2012-04-09T14:46:56Z</time>
      </trkpt>
      <trkpt lat="43.84627" lon="3.70424">
        <ele>119.34</ele>
        <time>2012-04-09T14:47:04Z</time>
      </trkpt>
      <trkpt lat="43.8452" lon="3.70234">
        <ele>116.46</ele>
        <time>2012-04-09T14:47:13Z</time>
      </trkpt>
      <trkpt lat="43.84447" lon="3.70105">
        <ele>117.42</ele>
        <time>2012-04-09T14:47:20Z</time>
      </trkpt>
      <trkpt lat="43.8443" lon="3.70063">
        <ele>117.42</ele>
        <time>2012-04-09T14:47:24Z</time>
      </trkpt>
      <trkpt lat="43.84427" lon="3.7005">
        <ele>117.42</ele>
        <time>2012-04-09T14:47:25Z</time>
      </trkpt>
      <trkpt lat="43.84414" lon="3.69939">
        <ele>115.01</ele>
        <time>2012-04-09T14:47:31Z</time>
      </trkpt>
      <trkpt lat="43.84415" lon="3.69921">
        <ele>114.53</ele>
        <time>2012-04-09T14:47:32Z</time>
      </trkpt>
      <trkpt lat="43.84418" lon="3.69903">
        <ele>114.05</ele>
        <time>2012-04-09T14:47:33Z</time>
      </trkpt>
      <trkpt lat="43.84432" lon="3.69802">
        <ele>114.05</ele>
        <time>2012-04-09T14:47:38Z</time>
      </trkpt>
      <trkpt lat="43.84431" lon="3.69781">
        <ele>114.05</ele>
        <time>2012-04-09T14:47:39Z</time>
      </trkpt>
      <trkpt lat="43.84427" lon="3.6976">
        <ele>114.05</ele>
        <time>2012-04-09T14:47:40Z</time>
      </trkpt>
      <trkpt lat="43.8442" lon="3.69739">
        <ele>114.53</ele>
        <time>2012-04-09T14:47:41Z</time>
      </trkpt>
      <trkpt lat="43.84411" lon="3.69719">
        <ele>114.53</ele>
        <time>2012-04-09T14:47:42Z</time>
      </trkpt>
      <trkpt lat="43.84398" lon="3.697">
        <ele>114.53</ele>
        <time>2012-04-09T14:47:43Z</time>
      </trkpt>
      <trkpt lat="43.84384" lon="3.69683">
        <ele>115.5</ele>
        <time>2012-04-09T14:47:44Z</time>
      </trkpt>
      <trkpt lat="43.8437" lon="3.69666">
        <ele>116.46</ele>
        <time>2012-04-09T14:47:45Z</time>
      </trkpt>
      <trkpt lat="43.84358" lon="3.6965">
        <ele>116.94</ele>
        <time>2012-04-09T14:47:46Z</time>
      </trkpt>
      <trkpt lat="43.84348" lon="3.69632">
        <ele>117.42</ele>
        <time>2012-04-09T14:47:47Z</time>
      </trkpt>
      <trkpt lat="43.8434" lon="3.69612">
        <ele>117.9</ele>
        <time>2012-04-09T14:47:48Z</time>
      </trkpt>
      <trkpt lat="43.84335" lon="3.69588">
        <ele>117.9</ele>
        <time>2012-04-09T14:47:49Z</time>
      </trkpt>
      <trkpt lat="43.84333" lon="3.69563">
        <ele>117.42</ele>
        <time>2012-04-09T14:47:50Z</time>
      </trkpt>
      <trkpt lat="43.84333" lon="3.69537">
        <ele>117.42</ele>
        <time>2012-04-09T14:47:51Z</time>
      </trkpt>
      <trkpt lat="43.84336" lon="3.69512">
        <ele>116.46</ele>
        <time>2012-04-09T14:47:52Z</time>
      </trkpt>
      <trkpt lat="43.84338" lon="3.69486">
        <ele>115.98</ele>
        <time>2012-04-09T14:47:53Z</time>
      </trkpt>
      <trkpt lat="43.84339" lon="3.6946">
        <ele>115.5</ele>
        <time>2012-04-09T14:47:54Z</time>
      </trkpt>
      <trkpt lat="43.84337" lon="3.69434">
        <ele>115.5</ele>
        <time>2012-04-09T14:47:55Z</time>
      </trkpt>
      <trkpt lat="43.84333" lon="3.69409">
        <ele>115.01</ele>
        <time>2012-04-09T14:47:56Z</time>
      </trkpt>
      <trkpt lat="43.84327" lon="3.69387">
        <ele>114.53</ele>
        <time>2012-04-09T14:47:57Z</time>
      </trkpt>
      <trkpt lat="43.84321" lon="3.69366">
        <ele>114.53</ele>
        <time>2012-04-09T14:47:58Z</time>
      </trkpt>
      <trkpt lat="43.84312" lon="3.69325">
        <ele>114.05</ele>
        <time>2012-04-09T14:48:00Z</time>
      </trkpt>
      <trkpt lat="43.84311" lon="3.69303">
        <ele>113.57</ele>
        <time>2012-04-09T14:48:01Z</time>
      </trkpt>
      <trkpt lat="43.84307" lon="3.69259">
        <ele>113.09</ele>
        <time>2012-04-09T14:48:03Z</time>
      </trkpt>
      <trkpt lat="43.84303" lon="3.69238">
        <ele>113.09</ele>
        <time>2012-04-09T14:48:04Z</time>
      </trkpt>
      <trkpt lat="43.84297" lon="3.69217">
        <ele>113.09</ele>
        <time>2012-04-09T14:48:05Z</time>
      </trkpt>
      <trkpt lat="43.84289" lon="3.69197">
        <ele>112.61</ele>
        <time>2012-04-09T14:48:06Z</time>
      </trkpt>
      <trkpt lat="43.8428" lon="3.69179">
        <ele>112.61</ele>
        <time>2012-04-09T14:48:07Z</time>
      </trkpt>
      <trkpt lat="43.8427" lon="3.69162">
        <ele>112.13</ele>
        <time>2012-04-09T14:48:08Z</time>
      </trkpt>
      <trkpt lat="43.8426" lon="3.69154">
        <ele>112.13</ele>
        <time>2012-04-09T14:48:09Z</time>
      </trkpt>
      <trkpt lat="43.84251" lon="3.69148">
        <ele>111.65</ele>
        <time>2012-04-09T14:48:10Z</time>
      </trkpt>
      <trkpt lat="43.84244" lon="3.69144">
        <ele>111.65</ele>
        <time>2012-04-09T14:48:11Z</time>
      </trkpt>
      <trkpt lat="43.84237" lon="3.69141">
        <ele>111.65</ele>
        <time>2012-04-09T14:48:12Z</time>
      </trkpt>
      <trkpt lat="43.8423" lon="3.69138">
        <ele>111.17</ele>
        <time>2012-04-09T14:48:13Z</time>
      </trkpt>
      <trkpt lat="43.84216" lon="3.6913">
        <ele>111.17</ele>
        <time>2012-04-09T14:48:15Z</time>
      </trkpt>
      <trkpt lat="43.84207" lon="3.69125">
        <ele>111.17</ele>
        <time>2012-04-09T14:48:16Z</time>
      </trkpt>
      <trkpt lat="43.84174" lon="3.69116">
        <ele>111.17</ele>
        <time>2012-04-09T14:48:19Z</time>
      </trkpt>
      <trkpt lat="43.84162" lon="3.69116">
        <ele>111.17</ele>
        <time>2012-04-09T14:48:20Z</time>
      </trkpt>
      <trkpt lat="43.84151" lon="3.69119">
        <ele>111.17</ele>
        <time>2012-04-09T14:48:21Z</time>
      </trkpt>
      <trkpt lat="43.84121" lon="3.69126">
        <ele>110.69</ele>
        <time>2012-04-09T14:48:24Z</time>
      </trkpt>
      <trkpt lat="43.8411" lon="3.69123">
        <ele>111.17</ele>
        <time>2012-04-09T14:48:25Z</time>
      </trkpt>
      <trkpt lat="43.841" lon="3.69116">
        <ele>110.69</ele>
        <time>2012-04-09T14:48:26Z</time>
      </trkpt>
      <trkpt lat="43.84093" lon="3.69103">
        <ele>110.69</ele>
        <time>2012-04-09T14:48:27Z</time>
      </trkpt>
      <trkpt lat="43.84088" lon="3.69088">
        <ele>111.17</ele>
        <time>2012-04-09T14:48:28Z</time>
      </trkpt>
      <trkpt lat="43.84083" lon="3.69071">
        <ele>111.17</ele>
        <time>2012-04-09T14:48:29Z</time>
      </trkpt>
      <trkpt lat="43.84078" lon="3.69052">
        <ele>111.17</ele>
        <time>2012-04-09T14:48:30Z</time>
      </trkpt>
      <trkpt lat="43.84003" lon="3.68825">
        <ele>113.09</ele>
        <time>2012-04-09T14:48:41Z</time>
      </trkpt>
      <trkpt lat="43.83927" lon="3.68683">
        <ele>114.53</ele>
        <time>2012-04-09T14:48:49Z</time>
      </trkpt>
      <trkpt lat="43.83877" lon="3.68626">
        <ele>114.53</ele>
        <time>2012-04-09T14:48:53Z</time>
      </trkpt>
      <trkpt lat="43.83864" lon="3.68617">
        <ele>114.53</ele>
        <time>2012-04-09T14:48:54Z</time>
      </trkpt>
      <trkpt lat="43.8385" lon="3.68609">
        <ele>114.53</ele>
        <time>2012-04-09T14:48:55Z</time>
      </trkpt>
      <trkpt lat="43.83836" lon="3.68603">
        <ele>114.53</ele>
        <time>2012-04-09T14:48:56Z</time>
      </trkpt>
      <trkpt lat="43.8382" lon="3.68599">
        <ele>115.01</ele>
        <time>2012-04-09T14:48:57Z</time>
      </trkpt>
      <trkpt lat="43.83803" lon="3.68597">
        <ele>115.5</ele>
        <time>2012-04-09T14:48:58Z</time>
      </trkpt>
      <trkpt lat="43.83786" lon="3.68597">
        <ele>115.5</ele>
        <time>2012-04-09T14:48:59Z</time>
      </trkpt>
      <trkpt lat="43.83767" lon="3.68602">
        <ele>115.5</ele>
        <time>2012-04-09T14:49:00Z</time>
      </trkpt>
      <trkpt lat="43.83748" lon="3.68609">
        <ele>115.5</ele>
        <time>2012-04-09T14:49:01Z</time>
      </trkpt>
      <trkpt lat="43.8373" lon="3.68616">
        <ele>115.98</ele>
        <time>2012-04-09T14:49:02Z</time>
      </trkpt>
      <trkpt lat="43.83699" lon="3.68629">
        <ele>115.98</ele>
        <time>2012-04-09T14:49:04Z</time>
      </trkpt>
      <trkpt lat="43.83685" lon="3.6864">
        <ele>116.46</ele>
        <time>2012-04-09T14:49:05Z</time>
      </trkpt>
      <trkpt lat="43.83672" lon="3.68652">
        <ele>116.46</ele>
        <time>2012-04-09T14:49:06Z</time>
      </trkpt>
      <trkpt lat="43.8366" lon="3.68666">
        <ele>116.46</ele>
        <time>2012-04-09T14:49:07Z</time>
      </trkpt>
      <trkpt lat="43.8365" lon="3.68679">
        <ele>116.46</ele>
        <time>2012-04-09T14:49:08Z</time>
      </trkpt>
      <trkpt lat="43.83623" lon="3.68711">
        <ele>116.46</ele>
        <time>2012-04-09T14:49:11Z</time>
      </trkpt>
      <trkpt lat="43.83614" lon="3.68716">
        <ele>116.46</ele>
        <time>2012-04-09T14:49:12Z</time>
      </trkpt>
      <trkpt lat="43.83605" lon="3.68718">
        <ele>116.46</ele>
        <time>2012-04-09T14:49:13Z</time>
      </trkpt>
      <trkpt lat="43.83596" lon="3.68713">
        <ele>116.46</ele>
        <time>2012-04-09T14:49:14Z</time>
      </trkpt>
      <trkpt lat="43.83585" lon="3.68707">
        <ele>116.46</ele>
        <time>2012-04-09T14:49:15Z</time>
      </trkpt>
      <trkpt lat="43.83572" lon="3.687">
        <ele>116.46</ele>
        <time>2012-04-09T14:49:16Z</time>
      </trkpt>
      <trkpt lat="43.83511" lon="3.68666">
        <ele>117.9</ele>
        <time>2012-04-09T14:49:21Z</time>
      </trkpt>
      <trkpt lat="43.83506" lon="3.68656">
        <ele>118.38</ele>
        <time>2012-04-09T14:49:22Z</time>
      </trkpt>
      <trkpt lat="43.83501" lon="3.68642">
        <ele>118.38</ele>
        <time>2012-04-09T14:49:23Z</time>
      </trkpt>
      <trkpt lat="43.83499" lon="3.68629">
        <ele>118.38</ele>
        <time>2012-04-09T14:49:24Z</time>
      </trkpt>
      <trkpt lat="43.835" lon="3.68615">
        <ele>118.38</ele>
        <time>2012-04-09T14:49:25Z</time>
      </trkpt>
      <trkpt lat="43.83508" lon="3.686">
        <ele>118.86</ele>
        <time>2012-04-09T14:49:26Z</time>
      </trkpt>
      <trkpt lat="43.83516" lon="3.68584">
        <ele>119.82</ele>
        <time>2012-04-09T14:49:27Z</time>
      </trkpt>
      <trkpt lat="43.83525" lon="3.68568">
        <ele>120.3</ele>
        <time>2012-04-09T14:49:28Z</time>
      </trkpt>
      <trkpt lat="43.83558" lon="3.68495">
        <ele>123.19</ele>
        <time>2012-04-09T14:49:32Z</time>
      </trkpt>
      <trkpt lat="43.83562" lon="3.68476">
        <ele>124.15</ele>
        <time>2012-04-09T14:49:33Z</time>
      </trkpt>
      <trkpt lat="43.83565" lon="3.68456">
        <ele>124.63</ele>
        <time>2012-04-09T14:49:34Z</time>
      </trkpt>
      <trkpt lat="43.8357" lon="3.68405">
        <ele>126.07</ele>
        <time>2012-04-09T14:49:37Z</time>
      </trkpt>
      <trkpt lat="43.83568" lon="3.68391">
        <ele>126.55</ele>
        <time>2012-04-09T14:49:38Z</time>
      </trkpt>
      <trkpt lat="43.83563" lon="3.68378">
        <ele>127.03</ele>
        <time>2012-04-09T14:49:39Z</time>
      </trkpt>
      <trkpt lat="43.83553" lon="3.68364">
        <ele>127.51</ele>
        <time>2012-04-09T14:49:40Z</time>
      </trkpt>
      <trkpt lat="43.83541" lon="3.68349">
        <ele>128.47</ele>
        <time>2012-04-09T14:49:41Z</time>
      </trkpt>
      <trkpt lat="43.83527" lon="3.68335">
        <ele>129.43</ele>
        <time>2012-04-09T14:49:42Z</time>
      </trkpt>
      <trkpt lat="43.83512" lon="3.68319">
        <ele>130.4</ele>
        <time>2012-04-09T14:49:43Z</time>
      </trkpt>
      <trkpt lat="43.83496" lon="3.68305">
        <ele>131.36</ele>
        <time>2012-04-09T14:49:44Z</time>
      </trkpt>
      <trkpt lat="43.83479" lon="3.68291">
        <ele>132.32</ele>
        <time>2012-04-09T14:49:45Z</time>
      </trkpt>
      <trkpt lat="43.83414" lon="3.68243">
        <ele>136.16</ele>
        <time>2012-04-09T14:49:49Z</time>
      </trkpt>
      <trkpt lat="43.83397" lon="3.68237">
        <ele>136.64</ele>
        <time>2012-04-09T14:49:50Z</time>
      </trkpt>
      <trkpt lat="43.83377" lon="3.68234">
        <ele>137.13</ele>
        <time>2012-04-09T14:49:51Z</time>
      </trkpt>
      <trkpt lat="43.83355" lon="3.68234">
        <ele>138.57</ele>
        <time>2012-04-09T14:49:52Z</time>
      </trkpt>
      <trkpt lat="43.83332" lon="3.68233">
        <ele>140.01</ele>
        <time>2012-04-09T14:49:53Z</time>
      </trkpt>
      <trkpt lat="43.83263" lon="3.68238">
        <ele>143.37</ele>
        <time>2012-04-09T14:49:56Z</time>
      </trkpt>
      <trkpt lat="43.83239" lon="3.68246">
        <ele>144.34</ele>
        <time>2012-04-09T14:49:57Z</time>
      </trkpt>
      <trkpt lat="43.83142" lon="3.68295">
        <ele>149.62</ele>
        <time>2012-04-09T14:50:02Z</time>
      </trkpt>
      <trkpt lat="43.83129" lon="3.68311">
        <ele>150.1</ele>
        <time>2012-04-09T14:50:03Z</time>
      </trkpt>
      <trkpt lat="43.8312" lon="3.68331">
        <ele>151.54</ele>
        <time>2012-04-09T14:50:04Z</time>
      </trkpt>
      <trkpt lat="43.83112" lon="3.68353">
        <ele>152.51</ele>
        <time>2012-04-09T14:50:05Z</time>
      </trkpt>
      <trkpt lat="43.83105" lon="3.68373">
        <ele>153.95</ele>
        <time>2012-04-09T14:50:06Z</time>
      </trkpt>
      <trkpt lat="43.83089" lon="3.68409">
        <ele>155.87</ele>
        <time>2012-04-09T14:50:08Z</time>
      </trkpt>
      <trkpt lat="43.83078" lon="3.68423">
        <ele>156.83</ele>
        <time>2012-04-09T14:50:09Z</time>
      </trkpt>
      <trkpt lat="43.83064" lon="3.68431">
        <ele>157.31</ele>
        <time>2012-04-09T14:50:10Z</time>
      </trkpt>
      <trkpt lat="43.83051" lon="3.68436">
        <ele>158.27</ele>
        <time>2012-04-09T14:50:11Z</time>
      </trkpt>
      <trkpt lat="43.83039" lon="3.68437">
        <ele>159.24</ele>
        <time>2012-04-09T14:50:12Z</time>
      </trkpt>
      <trkpt lat="43.83027" lon="3.68432">
        <ele>160.2</ele>
        <time>2012-04-09T14:50:13Z</time>
      </trkpt>
      <trkpt lat="43.83013" lon="3.68424">
        <ele>161.16</ele>
        <time>2012-04-09T14:50:14Z</time>
      </trkpt>
      <trkpt lat="43.83" lon="3.68412">
        <ele>161.64</ele>
        <time>2012-04-09T14:50:15Z</time>
      </trkpt>
      <trkpt lat="43.82987" lon="3.68398">
        <ele>162.6</ele>
        <time>2012-04-09T14:50:16Z</time>
      </trkpt>
      <trkpt lat="43.82975" lon="3.68383">
        <ele>163.08</ele>
        <time>2012-04-09T14:50:17Z</time>
      </trkpt>
      <trkpt lat="43.82963" lon="3.68367">
        <ele>164.52</ele>
        <time>2012-04-09T14:50:18Z</time>
      </trkpt>
      <trkpt lat="43.82952" lon="3.68348">
        <ele>165.48</ele>
        <time>2012-04-09T14:50:19Z</time>
      </trkpt>
      <trkpt lat="43.82936" lon="3.68309">
        <ele>165.96</ele>
        <time>2012-04-09T14:50:21Z</time>
      </trkpt>
      <trkpt lat="43.82924" lon="3.68273">
        <ele>167.89</ele>
        <time>2012-04-09T14:50:23Z</time>
      </trkpt>
      <trkpt lat="43.82916" lon="3.6826">
        <ele>168.85</ele>
        <time>2012-04-09T14:50:24Z</time>
      </trkpt>
      <trkpt lat="43.82907" lon="3.68254">
        <ele>169.33</ele>
        <time>2012-04-09T14:50:25Z</time>
      </trkpt>
      <trkpt lat="43.82894" lon="3.68253">
        <ele>170.29</ele>
        <time>2012-04-09T14:50:26Z</time>
      </trkpt>
      <trkpt lat="43.8288" lon="3.68252">
        <ele>170.77</ele>
        <time>2012-04-09T14:50:27Z</time>
      </trkpt>
      <trkpt lat="43.82866" lon="3.68251">
        <ele>171.25</ele>
        <time>2012-04-09T14:50:28Z</time>
      </trkpt>
      <trkpt lat="43.82851" lon="3.68246">
        <ele>172.21</ele>
        <time>2012-04-09T14:50:29Z</time>
      </trkpt>
      <trkpt lat="43.82838" lon="3.68239">
        <ele>173.17</ele>
        <time>2012-04-09T14:50:30Z</time>
      </trkpt>
      <trkpt lat="43.82824" lon="3.68226">
        <ele>174.14</ele>
        <time>2012-04-09T14:50:31Z</time>
      </trkpt>
      <trkpt lat="43.8281" lon="3.68211">
        <ele>175.1</ele>
        <time>2012-04-09T14:50:32Z</time>
      </trkpt>
      <trkpt lat="43.82795" lon="3.68194">
        <ele>176.54</ele>
        <time>2012-04-09T14:50:33Z</time>
      </trkpt>
      <trkpt lat="43.82707" lon="3.68108">
        <ele>182.79</ele>
        <time>2012-04-09T14:50:39Z</time>
      </trkpt>
      <trkpt lat="43.82686" lon="3.6809">
        <ele>184.71</ele>
        <time>2012-04-09T14:50:41Z</time>
      </trkpt>
      <trkpt lat="43.82678" lon="3.68075">
        <ele>185.67</ele>
        <time>2012-04-09T14:50:42Z</time>
      </trkpt>
      <trkpt lat="43.82669" lon="3.68059">
        <ele>186.63</ele>
        <time>2012-04-09T14:50:43Z</time>
      </trkpt>
      <trkpt lat="43.82607" lon="3.67957">
        <ele>191.92</ele>
        <time>2012-04-09T14:50:48Z</time>
      </trkpt>
      <trkpt lat="43.82595" lon="3.6794">
        <ele>192.88</ele>
        <time>2012-04-09T14:50:49Z</time>
      </trkpt>
      <trkpt lat="43.82583" lon="3.67929">
        <ele>193.84</ele>
        <time>2012-04-09T14:50:50Z</time>
      </trkpt>
      <trkpt lat="43.82571" lon="3.67919">
        <ele>194.8</ele>
        <time>2012-04-09T14:50:51Z</time>
      </trkpt>
      <trkpt lat="43.82551" lon="3.67901">
        <ele>195.77</ele>
        <time>2012-04-09T14:50:53Z</time>
      </trkpt>
      <trkpt lat="43.82545" lon="3.67888">
        <ele>195.77</ele>
        <time>2012-04-09T14:50:54Z</time>
      </trkpt>
      <trkpt lat="43.82539" lon="3.67873">
        <ele>196.73</ele>
        <time>2012-04-09T14:50:55Z</time>
      </trkpt>
      <trkpt lat="43.82535" lon="3.67856">
        <ele>197.21</ele>
        <time>2012-04-09T14:50:56Z</time>
      </trkpt>
      <trkpt lat="43.8253" lon="3.67841">
        <ele>198.17</ele>
        <time>2012-04-09T14:50:57Z</time>
      </trkpt>
      <trkpt lat="43.82522" lon="3.67827">
        <ele>198.65</ele>
        <time>2012-04-09T14:50:58Z</time>
      </trkpt>
      <trkpt lat="43.8251" lon="3.67817">
        <ele>199.13</ele>
        <time>2012-04-09T14:50:59Z</time>
      </trkpt>
      <trkpt lat="43.82494" lon="3.67808">
        <ele>200.09</ele>
        <time>2012-04-09T14:51:00Z</time>
      </trkpt>
      <trkpt lat="43.82477" lon="3.67799">
        <ele>201.53</ele>
        <time>2012-04-09T14:51:01Z</time>
      </trkpt>
      <trkpt lat="43.82458" lon="3.67789">
        <ele>202.49</ele>
        <time>2012-04-09T14:51:02Z</time>
      </trkpt>
      <trkpt lat="43.82359" lon="3.67746">
        <ele>208.74</ele>
        <time>2012-04-09T14:51:07Z</time>
      </trkpt>
      <trkpt lat="43.82307" lon="3.67741">
        <ele>211.63</ele>
        <time>2012-04-09T14:51:11Z</time>
      </trkpt>
      <trkpt lat="43.823" lon="3.67738">
        <ele>211.63</ele>
        <time>2012-04-09T14:51:12Z</time>
      </trkpt>
      <trkpt lat="43.82295" lon="3.67736">
        <ele>212.11</ele>
        <time>2012-04-09T14:51:13Z</time>
      </trkpt>
      <trkpt lat="43.82292" lon="3.67734">
        <ele>212.59</ele>
        <time>2012-04-09T14:51:14Z</time>
      </trkpt>
      <trkpt lat="43.82289" lon="3.67735">
        <ele>212.59</ele>
        <time>2012-04-09T14:51:15Z</time>
      </trkpt>
      <trkpt lat="43.82287" lon="3.67736">
        <ele>213.55</ele>
        <time>2012-04-09T14:51:16Z</time>
      </trkpt>
      <trkpt lat="43.82286" lon="3.67737">
        <ele>214.03</ele>
        <time>2012-04-09T14:51:17Z</time>
      </trkpt>
      <trkpt lat="43.82289" lon="3.67741">
        <ele>214.51</ele>
        <time>2012-04-09T14:51:36Z</time>
      </trkpt>
      <trkpt lat="43.82296" lon="3.6774">
        <ele>218.36</ele>
        <time>2012-04-09T14:54:59Z</time>
      </trkpt>
      <trkpt lat="43.82295" lon="3.67738">
        <ele>217.88</ele>
        <time>2012-04-09T14:55:05Z</time>
      </trkpt>
      <trkpt lat="43.82293" lon="3.67734">
        <ele>217.88</ele>
        <time>2012-04-09T14:55:06Z</time>
      </trkpt>
      <trkpt lat="43.82285" lon="3.6772">
        <ele>217.88</ele>
        <time>2012-04-09T14:55:08Z</time>
      </trkpt>
      <trkpt lat="43.82222" lon="3.67624">
        <ele>221.24</ele>
        <time>2012-04-09T14:55:16Z</time>
      </trkpt>
      <trkpt lat="43.8219" lon="3.67478">
        <ele>223.64</ele>
        <time>2012-04-09T14:55:23Z</time>
      </trkpt>
      <trkpt lat="43.82142" lon="3.67287">
        <ele>225.09</ele>
        <time>2012-04-09T14:55:31Z</time>
      </trkpt>
      <trkpt lat="43.82033" lon="3.67095">
        <ele>225.57</ele>
        <time>2012-04-09T14:55:39Z</time>
      </trkpt>
      <trkpt lat="43.81841" lon="3.6676">
        <ele>229.89</ele>
        <time>2012-04-09T14:55:53Z</time>
      </trkpt>
      <trkpt lat="43.81603" lon="3.66342">
        <ele>230.85</ele>
        <time>2012-04-09T14:56:09Z</time>
      </trkpt>
      <trkpt lat="43.81461" lon="3.66093">
        <ele>242.87</ele>
        <time>2012-04-09T14:56:19Z</time>
      </trkpt>
      <trkpt lat="43.81358" lon="3.65988">
        <ele>249.12</ele>
        <time>2012-04-09T14:56:26Z</time>
      </trkpt>
      <trkpt lat="43.81213" lon="3.65839">
        <ele>251.52</ele>
        <time>2012-04-09T14:56:35Z</time>
      </trkpt>
      <trkpt lat="43.81004" lon="3.6552">
        <ele>244.31</ele>
        <time>2012-04-09T14:56:47Z</time>
      </trkpt>
      <trkpt lat="43.80744" lon="3.6512">
        <ele>247.68</ele>
        <time>2012-04-09T14:57:02Z</time>
      </trkpt>
      <trkpt lat="43.80626" lon="3.64943">
        <ele>249.6</ele>
        <time>2012-04-09T14:57:11Z</time>
      </trkpt>
      <trkpt lat="43.80589" lon="3.64883">
        <ele>248.16</ele>
        <time>2012-04-09T14:57:16Z</time>
      </trkpt>
      <trkpt lat="43.80587" lon="3.64875">
        <ele>247.68</ele>
        <time>2012-04-09T14:57:17Z</time>
      </trkpt>
      <trkpt lat="43.80585" lon="3.64861">
        <ele>248.16</ele>
        <time>2012-04-09T14:57:19Z</time>
      </trkpt>
      <trkpt lat="43.80582" lon="3.64858">
        <ele>247.68</ele>
        <time>2012-04-09T14:57:20Z</time>
      </trkpt>
      <trkpt lat="43.8058" lon="3.64863">
        <ele>247.2</ele>
        <time>2012-04-09T14:57:21Z</time>
      </trkpt>
      <trkpt lat="43.80577" lon="3.64869">
        <ele>247.2</ele>
        <time>2012-04-09T14:57:22Z</time>
      </trkpt>
      <trkpt lat="43.80575" lon="3.64877">
        <ele>247.2</ele>
        <time>2012-04-09T14:57:23Z</time>
      </trkpt>
      <trkpt lat="43.80573" lon="3.64886">
        <ele>247.2</ele>
        <time>2012-04-09T14:57:24Z</time>
      </trkpt>
      <trkpt lat="43.80569" lon="3.64895">
        <ele>247.2</ele>
        <time>2012-04-09T14:57:25Z</time>
      </trkpt>
      <trkpt lat="43.80564" lon="3.64903">
        <ele>247.2</ele>
        <time>2012-04-09T14:57:26Z</time>
      </trkpt>
      <trkpt lat="43.80559" lon="3.64911">
        <ele>247.2</ele>
        <time>2012-04-09T14:57:27Z</time>
      </trkpt>
      <trkpt lat="43.80527" lon="3.64956">
        <ele>247.2</ele>
        <time>2012-04-09T14:57:36Z</time>
      </trkpt>
      <trkpt lat="43.80505" lon="3.64984">
        <ele>247.2</ele>
        <time>2012-04-09T14:57:40Z</time>
      </trkpt>
      <trkpt lat="43.80497" lon="3.64991">
        <ele>247.2</ele>
        <time>2012-04-09T14:57:41Z</time>
      </trkpt>
      <trkpt lat="43.80453" lon="3.65024">
        <ele>246.72</ele>
        <time>2012-04-09T14:57:46Z</time>
      </trkpt>
      <trkpt lat="43.80446" lon="3.65032">
        <ele>246.23</ele>
        <time>2012-04-09T14:57:47Z</time>
      </trkpt>
      <trkpt lat="43.80439" lon="3.65042">
        <ele>246.23</ele>
        <time>2012-04-09T14:57:48Z</time>
      </trkpt>
      <trkpt lat="43.80433" lon="3.65051">
        <ele>245.75</ele>
        <time>2012-04-09T14:57:49Z</time>
      </trkpt>
      <trkpt lat="43.80428" lon="3.65061">
        <ele>245.27</ele>
        <time>2012-04-09T14:57:50Z</time>
      </trkpt>
      <trkpt lat="43.80423" lon="3.65073">
        <ele>244.79</ele>
        <time>2012-04-09T14:57:51Z</time>
      </trkpt>
      <trkpt lat="43.80419" lon="3.65085">
        <ele>244.31</ele>
        <time>2012-04-09T14:57:52Z</time>
      </trkpt>
      <trkpt lat="43.80415" lon="3.65097">
        <ele>243.83</ele>
        <time>2012-04-09T14:57:53Z</time>
      </trkpt>
      <trkpt lat="43.80413" lon="3.65109">
        <ele>243.35</ele>
        <time>2012-04-09T14:57:54Z</time>
      </trkpt>
      <trkpt lat="43.80411" lon="3.6512">
        <ele>242.87</ele>
        <time>2012-04-09T14:57:55Z</time>
      </trkpt>
      <trkpt lat="43.80381" lon="3.65242">
        <ele>239.02</ele>
        <time>2012-04-09T14:58:05Z</time>
      </trkpt>
      <trkpt lat="43.80363" lon="3.65298">
        <ele>238.06</ele>
        <time>2012-04-09T14:58:09Z</time>
      </trkpt>
      <trkpt lat="43.80357" lon="3.6531">
        <ele>238.06</ele>
        <time>2012-04-09T14:58:10Z</time>
      </trkpt>
      <trkpt lat="43.80349" lon="3.65321">
        <ele>238.06</ele>
        <time>2012-04-09T14:58:11Z</time>
      </trkpt>
      <trkpt lat="43.80341" lon="3.65331">
        <ele>238.06</ele>
        <time>2012-04-09T14:58:12Z</time>
      </trkpt>
      <trkpt lat="43.80332" lon="3.65339">
        <ele>238.06</ele>
        <time>2012-04-09T14:58:13Z</time>
      </trkpt>
      <trkpt lat="43.80233" lon="3.6542">
        <ele>237.1</ele>
        <time>2012-04-09T14:58:23Z</time>
      </trkpt>
      <trkpt lat="43.80211" lon="3.65444">
        <ele>235.18</ele>
        <time>2012-04-09T14:58:25Z</time>
      </trkpt>
      <trkpt lat="43.80202" lon="3.65459">
        <ele>234.7</ele>
        <time>2012-04-09T14:58:26Z</time>
      </trkpt>
      <trkpt lat="43.80193" lon="3.65476">
        <ele>233.74</ele>
        <time>2012-04-09T14:58:27Z</time>
      </trkpt>
      <trkpt lat="43.80186" lon="3.65495">
        <ele>233.26</ele>
        <time>2012-04-09T14:58:28Z</time>
      </trkpt>
      <trkpt lat="43.8018" lon="3.65514">
        <ele>232.78</ele>
        <time>2012-04-09T14:58:29Z</time>
      </trkpt>
      <trkpt lat="43.80147" lon="3.65613">
        <ele>229.41</ele>
        <time>2012-04-09T14:58:34Z</time>
      </trkpt>
      <trkpt lat="43.80136" lon="3.65632">
        <ele>228.93</ele>
        <time>2012-04-09T14:58:35Z</time>
      </trkpt>
      <trkpt lat="43.80122" lon="3.6565">
        <ele>228.45</ele>
        <time>2012-04-09T14:58:36Z</time>
      </trkpt>
      <trkpt lat="43.80106" lon="3.65668">
        <ele>227.49</ele>
        <time>2012-04-09T14:58:37Z</time>
      </trkpt>
      <trkpt lat="43.80089" lon="3.65686">
        <ele>227.01</ele>
        <time>2012-04-09T14:58:38Z</time>
      </trkpt>
      <trkpt lat="43.79963" lon="3.65801">
        <ele>225.09</ele>
        <time>2012-04-09T14:58:45Z</time>
      </trkpt>
      <trkpt lat="43.79951" lon="3.65817">
        <ele>224.61</ele>
        <time>2012-04-09T14:58:46Z</time>
      </trkpt>
      <trkpt lat="43.79942" lon="3.65834">
        <ele>224.61</ele>
        <time>2012-04-09T14:58:47Z</time>
      </trkpt>
      <trkpt lat="43.79938" lon="3.65853">
        <ele>224.61</ele>
        <time>2012-04-09T14:58:48Z</time>
      </trkpt>
      <trkpt lat="43.79938" lon="3.65874">
        <ele>224.61</ele>
        <time>2012-04-09T14:58:49Z</time>
      </trkpt>
      <trkpt lat="43.79941" lon="3.65897">
        <ele>224.61</ele>
        <time>2012-04-09T14:58:50Z</time>
      </trkpt>
      <trkpt lat="43.79947" lon="3.65923">
        <ele>224.61</ele>
        <time>2012-04-09T14:58:51Z</time>
      </trkpt>
      <trkpt lat="43.79952" lon="3.6595">
        <ele>224.61</ele>
        <time>2012-04-09T14:58:52Z</time>
      </trkpt>
      <trkpt lat="43.79977" lon="3.66078">
        <ele>221.72</ele>
        <time>2012-04-09T14:58:57Z</time>
      </trkpt>
      <trkpt lat="43.79985" lon="3.66098">
        <ele>220.76</ele>
        <time>2012-04-09T14:58:58Z</time>
      </trkpt>
      <trkpt lat="43.79999" lon="3.66133">
        <ele>217.88</ele>
        <time>2012-04-09T14:59:00Z</time>
      </trkpt>
      <trkpt lat="43.80002" lon="3.66152">
        <ele>216.43</ele>
        <time>2012-04-09T14:59:01Z</time>
      </trkpt>
      <trkpt lat="43.80002" lon="3.66174">
        <ele>214.99</ele>
        <time>2012-04-09T14:59:02Z</time>
      </trkpt>
      <trkpt lat="43.79998" lon="3.66194">
        <ele>214.03</ele>
        <time>2012-04-09T14:59:03Z</time>
      </trkpt>
      <trkpt lat="43.79992" lon="3.66214">
        <ele>212.59</ele>
        <time>2012-04-09T14:59:04Z</time>
      </trkpt>
      <trkpt lat="43.79982" lon="3.66234">
        <ele>211.15</ele>
        <time>2012-04-09T14:59:05Z</time>
      </trkpt>
      <trkpt lat="43.7997" lon="3.66253">
        <ele>209.7</ele>
        <time>2012-04-09T14:59:06Z</time>
      </trkpt>
      <trkpt lat="43.79957" lon="3.66272">
        <ele>208.26</ele>
        <time>2012-04-09T14:59:07Z</time>
      </trkpt>
      <trkpt lat="43.79917" lon="3.66328">
        <ele>203.94</ele>
        <time>2012-04-09T14:59:10Z</time>
      </trkpt>
      <trkpt lat="43.79901" lon="3.66343">
        <ele>202.01</ele>
        <time>2012-04-09T14:59:11Z</time>
      </trkpt>
      <trkpt lat="43.79885" lon="3.66355">
        <ele>200.09</ele>
        <time>2012-04-09T14:59:12Z</time>
      </trkpt>
      <trkpt lat="43.79869" lon="3.66366">
        <ele>198.65</ele>
        <time>2012-04-09T14:59:13Z</time>
      </trkpt>
      <trkpt lat="43.79851" lon="3.66373">
        <ele>197.21</ele>
        <time>2012-04-09T14:59:14Z</time>
      </trkpt>
      <trkpt lat="43.79832" lon="3.6638">
        <ele>195.28</ele>
        <time>2012-04-09T14:59:15Z</time>
      </trkpt>
      <trkpt lat="43.79655" lon="3.66432">
        <ele>178.94</ele>
        <time>2012-04-09T14:59:25Z</time>
      </trkpt>
      <trkpt lat="43.79625" lon="3.66441">
        <ele>176.06</ele>
        <time>2012-04-09T14:59:28Z</time>
      </trkpt>
      <trkpt lat="43.7962" lon="3.66446">
        <ele>175.1</ele>
        <time>2012-04-09T14:59:29Z</time>
      </trkpt>
      <trkpt lat="43.79617" lon="3.66453">
        <ele>174.14</ele>
        <time>2012-04-09T14:59:30Z</time>
      </trkpt>
      <trkpt lat="43.79617" lon="3.66461">
        <ele>173.17</ele>
        <time>2012-04-09T14:59:31Z</time>
      </trkpt>
      <trkpt lat="43.7962" lon="3.66466">
        <ele>173.17</ele>
        <time>2012-04-09T14:59:32Z</time>
      </trkpt>
      <trkpt lat="43.79624" lon="3.66468">
        <ele>172.21</ele>
        <time>2012-04-09T14:59:33Z</time>
      </trkpt>
      <trkpt lat="43.79637" lon="3.66466">
        <ele>171.25</ele>
        <time>2012-04-09T14:59:35Z</time>
      </trkpt>
      <trkpt lat="43.79646" lon="3.66462">
        <ele>171.25</ele>
        <time>2012-04-09T14:59:36Z</time>
      </trkpt>
      <trkpt lat="43.79658" lon="3.66459">
        <ele>170.77</ele>
        <time>2012-04-09T14:59:37Z</time>
      </trkpt>
      <trkpt lat="43.7967" lon="3.66459">
        <ele>170.29</ele>
        <time>2012-04-09T14:59:38Z</time>
      </trkpt>
      <trkpt lat="43.79684" lon="3.66462">
        <ele>168.85</ele>
        <time>2012-04-09T14:59:39Z</time>
      </trkpt>
      <trkpt lat="43.79697" lon="3.66469">
        <ele>167.89</ele>
        <time>2012-04-09T14:59:40Z</time>
      </trkpt>
      <trkpt lat="43.79711" lon="3.66479">
        <ele>166.93</ele>
        <time>2012-04-09T14:59:41Z</time>
      </trkpt>
      <trkpt lat="43.79725" lon="3.6649">
        <ele>165.96</ele>
        <time>2012-04-09T14:59:42Z</time>
      </trkpt>
      <trkpt lat="43.7974" lon="3.665">
        <ele>164.52</ele>
        <time>2012-04-09T14:59:43Z</time>
      </trkpt>
      <trkpt lat="43.79756" lon="3.66508">
        <ele>162.6</ele>
        <time>2012-04-09T14:59:44Z</time>
      </trkpt>
      <trkpt lat="43.79837" lon="3.66535">
        <ele>154.91</ele>
        <time>2012-04-09T14:59:49Z</time>
      </trkpt>
      <trkpt lat="43.79851" lon="3.66535">
        <ele>153.47</ele>
        <time>2012-04-09T14:59:50Z</time>
      </trkpt>
      <trkpt lat="43.79865" lon="3.66533">
        <ele>152.51</ele>
        <time>2012-04-09T14:59:51Z</time>
      </trkpt>
      <trkpt lat="43.79877" lon="3.66531">
        <ele>151.54</ele>
        <time>2012-04-09T14:59:52Z</time>
      </trkpt>
      <trkpt lat="43.79887" lon="3.66532">
        <ele>151.06</ele>
        <time>2012-04-09T14:59:53Z</time>
      </trkpt>
      <trkpt lat="43.79896" lon="3.66536">
        <ele>150.1</ele>
        <time>2012-04-09T14:59:54Z</time>
      </trkpt>
      <trkpt lat="43.79902" lon="3.66546">
        <ele>149.62</ele>
        <time>2012-04-09T14:59:55Z</time>
      </trkpt>
      <trkpt lat="43.79908" lon="3.66558">
        <ele>148.66</ele>
        <time>2012-04-09T14:59:56Z</time>
      </trkpt>
      <trkpt lat="43.79914" lon="3.66569">
        <ele>147.7</ele>
        <time>2012-04-09T14:59:57Z</time>
      </trkpt>
      <trkpt lat="43.79923" lon="3.66578">
        <ele>146.74</ele>
        <time>2012-04-09T14:59:58Z</time>
      </trkpt>
      <trkpt lat="43.79936" lon="3.66582">
        <ele>146.26</ele>
        <time>2012-04-09T14:59:59Z</time>
      </trkpt>
      <trkpt lat="43.79952" lon="3.66582">
        <ele>145.3</ele>
        <time>2012-04-09T15:00:00Z</time>
      </trkpt>
      <trkpt lat="43.79967" lon="3.6658">
        <ele>143.85</ele>
        <time>2012-04-09T15:00:01Z</time>
      </trkpt>
      <trkpt lat="43.79983" lon="3.66577">
        <ele>142.41</ele>
        <time>2012-04-09T15:00:02Z</time>
      </trkpt>
      <trkpt lat="43.80014" lon="3.66569">
        <ele>140.01</ele>
        <time>2012-04-09T15:00:04Z</time>
      </trkpt>
      <trkpt lat="43.80028" lon="3.66562">
        <ele>139.05</ele>
        <time>2012-04-09T15:00:05Z</time>
      </trkpt>
      <trkpt lat="43.80071" lon="3.66543">
        <ele>135.2</ele>
        <time>2012-04-09T15:00:08Z</time>
      </trkpt>
      <trkpt lat="43.80088" lon="3.66541">
        <ele>134.24</ele>
        <time>2012-04-09T15:00:09Z</time>
      </trkpt>
      <trkpt lat="43.80205" lon="3.66514">
        <ele>125.59</ele>
        <time>2012-04-09T15:00:15Z</time>
      </trkpt>
      <trkpt lat="43.80351" lon="3.66454">
        <ele>114.05</ele>
        <time>2012-04-09T15:00:23Z</time>
      </trkpt>
      <trkpt lat="43.80459" lon="3.66406">
        <ele>106.36</ele>
        <time>2012-04-09T15:00:31Z</time>
      </trkpt>
      <trkpt lat="43.80464" lon="3.66406">
        <ele>105.88</ele>
        <time>2012-04-09T15:00:32Z</time>
      </trkpt>
      <trkpt lat="43.80468" lon="3.6641">
        <ele>106.36</ele>
        <time>2012-04-09T15:00:33Z</time>
      </trkpt>
      <trkpt lat="43.8047" lon="3.66416">
        <ele>106.36</ele>
        <time>2012-04-09T15:00:34Z</time>
      </trkpt>
      <trkpt lat="43.80472" lon="3.66424">
        <ele>106.84</ele>
        <time>2012-04-09T15:00:35Z</time>
      </trkpt>
      <trkpt lat="43.80473" lon="3.66434">
        <ele>106.84</ele>
        <time>2012-04-09T15:00:36Z</time>
      </trkpt>
      <trkpt lat="43.80494" lon="3.66532">
        <ele>107.81</ele>
        <time>2012-04-09T15:00:44Z</time>
      </trkpt>
      <trkpt lat="43.80499" lon="3.6654">
        <ele>107.81</ele>
        <time>2012-04-09T15:00:45Z</time>
      </trkpt>
      <trkpt lat="43.80505" lon="3.66545">
        <ele>107.81</ele>
        <time>2012-04-09T15:00:46Z</time>
      </trkpt>
      <trkpt lat="43.80513" lon="3.66546">
        <ele>107.81</ele>
        <time>2012-04-09T15:00:47Z</time>
      </trkpt>
      <trkpt lat="43.80523" lon="3.66543">
        <ele>107.81</ele>
        <time>2012-04-09T15:00:48Z</time>
      </trkpt>
      <trkpt lat="43.80535" lon="3.66539">
        <ele>107.81</ele>
        <time>2012-04-09T15:00:49Z</time>
      </trkpt>
      <trkpt lat="43.80592" lon="3.66537">
        <ele>109.25</ele>
        <time>2012-04-09T15:00:53Z</time>
      </trkpt>
      <trkpt lat="43.80608" lon="3.66539">
        <ele>109.73</ele>
        <time>2012-04-09T15:00:54Z</time>
      </trkpt>
      <trkpt lat="43.8065" lon="3.66551">
        <ele>111.17</ele>
        <time>2012-04-09T15:00:57Z</time>
      </trkpt>
      <trkpt lat="43.80662" lon="3.66558">
        <ele>112.13</ele>
        <time>2012-04-09T15:00:58Z</time>
      </trkpt>
      <trkpt lat="43.80673" lon="3.66567">
        <ele>112.61</ele>
        <time>2012-04-09T15:00:59Z</time>
      </trkpt>
      <trkpt lat="43.80752" lon="3.66674">
        <ele>118.38</ele>
        <time>2012-04-09T15:01:08Z</time>
      </trkpt>
      <trkpt lat="43.80755" lon="3.66688">
        <ele>119.34</ele>
        <time>2012-04-09T15:01:09Z</time>
      </trkpt>
      <trkpt lat="43.80756" lon="3.66703">
        <ele>120.3</ele>
        <time>2012-04-09T15:01:10Z</time>
      </trkpt>
      <trkpt lat="43.80759" lon="3.66778">
        <ele>123.67</ele>
        <time>2012-04-09T15:01:15Z</time>
      </trkpt>
      <trkpt lat="43.80762" lon="3.6679">
        <ele>124.63</ele>
        <time>2012-04-09T15:01:16Z</time>
      </trkpt>
      <trkpt lat="43.80769" lon="3.66813">
        <ele>125.59</ele>
        <time>2012-04-09T15:01:18Z</time>
      </trkpt>
      <trkpt lat="43.80771" lon="3.66825">
        <ele>126.07</ele>
        <time>2012-04-09T15:01:19Z</time>
      </trkpt>
      <trkpt lat="43.80771" lon="3.66837">
        <ele>127.03</ele>
        <time>2012-04-09T15:01:20Z</time>
      </trkpt>
      <trkpt lat="43.80769" lon="3.66848">
        <ele>127.51</ele>
        <time>2012-04-09T15:01:21Z</time>
      </trkpt>
      <trkpt lat="43.80765" lon="3.66858">
        <ele>127.99</ele>
        <time>2012-04-09T15:01:22Z</time>
      </trkpt>
      <trkpt lat="43.8076" lon="3.66866">
        <ele>128.95</ele>
        <time>2012-04-09T15:01:23Z</time>
      </trkpt>
      <trkpt lat="43.80754" lon="3.66873">
        <ele>129.43</ele>
        <time>2012-04-09T15:01:24Z</time>
      </trkpt>
      <trkpt lat="43.80749" lon="3.66882">
        <ele>130.4</ele>
        <time>2012-04-09T15:01:25Z</time>
      </trkpt>
      <trkpt lat="43.80746" lon="3.66893">
        <ele>130.88</ele>
        <time>2012-04-09T15:01:26Z</time>
      </trkpt>
      <trkpt lat="43.80744" lon="3.66904">
        <ele>131.36</ele>
        <time>2012-04-09T15:01:27Z</time>
      </trkpt>
      <trkpt lat="43.80742" lon="3.66917">
        <ele>132.32</ele>
        <time>2012-04-09T15:01:28Z</time>
      </trkpt>
      <trkpt lat="43.80737" lon="3.66972">
        <ele>134.72</ele>
        <time>2012-04-09T15:01:32Z</time>
      </trkpt>
      <trkpt lat="43.80738" lon="3.66986">
        <ele>135.2</ele>
        <time>2012-04-09T15:01:33Z</time>
      </trkpt>
      <trkpt lat="43.80741" lon="3.66999">
        <ele>135.68</ele>
        <time>2012-04-09T15:01:34Z</time>
      </trkpt>
      <trkpt lat="43.80744" lon="3.67011">
        <ele>136.16</ele>
        <time>2012-04-09T15:01:35Z</time>
      </trkpt>
      <trkpt lat="43.80747" lon="3.67022">
        <ele>136.64</ele>
        <time>2012-04-09T15:01:36Z</time>
      </trkpt>
      <trkpt lat="43.80766" lon="3.67095">
        <ele>139.53</ele>
        <time>2012-04-09T15:01:42Z</time>
      </trkpt>
      <trkpt lat="43.80768" lon="3.67108">
        <ele>140.01</ele>
        <time>2012-04-09T15:01:43Z</time>
      </trkpt>
      <trkpt lat="43.8077" lon="3.67121">
        <ele>140.49</ele>
        <time>2012-04-09T15:01:44Z</time>
      </trkpt>
      <trkpt lat="43.80773" lon="3.67134">
        <ele>141.45</ele>
        <time>2012-04-09T15:01:45Z</time>
      </trkpt>
      <trkpt lat="43.80778" lon="3.67145">
        <ele>141.93</ele>
        <time>2012-04-09T15:01:46Z</time>
      </trkpt>
      <trkpt lat="43.80784" lon="3.67156">
        <ele>141.93</ele>
        <time>2012-04-09T15:01:47Z</time>
      </trkpt>
      <trkpt lat="43.80789" lon="3.67167">
        <ele>142.41</ele>
        <time>2012-04-09T15:01:48Z</time>
      </trkpt>
      <trkpt lat="43.80792" lon="3.67178">
        <ele>142.89</ele>
        <time>2012-04-09T15:01:49Z</time>
      </trkpt>
      <trkpt lat="43.80794" lon="3.6719">
        <ele>143.37</ele>
        <time>2012-04-09T15:01:50Z</time>
      </trkpt>
      <trkpt lat="43.80795" lon="3.67203">
        <ele>143.85</ele>
        <time>2012-04-09T15:01:51Z</time>
      </trkpt>
      <trkpt lat="43.80795" lon="3.67215">
        <ele>144.82</ele>
        <time>2012-04-09T15:01:52Z</time>
      </trkpt>
      <trkpt lat="43.80798" lon="3.67225">
        <ele>144.82</ele>
        <time>2012-04-09T15:01:53Z</time>
      </trkpt>
      <trkpt lat="43.80802" lon="3.67235">
        <ele>145.3</ele>
        <time>2012-04-09T15:01:54Z</time>
      </trkpt>
      <trkpt lat="43.80808" lon="3.67243">
        <ele>145.3</ele>
        <time>2012-04-09T15:01:55Z</time>
      </trkpt>
      <trkpt lat="43.80813" lon="3.67252">
        <ele>145.78</ele>
        <time>2012-04-09T15:01:56Z</time>
      </trkpt>
      <trkpt lat="43.80817" lon="3.67262">
        <ele>146.26</ele>
        <time>2012-04-09T15:01:57Z</time>
      </trkpt>
      <trkpt lat="43.80818" lon="3.67274">
        <ele>146.74</ele>
        <time>2012-04-09T15:01:58Z</time>
      </trkpt>
      <trkpt lat="43.80817" lon="3.67285">
        <ele>147.22</ele>
        <time>2012-04-09T15:01:59Z</time>
      </trkpt>
      <trkpt lat="43.80815" lon="3.67296">
        <ele>147.7</ele>
        <time>2012-04-09T15:02:00Z</time>
      </trkpt>
      <trkpt lat="43.80815" lon="3.67307">
        <ele>148.18</ele>
        <time>2012-04-09T15:02:01Z</time>
      </trkpt>
      <trkpt lat="43.80817" lon="3.67316">
        <ele>148.66</ele>
        <time>2012-04-09T15:02:02Z</time>
      </trkpt>
      <trkpt lat="43.80821" lon="3.67324">
        <ele>149.14</ele>
        <time>2012-04-09T15:02:03Z</time>
      </trkpt>
      <trkpt lat="43.80826" lon="3.67332">
        <ele>149.14</ele>
        <time>2012-04-09T15:02:04Z</time>
      </trkpt>
      <trkpt lat="43.80831" lon="3.67341">
        <ele>149.62</ele>
        <time>2012-04-09T15:02:05Z</time>
      </trkpt>
      <trkpt lat="43.80853" lon="3.67375">
        <ele>150.58</ele>
        <time>2012-04-09T15:02:09Z</time>
      </trkpt>
      <trkpt lat="43.80858" lon="3.6738">
        <ele>150.58</ele>
        <time>2012-04-09T15:02:10Z</time>
      </trkpt>
      <trkpt lat="43.80866" lon="3.67377">
        <ele>150.58</ele>
        <time>2012-04-09T15:02:11Z</time>
      </trkpt>
      <trkpt lat="43.80873" lon="3.67371">
        <ele>151.06</ele>
        <time>2012-04-09T15:02:12Z</time>
      </trkpt>
      <trkpt lat="43.8088" lon="3.67362">
        <ele>151.54</ele>
        <time>2012-04-09T15:02:13Z</time>
      </trkpt>
      <trkpt lat="43.80888" lon="3.67355">
        <ele>152.03</ele>
        <time>2012-04-09T15:02:14Z</time>
      </trkpt>
      <trkpt lat="43.80896" lon="3.6735">
        <ele>152.51</ele>
        <time>2012-04-09T15:02:15Z</time>
      </trkpt>
      <trkpt lat="43.80905" lon="3.67347">
        <ele>152.99</ele>
        <time>2012-04-09T15:02:16Z</time>
      </trkpt>
      <trkpt lat="43.80916" lon="3.67346">
        <ele>153.47</ele>
        <time>2012-04-09T15:02:17Z</time>
      </trkpt>
      <trkpt lat="43.80927" lon="3.67347">
        <ele>153.95</ele>
        <time>2012-04-09T15:02:18Z</time>
      </trkpt>
      <trkpt lat="43.80939" lon="3.6735">
        <ele>154.43</ele>
        <time>2012-04-09T15:02:19Z</time>
      </trkpt>
      <trkpt lat="43.80952" lon="3.67353">
        <ele>155.39</ele>
        <time>2012-04-09T15:02:20Z</time>
      </trkpt>
      <trkpt lat="43.80967" lon="3.67356">
        <ele>155.87</ele>
        <time>2012-04-09T15:02:21Z</time>
      </trkpt>
      <trkpt lat="43.81034" lon="3.67359">
        <ele>158.27</ele>
        <time>2012-04-09T15:02:25Z</time>
      </trkpt>
      <trkpt lat="43.81047" lon="3.6735">
        <ele>159.24</ele>
        <time>2012-04-09T15:02:26Z</time>
      </trkpt>
      <trkpt lat="43.8106" lon="3.67339">
        <ele>160.2</ele>
        <time>2012-04-09T15:02:27Z</time>
      </trkpt>
      <trkpt lat="43.81085" lon="3.67321">
        <ele>161.16</ele>
        <time>2012-04-09T15:02:29Z</time>
      </trkpt>
      <trkpt lat="43.81097" lon="3.67317">
        <ele>161.64</ele>
        <time>2012-04-09T15:02:30Z</time>
      </trkpt>
      <trkpt lat="43.81109" lon="3.67316">
        <ele>162.12</ele>
        <time>2012-04-09T15:02:31Z</time>
      </trkpt>
      <trkpt lat="43.81123" lon="3.67317">
        <ele>162.6</ele>
        <time>2012-04-09T15:02:32Z</time>
      </trkpt>
      <trkpt lat="43.81139" lon="3.6732">
        <ele>163.56</ele>
        <time>2012-04-09T15:02:33Z</time>
      </trkpt>
      <trkpt lat="43.81188" lon="3.6733">
        <ele>165.96</ele>
        <time>2012-04-09T15:02:36Z</time>
      </trkpt>
      <trkpt lat="43.81203" lon="3.67337">
        <ele>166.93</ele>
        <time>2012-04-09T15:02:37Z</time>
      </trkpt>
      <trkpt lat="43.8122" lon="3.67348">
        <ele>167.89</ele>
        <time>2012-04-09T15:02:38Z</time>
      </trkpt>
      <trkpt lat="43.81237" lon="3.67361">
        <ele>168.37</ele>
        <time>2012-04-09T15:02:39Z</time>
      </trkpt>
      <trkpt lat="43.81252" lon="3.67375">
        <ele>169.81</ele>
        <time>2012-04-09T15:02:40Z</time>
      </trkpt>
      <trkpt lat="43.81285" lon="3.67411">
        <ele>172.21</ele>
        <time>2012-04-09T15:02:43Z</time>
      </trkpt>
      <trkpt lat="43.81291" lon="3.67423">
        <ele>172.69</ele>
        <time>2012-04-09T15:02:44Z</time>
      </trkpt>
      <trkpt lat="43.81294" lon="3.6744">
        <ele>173.66</ele>
        <time>2012-04-09T15:02:45Z</time>
      </trkpt>
      <trkpt lat="43.81296" lon="3.6746">
        <ele>174.62</ele>
        <time>2012-04-09T15:02:46Z</time>
      </trkpt>
      <trkpt lat="43.81297" lon="3.6748">
        <ele>175.58</ele>
        <time>2012-04-09T15:02:47Z</time>
      </trkpt>
      <trkpt lat="43.81296" lon="3.67501">
        <ele>176.54</ele>
        <time>2012-04-09T15:02:48Z</time>
      </trkpt>
      <trkpt lat="43.81292" lon="3.67521">
        <ele>177.5</ele>
        <time>2012-04-09T15:02:49Z</time>
      </trkpt>
      <trkpt lat="43.81286" lon="3.67542">
        <ele>178.46</ele>
        <time>2012-04-09T15:02:50Z</time>
      </trkpt>
      <trkpt lat="43.81279" lon="3.67562">
        <ele>178.94</ele>
        <time>2012-04-09T15:02:51Z</time>
      </trkpt>
      <trkpt lat="43.81271" lon="3.67579">
        <ele>179.9</ele>
        <time>2012-04-09T15:02:52Z</time>
      </trkpt>
      <trkpt lat="43.81264" lon="3.67593">
        <ele>180.38</ele>
        <time>2012-04-09T15:02:53Z</time>
      </trkpt>
      <trkpt lat="43.81259" lon="3.67606">
        <ele>181.35</ele>
        <time>2012-04-09T15:02:54Z</time>
      </trkpt>
      <trkpt lat="43.81257" lon="3.67619">
        <ele>181.83</ele>
        <time>2012-04-09T15:02:55Z</time>
      </trkpt>
      <trkpt lat="43.81259" lon="3.67629">
        <ele>182.31</ele>
        <time>2012-04-09T15:02:56Z</time>
      </trkpt>
      <trkpt lat="43.81265" lon="3.67639">
        <ele>182.79</ele>
        <time>2012-04-09T15:02:57Z</time>
      </trkpt>
      <trkpt lat="43.81276" lon="3.67647">
        <ele>182.79</ele>
        <time>2012-04-09T15:02:58Z</time>
      </trkpt>
      <trkpt lat="43.8129" lon="3.67656">
        <ele>183.27</ele>
        <time>2012-04-09T15:02:59Z</time>
      </trkpt>
      <trkpt lat="43.81306" lon="3.67666">
        <ele>184.23</ele>
        <time>2012-04-09T15:03:00Z</time>
      </trkpt>
      <trkpt lat="43.81321" lon="3.67678">
        <ele>185.19</ele>
        <time>2012-04-09T15:03:01Z</time>
      </trkpt>
      <trkpt lat="43.81335" lon="3.67689">
        <ele>186.15</ele>
        <time>2012-04-09T15:03:02Z</time>
      </trkpt>
      <trkpt lat="43.8135" lon="3.67697">
        <ele>186.63</ele>
        <time>2012-04-09T15:03:03Z</time>
      </trkpt>
      <trkpt lat="43.81366" lon="3.67702">
        <ele>187.59</ele>
        <time>2012-04-09T15:03:04Z</time>
      </trkpt>
      <trkpt lat="43.81382" lon="3.67705">
        <ele>188.08</ele>
        <time>2012-04-09T15:03:05Z</time>
      </trkpt>
      <trkpt lat="43.81407" lon="3.67713">
        <ele>189.52</ele>
        <time>2012-04-09T15:03:07Z</time>
      </trkpt>
      <trkpt lat="43.81416" lon="3.6772">
        <ele>190</ele>
        <time>2012-04-09T15:03:08Z</time>
      </trkpt>
      <trkpt lat="43.81421" lon="3.67731">
        <ele>190.48</ele>
        <time>2012-04-09T15:03:09Z</time>
      </trkpt>
      <trkpt lat="43.81423" lon="3.67746">
        <ele>191.44</ele>
        <time>2012-04-09T15:03:10Z</time>
      </trkpt>
      <trkpt lat="43.81424" lon="3.67764">
        <ele>191.92</ele>
        <time>2012-04-09T15:03:11Z</time>
      </trkpt>
      <trkpt lat="43.81426" lon="3.67785">
        <ele>192.88</ele>
        <time>2012-04-09T15:03:12Z</time>
      </trkpt>
      <trkpt lat="43.81433" lon="3.67846">
        <ele>195.77</ele>
        <time>2012-04-09T15:03:15Z</time>
      </trkpt>
      <trkpt lat="43.81431" lon="3.67864">
        <ele>196.73</ele>
        <time>2012-04-09T15:03:16Z</time>
      </trkpt>
      <trkpt lat="43.81426" lon="3.67883">
        <ele>197.69</ele>
        <time>2012-04-09T15:03:17Z</time>
      </trkpt>
      <trkpt lat="43.81418" lon="3.67902">
        <ele>198.65</ele>
        <time>2012-04-09T15:03:18Z</time>
      </trkpt>
      <trkpt lat="43.81408" lon="3.67924">
        <ele>199.61</ele>
        <time>2012-04-09T15:03:19Z</time>
      </trkpt>
      <trkpt lat="43.81371" lon="3.68005">
        <ele>203.94</ele>
        <time>2012-04-09T15:03:23Z</time>
      </trkpt>
      <trkpt lat="43.81367" lon="3.68026">
        <ele>204.9</ele>
        <time>2012-04-09T15:03:24Z</time>
      </trkpt>
      <trkpt lat="43.81362" lon="3.68048">
        <ele>205.86</ele>
        <time>2012-04-09T15:03:25Z</time>
      </trkpt>
      <trkpt lat="43.81355" lon="3.6807">
        <ele>207.3</ele>
        <time>2012-04-09T15:03:26Z</time>
      </trkpt>
      <trkpt lat="43.81343" lon="3.68092">
        <ele>208.26</ele>
        <time>2012-04-09T15:03:27Z</time>
      </trkpt>
      <trkpt lat="43.81326" lon="3.68115">
        <ele>208.74</ele>
        <time>2012-04-09T15:03:28Z</time>
      </trkpt>
      <trkpt lat="43.81311" lon="3.68139">
        <ele>209.7</ele>
        <time>2012-04-09T15:03:29Z</time>
      </trkpt>
      <trkpt lat="43.81261" lon="3.68214">
        <ele>213.55</ele>
        <time>2012-04-09T15:03:33Z</time>
      </trkpt>
      <trkpt lat="43.81249" lon="3.68226">
        <ele>214.03</ele>
        <time>2012-04-09T15:03:34Z</time>
      </trkpt>
      <trkpt lat="43.81233" lon="3.68235">
        <ele>214.51</ele>
        <time>2012-04-09T15:03:35Z</time>
      </trkpt>
      <trkpt lat="43.81216" lon="3.68243">
        <ele>215.47</ele>
        <time>2012-04-09T15:03:36Z</time>
      </trkpt>
      <trkpt lat="43.81199" lon="3.68249">
        <ele>215.95</ele>
        <time>2012-04-09T15:03:37Z</time>
      </trkpt>
      <trkpt lat="43.81182" lon="3.68253">
        <ele>216.43</ele>
        <time>2012-04-09T15:03:38Z</time>
      </trkpt>
      <trkpt lat="43.8111" lon="3.68277">
        <ele>219.8</ele>
        <time>2012-04-09T15:03:43Z</time>
      </trkpt>
      <trkpt lat="43.81098" lon="3.68285">
        <ele>220.76</ele>
        <time>2012-04-09T15:03:44Z</time>
      </trkpt>
      <trkpt lat="43.81089" lon="3.68295">
        <ele>221.24</ele>
        <time>2012-04-09T15:03:45Z</time>
      </trkpt>
      <trkpt lat="43.8108" lon="3.68309">
        <ele>221.72</ele>
        <time>2012-04-09T15:03:46Z</time>
      </trkpt>
      <trkpt lat="43.81072" lon="3.68325">
        <ele>222.2</ele>
        <time>2012-04-09T15:03:47Z</time>
      </trkpt>
      <trkpt lat="43.81065" lon="3.68342">
        <ele>222.68</ele>
        <time>2012-04-09T15:03:48Z</time>
      </trkpt>
      <trkpt lat="43.8106" lon="3.68362">
        <ele>223.16</ele>
        <time>2012-04-09T15:03:49Z</time>
      </trkpt>
      <trkpt lat="43.81057" lon="3.68385">
        <ele>223.64</ele>
        <time>2012-04-09T15:03:50Z</time>
      </trkpt>
      <trkpt lat="43.81057" lon="3.68408">
        <ele>224.12</ele>
        <time>2012-04-09T15:03:51Z</time>
      </trkpt>
      <trkpt lat="43.8106" lon="3.68436">
        <ele>224.12</ele>
        <time>2012-04-09T15:03:52Z</time>
      </trkpt>
      <trkpt lat="43.81068" lon="3.6846">
        <ele>225.09</ele>
        <time>2012-04-09T15:03:53Z</time>
      </trkpt>
      <trkpt lat="43.8108" lon="3.68482">
        <ele>225.57</ele>
        <time>2012-04-09T15:03:54Z</time>
      </trkpt>
      <trkpt lat="43.81095" lon="3.68501">
        <ele>226.53</ele>
        <time>2012-04-09T15:03:55Z</time>
      </trkpt>
      <trkpt lat="43.81111" lon="3.68515">
        <ele>227.49</ele>
        <time>2012-04-09T15:03:56Z</time>
      </trkpt>
      <trkpt lat="43.81128" lon="3.68525">
        <ele>227.97</ele>
        <time>2012-04-09T15:03:57Z</time>
      </trkpt>
      <trkpt lat="43.81147" lon="3.68529">
        <ele>228.93</ele>
        <time>2012-04-09T15:03:58Z</time>
      </trkpt>
      <trkpt lat="43.81168" lon="3.68529">
        <ele>230.37</ele>
        <time>2012-04-09T15:03:59Z</time>
      </trkpt>
      <trkpt lat="43.81189" lon="3.68526">
        <ele>231.33</ele>
        <time>2012-04-09T15:04:00Z</time>
      </trkpt>
      <trkpt lat="43.81209" lon="3.68523">
        <ele>232.3</ele>
        <time>2012-04-09T15:04:01Z</time>
      </trkpt>
      <trkpt lat="43.81248" lon="3.6852">
        <ele>233.74</ele>
        <time>2012-04-09T15:04:03Z</time>
      </trkpt>
      <trkpt lat="43.81268" lon="3.68522">
        <ele>234.7</ele>
        <time>2012-04-09T15:04:04Z</time>
      </trkpt>
      <trkpt lat="43.81288" lon="3.68527">
        <ele>235.18</ele>
        <time>2012-04-09T15:04:05Z</time>
      </trkpt>
      <trkpt lat="43.81309" lon="3.68535">
        <ele>235.66</ele>
        <time>2012-04-09T15:04:06Z</time>
      </trkpt>
      <trkpt lat="43.81328" lon="3.68543">
        <ele>235.18</ele>
        <time>2012-04-09T15:04:07Z</time>
      </trkpt>
      <trkpt lat="43.81406" lon="3.68565">
        <ele>235.66</ele>
        <time>2012-04-09T15:04:11Z</time>
      </trkpt>
      <trkpt lat="43.81423" lon="3.68577">
        <ele>235.66</ele>
        <time>2012-04-09T15:04:12Z</time>
      </trkpt>
      <trkpt lat="43.81439" lon="3.68594">
        <ele>235.66</ele>
        <time>2012-04-09T15:04:13Z</time>
      </trkpt>
      <trkpt lat="43.81455" lon="3.68612">
        <ele>235.66</ele>
        <time>2012-04-09T15:04:14Z</time>
      </trkpt>
      <trkpt lat="43.81469" lon="3.6863">
        <ele>235.66</ele>
        <time>2012-04-09T15:04:15Z</time>
      </trkpt>
      <trkpt lat="43.81508" lon="3.68682">
        <ele>236.14</ele>
        <time>2012-04-09T15:04:18Z</time>
      </trkpt>
      <trkpt lat="43.81518" lon="3.68702">
        <ele>235.66</ele>
        <time>2012-04-09T15:04:19Z</time>
      </trkpt>
      <trkpt lat="43.81528" lon="3.68722">
        <ele>235.18</ele>
        <time>2012-04-09T15:04:20Z</time>
      </trkpt>
      <trkpt lat="43.81539" lon="3.6874">
        <ele>234.7</ele>
        <time>2012-04-09T15:04:21Z</time>
      </trkpt>
      <trkpt lat="43.81552" lon="3.68757">
        <ele>234.7</ele>
        <time>2012-04-09T15:04:22Z</time>
      </trkpt>
      <trkpt lat="43.81565" lon="3.68773">
        <ele>234.22</ele>
        <time>2012-04-09T15:04:23Z</time>
      </trkpt>
      <trkpt lat="43.81576" lon="3.68791">
        <ele>233.74</ele>
        <time>2012-04-09T15:04:24Z</time>
      </trkpt>
      <trkpt lat="43.81586" lon="3.6881">
        <ele>233.26</ele>
        <time>2012-04-09T15:04:25Z</time>
      </trkpt>
      <trkpt lat="43.81591" lon="3.68832">
        <ele>232.3</ele>
        <time>2012-04-09T15:04:26Z</time>
      </trkpt>
      <trkpt lat="43.81593" lon="3.68858">
        <ele>231.81</ele>
        <time>2012-04-09T15:04:27Z</time>
      </trkpt>
      <trkpt lat="43.81596" lon="3.68887">
        <ele>231.33</ele>
        <time>2012-04-09T15:04:28Z</time>
      </trkpt>
      <trkpt lat="43.81597" lon="3.68916">
        <ele>230.85</ele>
        <time>2012-04-09T15:04:29Z</time>
      </trkpt>
      <trkpt lat="43.8161" lon="3.69083">
        <ele>227.49</ele>
        <time>2012-04-09T15:04:36Z</time>
      </trkpt>
      <trkpt lat="43.81618" lon="3.69184">
        <ele>226.05</ele>
        <time>2012-04-09T15:04:43Z</time>
      </trkpt>
      <trkpt lat="43.81617" lon="3.69193">
        <ele>226.05</ele>
        <time>2012-04-09T15:04:44Z</time>
      </trkpt>
      <trkpt lat="43.81616" lon="3.69201">
        <ele>226.05</ele>
        <time>2012-04-09T15:04:45Z</time>
      </trkpt>
      <trkpt lat="43.81614" lon="3.69208">
        <ele>225.57</ele>
        <time>2012-04-09T15:04:46Z</time>
      </trkpt>
      <trkpt lat="43.81612" lon="3.69215">
        <ele>225.57</ele>
        <time>2012-04-09T15:04:47Z</time>
      </trkpt>
      <trkpt lat="43.81608" lon="3.69244">
        <ele>224.12</ele>
        <time>2012-04-09T15:04:51Z</time>
      </trkpt>
      <trkpt lat="43.81608" lon="3.69253">
        <ele>223.64</ele>
        <time>2012-04-09T15:04:52Z</time>
      </trkpt>
      <trkpt lat="43.81609" lon="3.69263">
        <ele>223.16</ele>
        <time>2012-04-09T15:04:53Z</time>
      </trkpt>
      <trkpt lat="43.81614" lon="3.69384">
        <ele>218.84</ele>
        <time>2012-04-09T15:05:06Z</time>
      </trkpt>
      <trkpt lat="43.81599" lon="3.69489">
        <ele>221.72</ele>
        <time>2012-04-09T15:05:13Z</time>
      </trkpt>
      <trkpt lat="43.81555" lon="3.69687">
        <ele>227.49</ele>
        <time>2012-04-09T15:05:23Z</time>
      </trkpt>
      <trkpt lat="43.81537" lon="3.69824">
        <ele>231.81</ele>
        <time>2012-04-09T15:05:29Z</time>
      </trkpt>
      <trkpt lat="43.81528" lon="3.69872">
        <ele>233.26</ele>
        <time>2012-04-09T15:05:31Z</time>
      </trkpt>
      <trkpt lat="43.8152" lon="3.69895">
        <ele>234.22</ele>
        <time>2012-04-09T15:05:32Z</time>
      </trkpt>
      <trkpt lat="43.8151" lon="3.69918">
        <ele>235.18</ele>
        <time>2012-04-09T15:05:33Z</time>
      </trkpt>
      <trkpt lat="43.81452" lon="3.70081">
        <ele>240.95</ele>
        <time>2012-04-09T15:05:39Z</time>
      </trkpt>
      <trkpt lat="43.81385" lon="3.70332">
        <ele>249.6</ele>
        <time>2012-04-09T15:05:47Z</time>
      </trkpt>
      <trkpt lat="43.81359" lon="3.70526">
        <ele>257.77</ele>
        <time>2012-04-09T15:05:53Z</time>
      </trkpt>
      <trkpt lat="43.81343" lon="3.70613">
        <ele>262.1</ele>
        <time>2012-04-09T15:05:56Z</time>
      </trkpt>
      <trkpt lat="43.81334" lon="3.7064">
        <ele>263.54</ele>
        <time>2012-04-09T15:05:57Z</time>
      </trkpt>
      <trkpt lat="43.81321" lon="3.70665">
        <ele>264.98</ele>
        <time>2012-04-09T15:05:58Z</time>
      </trkpt>
      <trkpt lat="43.81295" lon="3.70714">
        <ele>267.38</ele>
        <time>2012-04-09T15:06:00Z</time>
      </trkpt>
      <trkpt lat="43.81285" lon="3.70738">
        <ele>268.35</ele>
        <time>2012-04-09T15:06:01Z</time>
      </trkpt>
      <trkpt lat="43.81279" lon="3.70761">
        <ele>269.79</ele>
        <time>2012-04-09T15:06:02Z</time>
      </trkpt>
      <trkpt lat="43.81269" lon="3.70803">
        <ele>271.71</ele>
        <time>2012-04-09T15:06:04Z</time>
      </trkpt>
      <trkpt lat="43.81263" lon="3.70816">
        <ele>272.67</ele>
        <time>2012-04-09T15:06:05Z</time>
      </trkpt>
      <trkpt lat="43.81253" lon="3.70823">
        <ele>273.15</ele>
        <time>2012-04-09T15:06:06Z</time>
      </trkpt>
      <trkpt lat="43.81242" lon="3.70825">
        <ele>274.11</ele>
        <time>2012-04-09T15:06:07Z</time>
      </trkpt>
      <trkpt lat="43.81231" lon="3.70824">
        <ele>274.59</ele>
        <time>2012-04-09T15:06:08Z</time>
      </trkpt>
      <trkpt lat="43.81217" lon="3.70817">
        <ele>275.56</ele>
        <time>2012-04-09T15:06:09Z</time>
      </trkpt>
      <trkpt lat="43.81202" lon="3.70808">
        <ele>276.04</ele>
        <time>2012-04-09T15:06:10Z</time>
      </trkpt>
      <trkpt lat="43.81186" lon="3.70799">
        <ele>277.48</ele>
        <time>2012-04-09T15:06:11Z</time>
      </trkpt>
      <trkpt lat="43.81168" lon="3.70793">
        <ele>278.44</ele>
        <time>2012-04-09T15:06:12Z</time>
      </trkpt>
      <trkpt lat="43.81151" lon="3.7079">
        <ele>279.4</ele>
        <time>2012-04-09T15:06:13Z</time>
      </trkpt>
      <trkpt lat="43.81134" lon="3.7079">
        <ele>280.36</ele>
        <time>2012-04-09T15:06:14Z</time>
      </trkpt>
      <trkpt lat="43.81118" lon="3.70793">
        <ele>280.84</ele>
        <time>2012-04-09T15:06:15Z</time>
      </trkpt>
      <trkpt lat="43.81102" lon="3.708">
        <ele>281.32</ele>
        <time>2012-04-09T15:06:16Z</time>
      </trkpt>
      <trkpt lat="43.81087" lon="3.70814">
        <ele>282.28</ele>
        <time>2012-04-09T15:06:17Z</time>
      </trkpt>
      <trkpt lat="43.81072" lon="3.70833">
        <ele>283.73</ele>
        <time>2012-04-09T15:06:18Z</time>
      </trkpt>
      <trkpt lat="43.81057" lon="3.70853">
        <ele>284.69</ele>
        <time>2012-04-09T15:06:19Z</time>
      </trkpt>
      <trkpt lat="43.81044" lon="3.70872">
        <ele>285.65</ele>
        <time>2012-04-09T15:06:20Z</time>
      </trkpt>
      <trkpt lat="43.81021" lon="3.70909">
        <ele>288.05</ele>
        <time>2012-04-09T15:06:22Z</time>
      </trkpt>
      <trkpt lat="43.81011" lon="3.70929">
        <ele>289.01</ele>
        <time>2012-04-09T15:06:23Z</time>
      </trkpt>
      <trkpt lat="43.81002" lon="3.7095">
        <ele>289.97</ele>
        <time>2012-04-09T15:06:24Z</time>
      </trkpt>
      <trkpt lat="43.80996" lon="3.70971">
        <ele>290.94</ele>
        <time>2012-04-09T15:06:25Z</time>
      </trkpt>
      <trkpt lat="43.80991" lon="3.70991">
        <ele>291.9</ele>
        <time>2012-04-09T15:06:26Z</time>
      </trkpt>
      <trkpt lat="43.80988" lon="3.71015">
        <ele>292.86</ele>
        <time>2012-04-09T15:06:27Z</time>
      </trkpt>
      <trkpt lat="43.80987" lon="3.71041">
        <ele>293.34</ele>
        <time>2012-04-09T15:06:28Z</time>
      </trkpt>
      <trkpt lat="43.80988" lon="3.71069">
        <ele>294.3</ele>
        <time>2012-04-09T15:06:29Z</time>
      </trkpt>
      <trkpt lat="43.80995" lon="3.71152">
        <ele>297.18</ele>
        <time>2012-04-09T15:06:32Z</time>
      </trkpt>
      <trkpt lat="43.81001" lon="3.71179">
        <ele>298.63</ele>
        <time>2012-04-09T15:06:33Z</time>
      </trkpt>
      <trkpt lat="43.81007" lon="3.71204">
        <ele>299.59</ele>
        <time>2012-04-09T15:06:34Z</time>
      </trkpt>
      <trkpt lat="43.81015" lon="3.71228">
        <ele>300.55</ele>
        <time>2012-04-09T15:06:35Z</time>
      </trkpt>
      <trkpt lat="43.81023" lon="3.7125">
        <ele>301.51</ele>
        <time>2012-04-09T15:06:36Z</time>
      </trkpt>
      <trkpt lat="43.81034" lon="3.7127">
        <ele>302.95</ele>
        <time>2012-04-09T15:06:37Z</time>
      </trkpt>
      <trkpt lat="43.81048" lon="3.71289">
        <ele>303.91</ele>
        <time>2012-04-09T15:06:38Z</time>
      </trkpt>
      <trkpt lat="43.81063" lon="3.71306">
        <ele>305.36</ele>
        <time>2012-04-09T15:06:39Z</time>
      </trkpt>
      <trkpt lat="43.81077" lon="3.71322">
        <ele>306.32</ele>
        <time>2012-04-09T15:06:40Z</time>
      </trkpt>
      <trkpt lat="43.8109" lon="3.71339">
        <ele>307.28</ele>
        <time>2012-04-09T15:06:41Z</time>
      </trkpt>
      <trkpt lat="43.811" lon="3.71361">
        <ele>308.72</ele>
        <time>2012-04-09T15:06:42Z</time>
      </trkpt>
      <trkpt lat="43.81106" lon="3.71385">
        <ele>309.68</ele>
        <time>2012-04-09T15:06:43Z</time>
      </trkpt>
      <trkpt lat="43.81112" lon="3.71411">
        <ele>310.64</ele>
        <time>2012-04-09T15:06:44Z</time>
      </trkpt>
      <trkpt lat="43.81119" lon="3.71462">
        <ele>312.57</ele>
        <time>2012-04-09T15:06:46Z</time>
      </trkpt>
      <trkpt lat="43.8112" lon="3.71485">
        <ele>313.53</ele>
        <time>2012-04-09T15:06:47Z</time>
      </trkpt>
      <trkpt lat="43.8112" lon="3.71529">
        <ele>315.93</ele>
        <time>2012-04-09T15:06:49Z</time>
      </trkpt>
      <trkpt lat="43.81123" lon="3.71548">
        <ele>316.89</ele>
        <time>2012-04-09T15:06:50Z</time>
      </trkpt>
      <trkpt lat="43.8113" lon="3.71566">
        <ele>317.37</ele>
        <time>2012-04-09T15:06:51Z</time>
      </trkpt>
      <trkpt lat="43.81137" lon="3.71583">
        <ele>318.33</ele>
        <time>2012-04-09T15:06:52Z</time>
      </trkpt>
      <trkpt lat="43.81141" lon="3.716">
        <ele>318.81</ele>
        <time>2012-04-09T15:06:53Z</time>
      </trkpt>
      <trkpt lat="43.8114" lon="3.71618">
        <ele>319.78</ele>
        <time>2012-04-09T15:06:54Z</time>
      </trkpt>
      <trkpt lat="43.81133" lon="3.71634">
        <ele>320.26</ele>
        <time>2012-04-09T15:06:55Z</time>
      </trkpt>
      <trkpt lat="43.81122" lon="3.71645">
        <ele>321.22</ele>
        <time>2012-04-09T15:06:56Z</time>
      </trkpt>
      <trkpt lat="43.81106" lon="3.71653">
        <ele>321.7</ele>
        <time>2012-04-09T15:06:57Z</time>
      </trkpt>
      <trkpt lat="43.81087" lon="3.71658">
        <ele>322.66</ele>
        <time>2012-04-09T15:06:58Z</time>
      </trkpt>
      <trkpt lat="43.81066" lon="3.71663">
        <ele>324.1</ele>
        <time>2012-04-09T15:06:59Z</time>
      </trkpt>
      <trkpt lat="43.80966" lon="3.71702">
        <ele>329.39</ele>
        <time>2012-04-09T15:07:04Z</time>
      </trkpt>
      <trkpt lat="43.80948" lon="3.71715">
        <ele>330.83</ele>
        <time>2012-04-09T15:07:05Z</time>
      </trkpt>
      <trkpt lat="43.80931" lon="3.71731">
        <ele>331.79</ele>
        <time>2012-04-09T15:07:06Z</time>
      </trkpt>
      <trkpt lat="43.80915" lon="3.7175">
        <ele>333.23</ele>
        <time>2012-04-09T15:07:07Z</time>
      </trkpt>
      <trkpt lat="43.80899" lon="3.71772">
        <ele>334.2</ele>
        <time>2012-04-09T15:07:08Z</time>
      </trkpt>
      <trkpt lat="43.80884" lon="3.71794">
        <ele>335.64</ele>
        <time>2012-04-09T15:07:09Z</time>
      </trkpt>
      <trkpt lat="43.80856" lon="3.71839">
        <ele>338.04</ele>
        <time>2012-04-09T15:07:11Z</time>
      </trkpt>
      <trkpt lat="43.80846" lon="3.71861">
        <ele>338.52</ele>
        <time>2012-04-09T15:07:12Z</time>
      </trkpt>
      <trkpt lat="43.80779" lon="3.71976">
        <ele>339.48</ele>
        <time>2012-04-09T15:07:18Z</time>
      </trkpt>
      <trkpt lat="43.80725" lon="3.72041">
        <ele>334.2</ele>
        <time>2012-04-09T15:07:22Z</time>
      </trkpt>
      <trkpt lat="43.8071" lon="3.72049">
        <ele>332.75</ele>
        <time>2012-04-09T15:07:23Z</time>
      </trkpt>
      <trkpt lat="43.80695" lon="3.72053">
        <ele>331.79</ele>
        <time>2012-04-09T15:07:24Z</time>
      </trkpt>
      <trkpt lat="43.80679" lon="3.72052">
        <ele>330.35</ele>
        <time>2012-04-09T15:07:25Z</time>
      </trkpt>
      <trkpt lat="43.80663" lon="3.72046">
        <ele>329.39</ele>
        <time>2012-04-09T15:07:26Z</time>
      </trkpt>
      <trkpt lat="43.80647" lon="3.72037">
        <ele>327.95</ele>
        <time>2012-04-09T15:07:27Z</time>
      </trkpt>
      <trkpt lat="43.8063" lon="3.72025">
        <ele>326.5</ele>
        <time>2012-04-09T15:07:28Z</time>
      </trkpt>
      <trkpt lat="43.80614" lon="3.7201">
        <ele>325.06</ele>
        <time>2012-04-09T15:07:29Z</time>
      </trkpt>
      <trkpt lat="43.80599" lon="3.71994">
        <ele>323.62</ele>
        <time>2012-04-09T15:07:30Z</time>
      </trkpt>
      <trkpt lat="43.80566" lon="3.71964">
        <ele>320.26</ele>
        <time>2012-04-09T15:07:32Z</time>
      </trkpt>
      <trkpt lat="43.80547" lon="3.71953">
        <ele>318.81</ele>
        <time>2012-04-09T15:07:33Z</time>
      </trkpt>
      <trkpt lat="43.80497" lon="3.71934">
        <ele>314.01</ele>
        <time>2012-04-09T15:07:36Z</time>
      </trkpt>
      <trkpt lat="43.80485" lon="3.71938">
        <ele>313.05</ele>
        <time>2012-04-09T15:07:37Z</time>
      </trkpt>
      <trkpt lat="43.80473" lon="3.71947">
        <ele>311.6</ele>
        <time>2012-04-09T15:07:38Z</time>
      </trkpt>
      <trkpt lat="43.80462" lon="3.71962">
        <ele>310.64</ele>
        <time>2012-04-09T15:07:39Z</time>
      </trkpt>
      <trkpt lat="43.80453" lon="3.71979">
        <ele>309.2</ele>
        <time>2012-04-09T15:07:40Z</time>
      </trkpt>
      <trkpt lat="43.80447" lon="3.71998">
        <ele>308.24</ele>
        <time>2012-04-09T15:07:41Z</time>
      </trkpt>
      <trkpt lat="43.80442" lon="3.72018">
        <ele>306.8</ele>
        <time>2012-04-09T15:07:42Z</time>
      </trkpt>
      <trkpt lat="43.80441" lon="3.72039">
        <ele>305.36</ele>
        <time>2012-04-09T15:07:43Z</time>
      </trkpt>
      <trkpt lat="43.80443" lon="3.7206">
        <ele>303.43</ele>
        <time>2012-04-09T15:07:44Z</time>
      </trkpt>
      <trkpt lat="43.80449" lon="3.72081">
        <ele>301.51</ele>
        <time>2012-04-09T15:07:45Z</time>
      </trkpt>
      <trkpt lat="43.80458" lon="3.72101">
        <ele>300.55</ele>
        <time>2012-04-09T15:07:46Z</time>
      </trkpt>
      <trkpt lat="43.8047" lon="3.72124">
        <ele>299.59</ele>
        <time>2012-04-09T15:07:47Z</time>
      </trkpt>
      <trkpt lat="43.80476" lon="3.7215">
        <ele>298.15</ele>
        <time>2012-04-09T15:07:48Z</time>
      </trkpt>
      <trkpt lat="43.80479" lon="3.72179">
        <ele>296.7</ele>
        <time>2012-04-09T15:07:49Z</time>
      </trkpt>
      <trkpt lat="43.80482" lon="3.72207">
        <ele>295.74</ele>
        <time>2012-04-09T15:07:50Z</time>
      </trkpt>
      <trkpt lat="43.80487" lon="3.72274">
        <ele>292.86</ele>
        <time>2012-04-09T15:07:53Z</time>
      </trkpt>
      <trkpt lat="43.80487" lon="3.72292">
        <ele>291.9</ele>
        <time>2012-04-09T15:07:54Z</time>
      </trkpt>
      <trkpt lat="43.80484" lon="3.72308">
        <ele>291.42</ele>
        <time>2012-04-09T15:07:55Z</time>
      </trkpt>
      <trkpt lat="43.80479" lon="3.72321">
        <ele>290.94</ele>
        <time>2012-04-09T15:07:56Z</time>
      </trkpt>
      <trkpt lat="43.80474" lon="3.72331">
        <ele>289.97</ele>
        <time>2012-04-09T15:07:57Z</time>
      </trkpt>
      <trkpt lat="43.80467" lon="3.72339">
        <ele>289.01</ele>
        <time>2012-04-09T15:07:58Z</time>
      </trkpt>
      <trkpt lat="43.8046" lon="3.72344">
        <ele>288.05</ele>
        <time>2012-04-09T15:07:59Z</time>
      </trkpt>
      <trkpt lat="43.80453" lon="3.72347">
        <ele>287.57</ele>
        <time>2012-04-09T15:08:00Z</time>
      </trkpt>
      <trkpt lat="43.80446" lon="3.72349">
        <ele>287.09</ele>
        <time>2012-04-09T15:08:01Z</time>
      </trkpt>
      <trkpt lat="43.80407" lon="3.72367">
        <ele>284.21</ele>
        <time>2012-04-09T15:08:06Z</time>
      </trkpt>
      <trkpt lat="43.804" lon="3.72374">
        <ele>283.73</ele>
        <time>2012-04-09T15:08:07Z</time>
      </trkpt>
      <trkpt lat="43.80394" lon="3.72382">
        <ele>282.77</ele>
        <time>2012-04-09T15:08:08Z</time>
      </trkpt>
      <trkpt lat="43.80388" lon="3.72391">
        <ele>282.28</ele>
        <time>2012-04-09T15:08:09Z</time>
      </trkpt>
      <trkpt lat="43.80382" lon="3.72402">
        <ele>281.8</ele>
        <time>2012-04-09T15:08:10Z</time>
      </trkpt>
      <trkpt lat="43.80369" lon="3.72424">
        <ele>280.36</ele>
        <time>2012-04-09T15:08:12Z</time>
      </trkpt>
      <trkpt lat="43.80361" lon="3.72434">
        <ele>279.88</ele>
        <time>2012-04-09T15:08:13Z</time>
      </trkpt>
      <trkpt lat="43.80353" lon="3.72443">
        <ele>278.92</ele>
        <time>2012-04-09T15:08:14Z</time>
      </trkpt>
      <trkpt lat="43.80343" lon="3.72451">
        <ele>277.96</ele>
        <time>2012-04-09T15:08:15Z</time>
      </trkpt>
      <trkpt lat="43.80333" lon="3.72457">
        <ele>277</ele>
        <time>2012-04-09T15:08:16Z</time>
      </trkpt>
      <trkpt lat="43.80323" lon="3.7246">
        <ele>276.52</ele>
        <time>2012-04-09T15:08:17Z</time>
      </trkpt>
      <trkpt lat="43.80312" lon="3.7246">
        <ele>276.04</ele>
        <time>2012-04-09T15:08:18Z</time>
      </trkpt>
      <trkpt lat="43.803" lon="3.72458">
        <ele>275.07</ele>
        <time>2012-04-09T15:08:19Z</time>
      </trkpt>
      <trkpt lat="43.80286" lon="3.72455">
        <ele>274.59</ele>
        <time>2012-04-09T15:08:20Z</time>
      </trkpt>
      <trkpt lat="43.80271" lon="3.72449">
        <ele>273.63</ele>
        <time>2012-04-09T15:08:21Z</time>
      </trkpt>
      <trkpt lat="43.80256" lon="3.72441">
        <ele>273.15</ele>
        <time>2012-04-09T15:08:22Z</time>
      </trkpt>
      <trkpt lat="43.80243" lon="3.7243">
        <ele>271.71</ele>
        <time>2012-04-09T15:08:23Z</time>
      </trkpt>
      <trkpt lat="43.8023" lon="3.72417">
        <ele>270.75</ele>
        <time>2012-04-09T15:08:24Z</time>
      </trkpt>
      <trkpt lat="43.80219" lon="3.72404">
        <ele>269.79</ele>
        <time>2012-04-09T15:08:25Z</time>
      </trkpt>
      <trkpt lat="43.80208" lon="3.72391">
        <ele>268.35</ele>
        <time>2012-04-09T15:08:26Z</time>
      </trkpt>
      <trkpt lat="43.80194" lon="3.72378">
        <ele>267.38</ele>
        <time>2012-04-09T15:08:27Z</time>
      </trkpt>
      <trkpt lat="43.80177" lon="3.72374">
        <ele>265.94</ele>
        <time>2012-04-09T15:08:28Z</time>
      </trkpt>
      <trkpt lat="43.80159" lon="3.72373">
        <ele>264.5</ele>
        <time>2012-04-09T15:08:29Z</time>
      </trkpt>
      <trkpt lat="43.80139" lon="3.72375">
        <ele>263.06</ele>
        <time>2012-04-09T15:08:30Z</time>
      </trkpt>
      <trkpt lat="43.8012" lon="3.72376">
        <ele>262.1</ele>
        <time>2012-04-09T15:08:31Z</time>
      </trkpt>
      <trkpt lat="43.80102" lon="3.72376">
        <ele>261.14</ele>
        <time>2012-04-09T15:08:32Z</time>
      </trkpt>
      <trkpt lat="43.80085" lon="3.72378">
        <ele>259.69</ele>
        <time>2012-04-09T15:08:33Z</time>
      </trkpt>
      <trkpt lat="43.80067" lon="3.72387">
        <ele>258.25</ele>
        <time>2012-04-09T15:08:34Z</time>
      </trkpt>
      <trkpt lat="43.80051" lon="3.724">
        <ele>257.29</ele>
        <time>2012-04-09T15:08:35Z</time>
      </trkpt>
      <trkpt lat="43.80035" lon="3.72414">
        <ele>256.33</ele>
        <time>2012-04-09T15:08:36Z</time>
      </trkpt>
      <trkpt lat="43.80021" lon="3.7243">
        <ele>255.37</ele>
        <time>2012-04-09T15:08:37Z</time>
      </trkpt>
      <trkpt lat="43.80008" lon="3.72446">
        <ele>254.89</ele>
        <time>2012-04-09T15:08:38Z</time>
      </trkpt>
      <trkpt lat="43.79903" lon="3.72568">
        <ele>252.48</ele>
        <time>2012-04-09T15:08:47Z</time>
      </trkpt>
      <trkpt lat="43.79785" lon="3.72725">
        <ele>248.64</ele>
        <time>2012-04-09T15:08:57Z</time>
      </trkpt>
      <trkpt lat="43.79726" lon="3.72807">
        <ele>243.83</ele>
        <time>2012-04-09T15:09:02Z</time>
      </trkpt>
      <trkpt lat="43.79711" lon="3.72818">
        <ele>242.87</ele>
        <time>2012-04-09T15:09:03Z</time>
      </trkpt>
      <trkpt lat="43.79694" lon="3.72827">
        <ele>241.43</ele>
        <time>2012-04-09T15:09:04Z</time>
      </trkpt>
      <trkpt lat="43.7956" lon="3.72889">
        <ele>232.78</ele>
        <time>2012-04-09T15:09:12Z</time>
      </trkpt>
      <trkpt lat="43.79456" lon="3.7296">
        <ele>224.61</ele>
        <time>2012-04-09T15:09:20Z</time>
      </trkpt>
      <trkpt lat="43.79363" lon="3.73008">
        <ele>217.4</ele>
        <time>2012-04-09T15:09:27Z</time>
      </trkpt>
      <trkpt lat="43.79308" lon="3.73033">
        <ele>212.59</ele>
        <time>2012-04-09T15:09:31Z</time>
      </trkpt>
      <trkpt lat="43.79294" lon="3.73035">
        <ele>211.63</ele>
        <time>2012-04-09T15:09:32Z</time>
      </trkpt>
      <trkpt lat="43.79269" lon="3.73035">
        <ele>210.19</ele>
        <time>2012-04-09T15:09:34Z</time>
      </trkpt>
      <trkpt lat="43.79258" lon="3.73039">
        <ele>209.22</ele>
        <time>2012-04-09T15:09:35Z</time>
      </trkpt>
      <trkpt lat="43.79248" lon="3.73049">
        <ele>208.26</ele>
        <time>2012-04-09T15:09:36Z</time>
      </trkpt>
      <trkpt lat="43.79244" lon="3.73062">
        <ele>207.78</ele>
        <time>2012-04-09T15:09:37Z</time>
      </trkpt>
      <trkpt lat="43.79244" lon="3.7308">
        <ele>206.82</ele>
        <time>2012-04-09T15:09:38Z</time>
      </trkpt>
      <trkpt lat="43.79246" lon="3.73098">
        <ele>205.86</ele>
        <time>2012-04-09T15:09:39Z</time>
      </trkpt>
      <trkpt lat="43.7925" lon="3.73116">
        <ele>205.38</ele>
        <time>2012-04-09T15:09:40Z</time>
      </trkpt>
      <trkpt lat="43.79263" lon="3.732">
        <ele>202.49</ele>
        <time>2012-04-09T15:09:45Z</time>
      </trkpt>
      <trkpt lat="43.79269" lon="3.73211">
        <ele>201.53</ele>
        <time>2012-04-09T15:09:46Z</time>
      </trkpt>
      <trkpt lat="43.79276" lon="3.73221">
        <ele>201.05</ele>
        <time>2012-04-09T15:09:47Z</time>
      </trkpt>
      <trkpt lat="43.79287" lon="3.73231">
        <ele>201.05</ele>
        <time>2012-04-09T15:09:48Z</time>
      </trkpt>
      <trkpt lat="43.79299" lon="3.73242">
        <ele>200.57</ele>
        <time>2012-04-09T15:09:49Z</time>
      </trkpt>
      <trkpt lat="43.79415" lon="3.73325">
        <ele>195.77</ele>
        <time>2012-04-09T15:09:59Z</time>
      </trkpt>
      <trkpt lat="43.7943" lon="3.73335">
        <ele>194.8</ele>
        <time>2012-04-09T15:10:01Z</time>
      </trkpt>
      <trkpt lat="43.79433" lon="3.73341">
        <ele>194.32</ele>
        <time>2012-04-09T15:10:02Z</time>
      </trkpt>
      <trkpt lat="43.79434" lon="3.73346">
        <ele>193.84</ele>
        <time>2012-04-09T15:10:03Z</time>
      </trkpt>
      <trkpt lat="43.79433" lon="3.7335">
        <ele>193.84</ele>
        <time>2012-04-09T15:10:04Z</time>
      </trkpt>
      <trkpt lat="43.79431" lon="3.73352">
        <ele>193.84</ele>
        <time>2012-04-09T15:10:05Z</time>
      </trkpt>
      <trkpt lat="43.79422" lon="3.73356">
        <ele>193.36</ele>
        <time>2012-04-09T15:10:10Z</time>
      </trkpt>
      <trkpt lat="43.79415" lon="3.73355">
        <ele>193.36</ele>
        <time>2012-04-09T15:10:11Z</time>
      </trkpt>
      <trkpt lat="43.79339" lon="3.73345">
        <ele>192.4</ele>
        <time>2012-04-09T15:10:18Z</time>
      </trkpt>
      <trkpt lat="43.79266" lon="3.73329">
        <ele>191.44</ele>
        <time>2012-04-09T15:10:27Z</time>
      </trkpt>
      <trkpt lat="43.79151" lon="3.73283">
        <ele>190.48</ele>
        <time>2012-04-09T15:10:40Z</time>
      </trkpt>
      <trkpt lat="43.79118" lon="3.7326">
        <ele>190.96</ele>
        <time>2012-04-09T15:10:48Z</time>
      </trkpt>
      <trkpt lat="43.7911" lon="3.73249">
        <ele>188.56</ele>
        <time>2012-04-09T15:11:01Z</time>
      </trkpt>
      <trkpt lat="43.79094" lon="3.73223">
        <ele>191.44</ele>
        <time>2012-04-09T15:11:14Z</time>
      </trkpt>
      <trkpt lat="43.79091" lon="3.73232">
        <ele>196.73</ele>
        <time>2012-04-09T15:11:34Z</time>
      </trkpt>
      <trkpt lat="43.7909" lon="3.73235">
        <ele>201.05</ele>
        <time>2012-04-09T15:13:48Z</time>
      </trkpt>
      <trkpt lat="43.79092" lon="3.73233">
        <ele>199.13</ele>
        <time>2012-04-09T15:14:28Z</time>
      </trkpt>
      <trkpt lat="43.79089" lon="3.73234">
        <ele>200.57</ele>
        <time>2012-04-09T15:15:50Z</time>
      </trkpt>
      <trkpt lat="43.79092" lon="3.73236">
        <ele>199.13</ele>
        <time>2012-04-09T15:18:41Z</time>
      </trkpt>
      <trkpt lat="43.79091" lon="3.73235">
        <ele>198.17</ele>
        <time>2012-04-09T15:19:15Z</time>
      </trkpt>
      <trkpt lat="43.79076" lon="3.73203">
        <ele>195.77</ele>
        <time>2012-04-09T15:19:23Z</time>
      </trkpt>
      <trkpt lat="43.79045" lon="3.73137">
        <ele>194.32</ele>
        <time>2012-04-09T15:19:35Z</time>
      </trkpt>
      <trkpt lat="43.79045" lon="3.73135">
        <ele>194.32</ele>
        <time>2012-04-09T15:19:36Z</time>
      </trkpt>
      <trkpt lat="43.79045" lon="3.73133">
        <ele>194.32</ele>
        <time>2012-04-09T15:19:37Z</time>
      </trkpt>
      <trkpt lat="43.79046" lon="3.73131">
        <ele>194.8</ele>
        <time>2012-04-09T15:19:38Z</time>
      </trkpt>
      <trkpt lat="43.79048" lon="3.73129">
        <ele>194.8</ele>
        <time>2012-04-09T15:19:39Z</time>
      </trkpt>
      <trkpt lat="43.79051" lon="3.73126">
        <ele>194.8</ele>
        <time>2012-04-09T15:19:40Z</time>
      </trkpt>
      <trkpt lat="43.79054" lon="3.73125">
        <ele>194.8</ele>
        <time>2012-04-09T15:19:41Z</time>
      </trkpt>
      <trkpt lat="43.79056" lon="3.73123">
        <ele>195.28</ele>
        <time>2012-04-09T15:19:42Z</time>
      </trkpt>
      <trkpt lat="43.79059" lon="3.73121">
        <ele>195.28</ele>
        <time>2012-04-09T15:19:43Z</time>
      </trkpt>
      <trkpt lat="43.79062" lon="3.73119">
        <ele>195.28</ele>
        <time>2012-04-09T15:19:44Z</time>
      </trkpt>
      <trkpt lat="43.79065" lon="3.73117">
        <ele>195.28</ele>
        <time>2012-04-09T15:19:45Z</time>
      </trkpt>
      <trkpt lat="43.79087" lon="3.73103">
        <ele>195.77</ele>
        <time>2012-04-09T15:19:51Z</time>
      </trkpt>
      <trkpt lat="43.79091" lon="3.73101">
        <ele>196.73</ele>
        <time>2012-04-09T15:19:52Z</time>
      </trkpt>
      <trkpt lat="43.79094" lon="3.73098">
        <ele>197.21</ele>
        <time>2012-04-09T15:19:53Z</time>
      </trkpt>
      <trkpt lat="43.7911" lon="3.73087">
        <ele>199.13</ele>
        <time>2012-04-09T15:19:57Z</time>
      </trkpt>
      <trkpt lat="43.79113" lon="3.73083">
        <ele>199.61</ele>
        <time>2012-04-09T15:19:58Z</time>
      </trkpt>
      <trkpt lat="43.79128" lon="3.73068">
        <ele>201.05</ele>
        <time>2012-04-09T15:20:03Z</time>
      </trkpt>
      <trkpt lat="43.7913" lon="3.73069">
        <ele>201.53</ele>
        <time>2012-04-09T15:20:04Z</time>
      </trkpt>
      <trkpt lat="43.79132" lon="3.73071">
        <ele>201.53</ele>
        <time>2012-04-09T15:20:05Z</time>
      </trkpt>
      <trkpt lat="43.79136" lon="3.73075">
        <ele>202.01</ele>
        <time>2012-04-09T15:20:07Z</time>
      </trkpt>
      <trkpt lat="43.79138" lon="3.73075">
        <ele>202.01</ele>
        <time>2012-04-09T15:20:08Z</time>
      </trkpt>
      <trkpt lat="43.79141" lon="3.73073">
        <ele>202.01</ele>
        <time>2012-04-09T15:20:09Z</time>
      </trkpt>
      <trkpt lat="43.79154" lon="3.73069">
        <ele>202.01</ele>
        <time>2012-04-09T15:20:14Z</time>
      </trkpt>
      <trkpt lat="43.79156" lon="3.73072">
        <ele>201.53</ele>
        <time>2012-04-09T15:20:15Z</time>
      </trkpt>
      <trkpt lat="43.79157" lon="3.73075">
        <ele>201.53</ele>
        <time>2012-04-09T15:20:16Z</time>
      </trkpt>
      <trkpt lat="43.79159" lon="3.7308">
        <ele>201.05</ele>
        <time>2012-04-09T15:20:17Z</time>
      </trkpt>
      <trkpt lat="43.79161" lon="3.73085">
        <ele>201.05</ele>
        <time>2012-04-09T15:20:18Z</time>
      </trkpt>
      <trkpt lat="43.79163" lon="3.7309">
        <ele>201.05</ele>
        <time>2012-04-09T15:20:19Z</time>
      </trkpt>
      <trkpt lat="43.79166" lon="3.73094">
        <ele>201.05</ele>
        <time>2012-04-09T15:20:20Z</time>
      </trkpt>
      <trkpt lat="43.79168" lon="3.73098">
        <ele>200.57</ele>
        <time>2012-04-09T15:20:21Z</time>
      </trkpt>
      <trkpt lat="43.79169" lon="3.73102">
        <ele>200.57</ele>
        <time>2012-04-09T15:20:22Z</time>
      </trkpt>
      <trkpt lat="43.79171" lon="3.73106">
        <ele>200.09</ele>
        <time>2012-04-09T15:20:23Z</time>
      </trkpt>
      <trkpt lat="43.79172" lon="3.73111">
        <ele>200.09</ele>
        <time>2012-04-09T15:20:24Z</time>
      </trkpt>
      <trkpt lat="43.79173" lon="3.73116">
        <ele>199.61</ele>
        <time>2012-04-09T15:20:25Z</time>
      </trkpt>
      <trkpt lat="43.79174" lon="3.73122">
        <ele>199.61</ele>
        <time>2012-04-09T15:20:26Z</time>
      </trkpt>
      <trkpt lat="43.79174" lon="3.73127">
        <ele>199.13</ele>
        <time>2012-04-09T15:20:27Z</time>
      </trkpt>
      <trkpt lat="43.79162" lon="3.73166">
        <ele>196.25</ele>
        <time>2012-04-09T15:20:38Z</time>
      </trkpt>
      <trkpt lat="43.79159" lon="3.73186">
        <ele>196.25</ele>
        <time>2012-04-09T15:20:46Z</time>
      </trkpt>
      <trkpt lat="43.7916" lon="3.73187">
        <ele>196.25</ele>
        <time>2012-04-09T15:20:47Z</time>
      </trkpt>
      <trkpt lat="43.79161" lon="3.73189">
        <ele>196.25</ele>
        <time>2012-04-09T15:20:48Z</time>
      </trkpt>
      <trkpt lat="43.79164" lon="3.7319">
        <ele>197.21</ele>
        <time>2012-04-09T15:20:49Z</time>
      </trkpt>
      <trkpt lat="43.79168" lon="3.73191">
        <ele>197.69</ele>
        <time>2012-04-09T15:20:50Z</time>
      </trkpt>
      <trkpt lat="43.79171" lon="3.73192">
        <ele>198.17</ele>
        <time>2012-04-09T15:20:51Z</time>
      </trkpt>
      <trkpt lat="43.79175" lon="3.73195">
        <ele>199.13</ele>
        <time>2012-04-09T15:20:52Z</time>
      </trkpt>
      <trkpt lat="43.7919" lon="3.73201">
        <ele>200.57</ele>
        <time>2012-04-09T15:20:55Z</time>
      </trkpt>
      <trkpt lat="43.79227" lon="3.73205">
        <ele>202.01</ele>
        <time>2012-04-09T15:21:04Z</time>
      </trkpt>
      <trkpt lat="43.79233" lon="3.732">
        <ele>202.98</ele>
        <time>2012-04-09T15:21:06Z</time>
      </trkpt>
      <trkpt lat="43.79238" lon="3.73198">
        <ele>202.98</ele>
        <time>2012-04-09T15:21:07Z</time>
      </trkpt>
      <trkpt lat="43.79243" lon="3.73198">
        <ele>203.46</ele>
        <time>2012-04-09T15:21:08Z</time>
      </trkpt>
      <trkpt lat="43.79249" lon="3.73199">
        <ele>203.94</ele>
        <time>2012-04-09T15:21:09Z</time>
      </trkpt>
      <trkpt lat="43.79254" lon="3.732">
        <ele>203.94</ele>
        <time>2012-04-09T15:21:10Z</time>
      </trkpt>
      <trkpt lat="43.79259" lon="3.73202">
        <ele>203.94</ele>
        <time>2012-04-09T15:21:11Z</time>
      </trkpt>
      <trkpt lat="43.79262" lon="3.73204">
        <ele>204.42</ele>
        <time>2012-04-09T15:21:12Z</time>
      </trkpt>
      <trkpt lat="43.7927" lon="3.7321">
        <ele>204.9</ele>
        <time>2012-04-09T15:21:15Z</time>
      </trkpt>
      <trkpt lat="43.79277" lon="3.73217">
        <ele>204.9</ele>
        <time>2012-04-09T15:21:16Z</time>
      </trkpt>
      <trkpt lat="43.79347" lon="3.7328">
        <ele>202.01</ele>
        <time>2012-04-09T15:21:23Z</time>
      </trkpt>
      <trkpt lat="43.79424" lon="3.73328">
        <ele>197.69</ele>
        <time>2012-04-09T15:21:30Z</time>
      </trkpt>
      <trkpt lat="43.79431" lon="3.73334">
        <ele>197.21</ele>
        <time>2012-04-09T15:21:31Z</time>
      </trkpt>
      <trkpt lat="43.79434" lon="3.73339">
        <ele>197.21</ele>
        <time>2012-04-09T15:21:32Z</time>
      </trkpt>
      <trkpt lat="43.79434" lon="3.73345">
        <ele>196.73</ele>
        <time>2012-04-09T15:21:33Z</time>
      </trkpt>
      <trkpt lat="43.79433" lon="3.73349">
        <ele>196.25</ele>
        <time>2012-04-09T15:21:34Z</time>
      </trkpt>
      <trkpt lat="43.79432" lon="3.73351">
        <ele>196.25</ele>
        <time>2012-04-09T15:21:35Z</time>
      </trkpt>
      <trkpt lat="43.7943" lon="3.73353">
        <ele>196.25</ele>
        <time>2012-04-09T15:21:36Z</time>
      </trkpt>
      <trkpt lat="43.79428" lon="3.73354">
        <ele>195.77</ele>
        <time>2012-04-09T15:21:37Z</time>
      </trkpt>
      <trkpt lat="43.79424" lon="3.73356">
        <ele>195.77</ele>
        <time>2012-04-09T15:21:38Z</time>
      </trkpt>
      <trkpt lat="43.79417" lon="3.73356">
        <ele>195.28</ele>
        <time>2012-04-09T15:21:39Z</time>
      </trkpt>
      <trkpt lat="43.79408" lon="3.73354">
        <ele>194.8</ele>
        <time>2012-04-09T15:21:40Z</time>
      </trkpt>
      <trkpt lat="43.79399" lon="3.73352">
        <ele>194.8</ele>
        <time>2012-04-09T15:21:41Z</time>
      </trkpt>
      <trkpt lat="43.7929" lon="3.73336">
        <ele>192.4</ele>
        <time>2012-04-09T15:21:51Z</time>
      </trkpt>
      <trkpt lat="43.79232" lon="3.73314">
        <ele>190.48</ele>
        <time>2012-04-09T15:21:58Z</time>
      </trkpt>
      <trkpt lat="43.79202" lon="3.73302">
        <ele>189.52</ele>
        <time>2012-04-09T15:22:05Z</time>
      </trkpt>
      <trkpt lat="43.7915" lon="3.7328">
        <ele>191.92</ele>
        <time>2012-04-09T15:22:13Z</time>
      </trkpt>
      <trkpt lat="43.79114" lon="3.73259">
        <ele>192.4</ele>
        <time>2012-04-09T15:22:18Z</time>
      </trkpt>
      <trkpt lat="43.79106" lon="3.73258">
        <ele>192.4</ele>
        <time>2012-04-09T15:22:19Z</time>
      </trkpt>
      <trkpt lat="43.79098" lon="3.73258">
        <ele>192.4</ele>
        <time>2012-04-09T15:22:20Z</time>
      </trkpt>
      <trkpt lat="43.79026" lon="3.73259">
        <ele>192.88</ele>
        <time>2012-04-09T15:22:29Z</time>
      </trkpt>
      <trkpt lat="43.78951" lon="3.73243">
        <ele>194.8</ele>
        <time>2012-04-09T15:22:36Z</time>
      </trkpt>
      <trkpt lat="43.78846" lon="3.7322">
        <ele>198.17</ele>
        <time>2012-04-09T15:22:47Z</time>
      </trkpt>
      <trkpt lat="43.78839" lon="3.73215">
        <ele>198.17</ele>
        <time>2012-04-09T15:22:48Z</time>
      </trkpt>
      <trkpt lat="43.78831" lon="3.73209">
        <ele>198.65</ele>
        <time>2012-04-09T15:22:49Z</time>
      </trkpt>
      <trkpt lat="43.78759" lon="3.7314">
        <ele>198.65</ele>
        <time>2012-04-09T15:22:56Z</time>
      </trkpt>
      <trkpt lat="43.78616" lon="3.73002">
        <ele>199.13</ele>
        <time>2012-04-09T15:23:08Z</time>
      </trkpt>
      <trkpt lat="43.78428" lon="3.72825">
        <ele>201.53</ele>
        <time>2012-04-09T15:23:22Z</time>
      </trkpt>
      <trkpt lat="43.78307" lon="3.72709">
        <ele>203.94</ele>
        <time>2012-04-09T15:23:32Z</time>
      </trkpt>
      <trkpt lat="43.78302" lon="3.727">
        <ele>204.42</ele>
        <time>2012-04-09T15:23:33Z</time>
      </trkpt>
      <trkpt lat="43.78296" lon="3.72692">
        <ele>204.42</ele>
        <time>2012-04-09T15:23:34Z</time>
      </trkpt>
      <trkpt lat="43.78288" lon="3.72686">
        <ele>204.9</ele>
        <time>2012-04-09T15:23:35Z</time>
      </trkpt>
      <trkpt lat="43.78277" lon="3.72679">
        <ele>204.9</ele>
        <time>2012-04-09T15:23:36Z</time>
      </trkpt>
      <trkpt lat="43.78264" lon="3.7267">
        <ele>204.9</ele>
        <time>2012-04-09T15:23:37Z</time>
      </trkpt>
      <trkpt lat="43.78251" lon="3.72657">
        <ele>205.38</ele>
        <time>2012-04-09T15:23:38Z</time>
      </trkpt>
      <trkpt lat="43.78091" lon="3.72511">
        <ele>207.78</ele>
        <time>2012-04-09T15:23:49Z</time>
      </trkpt>
      <trkpt lat="43.77898" lon="3.72365">
        <ele>210.19</ele>
        <time>2012-04-09T15:24:00Z</time>
      </trkpt>
      <trkpt lat="43.77642" lon="3.72172">
        <ele>215.95</ele>
        <time>2012-04-09T15:24:14Z</time>
      </trkpt>
      <trkpt lat="43.77467" lon="3.72063">
        <ele>218.84</ele>
        <time>2012-04-09T15:24:27Z</time>
      </trkpt>
      <trkpt lat="43.77453" lon="3.72059">
        <ele>218.84</ele>
        <time>2012-04-09T15:24:28Z</time>
      </trkpt>
      <trkpt lat="43.77438" lon="3.72057">
        <ele>219.32</ele>
        <time>2012-04-09T15:24:29Z</time>
      </trkpt>
      <trkpt lat="43.77305" lon="3.72065">
        <ele>223.16</ele>
        <time>2012-04-09T15:24:38Z</time>
      </trkpt>
      <trkpt lat="43.77292" lon="3.72077">
        <ele>224.12</ele>
        <time>2012-04-09T15:24:39Z</time>
      </trkpt>
      <trkpt lat="43.77281" lon="3.72092">
        <ele>224.61</ele>
        <time>2012-04-09T15:24:40Z</time>
      </trkpt>
      <trkpt lat="43.77272" lon="3.72111">
        <ele>225.57</ele>
        <time>2012-04-09T15:24:41Z</time>
      </trkpt>
      <trkpt lat="43.77266" lon="3.72134">
        <ele>226.53</ele>
        <time>2012-04-09T15:24:42Z</time>
      </trkpt>
      <trkpt lat="43.77262" lon="3.72159">
        <ele>227.49</ele>
        <time>2012-04-09T15:24:43Z</time>
      </trkpt>
      <trkpt lat="43.77257" lon="3.72187">
        <ele>228.45</ele>
        <time>2012-04-09T15:24:44Z</time>
      </trkpt>
      <trkpt lat="43.77218" lon="3.72401">
        <ele>238.54</ele>
        <time>2012-04-09T15:24:51Z</time>
      </trkpt>
      <trkpt lat="43.77204" lon="3.7245">
        <ele>241.43</ele>
        <time>2012-04-09T15:24:53Z</time>
      </trkpt>
      <trkpt lat="43.77195" lon="3.7247">
        <ele>242.87</ele>
        <time>2012-04-09T15:24:54Z</time>
      </trkpt>
      <trkpt lat="43.77182" lon="3.72487">
        <ele>243.83</ele>
        <time>2012-04-09T15:24:55Z</time>
      </trkpt>
      <trkpt lat="43.77168" lon="3.725">
        <ele>245.27</ele>
        <time>2012-04-09T15:24:56Z</time>
      </trkpt>
      <trkpt lat="43.7715" lon="3.72511">
        <ele>246.23</ele>
        <time>2012-04-09T15:24:57Z</time>
      </trkpt>
      <trkpt lat="43.77132" lon="3.7252">
        <ele>247.68</ele>
        <time>2012-04-09T15:24:58Z</time>
      </trkpt>
      <trkpt lat="43.77014" lon="3.72565">
        <ele>256.33</ele>
        <time>2012-04-09T15:25:04Z</time>
      </trkpt>
      <trkpt lat="43.76991" lon="3.72565">
        <ele>257.29</ele>
        <time>2012-04-09T15:25:05Z</time>
      </trkpt>
      <trkpt lat="43.76926" lon="3.72556">
        <ele>259.21</ele>
        <time>2012-04-09T15:25:08Z</time>
      </trkpt>
      <trkpt lat="43.76905" lon="3.72547">
        <ele>259.69</ele>
        <time>2012-04-09T15:25:09Z</time>
      </trkpt>
      <trkpt lat="43.76715" lon="3.72448">
        <ele>261.62</ele>
        <time>2012-04-09T15:25:17Z</time>
      </trkpt>
      <trkpt lat="43.76367" lon="3.72265">
        <ele>257.77</ele>
        <time>2012-04-09T15:25:30Z</time>
      </trkpt>
      <trkpt lat="43.75966" lon="3.7205">
        <ele>257.77</ele>
        <time>2012-04-09T15:25:45Z</time>
      </trkpt>
      <trkpt lat="43.75723" lon="3.71901">
        <ele>254.41</ele>
        <time>2012-04-09T15:25:54Z</time>
      </trkpt>
      <trkpt lat="43.75456" lon="3.71726">
        <ele>253.93</ele>
        <time>2012-04-09T15:26:04Z</time>
      </trkpt>
      <trkpt lat="43.7534" lon="3.71615">
        <ele>252</ele>
        <time>2012-04-09T15:26:10Z</time>
      </trkpt>
      <trkpt lat="43.75162" lon="3.71436">
        <ele>246.72</ele>
        <time>2012-04-09T15:26:21Z</time>
      </trkpt>
      <trkpt lat="43.74985" lon="3.71257">
        <ele>241.43</ele>
        <time>2012-04-09T15:26:31Z</time>
      </trkpt>
      <trkpt lat="43.74741" lon="3.71013">
        <ele>241.43</ele>
        <time>2012-04-09T15:26:44Z</time>
      </trkpt>
      <trkpt lat="43.74616" lon="3.70889">
        <ele>245.75</ele>
        <time>2012-04-09T15:26:53Z</time>
      </trkpt>
      <trkpt lat="43.74514" lon="3.70779">
        <ele>252</ele>
        <time>2012-04-09T15:27:02Z</time>
      </trkpt>
      <trkpt lat="43.74507" lon="3.70764">
        <ele>252.48</ele>
        <time>2012-04-09T15:27:03Z</time>
      </trkpt>
      <trkpt lat="43.74501" lon="3.70749">
        <ele>252.96</ele>
        <time>2012-04-09T15:27:04Z</time>
      </trkpt>
      <trkpt lat="43.74496" lon="3.70734">
        <ele>253.44</ele>
        <time>2012-04-09T15:27:05Z</time>
      </trkpt>
      <trkpt lat="43.74492" lon="3.70717">
        <ele>254.41</ele>
        <time>2012-04-09T15:27:06Z</time>
      </trkpt>
      <trkpt lat="43.74489" lon="3.70699">
        <ele>254.89</ele>
        <time>2012-04-09T15:27:07Z</time>
      </trkpt>
      <trkpt lat="43.74486" lon="3.7068">
        <ele>255.85</ele>
        <time>2012-04-09T15:27:08Z</time>
      </trkpt>
      <trkpt lat="43.74471" lon="3.70579">
        <ele>260.65</ele>
        <time>2012-04-09T15:27:15Z</time>
      </trkpt>
      <trkpt lat="43.74469" lon="3.70572">
        <ele>260.65</ele>
        <time>2012-04-09T15:27:16Z</time>
      </trkpt>
      <trkpt lat="43.74465" lon="3.70564">
        <ele>261.14</ele>
        <time>2012-04-09T15:27:17Z</time>
      </trkpt>
      <trkpt lat="43.7446" lon="3.70554">
        <ele>261.62</ele>
        <time>2012-04-09T15:27:18Z</time>
      </trkpt>
      <trkpt lat="43.74453" lon="3.70545">
        <ele>262.1</ele>
        <time>2012-04-09T15:27:19Z</time>
      </trkpt>
      <trkpt lat="43.74445" lon="3.70538">
        <ele>262.58</ele>
        <time>2012-04-09T15:27:20Z</time>
      </trkpt>
      <trkpt lat="43.74358" lon="3.70454">
        <ele>264.02</ele>
        <time>2012-04-09T15:27:32Z</time>
      </trkpt>
      <trkpt lat="43.74317" lon="3.70403">
        <ele>264.02</ele>
        <time>2012-04-09T15:27:38Z</time>
      </trkpt>
      <trkpt lat="43.74313" lon="3.70392">
        <ele>263.06</ele>
        <time>2012-04-09T15:27:39Z</time>
      </trkpt>
      <trkpt lat="43.74296" lon="3.70351">
        <ele>262.1</ele>
        <time>2012-04-09T15:27:43Z</time>
      </trkpt>
      <trkpt lat="43.74291" lon="3.70342">
        <ele>261.14</ele>
        <time>2012-04-09T15:27:44Z</time>
      </trkpt>
      <trkpt lat="43.74249" lon="3.70275">
        <ele>258.25</ele>
        <time>2012-04-09T15:27:51Z</time>
      </trkpt>
      <trkpt lat="43.74244" lon="3.70264">
        <ele>258.25</ele>
        <time>2012-04-09T15:27:52Z</time>
      </trkpt>
      <trkpt lat="43.74211" lon="3.70179">
        <ele>257.29</ele>
        <time>2012-04-09T15:27:59Z</time>
      </trkpt>
      <trkpt lat="43.74207" lon="3.70163">
        <ele>257.29</ele>
        <time>2012-04-09T15:28:00Z</time>
      </trkpt>
      <trkpt lat="43.74205" lon="3.70146">
        <ele>256.81</ele>
        <time>2012-04-09T15:28:01Z</time>
      </trkpt>
      <trkpt lat="43.74188" lon="3.69963">
        <ele>256.33</ele>
        <time>2012-04-09T15:28:10Z</time>
      </trkpt>
      <trkpt lat="43.74163" lon="3.69764">
        <ele>258.73</ele>
        <time>2012-04-09T15:28:20Z</time>
      </trkpt>
      <trkpt lat="43.74102" lon="3.69568">
        <ele>261.14</ele>
        <time>2012-04-09T15:28:29Z</time>
      </trkpt>
      <trkpt lat="43.74019" lon="3.69336">
        <ele>257.77</ele>
        <time>2012-04-09T15:28:39Z</time>
      </trkpt>
      <trkpt lat="43.74005" lon="3.69316">
        <ele>257.77</ele>
        <time>2012-04-09T15:28:40Z</time>
      </trkpt>
      <trkpt lat="43.73989" lon="3.69299">
        <ele>257.29</ele>
        <time>2012-04-09T15:28:41Z</time>
      </trkpt>
      <trkpt lat="43.73972" lon="3.69285">
        <ele>257.29</ele>
        <time>2012-04-09T15:28:42Z</time>
      </trkpt>
      <trkpt lat="43.73951" lon="3.69279">
        <ele>257.29</ele>
        <time>2012-04-09T15:28:43Z</time>
      </trkpt>
      <trkpt lat="43.73928" lon="3.69277">
        <ele>257.77</ele>
        <time>2012-04-09T15:28:44Z</time>
      </trkpt>
      <trkpt lat="43.73905" lon="3.69277">
        <ele>258.25</ele>
        <time>2012-04-09T15:28:45Z</time>
      </trkpt>
      <trkpt lat="43.73881" lon="3.69278">
        <ele>258.25</ele>
        <time>2012-04-09T15:28:46Z</time>
      </trkpt>
      <trkpt lat="43.73742" lon="3.69286">
        <ele>258.73</ele>
        <time>2012-04-09T15:28:52Z</time>
      </trkpt>
      <trkpt lat="43.73716" lon="3.6928">
        <ele>258.73</ele>
        <time>2012-04-09T15:28:53Z</time>
      </trkpt>
      <trkpt lat="43.7369" lon="3.69269">
        <ele>259.21</ele>
        <time>2012-04-09T15:28:54Z</time>
      </trkpt>
      <trkpt lat="43.73664" lon="3.69256">
        <ele>259.69</ele>
        <time>2012-04-09T15:28:55Z</time>
      </trkpt>
      <trkpt lat="43.73638" lon="3.6924">
        <ele>260.65</ele>
        <time>2012-04-09T15:28:56Z</time>
      </trkpt>
      <trkpt lat="43.73612" lon="3.69223">
        <ele>262.1</ele>
        <time>2012-04-09T15:28:57Z</time>
      </trkpt>
      <trkpt lat="43.73502" lon="3.69139">
        <ele>265.94</ele>
        <time>2012-04-09T15:29:02Z</time>
      </trkpt>
      <trkpt lat="43.73482" lon="3.69117">
        <ele>265.94</ele>
        <time>2012-04-09T15:29:03Z</time>
      </trkpt>
      <trkpt lat="43.73315" lon="3.68883">
        <ele>267.86</ele>
        <time>2012-04-09T15:29:12Z</time>
      </trkpt>
      <trkpt lat="43.73243" lon="3.6871">
        <ele>273.63</ele>
        <time>2012-04-09T15:29:18Z</time>
      </trkpt>
      <trkpt lat="43.73196" lon="3.68552">
        <ele>279.88</ele>
        <time>2012-04-09T15:29:25Z</time>
      </trkpt>
      <trkpt lat="43.7318" lon="3.68467">
        <ele>283.25</ele>
        <time>2012-04-09T15:29:30Z</time>
      </trkpt>
      <trkpt lat="43.73162" lon="3.68323">
        <ele>287.09</ele>
        <time>2012-04-09T15:29:39Z</time>
      </trkpt>
      <trkpt lat="43.73117" lon="3.68188">
        <ele>289.49</ele>
        <time>2012-04-09T15:29:50Z</time>
      </trkpt>
      <trkpt lat="43.73063" lon="3.68052">
        <ele>289.97</ele>
        <time>2012-04-09T15:30:01Z</time>
      </trkpt>
      <trkpt lat="43.73007" lon="3.67918">
        <ele>292.38</ele>
        <time>2012-04-09T15:30:11Z</time>
      </trkpt>
      <trkpt lat="43.72999" lon="3.67909">
        <ele>292.38</ele>
        <time>2012-04-09T15:30:12Z</time>
      </trkpt>
      <trkpt lat="43.72989" lon="3.679">
        <ele>292.38</ele>
        <time>2012-04-09T15:30:13Z</time>
      </trkpt>
      <trkpt lat="43.7291" lon="3.67847">
        <ele>290.94</ele>
        <time>2012-04-09T15:30:18Z</time>
      </trkpt>
      <trkpt lat="43.72801" lon="3.67734">
        <ele>287.09</ele>
        <time>2012-04-09T15:30:25Z</time>
      </trkpt>
      <trkpt lat="43.72699" lon="3.67605">
        <ele>279.88</ele>
        <time>2012-04-09T15:30:32Z</time>
      </trkpt>
      <trkpt lat="43.72682" lon="3.67594">
        <ele>278.92</ele>
        <time>2012-04-09T15:30:33Z</time>
      </trkpt>
      <trkpt lat="43.72588" lon="3.67553">
        <ele>276.52</ele>
        <time>2012-04-09T15:30:38Z</time>
      </trkpt>
      <trkpt lat="43.72568" lon="3.6755">
        <ele>276.52</ele>
        <time>2012-04-09T15:30:39Z</time>
      </trkpt>
      <trkpt lat="43.72493" lon="3.67552">
        <ele>274.59</ele>
        <time>2012-04-09T15:30:43Z</time>
      </trkpt>
      <trkpt lat="43.72478" lon="3.6756">
        <ele>274.59</ele>
        <time>2012-04-09T15:30:44Z</time>
      </trkpt>
      <trkpt lat="43.72465" lon="3.67571">
        <ele>274.11</ele>
        <time>2012-04-09T15:30:45Z</time>
      </trkpt>
      <trkpt lat="43.72454" lon="3.67585">
        <ele>274.11</ele>
        <time>2012-04-09T15:30:46Z</time>
      </trkpt>
      <trkpt lat="43.72445" lon="3.67601">
        <ele>273.63</ele>
        <time>2012-04-09T15:30:47Z</time>
      </trkpt>
      <trkpt lat="43.72436" lon="3.67617">
        <ele>273.63</ele>
        <time>2012-04-09T15:30:48Z</time>
      </trkpt>
      <trkpt lat="43.72426" lon="3.67631">
        <ele>273.15</ele>
        <time>2012-04-09T15:30:49Z</time>
      </trkpt>
      <trkpt lat="43.72415" lon="3.67642">
        <ele>272.67</ele>
        <time>2012-04-09T15:30:50Z</time>
      </trkpt>
      <trkpt lat="43.72401" lon="3.67646">
        <ele>272.19</ele>
        <time>2012-04-09T15:30:51Z</time>
      </trkpt>
      <trkpt lat="43.72385" lon="3.67646">
        <ele>271.71</ele>
        <time>2012-04-09T15:30:52Z</time>
      </trkpt>
      <trkpt lat="43.72368" lon="3.67643">
        <ele>271.23</ele>
        <time>2012-04-09T15:30:53Z</time>
      </trkpt>
      <trkpt lat="43.72349" lon="3.6764">
        <ele>270.75</ele>
        <time>2012-04-09T15:30:54Z</time>
      </trkpt>
      <trkpt lat="43.7222" lon="3.6762">
        <ele>266.9</ele>
        <time>2012-04-09T15:31:01Z</time>
      </trkpt>
      <trkpt lat="43.72173" lon="3.67627">
        <ele>265.94</ele>
        <time>2012-04-09T15:31:04Z</time>
      </trkpt>
      <trkpt lat="43.72162" lon="3.67634">
        <ele>265.46</ele>
        <time>2012-04-09T15:31:05Z</time>
      </trkpt>
      <trkpt lat="43.72153" lon="3.67645">
        <ele>264.98</ele>
        <time>2012-04-09T15:31:06Z</time>
      </trkpt>
      <trkpt lat="43.72144" lon="3.6766">
        <ele>264.02</ele>
        <time>2012-04-09T15:31:07Z</time>
      </trkpt>
      <trkpt lat="43.72135" lon="3.67677">
        <ele>264.02</ele>
        <time>2012-04-09T15:31:08Z</time>
      </trkpt>
      <trkpt lat="43.72125" lon="3.67696">
        <ele>263.06</ele>
        <time>2012-04-09T15:31:09Z</time>
      </trkpt>
      <trkpt lat="43.72106" lon="3.67726">
        <ele>261.62</ele>
        <time>2012-04-09T15:31:11Z</time>
      </trkpt>
      <trkpt lat="43.72094" lon="3.67734">
        <ele>260.65</ele>
        <time>2012-04-09T15:31:12Z</time>
      </trkpt>
      <trkpt lat="43.72083" lon="3.6774">
        <ele>259.21</ele>
        <time>2012-04-09T15:31:13Z</time>
      </trkpt>
      <trkpt lat="43.72071" lon="3.67746">
        <ele>258.73</ele>
        <time>2012-04-09T15:31:14Z</time>
      </trkpt>
      <trkpt lat="43.72061" lon="3.67755">
        <ele>257.29</ele>
        <time>2012-04-09T15:31:15Z</time>
      </trkpt>
      <trkpt lat="43.72052" lon="3.67769">
        <ele>256.33</ele>
        <time>2012-04-09T15:31:16Z</time>
      </trkpt>
      <trkpt lat="43.72044" lon="3.67784">
        <ele>254.89</ele>
        <time>2012-04-09T15:31:17Z</time>
      </trkpt>
      <trkpt lat="43.72037" lon="3.67802">
        <ele>253.93</ele>
        <time>2012-04-09T15:31:18Z</time>
      </trkpt>
      <trkpt lat="43.72033" lon="3.67821">
        <ele>252.48</ele>
        <time>2012-04-09T15:31:19Z</time>
      </trkpt>
      <trkpt lat="43.7203" lon="3.67842">
        <ele>251.04</ele>
        <time>2012-04-09T15:31:20Z</time>
      </trkpt>
      <trkpt lat="43.72026" lon="3.67862">
        <ele>250.08</ele>
        <time>2012-04-09T15:31:21Z</time>
      </trkpt>
      <trkpt lat="43.72017" lon="3.679">
        <ele>247.68</ele>
        <time>2012-04-09T15:31:23Z</time>
      </trkpt>
      <trkpt lat="43.7201" lon="3.67916">
        <ele>246.23</ele>
        <time>2012-04-09T15:31:24Z</time>
      </trkpt>
      <trkpt lat="43.72001" lon="3.67929">
        <ele>244.79</ele>
        <time>2012-04-09T15:31:25Z</time>
      </trkpt>
      <trkpt lat="43.71993" lon="3.67943">
        <ele>243.83</ele>
        <time>2012-04-09T15:31:26Z</time>
      </trkpt>
      <trkpt lat="43.71986" lon="3.67959">
        <ele>242.39</ele>
        <time>2012-04-09T15:31:27Z</time>
      </trkpt>
      <trkpt lat="43.71981" lon="3.67979">
        <ele>240.95</ele>
        <time>2012-04-09T15:31:28Z</time>
      </trkpt>
      <trkpt lat="43.71977" lon="3.68">
        <ele>239.99</ele>
        <time>2012-04-09T15:31:29Z</time>
      </trkpt>
      <trkpt lat="43.71953" lon="3.68098">
        <ele>234.7</ele>
        <time>2012-04-09T15:31:34Z</time>
      </trkpt>
      <trkpt lat="43.71946" lon="3.68111">
        <ele>233.74</ele>
        <time>2012-04-09T15:31:35Z</time>
      </trkpt>
      <trkpt lat="43.71938" lon="3.6812">
        <ele>231.81</ele>
        <time>2012-04-09T15:31:36Z</time>
      </trkpt>
      <trkpt lat="43.71928" lon="3.68128">
        <ele>230.37</ele>
        <time>2012-04-09T15:31:37Z</time>
      </trkpt>
      <trkpt lat="43.71915" lon="3.68133">
        <ele>228.93</ele>
        <time>2012-04-09T15:31:38Z</time>
      </trkpt>
      <trkpt lat="43.71902" lon="3.68139">
        <ele>227.97</ele>
        <time>2012-04-09T15:31:39Z</time>
      </trkpt>
      <trkpt lat="43.71888" lon="3.68142">
        <ele>227.97</ele>
        <time>2012-04-09T15:31:40Z</time>
      </trkpt>
      <trkpt lat="43.71874" lon="3.68144">
        <ele>227.49</ele>
        <time>2012-04-09T15:31:41Z</time>
      </trkpt>
      <trkpt lat="43.71861" lon="3.68141">
        <ele>226.53</ele>
        <time>2012-04-09T15:31:42Z</time>
      </trkpt>
      <trkpt lat="43.71849" lon="3.68131">
        <ele>226.05</ele>
        <time>2012-04-09T15:31:43Z</time>
      </trkpt>
      <trkpt lat="43.71838" lon="3.68117">
        <ele>225.57</ele>
        <time>2012-04-09T15:31:44Z</time>
      </trkpt>
      <trkpt lat="43.71829" lon="3.68101">
        <ele>225.09</ele>
        <time>2012-04-09T15:31:45Z</time>
      </trkpt>
      <trkpt lat="43.71821" lon="3.68084">
        <ele>224.61</ele>
        <time>2012-04-09T15:31:46Z</time>
      </trkpt>
      <trkpt lat="43.71815" lon="3.68068">
        <ele>224.12</ele>
        <time>2012-04-09T15:31:47Z</time>
      </trkpt>
      <trkpt lat="43.71809" lon="3.68056">
        <ele>224.12</ele>
        <time>2012-04-09T15:31:48Z</time>
      </trkpt>
      <trkpt lat="43.71802" lon="3.68047">
        <ele>224.12</ele>
        <time>2012-04-09T15:31:49Z</time>
      </trkpt>
      <trkpt lat="43.71792" lon="3.68042">
        <ele>223.64</ele>
        <time>2012-04-09T15:31:50Z</time>
      </trkpt>
      <trkpt lat="43.71779" lon="3.68039">
        <ele>224.12</ele>
        <time>2012-04-09T15:31:51Z</time>
      </trkpt>
      <trkpt lat="43.71765" lon="3.68035">
        <ele>224.61</ele>
        <time>2012-04-09T15:31:52Z</time>
      </trkpt>
      <trkpt lat="43.71752" lon="3.68028">
        <ele>224.61</ele>
        <time>2012-04-09T15:31:53Z</time>
      </trkpt>
      <trkpt lat="43.71739" lon="3.68017">
        <ele>224.12</ele>
        <time>2012-04-09T15:31:54Z</time>
      </trkpt>
      <trkpt lat="43.71726" lon="3.68004">
        <ele>223.64</ele>
        <time>2012-04-09T15:31:55Z</time>
      </trkpt>
      <trkpt lat="43.71643" lon="3.67925">
        <ele>221.24</ele>
        <time>2012-04-09T15:32:02Z</time>
      </trkpt>
      <trkpt lat="43.71632" lon="3.67925">
        <ele>221.24</ele>
        <time>2012-04-09T15:32:03Z</time>
      </trkpt>
      <trkpt lat="43.7162" lon="3.67931">
        <ele>220.76</ele>
        <time>2012-04-09T15:32:04Z</time>
      </trkpt>
      <trkpt lat="43.71606" lon="3.67937">
        <ele>220.28</ele>
        <time>2012-04-09T15:32:05Z</time>
      </trkpt>
      <trkpt lat="43.71591" lon="3.67945">
        <ele>219.8</ele>
        <time>2012-04-09T15:32:06Z</time>
      </trkpt>
      <trkpt lat="43.71575" lon="3.6795">
        <ele>219.32</ele>
        <time>2012-04-09T15:32:07Z</time>
      </trkpt>
      <trkpt lat="43.71549" lon="3.6796">
        <ele>218.84</ele>
        <time>2012-04-09T15:32:09Z</time>
      </trkpt>
      <trkpt lat="43.71538" lon="3.67969">
        <ele>218.36</ele>
        <time>2012-04-09T15:32:10Z</time>
      </trkpt>
      <trkpt lat="43.71528" lon="3.67983">
        <ele>217.88</ele>
        <time>2012-04-09T15:32:11Z</time>
      </trkpt>
      <trkpt lat="43.71505" lon="3.68011">
        <ele>216.91</ele>
        <time>2012-04-09T15:32:13Z</time>
      </trkpt>
      <trkpt lat="43.7149" lon="3.68021">
        <ele>216.43</ele>
        <time>2012-04-09T15:32:14Z</time>
      </trkpt>
      <trkpt lat="43.71475" lon="3.68028">
        <ele>215.47</ele>
        <time>2012-04-09T15:32:15Z</time>
      </trkpt>
      <trkpt lat="43.71447" lon="3.68041">
        <ele>214.51</ele>
        <time>2012-04-09T15:32:17Z</time>
      </trkpt>
      <trkpt lat="43.71434" lon="3.68053">
        <ele>213.55</ele>
        <time>2012-04-09T15:32:18Z</time>
      </trkpt>
      <trkpt lat="43.71422" lon="3.6807">
        <ele>213.07</ele>
        <time>2012-04-09T15:32:19Z</time>
      </trkpt>
      <trkpt lat="43.71411" lon="3.68089">
        <ele>212.11</ele>
        <time>2012-04-09T15:32:20Z</time>
      </trkpt>
      <trkpt lat="43.714" lon="3.68106">
        <ele>211.63</ele>
        <time>2012-04-09T15:32:21Z</time>
      </trkpt>
      <trkpt lat="43.71388" lon="3.6812">
        <ele>210.67</ele>
        <time>2012-04-09T15:32:22Z</time>
      </trkpt>
      <trkpt lat="43.71375" lon="3.68128">
        <ele>210.19</ele>
        <time>2012-04-09T15:32:23Z</time>
      </trkpt>
      <trkpt lat="43.71362" lon="3.68137">
        <ele>209.7</ele>
        <time>2012-04-09T15:32:24Z</time>
      </trkpt>
      <trkpt lat="43.71348" lon="3.68147">
        <ele>209.22</ele>
        <time>2012-04-09T15:32:25Z</time>
      </trkpt>
      <trkpt lat="43.71336" lon="3.68161">
        <ele>208.74</ele>
        <time>2012-04-09T15:32:26Z</time>
      </trkpt>
      <trkpt lat="43.71314" lon="3.68188">
        <ele>207.3</ele>
        <time>2012-04-09T15:32:28Z</time>
      </trkpt>
      <trkpt lat="43.71306" lon="3.68202">
        <ele>206.82</ele>
        <time>2012-04-09T15:32:29Z</time>
      </trkpt>
      <trkpt lat="43.71298" lon="3.68215">
        <ele>206.34</ele>
        <time>2012-04-09T15:32:30Z</time>
      </trkpt>
      <trkpt lat="43.71293" lon="3.68222">
        <ele>206.34</ele>
        <time>2012-04-09T15:32:31Z</time>
      </trkpt>
      <trkpt lat="43.71287" lon="3.68227">
        <ele>205.86</ele>
        <time>2012-04-09T15:32:32Z</time>
      </trkpt>
      <trkpt lat="43.7128" lon="3.68228">
        <ele>205.86</ele>
        <time>2012-04-09T15:32:33Z</time>
      </trkpt>
      <trkpt lat="43.71272" lon="3.68226">
        <ele>205.38</ele>
        <time>2012-04-09T15:32:34Z</time>
      </trkpt>
      <trkpt lat="43.71263" lon="3.68223">
        <ele>205.38</ele>
        <time>2012-04-09T15:32:35Z</time>
      </trkpt>
      <trkpt lat="43.71252" lon="3.68219">
        <ele>205.38</ele>
        <time>2012-04-09T15:32:36Z</time>
      </trkpt>
      <trkpt lat="43.71242" lon="3.68214">
        <ele>204.9</ele>
        <time>2012-04-09T15:32:37Z</time>
      </trkpt>
      <trkpt lat="43.71233" lon="3.68205">
        <ele>204.42</ele>
        <time>2012-04-09T15:32:38Z</time>
      </trkpt>
      <trkpt lat="43.71227" lon="3.68191">
        <ele>204.42</ele>
        <time>2012-04-09T15:32:39Z</time>
      </trkpt>
      <trkpt lat="43.71223" lon="3.68174">
        <ele>204.9</ele>
        <time>2012-04-09T15:32:40Z</time>
      </trkpt>
      <trkpt lat="43.7122" lon="3.68155">
        <ele>204.9</ele>
        <time>2012-04-09T15:32:41Z</time>
      </trkpt>
      <trkpt lat="43.71218" lon="3.68135">
        <ele>205.38</ele>
        <time>2012-04-09T15:32:42Z</time>
      </trkpt>
      <trkpt lat="43.7121" lon="3.68044">
        <ele>205.86</ele>
        <time>2012-04-09T15:32:47Z</time>
      </trkpt>
      <trkpt lat="43.71205" lon="3.68031">
        <ele>205.86</ele>
        <time>2012-04-09T15:32:48Z</time>
      </trkpt>
      <trkpt lat="43.71199" lon="3.68017">
        <ele>205.86</ele>
        <time>2012-04-09T15:32:49Z</time>
      </trkpt>
      <trkpt lat="43.71189" lon="3.68003">
        <ele>205.86</ele>
        <time>2012-04-09T15:32:50Z</time>
      </trkpt>
      <trkpt lat="43.71178" lon="3.67988">
        <ele>205.38</ele>
        <time>2012-04-09T15:32:51Z</time>
      </trkpt>
      <trkpt lat="43.71166" lon="3.67974">
        <ele>204.9</ele>
        <time>2012-04-09T15:32:52Z</time>
      </trkpt>
      <trkpt lat="43.71152" lon="3.67962">
        <ele>204.42</ele>
        <time>2012-04-09T15:32:53Z</time>
      </trkpt>
      <trkpt lat="43.71139" lon="3.67949">
        <ele>203.94</ele>
        <time>2012-04-09T15:32:54Z</time>
      </trkpt>
      <trkpt lat="43.71117" lon="3.67931">
        <ele>202.98</ele>
        <time>2012-04-09T15:32:56Z</time>
      </trkpt>
      <trkpt lat="43.71106" lon="3.67928">
        <ele>202.01</ele>
        <time>2012-04-09T15:32:57Z</time>
      </trkpt>
      <trkpt lat="43.71093" lon="3.67931">
        <ele>200.57</ele>
        <time>2012-04-09T15:32:58Z</time>
      </trkpt>
      <trkpt lat="43.71077" lon="3.67937">
        <ele>199.61</ele>
        <time>2012-04-09T15:32:59Z</time>
      </trkpt>
      <trkpt lat="43.71061" lon="3.67944">
        <ele>198.65</ele>
        <time>2012-04-09T15:33:00Z</time>
      </trkpt>
      <trkpt lat="43.71" lon="3.67965">
        <ele>196.25</ele>
        <time>2012-04-09T15:33:04Z</time>
      </trkpt>
      <trkpt lat="43.70989" lon="3.67962">
        <ele>195.77</ele>
        <time>2012-04-09T15:33:05Z</time>
      </trkpt>
      <trkpt lat="43.70979" lon="3.67956">
        <ele>195.28</ele>
        <time>2012-04-09T15:33:06Z</time>
      </trkpt>
      <trkpt lat="43.70971" lon="3.67944">
        <ele>195.28</ele>
        <time>2012-04-09T15:33:07Z</time>
      </trkpt>
      <trkpt lat="43.70964" lon="3.67928">
        <ele>194.8</ele>
        <time>2012-04-09T15:33:08Z</time>
      </trkpt>
      <trkpt lat="43.70962" lon="3.67907">
        <ele>195.28</ele>
        <time>2012-04-09T15:33:09Z</time>
      </trkpt>
      <trkpt lat="43.70961" lon="3.67885">
        <ele>195.77</ele>
        <time>2012-04-09T15:33:10Z</time>
      </trkpt>
      <trkpt lat="43.70961" lon="3.67861">
        <ele>195.77</ele>
        <time>2012-04-09T15:33:11Z</time>
      </trkpt>
      <trkpt lat="43.70952" lon="3.67646">
        <ele>200.09</ele>
        <time>2012-04-09T15:33:19Z</time>
      </trkpt>
      <trkpt lat="43.70945" lon="3.67476">
        <ele>206.34</ele>
        <time>2012-04-09T15:33:27Z</time>
      </trkpt>
      <trkpt lat="43.70944" lon="3.67467">
        <ele>207.3</ele>
        <time>2012-04-09T15:33:28Z</time>
      </trkpt>
      <trkpt lat="43.70942" lon="3.6746">
        <ele>207.78</ele>
        <time>2012-04-09T15:33:29Z</time>
      </trkpt>
      <trkpt lat="43.70937" lon="3.67458">
        <ele>208.26</ele>
        <time>2012-04-09T15:33:30Z</time>
      </trkpt>
      <trkpt lat="43.7093" lon="3.67459">
        <ele>208.74</ele>
        <time>2012-04-09T15:33:31Z</time>
      </trkpt>
      <trkpt lat="43.70924" lon="3.67465">
        <ele>209.22</ele>
        <time>2012-04-09T15:33:32Z</time>
      </trkpt>
      <trkpt lat="43.70916" lon="3.67473">
        <ele>209.22</ele>
        <time>2012-04-09T15:33:33Z</time>
      </trkpt>
      <trkpt lat="43.70906" lon="3.67482">
        <ele>210.19</ele>
        <time>2012-04-09T15:33:34Z</time>
      </trkpt>
      <trkpt lat="43.70893" lon="3.67491">
        <ele>211.15</ele>
        <time>2012-04-09T15:33:35Z</time>
      </trkpt>
      <trkpt lat="43.70879" lon="3.67504">
        <ele>211.63</ele>
        <time>2012-04-09T15:33:36Z</time>
      </trkpt>
      <trkpt lat="43.70867" lon="3.67519">
        <ele>212.59</ele>
        <time>2012-04-09T15:33:37Z</time>
      </trkpt>
      <trkpt lat="43.70847" lon="3.67546">
        <ele>214.03</ele>
        <time>2012-04-09T15:33:39Z</time>
      </trkpt>
      <trkpt lat="43.70838" lon="3.67553">
        <ele>214.51</ele>
        <time>2012-04-09T15:33:40Z</time>
      </trkpt>
      <trkpt lat="43.70829" lon="3.67557">
        <ele>214.99</ele>
        <time>2012-04-09T15:33:41Z</time>
      </trkpt>
      <trkpt lat="43.70819" lon="3.67559">
        <ele>215.95</ele>
        <time>2012-04-09T15:33:42Z</time>
      </trkpt>
      <trkpt lat="43.70809" lon="3.67558">
        <ele>216.91</ele>
        <time>2012-04-09T15:33:43Z</time>
      </trkpt>
      <trkpt lat="43.70798" lon="3.67558">
        <ele>217.4</ele>
        <time>2012-04-09T15:33:44Z</time>
      </trkpt>
      <trkpt lat="43.70788" lon="3.67559">
        <ele>218.36</ele>
        <time>2012-04-09T15:33:45Z</time>
      </trkpt>
      <trkpt lat="43.70781" lon="3.67558">
        <ele>218.84</ele>
        <time>2012-04-09T15:33:46Z</time>
      </trkpt>
      <trkpt lat="43.70776" lon="3.67555">
        <ele>218.84</ele>
        <time>2012-04-09T15:33:47Z</time>
      </trkpt>
      <trkpt lat="43.70778" lon="3.67538">
        <ele>220.76</ele>
        <time>2012-04-09T15:33:50Z</time>
      </trkpt>
      <trkpt lat="43.70784" lon="3.67536">
        <ele>220.76</ele>
        <time>2012-04-09T15:33:51Z</time>
      </trkpt>
      <trkpt lat="43.70791" lon="3.67536">
        <ele>221.72</ele>
        <time>2012-04-09T15:33:52Z</time>
      </trkpt>
      <trkpt lat="43.708" lon="3.6754">
        <ele>222.2</ele>
        <time>2012-04-09T15:33:53Z</time>
      </trkpt>
      <trkpt lat="43.7081" lon="3.67542">
        <ele>222.2</ele>
        <time>2012-04-09T15:33:54Z</time>
      </trkpt>
      <trkpt lat="43.70819" lon="3.67542">
        <ele>222.2</ele>
        <time>2012-04-09T15:33:55Z</time>
      </trkpt>
      <trkpt lat="43.70828" lon="3.6754">
        <ele>222.68</ele>
        <time>2012-04-09T15:33:56Z</time>
      </trkpt>
      <trkpt lat="43.70835" lon="3.67537">
        <ele>222.68</ele>
        <time>2012-04-09T15:33:57Z</time>
      </trkpt>
      <trkpt lat="43.70841" lon="3.67529">
        <ele>223.16</ele>
        <time>2012-04-09T15:33:58Z</time>
      </trkpt>
      <trkpt lat="43.70847" lon="3.67515">
        <ele>223.64</ele>
        <time>2012-04-09T15:33:59Z</time>
      </trkpt>
      <trkpt lat="43.70852" lon="3.67497">
        <ele>224.12</ele>
        <time>2012-04-09T15:34:00Z</time>
      </trkpt>
      <trkpt lat="43.70857" lon="3.67479">
        <ele>225.09</ele>
        <time>2012-04-09T15:34:01Z</time>
      </trkpt>
      <trkpt lat="43.70873" lon="3.6742">
        <ele>227.49</ele>
        <time>2012-04-09T15:34:04Z</time>
      </trkpt>
      <trkpt lat="43.70881" lon="3.67403">
        <ele>228.45</ele>
        <time>2012-04-09T15:34:05Z</time>
      </trkpt>
      <trkpt lat="43.70934" lon="3.67268">
        <ele>234.22</ele>
        <time>2012-04-09T15:34:12Z</time>
      </trkpt>
      <trkpt lat="43.70944" lon="3.67197">
        <ele>236.62</ele>
        <time>2012-04-09T15:34:16Z</time>
      </trkpt>
      <trkpt lat="43.70943" lon="3.6718">
        <ele>236.62</ele>
        <time>2012-04-09T15:34:17Z</time>
      </trkpt>
      <trkpt lat="43.70941" lon="3.67164">
        <ele>237.1</ele>
        <time>2012-04-09T15:34:18Z</time>
      </trkpt>
      <trkpt lat="43.70937" lon="3.67148">
        <ele>237.58</ele>
        <time>2012-04-09T15:34:19Z</time>
      </trkpt>
      <trkpt lat="43.70931" lon="3.67133">
        <ele>238.06</ele>
        <time>2012-04-09T15:34:20Z</time>
      </trkpt>
      <trkpt lat="43.70923" lon="3.67119">
        <ele>238.54</ele>
        <time>2012-04-09T15:34:21Z</time>
      </trkpt>
      <trkpt lat="43.70914" lon="3.67105">
        <ele>238.54</ele>
        <time>2012-04-09T15:34:22Z</time>
      </trkpt>
      <trkpt lat="43.70905" lon="3.67093">
        <ele>239.02</ele>
        <time>2012-04-09T15:34:23Z</time>
      </trkpt>
      <trkpt lat="43.70895" lon="3.67083">
        <ele>239.51</ele>
        <time>2012-04-09T15:34:24Z</time>
      </trkpt>
      <trkpt lat="43.70884" lon="3.67075">
        <ele>239.99</ele>
        <time>2012-04-09T15:34:25Z</time>
      </trkpt>
      <trkpt lat="43.70869" lon="3.67069">
        <ele>240.47</ele>
        <time>2012-04-09T15:34:26Z</time>
      </trkpt>
      <trkpt lat="43.70852" lon="3.67063">
        <ele>240.95</ele>
        <time>2012-04-09T15:34:27Z</time>
      </trkpt>
      <trkpt lat="43.70785" lon="3.67042">
        <ele>241.91</ele>
        <time>2012-04-09T15:34:31Z</time>
      </trkpt>
      <trkpt lat="43.70766" lon="3.6704">
        <ele>241.91</ele>
        <time>2012-04-09T15:34:32Z</time>
      </trkpt>
      <trkpt lat="43.70567" lon="3.67034">
        <ele>242.87</ele>
        <time>2012-04-09T15:34:42Z</time>
      </trkpt>
      <trkpt lat="43.70501" lon="3.67037">
        <ele>242.87</ele>
        <time>2012-04-09T15:34:46Z</time>
      </trkpt>
      <trkpt lat="43.70484" lon="3.67043">
        <ele>242.87</ele>
        <time>2012-04-09T15:34:47Z</time>
      </trkpt>
      <trkpt lat="43.70383" lon="3.67094">
        <ele>242.87</ele>
        <time>2012-04-09T15:34:54Z</time>
      </trkpt>
      <trkpt lat="43.70343" lon="3.67126">
        <ele>242.39</ele>
        <time>2012-04-09T15:35:00Z</time>
      </trkpt>
      <trkpt lat="43.70303" lon="3.67161">
        <ele>241.91</ele>
        <time>2012-04-09T15:35:07Z</time>
      </trkpt>
      <trkpt lat="43.70244" lon="3.67207">
        <ele>239.99</ele>
        <time>2012-04-09T15:35:18Z</time>
      </trkpt>
      <trkpt lat="43.70152" lon="3.67274">
        <ele>236.62</ele>
        <time>2012-04-09T15:35:31Z</time>
      </trkpt>
      <trkpt lat="43.70107" lon="3.67307">
        <ele>236.14</ele>
        <time>2012-04-09T15:35:38Z</time>
      </trkpt>
      <trkpt lat="43.70059" lon="3.67338">
        <ele>236.14</ele>
        <time>2012-04-09T15:35:44Z</time>
      </trkpt>
      <trkpt lat="43.70053" lon="3.67338">
        <ele>236.14</ele>
        <time>2012-04-09T15:35:45Z</time>
      </trkpt>
      <trkpt lat="43.7005" lon="3.67338">
        <ele>236.14</ele>
        <time>2012-04-09T15:35:46Z</time>
      </trkpt>
      <trkpt lat="43.70037" lon="3.67339">
        <ele>236.62</ele>
        <time>2012-04-09T15:35:50Z</time>
      </trkpt>
      <trkpt lat="43.70031" lon="3.67342">
        <ele>236.62</ele>
        <time>2012-04-09T15:35:51Z</time>
      </trkpt>
      <trkpt lat="43.69956" lon="3.67372">
        <ele>236.62</ele>
        <time>2012-04-09T15:35:59Z</time>
      </trkpt>
      <trkpt lat="43.6985" lon="3.67411">
        <ele>239.99</ele>
        <time>2012-04-09T15:36:12Z</time>
      </trkpt>
      <trkpt lat="43.69788" lon="3.67434">
        <ele>243.83</ele>
        <time>2012-04-09T15:36:21Z</time>
      </trkpt>
      <trkpt lat="43.69756" lon="3.67448">
        <ele>245.75</ele>
        <time>2012-04-09T15:36:29Z</time>
      </trkpt>
      <trkpt lat="43.69664" lon="3.67459">
        <ele>246.72</ele>
        <time>2012-04-09T15:36:39Z</time>
      </trkpt>
      <trkpt lat="43.69602" lon="3.67463">
        <ele>245.27</ele>
        <time>2012-04-09T15:36:46Z</time>
      </trkpt>
      <trkpt lat="43.6948" lon="3.6748">
        <ele>239.51</ele>
        <time>2012-04-09T15:36:55Z</time>
      </trkpt>
      <trkpt lat="43.69364" lon="3.67527">
        <ele>236.14</ele>
        <time>2012-04-09T15:37:06Z</time>
      </trkpt>
      <trkpt lat="43.69358" lon="3.67529">
        <ele>236.14</ele>
        <time>2012-04-09T15:37:07Z</time>
      </trkpt>
      <trkpt lat="43.69354" lon="3.67534">
        <ele>236.14</ele>
        <time>2012-04-09T15:37:08Z</time>
      </trkpt>
      <trkpt lat="43.69352" lon="3.67541">
        <ele>235.66</ele>
        <time>2012-04-09T15:37:09Z</time>
      </trkpt>
      <trkpt lat="43.69352" lon="3.67553">
        <ele>235.18</ele>
        <time>2012-04-09T15:37:10Z</time>
      </trkpt>
      <trkpt lat="43.6935" lon="3.67568">
        <ele>234.7</ele>
        <time>2012-04-09T15:37:11Z</time>
      </trkpt>
      <trkpt lat="43.69347" lon="3.67585">
        <ele>234.22</ele>
        <time>2012-04-09T15:37:12Z</time>
      </trkpt>
      <trkpt lat="43.69343" lon="3.67604">
        <ele>233.74</ele>
        <time>2012-04-09T15:37:13Z</time>
      </trkpt>
      <trkpt lat="43.69321" lon="3.67689">
        <ele>231.33</ele>
        <time>2012-04-09T15:37:17Z</time>
      </trkpt>
      <trkpt lat="43.69312" lon="3.6771">
        <ele>230.85</ele>
        <time>2012-04-09T15:37:18Z</time>
      </trkpt>
      <trkpt lat="43.69295" lon="3.6775">
        <ele>229.41</ele>
        <time>2012-04-09T15:37:20Z</time>
      </trkpt>
      <trkpt lat="43.69288" lon="3.67772">
        <ele>228.93</ele>
        <time>2012-04-09T15:37:21Z</time>
      </trkpt>
      <trkpt lat="43.69283" lon="3.67798">
        <ele>228.45</ele>
        <time>2012-04-09T15:37:22Z</time>
      </trkpt>
      <trkpt lat="43.69266" lon="3.67904">
        <ele>225.57</ele>
        <time>2012-04-09T15:37:26Z</time>
      </trkpt>
      <trkpt lat="43.69259" lon="3.67929">
        <ele>225.09</ele>
        <time>2012-04-09T15:37:27Z</time>
      </trkpt>
      <trkpt lat="43.69249" lon="3.67954">
        <ele>224.12</ele>
        <time>2012-04-09T15:37:28Z</time>
      </trkpt>
      <trkpt lat="43.6917" lon="3.68176">
        <ele>217.88</ele>
        <time>2012-04-09T15:37:36Z</time>
      </trkpt>
      <trkpt lat="43.69152" lon="3.68222">
        <ele>216.43</ele>
        <time>2012-04-09T15:37:38Z</time>
      </trkpt>
      <trkpt lat="43.69141" lon="3.68241">
        <ele>215.47</ele>
        <time>2012-04-09T15:37:39Z</time>
      </trkpt>
      <trkpt lat="43.69128" lon="3.6826">
        <ele>214.51</ele>
        <time>2012-04-09T15:37:40Z</time>
      </trkpt>
      <trkpt lat="43.69112" lon="3.68278">
        <ele>213.55</ele>
        <time>2012-04-09T15:37:41Z</time>
      </trkpt>
      <trkpt lat="43.69095" lon="3.68297">
        <ele>213.07</ele>
        <time>2012-04-09T15:37:42Z</time>
      </trkpt>
      <trkpt lat="43.68962" lon="3.68428">
        <ele>206.34</ele>
        <time>2012-04-09T15:37:50Z</time>
      </trkpt>
      <trkpt lat="43.68918" lon="3.68458">
        <ele>203.94</ele>
        <time>2012-04-09T15:37:53Z</time>
      </trkpt>
      <trkpt lat="43.68815" lon="3.68564">
        <ele>198.65</ele>
        <time>2012-04-09T15:37:59Z</time>
      </trkpt>
      <trkpt lat="43.68795" lon="3.68576">
        <ele>197.69</ele>
        <time>2012-04-09T15:38:00Z</time>
      </trkpt>
      <trkpt lat="43.68771" lon="3.68583">
        <ele>196.73</ele>
        <time>2012-04-09T15:38:01Z</time>
      </trkpt>
      <trkpt lat="43.68747" lon="3.68588">
        <ele>195.77</ele>
        <time>2012-04-09T15:38:02Z</time>
      </trkpt>
      <trkpt lat="43.68722" lon="3.68591">
        <ele>194.8</ele>
        <time>2012-04-09T15:38:03Z</time>
      </trkpt>
      <trkpt lat="43.68605" lon="3.68622">
        <ele>189.52</ele>
        <time>2012-04-09T15:38:08Z</time>
      </trkpt>
      <trkpt lat="43.68581" lon="3.68637">
        <ele>189.04</ele>
        <time>2012-04-09T15:38:09Z</time>
      </trkpt>
      <trkpt lat="43.68408" lon="3.6877">
        <ele>182.31</ele>
        <time>2012-04-09T15:38:16Z</time>
      </trkpt>
      <trkpt lat="43.6835" lon="3.68824">
        <ele>180.38</ele>
        <time>2012-04-09T15:38:19Z</time>
      </trkpt>
      <trkpt lat="43.68338" lon="3.68848">
        <ele>179.9</ele>
        <time>2012-04-09T15:38:20Z</time>
      </trkpt>
      <trkpt lat="43.68326" lon="3.68875">
        <ele>179.42</ele>
        <time>2012-04-09T15:38:21Z</time>
      </trkpt>
      <trkpt lat="43.68229" lon="3.69103">
        <ele>176.06</ele>
        <time>2012-04-09T15:38:28Z</time>
      </trkpt>
      <trkpt lat="43.68165" lon="3.6923">
        <ele>173.66</ele>
        <time>2012-04-09T15:38:33Z</time>
      </trkpt>
      <trkpt lat="43.68152" lon="3.69243">
        <ele>173.17</ele>
        <time>2012-04-09T15:38:34Z</time>
      </trkpt>
      <trkpt lat="43.68136" lon="3.69252">
        <ele>172.21</ele>
        <time>2012-04-09T15:38:35Z</time>
      </trkpt>
      <trkpt lat="43.68119" lon="3.69257">
        <ele>171.73</ele>
        <time>2012-04-09T15:38:36Z</time>
      </trkpt>
      <trkpt lat="43.681" lon="3.69256">
        <ele>171.25</ele>
        <time>2012-04-09T15:38:37Z</time>
      </trkpt>
      <trkpt lat="43.68079" lon="3.69252">
        <ele>170.29</ele>
        <time>2012-04-09T15:38:38Z</time>
      </trkpt>
      <trkpt lat="43.68058" lon="3.69246">
        <ele>169.81</ele>
        <time>2012-04-09T15:38:39Z</time>
      </trkpt>
      <trkpt lat="43.6794" lon="3.69229">
        <ele>165.48</ele>
        <time>2012-04-09T15:38:44Z</time>
      </trkpt>
      <trkpt lat="43.67793" lon="3.69175">
        <ele>161.64</ele>
        <time>2012-04-09T15:38:51Z</time>
      </trkpt>
      <trkpt lat="43.67693" lon="3.69123">
        <ele>158.27</ele>
        <time>2012-04-09T15:38:58Z</time>
      </trkpt>
      <trkpt lat="43.67679" lon="3.69121">
        <ele>157.79</ele>
        <time>2012-04-09T15:38:59Z</time>
      </trkpt>
      <trkpt lat="43.67665" lon="3.6912">
        <ele>157.31</ele>
        <time>2012-04-09T15:39:00Z</time>
      </trkpt>
      <trkpt lat="43.67649" lon="3.69125">
        <ele>156.83</ele>
        <time>2012-04-09T15:39:01Z</time>
      </trkpt>
      <trkpt lat="43.67631" lon="3.69132">
        <ele>156.83</ele>
        <time>2012-04-09T15:39:02Z</time>
      </trkpt>
      <trkpt lat="43.67611" lon="3.6914">
        <ele>156.83</ele>
        <time>2012-04-09T15:39:03Z</time>
      </trkpt>
      <trkpt lat="43.67479" lon="3.69167">
        <ele>157.79</ele>
        <time>2012-04-09T15:39:09Z</time>
      </trkpt>
      <trkpt lat="43.67321" lon="3.69172">
        <ele>152.99</ele>
        <time>2012-04-09T15:39:16Z</time>
      </trkpt>
      <trkpt lat="43.67282" lon="3.69176">
        <ele>151.54</ele>
        <time>2012-04-09T15:39:18Z</time>
      </trkpt>
      <trkpt lat="43.67262" lon="3.69181">
        <ele>150.58</ele>
        <time>2012-04-09T15:39:19Z</time>
      </trkpt>
      <trkpt lat="43.67158" lon="3.69228">
        <ele>149.14</ele>
        <time>2012-04-09T15:39:24Z</time>
      </trkpt>
      <trkpt lat="43.67139" lon="3.69246">
        <ele>148.66</ele>
        <time>2012-04-09T15:39:25Z</time>
      </trkpt>
      <trkpt lat="43.66994" lon="3.69319">
        <ele>145.78</ele>
        <time>2012-04-09T15:39:32Z</time>
      </trkpt>
      <trkpt lat="43.66914" lon="3.69332">
        <ele>144.34</ele>
        <time>2012-04-09T15:39:36Z</time>
      </trkpt>
      <trkpt lat="43.66895" lon="3.69346">
        <ele>144.34</ele>
        <time>2012-04-09T15:39:37Z</time>
      </trkpt>
      <trkpt lat="43.66876" lon="3.69362">
        <ele>143.85</ele>
        <time>2012-04-09T15:39:38Z</time>
      </trkpt>
      <trkpt lat="43.66859" lon="3.69379">
        <ele>142.89</ele>
        <time>2012-04-09T15:39:39Z</time>
      </trkpt>
      <trkpt lat="43.66842" lon="3.69396">
        <ele>142.89</ele>
        <time>2012-04-09T15:39:40Z</time>
      </trkpt>
      <trkpt lat="43.66823" lon="3.6941">
        <ele>141.45</ele>
        <time>2012-04-09T15:39:41Z</time>
      </trkpt>
      <trkpt lat="43.66673" lon="3.6947">
        <ele>140.49</ele>
        <time>2012-04-09T15:39:47Z</time>
      </trkpt>
      <trkpt lat="43.66477" lon="3.69556">
        <ele>137.13</ele>
        <time>2012-04-09T15:39:54Z</time>
      </trkpt>
      <trkpt lat="43.66329" lon="3.69607">
        <ele>131.84</ele>
        <time>2012-04-09T15:40:00Z</time>
      </trkpt>
      <trkpt lat="43.66309" lon="3.69607">
        <ele>130.4</ele>
        <time>2012-04-09T15:40:01Z</time>
      </trkpt>
      <trkpt lat="43.66221" lon="3.69594">
        <ele>126.55</ele>
        <time>2012-04-09T15:40:05Z</time>
      </trkpt>
      <trkpt lat="43.662" lon="3.69583">
        <ele>125.59</ele>
        <time>2012-04-09T15:40:06Z</time>
      </trkpt>
      <trkpt lat="43.6618" lon="3.6957">
        <ele>125.59</ele>
        <time>2012-04-09T15:40:07Z</time>
      </trkpt>
      <trkpt lat="43.66094" lon="3.69523">
        <ele>124.15</ele>
        <time>2012-04-09T15:40:12Z</time>
      </trkpt>
      <trkpt lat="43.66076" lon="3.69526">
        <ele>124.15</ele>
        <time>2012-04-09T15:40:13Z</time>
      </trkpt>
      <trkpt lat="43.66056" lon="3.69534">
        <ele>124.63</ele>
        <time>2012-04-09T15:40:14Z</time>
      </trkpt>
      <trkpt lat="43.66034" lon="3.69546">
        <ele>124.15</ele>
        <time>2012-04-09T15:40:15Z</time>
      </trkpt>
      <trkpt lat="43.6601" lon="3.69559">
        <ele>124.15</ele>
        <time>2012-04-09T15:40:16Z</time>
      </trkpt>
      <trkpt lat="43.65883" lon="3.69641">
        <ele>124.63</ele>
        <time>2012-04-09T15:40:22Z</time>
      </trkpt>
      <trkpt lat="43.65831" lon="3.6968">
        <ele>122.22</ele>
        <time>2012-04-09T15:40:25Z</time>
      </trkpt>
      <trkpt lat="43.65814" lon="3.69684">
        <ele>121.26</ele>
        <time>2012-04-09T15:40:26Z</time>
      </trkpt>
      <trkpt lat="43.65797" lon="3.69683">
        <ele>120.78</ele>
        <time>2012-04-09T15:40:27Z</time>
      </trkpt>
      <trkpt lat="43.65778" lon="3.6968">
        <ele>120.3</ele>
        <time>2012-04-09T15:40:28Z</time>
      </trkpt>
      <trkpt lat="43.65756" lon="3.69677">
        <ele>119.82</ele>
        <time>2012-04-09T15:40:29Z</time>
      </trkpt>
      <trkpt lat="43.65732" lon="3.69676">
        <ele>119.82</ele>
        <time>2012-04-09T15:40:30Z</time>
      </trkpt>
      <trkpt lat="43.65708" lon="3.69678">
        <ele>119.82</ele>
        <time>2012-04-09T15:40:31Z</time>
      </trkpt>
      <trkpt lat="43.65612" lon="3.69687">
        <ele>121.74</ele>
        <time>2012-04-09T15:40:36Z</time>
      </trkpt>
      <trkpt lat="43.65597" lon="3.69694">
        <ele>122.22</ele>
        <time>2012-04-09T15:40:37Z</time>
      </trkpt>
      <trkpt lat="43.65583" lon="3.69704">
        <ele>122.71</ele>
        <time>2012-04-09T15:40:38Z</time>
      </trkpt>
      <trkpt lat="43.65568" lon="3.69718">
        <ele>122.71</ele>
        <time>2012-04-09T15:40:39Z</time>
      </trkpt>
      <trkpt lat="43.65554" lon="3.69735">
        <ele>122.71</ele>
        <time>2012-04-09T15:40:40Z</time>
      </trkpt>
      <trkpt lat="43.6554" lon="3.69753">
        <ele>122.22</ele>
        <time>2012-04-09T15:40:41Z</time>
      </trkpt>
      <trkpt lat="43.65455" lon="3.69833">
        <ele>121.26</ele>
        <time>2012-04-09T15:40:47Z</time>
      </trkpt>
      <trkpt lat="43.65418" lon="3.69864">
        <ele>120.3</ele>
        <time>2012-04-09T15:40:50Z</time>
      </trkpt>
      <trkpt lat="43.65407" lon="3.6987">
        <ele>119.34</ele>
        <time>2012-04-09T15:40:51Z</time>
      </trkpt>
      <trkpt lat="43.65396" lon="3.69872">
        <ele>118.86</ele>
        <time>2012-04-09T15:40:52Z</time>
      </trkpt>
      <trkpt lat="43.65385" lon="3.69866">
        <ele>118.38</ele>
        <time>2012-04-09T15:40:53Z</time>
      </trkpt>
      <trkpt lat="43.65373" lon="3.69859">
        <ele>118.38</ele>
        <time>2012-04-09T15:40:54Z</time>
      </trkpt>
      <trkpt lat="43.65362" lon="3.69851">
        <ele>118.38</ele>
        <time>2012-04-09T15:40:55Z</time>
      </trkpt>
      <trkpt lat="43.65351" lon="3.69843">
        <ele>118.38</ele>
        <time>2012-04-09T15:40:56Z</time>
      </trkpt>
      <trkpt lat="43.65289" lon="3.69801">
        <ele>121.74</ele>
        <time>2012-04-09T15:41:03Z</time>
      </trkpt>
      <trkpt lat="43.65225" lon="3.69763">
        <ele>126.55</ele>
        <time>2012-04-09T15:41:11Z</time>
      </trkpt>
      <trkpt lat="43.65147" lon="3.69719">
        <ele>130.88</ele>
        <time>2012-04-09T15:41:20Z</time>
      </trkpt>
      <trkpt lat="43.65126" lon="3.69714">
        <ele>130.4</ele>
        <time>2012-04-09T15:41:27Z</time>
      </trkpt>
      <trkpt lat="43.65106" lon="3.69675">
        <ele>131.36</ele>
        <time>2012-04-09T15:41:34Z</time>
      </trkpt>
      <trkpt lat="43.65087" lon="3.69609">
        <ele>132.8</ele>
        <time>2012-04-09T15:41:40Z</time>
      </trkpt>
      <trkpt lat="43.65086" lon="3.696">
        <ele>132.8</ele>
        <time>2012-04-09T15:41:41Z</time>
      </trkpt>
      <trkpt lat="43.65087" lon="3.69592">
        <ele>132.8</ele>
        <time>2012-04-09T15:41:42Z</time>
      </trkpt>
      <trkpt lat="43.65088" lon="3.69585">
        <ele>132.8</ele>
        <time>2012-04-09T15:41:43Z</time>
      </trkpt>
      <trkpt lat="43.65087" lon="3.6958">
        <ele>132.8</ele>
        <time>2012-04-09T15:41:44Z</time>
      </trkpt>
      <trkpt lat="43.65086" lon="3.69578">
        <ele>132.8</ele>
        <time>2012-04-09T15:41:45Z</time>
      </trkpt>
      <trkpt lat="43.65082" lon="3.69574">
        <ele>132.8</ele>
        <time>2012-04-09T15:41:48Z</time>
      </trkpt>
      <trkpt lat="43.65066" lon="3.69584">
        <ele>130.4</ele>
        <time>2012-04-09T15:41:54Z</time>
      </trkpt>
      <trkpt lat="43.65063" lon="3.69589">
        <ele>129.92</ele>
        <time>2012-04-09T15:41:55Z</time>
      </trkpt>
      <trkpt lat="43.6506" lon="3.69595">
        <ele>129.92</ele>
        <time>2012-04-09T15:41:56Z</time>
      </trkpt>
      <trkpt lat="43.65057" lon="3.69601">
        <ele>129.43</ele>
        <time>2012-04-09T15:41:57Z</time>
      </trkpt>
      <trkpt lat="43.65055" lon="3.69607">
        <ele>129.43</ele>
        <time>2012-04-09T15:41:58Z</time>
      </trkpt>
      <trkpt lat="43.6504" lon="3.69709">
        <ele>124.63</ele>
        <time>2012-04-09T15:42:10Z</time>
      </trkpt>
      <trkpt lat="43.65028" lon="3.69781">
        <ele>122.71</ele>
        <time>2012-04-09T15:42:21Z</time>
      </trkpt>
      <trkpt lat="43.65024" lon="3.69789">
        <ele>123.67</ele>
        <time>2012-04-09T15:42:28Z</time>
      </trkpt>
      <trkpt lat="43.6502" lon="3.69793">
        <ele>123.67</ele>
        <time>2012-04-09T15:42:29Z</time>
      </trkpt>
      <trkpt lat="43.65016" lon="3.69796">
        <ele>124.15</ele>
        <time>2012-04-09T15:42:30Z</time>
      </trkpt>
      <trkpt lat="43.64991" lon="3.69814">
        <ele>124.15</ele>
        <time>2012-04-09T15:42:35Z</time>
      </trkpt>
      <trkpt lat="43.64986" lon="3.69819">
        <ele>124.63</ele>
        <time>2012-04-09T15:42:36Z</time>
      </trkpt>
      <trkpt lat="43.64963" lon="3.69838">
        <ele>126.55</ele>
        <time>2012-04-09T15:42:41Z</time>
      </trkpt>
      <trkpt lat="43.64957" lon="3.6984">
        <ele>126.07</ele>
        <time>2012-04-09T15:42:42Z</time>
      </trkpt>
      <trkpt lat="43.64952" lon="3.6984">
        <ele>126.55</ele>
        <time>2012-04-09T15:42:43Z</time>
      </trkpt>
      <trkpt lat="43.64946" lon="3.6984">
        <ele>126.55</ele>
        <time>2012-04-09T15:42:44Z</time>
      </trkpt>
      <trkpt lat="43.64941" lon="3.69839">
        <ele>126.55</ele>
        <time>2012-04-09T15:42:45Z</time>
      </trkpt>
      <trkpt lat="43.64937" lon="3.69838">
        <ele>126.55</ele>
        <time>2012-04-09T15:42:46Z</time>
      </trkpt>
      <trkpt lat="43.64932" lon="3.69837">
        <ele>126.55</ele>
        <time>2012-04-09T15:42:47Z</time>
      </trkpt>
      <trkpt lat="43.64916" lon="3.69836">
        <ele>127.51</ele>
        <time>2012-04-09T15:42:50Z</time>
      </trkpt>
      <trkpt lat="43.6491" lon="3.69836">
        <ele>127.51</ele>
        <time>2012-04-09T15:42:51Z</time>
      </trkpt>
      <trkpt lat="43.64863" lon="3.6983">
        <ele>128.95</ele>
        <time>2012-04-09T15:43:01Z</time>
      </trkpt>
      <trkpt lat="43.64839" lon="3.69816">
        <ele>126.55</ele>
        <time>2012-04-09T15:43:08Z</time>
      </trkpt>
      <trkpt lat="43.64772" lon="3.69766">
        <ele>126.07</ele>
        <time>2012-04-09T15:43:18Z</time>
      </trkpt>
      <trkpt lat="43.64722" lon="3.69734">
        <ele>124.15</ele>
        <time>2012-04-09T15:43:27Z</time>
      </trkpt>
      <trkpt lat="43.64717" lon="3.69733">
        <ele>123.67</ele>
        <time>2012-04-09T15:43:28Z</time>
      </trkpt>
      <trkpt lat="43.64712" lon="3.69735">
        <ele>123.19</ele>
        <time>2012-04-09T15:43:29Z</time>
      </trkpt>
      <trkpt lat="43.64709" lon="3.69744">
        <ele>122.71</ele>
        <time>2012-04-09T15:43:30Z</time>
      </trkpt>
      <trkpt lat="43.64706" lon="3.69757">
        <ele>122.22</ele>
        <time>2012-04-09T15:43:31Z</time>
      </trkpt>
      <trkpt lat="43.64703" lon="3.69773">
        <ele>121.74</ele>
        <time>2012-04-09T15:43:32Z</time>
      </trkpt>
      <trkpt lat="43.64675" lon="3.69888">
        <ele>118.38</ele>
        <time>2012-04-09T15:43:40Z</time>
      </trkpt>
      <trkpt lat="43.64675" lon="3.69913">
        <ele>117.9</ele>
        <time>2012-04-09T15:43:45Z</time>
      </trkpt>
      <trkpt lat="43.64682" lon="3.69951">
        <ele>118.86</ele>
        <time>2012-04-09T15:43:48Z</time>
      </trkpt>
      <trkpt lat="43.64684" lon="3.69967">
        <ele>119.34</ele>
        <time>2012-04-09T15:43:49Z</time>
      </trkpt>
      <trkpt lat="43.64692" lon="3.70116">
        <ele>117.42</ele>
        <time>2012-04-09T15:43:57Z</time>
      </trkpt>
      <trkpt lat="43.64702" lon="3.70215">
        <ele>117.9</ele>
        <time>2012-04-09T15:44:04Z</time>
      </trkpt>
      <trkpt lat="43.64705" lon="3.70227">
        <ele>117.9</ele>
        <time>2012-04-09T15:44:05Z</time>
      </trkpt>
      <trkpt lat="43.6471" lon="3.7024">
        <ele>117.9</ele>
        <time>2012-04-09T15:44:06Z</time>
      </trkpt>
      <trkpt lat="43.64727" lon="3.7028">
        <ele>116.46</ele>
        <time>2012-04-09T15:44:10Z</time>
      </trkpt>
      <trkpt lat="43.64729" lon="3.70286">
        <ele>116.46</ele>
        <time>2012-04-09T15:44:11Z</time>
      </trkpt>
      <trkpt lat="43.64729" lon="3.70288">
        <ele>115.98</ele>
        <time>2012-04-09T15:44:12Z</time>
      </trkpt>
      <trkpt lat="43.64729" lon="3.70291">
        <ele>115.98</ele>
        <time>2012-04-09T15:44:13Z</time>
      </trkpt>
      <trkpt lat="43.64728" lon="3.70296">
        <ele>115.98</ele>
        <time>2012-04-09T15:44:14Z</time>
      </trkpt>
      <trkpt lat="43.64725" lon="3.70305">
        <ele>115.5</ele>
        <time>2012-04-09T15:44:15Z</time>
      </trkpt>
      <trkpt lat="43.6472" lon="3.70317">
        <ele>115.5</ele>
        <time>2012-04-09T15:44:16Z</time>
      </trkpt>
      <trkpt lat="43.64714" lon="3.70331">
        <ele>115.01</ele>
        <time>2012-04-09T15:44:17Z</time>
      </trkpt>
      <trkpt lat="43.64707" lon="3.70347">
        <ele>115.01</ele>
        <time>2012-04-09T15:44:18Z</time>
      </trkpt>
      <trkpt lat="43.64633" lon="3.70499">
        <ele>111.65</ele>
        <time>2012-04-09T15:44:26Z</time>
      </trkpt>
      <trkpt lat="43.64569" lon="3.70669">
        <ele>112.13</ele>
        <time>2012-04-09T15:44:33Z</time>
      </trkpt>
      <trkpt lat="43.64494" lon="3.70876">
        <ele>119.34</ele>
        <time>2012-04-09T15:44:41Z</time>
      </trkpt>
      <trkpt lat="43.6447" lon="3.70917">
        <ele>121.26</ele>
        <time>2012-04-09T15:44:43Z</time>
      </trkpt>
      <trkpt lat="43.64401" lon="3.71033">
        <ele>126.07</ele>
        <time>2012-04-09T15:44:49Z</time>
      </trkpt>
      <trkpt lat="43.64396" lon="3.71057">
        <ele>126.55</ele>
        <time>2012-04-09T15:44:50Z</time>
      </trkpt>
      <trkpt lat="43.64393" lon="3.71084">
        <ele>126.55</ele>
        <time>2012-04-09T15:44:51Z</time>
      </trkpt>
      <trkpt lat="43.64376" lon="3.71259">
        <ele>130.88</ele>
        <time>2012-04-09T15:44:57Z</time>
      </trkpt>
      <trkpt lat="43.64374" lon="3.71305">
        <ele>132.32</ele>
        <time>2012-04-09T15:44:59Z</time>
      </trkpt>
      <trkpt lat="43.64377" lon="3.71328">
        <ele>132.32</ele>
        <time>2012-04-09T15:45:00Z</time>
      </trkpt>
      <trkpt lat="43.64383" lon="3.7135">
        <ele>132.8</ele>
        <time>2012-04-09T15:45:01Z</time>
      </trkpt>
      <trkpt lat="43.64391" lon="3.71374">
        <ele>132.8</ele>
        <time>2012-04-09T15:45:02Z</time>
      </trkpt>
      <trkpt lat="43.644" lon="3.71397">
        <ele>132.8</ele>
        <time>2012-04-09T15:45:03Z</time>
      </trkpt>
      <trkpt lat="43.64416" lon="3.71443">
        <ele>132.32</ele>
        <time>2012-04-09T15:45:05Z</time>
      </trkpt>
      <trkpt lat="43.6442" lon="3.71465">
        <ele>132.32</ele>
        <time>2012-04-09T15:45:06Z</time>
      </trkpt>
      <trkpt lat="43.64421" lon="3.71488">
        <ele>132.32</ele>
        <time>2012-04-09T15:45:07Z</time>
      </trkpt>
      <trkpt lat="43.64419" lon="3.71511">
        <ele>132.32</ele>
        <time>2012-04-09T15:45:08Z</time>
      </trkpt>
      <trkpt lat="43.64413" lon="3.71534">
        <ele>132.32</ele>
        <time>2012-04-09T15:45:09Z</time>
      </trkpt>
      <trkpt lat="43.64403" lon="3.71556">
        <ele>132.32</ele>
        <time>2012-04-09T15:45:10Z</time>
      </trkpt>
      <trkpt lat="43.64388" lon="3.71574">
        <ele>132.32</ele>
        <time>2012-04-09T15:45:11Z</time>
      </trkpt>
      <trkpt lat="43.64371" lon="3.71591">
        <ele>132.32</ele>
        <time>2012-04-09T15:45:12Z</time>
      </trkpt>
      <trkpt lat="43.64354" lon="3.7161">
        <ele>132.8</ele>
        <time>2012-04-09T15:45:13Z</time>
      </trkpt>
      <trkpt lat="43.64339" lon="3.71631">
        <ele>132.8</ele>
        <time>2012-04-09T15:45:14Z</time>
      </trkpt>
      <trkpt lat="43.64325" lon="3.71656">
        <ele>132.8</ele>
        <time>2012-04-09T15:45:15Z</time>
      </trkpt>
      <trkpt lat="43.64313" lon="3.71687">
        <ele>132.8</ele>
        <time>2012-04-09T15:45:16Z</time>
      </trkpt>
      <trkpt lat="43.64304" lon="3.71721">
        <ele>132.8</ele>
        <time>2012-04-09T15:45:17Z</time>
      </trkpt>
      <trkpt lat="43.64296" lon="3.71759">
        <ele>132.32</ele>
        <time>2012-04-09T15:45:18Z</time>
      </trkpt>
      <trkpt lat="43.64288" lon="3.71799">
        <ele>132.32</ele>
        <time>2012-04-09T15:45:19Z</time>
      </trkpt>
      <trkpt lat="43.64219" lon="3.72133">
        <ele>129.92</ele>
        <time>2012-04-09T15:45:27Z</time>
      </trkpt>
      <trkpt lat="43.64147" lon="3.72471">
        <ele>130.88</ele>
        <time>2012-04-09T15:45:37Z</time>
      </trkpt>
      <trkpt lat="43.64091" lon="3.72684">
        <ele>133.28</ele>
        <time>2012-04-09T15:45:43Z</time>
      </trkpt>
      <trkpt lat="43.64057" lon="3.72905">
        <ele>136.16</ele>
        <time>2012-04-09T15:45:49Z</time>
      </trkpt>
      <trkpt lat="43.64051" lon="3.72936">
        <ele>136.64</ele>
        <time>2012-04-09T15:45:50Z</time>
      </trkpt>
      <trkpt lat="43.64048" lon="3.72968">
        <ele>137.13</ele>
        <time>2012-04-09T15:45:51Z</time>
      </trkpt>
      <trkpt lat="43.64047" lon="3.73001">
        <ele>137.61</ele>
        <time>2012-04-09T15:45:52Z</time>
      </trkpt>
      <trkpt lat="43.6403" lon="3.73217">
        <ele>140.01</ele>
        <time>2012-04-09T15:45:58Z</time>
      </trkpt>
      <trkpt lat="43.64029" lon="3.73255">
        <ele>140.49</ele>
        <time>2012-04-09T15:45:59Z</time>
      </trkpt>
      <trkpt lat="43.64031" lon="3.73293">
        <ele>140.97</ele>
        <time>2012-04-09T15:46:00Z</time>
      </trkpt>
      <trkpt lat="43.64031" lon="3.73411">
        <ele>142.41</ele>
        <time>2012-04-09T15:46:03Z</time>
      </trkpt>
      <trkpt lat="43.64025" lon="3.7352">
        <ele>143.85</ele>
        <time>2012-04-09T15:46:06Z</time>
      </trkpt>
      <trkpt lat="43.64028" lon="3.7356">
        <ele>144.34</ele>
        <time>2012-04-09T15:46:07Z</time>
      </trkpt>
      <trkpt lat="43.64066" lon="3.73845">
        <ele>148.18</ele>
        <time>2012-04-09T15:46:14Z</time>
      </trkpt>
      <trkpt lat="43.64125" lon="3.74109">
        <ele>151.06</ele>
        <time>2012-04-09T15:46:21Z</time>
      </trkpt>
      <trkpt lat="43.64137" lon="3.74291">
        <ele>152.99</ele>
        <time>2012-04-09T15:46:27Z</time>
      </trkpt>
      <trkpt lat="43.64133" lon="3.7432">
        <ele>152.99</ele>
        <time>2012-04-09T15:46:28Z</time>
      </trkpt>
      <trkpt lat="43.64126" lon="3.7435">
        <ele>152.99</ele>
        <time>2012-04-09T15:46:29Z</time>
      </trkpt>
      <trkpt lat="43.64117" lon="3.74382">
        <ele>152.99</ele>
        <time>2012-04-09T15:46:30Z</time>
      </trkpt>
      <trkpt lat="43.64106" lon="3.74415">
        <ele>153.47</ele>
        <time>2012-04-09T15:46:31Z</time>
      </trkpt>
      <trkpt lat="43.63983" lon="3.74788">
        <ele>154.43</ele>
        <time>2012-04-09T15:46:42Z</time>
      </trkpt>
      <trkpt lat="43.63927" lon="3.74922">
        <ele>158.27</ele>
        <time>2012-04-09T15:46:48Z</time>
      </trkpt>
      <trkpt lat="43.63902" lon="3.74953">
        <ele>160.68</ele>
        <time>2012-04-09T15:46:53Z</time>
      </trkpt>
      <trkpt lat="43.63872" lon="3.75004">
        <ele>161.16</ele>
        <time>2012-04-09T15:46:58Z</time>
      </trkpt>
      <trkpt lat="43.63854" lon="3.75032">
        <ele>160.2</ele>
        <time>2012-04-09T15:47:01Z</time>
      </trkpt>
      <trkpt lat="43.6385" lon="3.75035">
        <ele>160.2</ele>
        <time>2012-04-09T15:47:02Z</time>
      </trkpt>
      <trkpt lat="43.63847" lon="3.75036">
        <ele>160.2</ele>
        <time>2012-04-09T15:47:03Z</time>
      </trkpt>
      <trkpt lat="43.63842" lon="3.7504">
        <ele>159.24</ele>
        <time>2012-04-09T15:47:09Z</time>
      </trkpt>
      <trkpt lat="43.63837" lon="3.75048">
        <ele>158.75</ele>
        <time>2012-04-09T15:47:10Z</time>
      </trkpt>
      <trkpt lat="43.6383" lon="3.75062">
        <ele>158.27</ele>
        <time>2012-04-09T15:47:11Z</time>
      </trkpt>
      <trkpt lat="43.63782" lon="3.75149">
        <ele>154.91</ele>
        <time>2012-04-09T15:47:15Z</time>
      </trkpt>
      <trkpt lat="43.63625" lon="3.75417">
        <ele>143.85</ele>
        <time>2012-04-09T15:47:26Z</time>
      </trkpt>
      <trkpt lat="43.63596" lon="3.75475">
        <ele>141.45</ele>
        <time>2012-04-09T15:47:29Z</time>
      </trkpt>
      <trkpt lat="43.6359" lon="3.75497">
        <ele>140.97</ele>
        <time>2012-04-09T15:47:30Z</time>
      </trkpt>
      <trkpt lat="43.63586" lon="3.75521">
        <ele>140.01</ele>
        <time>2012-04-09T15:47:31Z</time>
      </trkpt>
      <trkpt lat="43.63586" lon="3.75548">
        <ele>139.53</ele>
        <time>2012-04-09T15:47:32Z</time>
      </trkpt>
      <trkpt lat="43.63589" lon="3.75576">
        <ele>138.57</ele>
        <time>2012-04-09T15:47:33Z</time>
      </trkpt>
      <trkpt lat="43.63596" lon="3.75607">
        <ele>138.09</ele>
        <time>2012-04-09T15:47:34Z</time>
      </trkpt>
      <trkpt lat="43.63605" lon="3.75638">
        <ele>138.09</ele>
        <time>2012-04-09T15:47:35Z</time>
      </trkpt>
      <trkpt lat="43.63615" lon="3.75669">
        <ele>138.57</ele>
        <time>2012-04-09T15:47:36Z</time>
      </trkpt>
      <trkpt lat="43.63649" lon="3.75771">
        <ele>138.57</ele>
        <time>2012-04-09T15:47:40Z</time>
      </trkpt>
      <trkpt lat="43.63652" lon="3.75792">
        <ele>138.57</ele>
        <time>2012-04-09T15:47:41Z</time>
      </trkpt>
      <trkpt lat="43.63651" lon="3.7581">
        <ele>139.05</ele>
        <time>2012-04-09T15:47:42Z</time>
      </trkpt>
      <trkpt lat="43.63647" lon="3.75825">
        <ele>139.05</ele>
        <time>2012-04-09T15:47:43Z</time>
      </trkpt>
      <trkpt lat="43.63641" lon="3.75835">
        <ele>139.53</ele>
        <time>2012-04-09T15:47:44Z</time>
      </trkpt>
      <trkpt lat="43.63635" lon="3.75841">
        <ele>139.53</ele>
        <time>2012-04-09T15:47:45Z</time>
      </trkpt>
      <trkpt lat="43.63628" lon="3.75845">
        <ele>139.53</ele>
        <time>2012-04-09T15:47:46Z</time>
      </trkpt>
      <trkpt lat="43.63618" lon="3.75846">
        <ele>139.53</ele>
        <time>2012-04-09T15:47:47Z</time>
      </trkpt>
      <trkpt lat="43.63606" lon="3.75845">
        <ele>140.01</ele>
        <time>2012-04-09T15:47:48Z</time>
      </trkpt>
      <trkpt lat="43.63592" lon="3.75842">
        <ele>139.53</ele>
        <time>2012-04-09T15:47:49Z</time>
      </trkpt>
      <trkpt lat="43.63578" lon="3.75835">
        <ele>139.53</ele>
        <time>2012-04-09T15:47:50Z</time>
      </trkpt>
      <trkpt lat="43.63561" lon="3.75823">
        <ele>139.53</ele>
        <time>2012-04-09T15:47:51Z</time>
      </trkpt>
      <trkpt lat="43.63544" lon="3.75809">
        <ele>139.53</ele>
        <time>2012-04-09T15:47:52Z</time>
      </trkpt>
      <trkpt lat="43.63526" lon="3.75794">
        <ele>139.53</ele>
        <time>2012-04-09T15:47:53Z</time>
      </trkpt>
      <trkpt lat="43.63363" lon="3.75654">
        <ele>140.49</ele>
        <time>2012-04-09T15:48:02Z</time>
      </trkpt>
      <trkpt lat="43.63326" lon="3.75612">
        <ele>140.49</ele>
        <time>2012-04-09T15:48:05Z</time>
      </trkpt>
      <trkpt lat="43.63316" lon="3.75597">
        <ele>140.97</ele>
        <time>2012-04-09T15:48:06Z</time>
      </trkpt>
      <trkpt lat="43.63309" lon="3.75581">
        <ele>140.97</ele>
        <time>2012-04-09T15:48:07Z</time>
      </trkpt>
      <trkpt lat="43.63304" lon="3.75563">
        <ele>140.97</ele>
        <time>2012-04-09T15:48:08Z</time>
      </trkpt>
      <trkpt lat="43.633" lon="3.75544">
        <ele>140.49</ele>
        <time>2012-04-09T15:48:09Z</time>
      </trkpt>
      <trkpt lat="43.63299" lon="3.75524">
        <ele>140.49</ele>
        <time>2012-04-09T15:48:10Z</time>
      </trkpt>
      <trkpt lat="43.63301" lon="3.75504">
        <ele>140.49</ele>
        <time>2012-04-09T15:48:11Z</time>
      </trkpt>
      <trkpt lat="43.63305" lon="3.75487">
        <ele>140.49</ele>
        <time>2012-04-09T15:48:12Z</time>
      </trkpt>
      <trkpt lat="43.63311" lon="3.75471">
        <ele>140.01</ele>
        <time>2012-04-09T15:48:13Z</time>
      </trkpt>
      <trkpt lat="43.63321" lon="3.75458">
        <ele>139.53</ele>
        <time>2012-04-09T15:48:14Z</time>
      </trkpt>
      <trkpt lat="43.63334" lon="3.75451">
        <ele>139.05</ele>
        <time>2012-04-09T15:48:15Z</time>
      </trkpt>
      <trkpt lat="43.63349" lon="3.75449">
        <ele>138.57</ele>
        <time>2012-04-09T15:48:16Z</time>
      </trkpt>
      <trkpt lat="43.63363" lon="3.75453">
        <ele>138.57</ele>
        <time>2012-04-09T15:48:17Z</time>
      </trkpt>
      <trkpt lat="43.63375" lon="3.75463">
        <ele>138.09</ele>
        <time>2012-04-09T15:48:18Z</time>
      </trkpt>
      <trkpt lat="43.63383" lon="3.75476">
        <ele>137.61</ele>
        <time>2012-04-09T15:48:19Z</time>
      </trkpt>
      <trkpt lat="43.63388" lon="3.75495">
        <ele>137.13</ele>
        <time>2012-04-09T15:48:20Z</time>
      </trkpt>
      <trkpt lat="43.63389" lon="3.75519">
        <ele>137.13</ele>
        <time>2012-04-09T15:48:21Z</time>
      </trkpt>
      <trkpt lat="43.63388" lon="3.75547">
        <ele>136.64</ele>
        <time>2012-04-09T15:48:22Z</time>
      </trkpt>
      <trkpt lat="43.63384" lon="3.75579">
        <ele>135.68</ele>
        <time>2012-04-09T15:48:23Z</time>
      </trkpt>
      <trkpt lat="43.63379" lon="3.75615">
        <ele>135.2</ele>
        <time>2012-04-09T15:48:24Z</time>
      </trkpt>
      <trkpt lat="43.63343" lon="3.75787">
        <ele>131.84</ele>
        <time>2012-04-09T15:48:28Z</time>
      </trkpt>
      <trkpt lat="43.63257" lon="3.76027">
        <ele>127.51</ele>
        <time>2012-04-09T15:48:33Z</time>
      </trkpt>
      <trkpt lat="43.63159" lon="3.76281">
        <ele>124.15</ele>
        <time>2012-04-09T15:48:39Z</time>
      </trkpt>
      <trkpt lat="43.63083" lon="3.7655">
        <ele>120.3</ele>
        <time>2012-04-09T15:48:46Z</time>
      </trkpt>
      <trkpt lat="43.62984" lon="3.76996">
        <ele>107.81</ele>
        <time>2012-04-09T15:48:58Z</time>
      </trkpt>
      <trkpt lat="43.62884" lon="3.77498">
        <ele>102.04</ele>
        <time>2012-04-09T15:49:12Z</time>
      </trkpt>
      <trkpt lat="43.62898" lon="3.7773">
        <ele>102.04</ele>
        <time>2012-04-09T15:49:18Z</time>
      </trkpt>
      <trkpt lat="43.62902" lon="3.77962">
        <ele>102.04</ele>
        <time>2012-04-09T15:49:24Z</time>
      </trkpt>
      <trkpt lat="43.62896" lon="3.77999">
        <ele>102.04</ele>
        <time>2012-04-09T15:49:25Z</time>
      </trkpt>
      <trkpt lat="43.62888" lon="3.78035">
        <ele>101.56</ele>
        <time>2012-04-09T15:49:26Z</time>
      </trkpt>
      <trkpt lat="43.62878" lon="3.78069">
        <ele>101.56</ele>
        <time>2012-04-09T15:49:27Z</time>
      </trkpt>
      <trkpt lat="43.62867" lon="3.78102">
        <ele>101.08</ele>
        <time>2012-04-09T15:49:28Z</time>
      </trkpt>
      <trkpt lat="43.62853" lon="3.78134">
        <ele>101.08</ele>
        <time>2012-04-09T15:49:29Z</time>
      </trkpt>
      <trkpt lat="43.62839" lon="3.78165">
        <ele>100.6</ele>
        <time>2012-04-09T15:49:30Z</time>
      </trkpt>
      <trkpt lat="43.62822" lon="3.78195">
        <ele>100.6</ele>
        <time>2012-04-09T15:49:31Z</time>
      </trkpt>
      <trkpt lat="43.62804" lon="3.78224">
        <ele>100.11</ele>
        <time>2012-04-09T15:49:32Z</time>
      </trkpt>
      <trkpt lat="43.62785" lon="3.78252">
        <ele>99.63</ele>
        <time>2012-04-09T15:49:33Z</time>
      </trkpt>
      <trkpt lat="43.62528" lon="3.78599">
        <ele>92.9</ele>
        <time>2012-04-09T15:49:46Z</time>
      </trkpt>
      <trkpt lat="43.62321" lon="3.78866">
        <ele>84.73</ele>
        <time>2012-04-09T15:49:57Z</time>
      </trkpt>
      <trkpt lat="43.62181" lon="3.79007">
        <ele>79.45</ele>
        <time>2012-04-09T15:50:04Z</time>
      </trkpt>
      <trkpt lat="43.61929" lon="3.79219">
        <ele>72.24</ele>
        <time>2012-04-09T15:50:15Z</time>
      </trkpt>
      <trkpt lat="43.61818" lon="3.7938">
        <ele>68.39</ele>
        <time>2012-04-09T15:50:21Z</time>
      </trkpt>
      <trkpt lat="43.61622" lon="3.79762">
        <ele>64.07</ele>
        <time>2012-04-09T15:50:33Z</time>
      </trkpt>
      <trkpt lat="43.615" lon="3.79892">
        <ele>66.47</ele>
        <time>2012-04-09T15:50:39Z</time>
      </trkpt>
      <trkpt lat="43.61324" lon="3.80002">
        <ele>64.55</ele>
        <time>2012-04-09T15:50:47Z</time>
      </trkpt>
      <trkpt lat="43.61192" lon="3.80121">
        <ele>58.3</ele>
        <time>2012-04-09T15:50:53Z</time>
      </trkpt>
      <trkpt lat="43.61039" lon="3.80339">
        <ele>48.2</ele>
        <time>2012-04-09T15:51:00Z</time>
      </trkpt>
      <trkpt lat="43.60833" lon="3.80606">
        <ele>40.03</ele>
        <time>2012-04-09T15:51:09Z</time>
      </trkpt>
      <trkpt lat="43.60753" lon="3.80806">
        <ele>37.63</ele>
        <time>2012-04-09T15:51:14Z</time>
      </trkpt>
      <trkpt lat="43.60653" lon="3.81035">
        <ele>36.67</ele>
        <time>2012-04-09T15:51:20Z</time>
      </trkpt>
      <trkpt lat="43.60528" lon="3.8131">
        <ele>34.26</ele>
        <time>2012-04-09T15:51:28Z</time>
      </trkpt>
      <trkpt lat="43.60521" lon="3.8135">
        <ele>34.26</ele>
        <time>2012-04-09T15:51:29Z</time>
      </trkpt>
      <trkpt lat="43.60518" lon="3.81392">
        <ele>34.26</ele>
        <time>2012-04-09T15:51:30Z</time>
      </trkpt>
      <trkpt lat="43.60517" lon="3.81434">
        <ele>34.26</ele>
        <time>2012-04-09T15:51:31Z</time>
      </trkpt>
      <trkpt lat="43.60518" lon="3.81475">
        <ele>33.78</ele>
        <time>2012-04-09T15:51:32Z</time>
      </trkpt>
      <trkpt lat="43.60522" lon="3.81514">
        <ele>33.78</ele>
        <time>2012-04-09T15:51:33Z</time>
      </trkpt>
      <trkpt lat="43.60529" lon="3.8155">
        <ele>33.3</ele>
        <time>2012-04-09T15:51:34Z</time>
      </trkpt>
      <trkpt lat="43.60537" lon="3.81585">
        <ele>32.82</ele>
        <time>2012-04-09T15:51:35Z</time>
      </trkpt>
      <trkpt lat="43.60549" lon="3.8162">
        <ele>32.34</ele>
        <time>2012-04-09T15:51:36Z</time>
      </trkpt>
      <trkpt lat="43.60562" lon="3.81655">
        <ele>32.34</ele>
        <time>2012-04-09T15:51:37Z</time>
      </trkpt>
      <trkpt lat="43.60577" lon="3.81689">
        <ele>32.34</ele>
        <time>2012-04-09T15:51:38Z</time>
      </trkpt>
      <trkpt lat="43.60592" lon="3.81721">
        <ele>32.34</ele>
        <time>2012-04-09T15:51:39Z</time>
      </trkpt>
      <trkpt lat="43.60728" lon="3.8198">
        <ele>33.78</ele>
        <time>2012-04-09T15:51:48Z</time>
      </trkpt>
      <trkpt lat="43.60867" lon="3.82168">
        <ele>36.19</ele>
        <time>2012-04-09T15:51:55Z</time>
      </trkpt>
      <trkpt lat="43.60998" lon="3.82254">
        <ele>36.19</ele>
        <time>2012-04-09T15:52:00Z</time>
      </trkpt>
      <trkpt lat="43.6114" lon="3.82281">
        <ele>34.26</ele>
        <time>2012-04-09T15:52:05Z</time>
      </trkpt>
      <trkpt lat="43.61211" lon="3.82302">
        <ele>33.78</ele>
        <time>2012-04-09T15:52:08Z</time>
      </trkpt>
      <trkpt lat="43.61231" lon="3.82313">
        <ele>33.78</ele>
        <time>2012-04-09T15:52:09Z</time>
      </trkpt>
      <trkpt lat="43.61247" lon="3.82326">
        <ele>34.26</ele>
        <time>2012-04-09T15:52:10Z</time>
      </trkpt>
      <trkpt lat="43.61283" lon="3.82367">
        <ele>35.23</ele>
        <time>2012-04-09T15:52:13Z</time>
      </trkpt>
      <trkpt lat="43.61288" lon="3.82386">
        <ele>36.19</ele>
        <time>2012-04-09T15:52:14Z</time>
      </trkpt>
      <trkpt lat="43.61289" lon="3.82407">
        <ele>36.67</ele>
        <time>2012-04-09T15:52:15Z</time>
      </trkpt>
      <trkpt lat="43.61288" lon="3.82426">
        <ele>38.11</ele>
        <time>2012-04-09T15:52:16Z</time>
      </trkpt>
      <trkpt lat="43.61281" lon="3.82445">
        <ele>39.55</ele>
        <time>2012-04-09T15:52:17Z</time>
      </trkpt>
      <trkpt lat="43.61273" lon="3.8246">
        <ele>40.99</ele>
        <time>2012-04-09T15:52:18Z</time>
      </trkpt>
      <trkpt lat="43.61263" lon="3.82471">
        <ele>41.95</ele>
        <time>2012-04-09T15:52:19Z</time>
      </trkpt>
      <trkpt lat="43.61251" lon="3.82475">
        <ele>43.4</ele>
        <time>2012-04-09T15:52:20Z</time>
      </trkpt>
      <trkpt lat="43.6124" lon="3.82472">
        <ele>44.84</ele>
        <time>2012-04-09T15:52:21Z</time>
      </trkpt>
      <trkpt lat="43.6123" lon="3.82464">
        <ele>45.8</ele>
        <time>2012-04-09T15:52:22Z</time>
      </trkpt>
      <trkpt lat="43.61223" lon="3.82451">
        <ele>46.76</ele>
        <time>2012-04-09T15:52:23Z</time>
      </trkpt>
      <trkpt lat="43.61219" lon="3.82435">
        <ele>47.24</ele>
        <time>2012-04-09T15:52:24Z</time>
      </trkpt>
      <trkpt lat="43.61219" lon="3.8242">
        <ele>47.72</ele>
        <time>2012-04-09T15:52:25Z</time>
      </trkpt>
      <trkpt lat="43.61228" lon="3.824">
        <ele>47.24</ele>
        <time>2012-04-09T15:52:26Z</time>
      </trkpt>
      <trkpt lat="43.61238" lon="3.82379">
        <ele>46.76</ele>
        <time>2012-04-09T15:52:27Z</time>
      </trkpt>
      <trkpt lat="43.6125" lon="3.82355">
        <ele>45.8</ele>
        <time>2012-04-09T15:52:28Z</time>
      </trkpt>
      <trkpt lat="43.61263" lon="3.8233">
        <ele>44.84</ele>
        <time>2012-04-09T15:52:29Z</time>
      </trkpt>
      <trkpt lat="43.61279" lon="3.82305">
        <ele>44.36</ele>
        <time>2012-04-09T15:52:30Z</time>
      </trkpt>
      <trkpt lat="43.61296" lon="3.82282">
        <ele>43.4</ele>
        <time>2012-04-09T15:52:31Z</time>
      </trkpt>
      <trkpt lat="43.61316" lon="3.82261">
        <ele>42.44</ele>
        <time>2012-04-09T15:52:32Z</time>
      </trkpt>
      <trkpt lat="43.61337" lon="3.82242">
        <ele>41.95</ele>
        <time>2012-04-09T15:52:33Z</time>
      </trkpt>
      <trkpt lat="43.61357" lon="3.82226">
        <ele>41.95</ele>
        <time>2012-04-09T15:52:34Z</time>
      </trkpt>
      <trkpt lat="43.61455" lon="3.82152">
        <ele>45.8</ele>
        <time>2012-04-09T15:52:40Z</time>
      </trkpt>
      <trkpt lat="43.61622" lon="3.82035">
        <ele>47.72</ele>
        <time>2012-04-09T15:52:50Z</time>
      </trkpt>
      <trkpt lat="43.6164" lon="3.82026">
        <ele>47.72</ele>
        <time>2012-04-09T15:52:51Z</time>
      </trkpt>
      <trkpt lat="43.61659" lon="3.82019">
        <ele>47.24</ele>
        <time>2012-04-09T15:52:52Z</time>
      </trkpt>
      <trkpt lat="43.61679" lon="3.82016">
        <ele>47.24</ele>
        <time>2012-04-09T15:52:53Z</time>
      </trkpt>
      <trkpt lat="43.61699" lon="3.82017">
        <ele>46.76</ele>
        <time>2012-04-09T15:52:54Z</time>
      </trkpt>
      <trkpt lat="43.61719" lon="3.82021">
        <ele>46.76</ele>
        <time>2012-04-09T15:52:55Z</time>
      </trkpt>
      <trkpt lat="43.61737" lon="3.82028">
        <ele>46.76</ele>
        <time>2012-04-09T15:52:56Z</time>
      </trkpt>
      <trkpt lat="43.61754" lon="3.82038">
        <ele>46.76</ele>
        <time>2012-04-09T15:52:57Z</time>
      </trkpt>
      <trkpt lat="43.61771" lon="3.82051">
        <ele>46.28</ele>
        <time>2012-04-09T15:52:58Z</time>
      </trkpt>
      <trkpt lat="43.61789" lon="3.82066">
        <ele>46.28</ele>
        <time>2012-04-09T15:52:59Z</time>
      </trkpt>
      <trkpt lat="43.61976" lon="3.82213">
        <ele>48.2</ele>
        <time>2012-04-09T15:53:09Z</time>
      </trkpt>
      <trkpt lat="43.62093" lon="3.82265">
        <ele>50.61</ele>
        <time>2012-04-09T15:53:16Z</time>
      </trkpt>
      <trkpt lat="43.62184" lon="3.82284">
        <ele>49.65</ele>
        <time>2012-04-09T15:53:23Z</time>
      </trkpt>
      <trkpt lat="43.62191" lon="3.82289">
        <ele>50.13</ele>
        <time>2012-04-09T15:53:24Z</time>
      </trkpt>
      <trkpt lat="43.62199" lon="3.82295">
        <ele>50.13</ele>
        <time>2012-04-09T15:53:25Z</time>
      </trkpt>
      <trkpt lat="43.62206" lon="3.82299">
        <ele>50.61</ele>
        <time>2012-04-09T15:53:26Z</time>
      </trkpt>
      <trkpt lat="43.62215" lon="3.823">
        <ele>50.61</ele>
        <time>2012-04-09T15:53:27Z</time>
      </trkpt>
      <trkpt lat="43.62225" lon="3.82297">
        <ele>50.61</ele>
        <time>2012-04-09T15:53:28Z</time>
      </trkpt>
      <trkpt lat="43.62235" lon="3.82296">
        <ele>50.61</ele>
        <time>2012-04-09T15:53:29Z</time>
      </trkpt>
      <trkpt lat="43.62246" lon="3.823">
        <ele>51.09</ele>
        <time>2012-04-09T15:53:30Z</time>
      </trkpt>
      <trkpt lat="43.62258" lon="3.8231">
        <ele>51.09</ele>
        <time>2012-04-09T15:53:31Z</time>
      </trkpt>
      <trkpt lat="43.62271" lon="3.82323">
        <ele>52.05</ele>
        <time>2012-04-09T15:53:32Z</time>
      </trkpt>
      <trkpt lat="43.62284" lon="3.8234">
        <ele>52.53</ele>
        <time>2012-04-09T15:53:33Z</time>
      </trkpt>
      <trkpt lat="43.62298" lon="3.82362">
        <ele>53.49</ele>
        <time>2012-04-09T15:53:34Z</time>
      </trkpt>
      <trkpt lat="43.62399" lon="3.82503">
        <ele>57.82</ele>
        <time>2012-04-09T15:53:40Z</time>
      </trkpt>
      <trkpt lat="43.62441" lon="3.82576">
        <ele>58.3</ele>
        <time>2012-04-09T15:53:44Z</time>
      </trkpt>
      <trkpt lat="43.62445" lon="3.82591">
        <ele>58.3</ele>
        <time>2012-04-09T15:53:45Z</time>
      </trkpt>
      <trkpt lat="43.62449" lon="3.82605">
        <ele>58.3</ele>
        <time>2012-04-09T15:53:46Z</time>
      </trkpt>
      <trkpt lat="43.62451" lon="3.82618">
        <ele>58.78</ele>
        <time>2012-04-09T15:53:47Z</time>
      </trkpt>
      <trkpt lat="43.62452" lon="3.8263">
        <ele>58.78</ele>
        <time>2012-04-09T15:53:48Z</time>
      </trkpt>
      <trkpt lat="43.62452" lon="3.82641">
        <ele>58.78</ele>
        <time>2012-04-09T15:53:49Z</time>
      </trkpt>
      <trkpt lat="43.62451" lon="3.82652">
        <ele>59.26</ele>
        <time>2012-04-09T15:53:50Z</time>
      </trkpt>
      <trkpt lat="43.62451" lon="3.82662">
        <ele>59.74</ele>
        <time>2012-04-09T15:53:51Z</time>
      </trkpt>
      <trkpt lat="43.62453" lon="3.82671">
        <ele>59.74</ele>
        <time>2012-04-09T15:53:52Z</time>
      </trkpt>
      <trkpt lat="43.62457" lon="3.82679">
        <ele>60.22</ele>
        <time>2012-04-09T15:53:53Z</time>
      </trkpt>
      <trkpt lat="43.62467" lon="3.82697">
        <ele>60.22</ele>
        <time>2012-04-09T15:53:55Z</time>
      </trkpt>
      <trkpt lat="43.6247" lon="3.82711">
        <ele>60.22</ele>
        <time>2012-04-09T15:53:56Z</time>
      </trkpt>
      <trkpt lat="43.62471" lon="3.82727">
        <ele>60.22</ele>
        <time>2012-04-09T15:53:57Z</time>
      </trkpt>
      <trkpt lat="43.62468" lon="3.82745">
        <ele>60.7</ele>
        <time>2012-04-09T15:53:58Z</time>
      </trkpt>
      <trkpt lat="43.62462" lon="3.82762">
        <ele>61.18</ele>
        <time>2012-04-09T15:53:59Z</time>
      </trkpt>
      <trkpt lat="43.62454" lon="3.82779">
        <ele>61.66</ele>
        <time>2012-04-09T15:54:00Z</time>
      </trkpt>
      <trkpt lat="43.62446" lon="3.82797">
        <ele>62.14</ele>
        <time>2012-04-09T15:54:01Z</time>
      </trkpt>
      <trkpt lat="43.62354" lon="3.83012">
        <ele>65.99</ele>
        <time>2012-04-09T15:54:12Z</time>
      </trkpt>
      <trkpt lat="43.62298" lon="3.83245">
        <ele>69.35</ele>
        <time>2012-04-09T15:54:24Z</time>
      </trkpt>
      <trkpt lat="43.62303" lon="3.83318">
        <ele>70.79</ele>
        <time>2012-04-09T15:54:30Z</time>
      </trkpt>
      <trkpt lat="43.62301" lon="3.83326">
        <ele>72.24</ele>
        <time>2012-04-09T15:54:38Z</time>
      </trkpt>
      <trkpt lat="43.62297" lon="3.83334">
        <ele>72.24</ele>
        <time>2012-04-09T15:54:39Z</time>
      </trkpt>
      <trkpt lat="43.62287" lon="3.83358">
        <ele>72.72</ele>
        <time>2012-04-09T15:54:41Z</time>
      </trkpt>
      <trkpt lat="43.62285" lon="3.83373">
        <ele>72.72</ele>
        <time>2012-04-09T15:54:42Z</time>
      </trkpt>
      <trkpt lat="43.62288" lon="3.83388">
        <ele>73.2</ele>
        <time>2012-04-09T15:54:43Z</time>
      </trkpt>
      <trkpt lat="43.62296" lon="3.83399">
        <ele>73.2</ele>
        <time>2012-04-09T15:54:44Z</time>
      </trkpt>
      <trkpt lat="43.62306" lon="3.83405">
        <ele>73.68</ele>
        <time>2012-04-09T15:54:45Z</time>
      </trkpt>
      <trkpt lat="43.62317" lon="3.83407">
        <ele>73.68</ele>
        <time>2012-04-09T15:54:46Z</time>
      </trkpt>
      <trkpt lat="43.62327" lon="3.83405">
        <ele>73.68</ele>
        <time>2012-04-09T15:54:47Z</time>
      </trkpt>
      <trkpt lat="43.62337" lon="3.83398">
        <ele>73.2</ele>
        <time>2012-04-09T15:54:48Z</time>
      </trkpt>
      <trkpt lat="43.62343" lon="3.83385">
        <ele>73.2</ele>
        <time>2012-04-09T15:54:49Z</time>
      </trkpt>
      <trkpt lat="43.62347" lon="3.83372">
        <ele>72.72</ele>
        <time>2012-04-09T15:54:50Z</time>
      </trkpt>
      <trkpt lat="43.62346" lon="3.83357">
        <ele>72.72</ele>
        <time>2012-04-09T15:54:51Z</time>
      </trkpt>
      <trkpt lat="43.62342" lon="3.83344">
        <ele>72.72</ele>
        <time>2012-04-09T15:54:52Z</time>
      </trkpt>
      <trkpt lat="43.62336" lon="3.83335">
        <ele>72.24</ele>
        <time>2012-04-09T15:54:53Z</time>
      </trkpt>
      <trkpt lat="43.62327" lon="3.83328">
        <ele>71.76</ele>
        <time>2012-04-09T15:54:54Z</time>
      </trkpt>
      <trkpt lat="43.62316" lon="3.83327">
        <ele>71.27</ele>
        <time>2012-04-09T15:54:55Z</time>
      </trkpt>
      <trkpt lat="43.62305" lon="3.8333">
        <ele>71.27</ele>
        <time>2012-04-09T15:54:56Z</time>
      </trkpt>
      <trkpt lat="43.62297" lon="3.83338">
        <ele>71.27</ele>
        <time>2012-04-09T15:54:57Z</time>
      </trkpt>
      <trkpt lat="43.62291" lon="3.83351">
        <ele>70.79</ele>
        <time>2012-04-09T15:54:58Z</time>
      </trkpt>
      <trkpt lat="43.62287" lon="3.83365">
        <ele>70.79</ele>
        <time>2012-04-09T15:54:59Z</time>
      </trkpt>
      <trkpt lat="43.62288" lon="3.83379">
        <ele>71.27</ele>
        <time>2012-04-09T15:55:00Z</time>
      </trkpt>
      <trkpt lat="43.62294" lon="3.83391">
        <ele>71.76</ele>
        <time>2012-04-09T15:55:01Z</time>
      </trkpt>
      <trkpt lat="43.62302" lon="3.834">
        <ele>71.76</ele>
        <time>2012-04-09T15:55:02Z</time>
      </trkpt>
      <trkpt lat="43.62314" lon="3.83405">
        <ele>72.24</ele>
        <time>2012-04-09T15:55:03Z</time>
      </trkpt>
      <trkpt lat="43.62325" lon="3.83406">
        <ele>72.24</ele>
        <time>2012-04-09T15:55:04Z</time>
      </trkpt>
      <trkpt lat="43.62336" lon="3.83403">
        <ele>72.24</ele>
        <time>2012-04-09T15:55:05Z</time>
      </trkpt>
      <trkpt lat="43.62348" lon="3.83399">
        <ele>71.76</ele>
        <time>2012-04-09T15:55:06Z</time>
      </trkpt>
      <trkpt lat="43.62362" lon="3.83399">
        <ele>71.27</ele>
        <time>2012-04-09T15:55:07Z</time>
      </trkpt>
      <trkpt lat="43.62377" lon="3.83405">
        <ele>71.27</ele>
        <time>2012-04-09T15:55:08Z</time>
      </trkpt>
      <trkpt lat="43.62391" lon="3.83413">
        <ele>71.27</ele>
        <time>2012-04-09T15:55:09Z</time>
      </trkpt>
      <trkpt lat="43.62406" lon="3.83421">
        <ele>70.79</ele>
        <time>2012-04-09T15:55:10Z</time>
      </trkpt>
      <trkpt lat="43.62457" lon="3.83466">
        <ele>71.27</ele>
        <time>2012-04-09T15:55:14Z</time>
      </trkpt>
      <trkpt lat="43.62467" lon="3.8348">
        <ele>71.27</ele>
        <time>2012-04-09T15:55:15Z</time>
      </trkpt>
      <trkpt lat="43.62475" lon="3.83495">
        <ele>71.76</ele>
        <time>2012-04-09T15:55:16Z</time>
      </trkpt>
      <trkpt lat="43.62482" lon="3.83509">
        <ele>71.76</ele>
        <time>2012-04-09T15:55:17Z</time>
      </trkpt>
      <trkpt lat="43.62488" lon="3.83523">
        <ele>71.76</ele>
        <time>2012-04-09T15:55:18Z</time>
      </trkpt>
      <trkpt lat="43.62493" lon="3.83537">
        <ele>71.76</ele>
        <time>2012-04-09T15:55:19Z</time>
      </trkpt>
      <trkpt lat="43.62496" lon="3.8355">
        <ele>71.76</ele>
        <time>2012-04-09T15:55:20Z</time>
      </trkpt>
      <trkpt lat="43.62499" lon="3.83562">
        <ele>71.76</ele>
        <time>2012-04-09T15:55:21Z</time>
      </trkpt>
      <trkpt lat="43.62499" lon="3.83571">
        <ele>71.76</ele>
        <time>2012-04-09T15:55:22Z</time>
      </trkpt>
      <trkpt lat="43.62498" lon="3.83578">
        <ele>71.76</ele>
        <time>2012-04-09T15:55:23Z</time>
      </trkpt>
      <trkpt lat="43.62495" lon="3.83586">
        <ele>71.76</ele>
        <time>2012-04-09T15:55:24Z</time>
      </trkpt>
      <trkpt lat="43.6249" lon="3.83595">
        <ele>71.76</ele>
        <time>2012-04-09T15:55:25Z</time>
      </trkpt>
      <trkpt lat="43.62485" lon="3.83606">
        <ele>71.76</ele>
        <time>2012-04-09T15:55:26Z</time>
      </trkpt>
      <trkpt lat="43.6248" lon="3.83619">
        <ele>71.76</ele>
        <time>2012-04-09T15:55:27Z</time>
      </trkpt>
      <trkpt lat="43.62475" lon="3.83631">
        <ele>71.27</ele>
        <time>2012-04-09T15:55:28Z</time>
      </trkpt>
      <trkpt lat="43.62469" lon="3.83641">
        <ele>71.27</ele>
        <time>2012-04-09T15:55:29Z</time>
      </trkpt>
      <trkpt lat="43.62459" lon="3.83646">
        <ele>71.27</ele>
        <time>2012-04-09T15:55:30Z</time>
      </trkpt>
      <trkpt lat="43.6245" lon="3.83648">
        <ele>71.76</ele>
        <time>2012-04-09T15:55:31Z</time>
      </trkpt>
      <trkpt lat="43.62443" lon="3.83649">
        <ele>71.76</ele>
        <time>2012-04-09T15:55:32Z</time>
      </trkpt>
      <trkpt lat="43.62438" lon="3.83649">
        <ele>72.24</ele>
        <time>2012-04-09T15:55:33Z</time>
      </trkpt>
      <trkpt lat="43.62433" lon="3.83648">
        <ele>72.72</ele>
        <time>2012-04-09T15:55:34Z</time>
      </trkpt>
      <trkpt lat="43.62426" lon="3.83649">
        <ele>73.2</ele>
        <time>2012-04-09T15:55:35Z</time>
      </trkpt>
      <trkpt lat="43.6242" lon="3.83651">
        <ele>73.2</ele>
        <time>2012-04-09T15:55:36Z</time>
      </trkpt>
      <trkpt lat="43.62415" lon="3.83656">
        <ele>73.68</ele>
        <time>2012-04-09T15:55:37Z</time>
      </trkpt>
      <trkpt lat="43.62411" lon="3.83662">
        <ele>73.68</ele>
        <time>2012-04-09T15:55:38Z</time>
      </trkpt>
      <trkpt lat="43.62409" lon="3.83669">
        <ele>74.16</ele>
        <time>2012-04-09T15:55:39Z</time>
      </trkpt>
      <trkpt lat="43.62409" lon="3.83676">
        <ele>74.16</ele>
        <time>2012-04-09T15:55:40Z</time>
      </trkpt>
      <trkpt lat="43.6241" lon="3.83683">
        <ele>73.68</ele>
        <time>2012-04-09T15:55:41Z</time>
      </trkpt>
      <trkpt lat="43.62414" lon="3.83688">
        <ele>74.16</ele>
        <time>2012-04-09T15:55:42Z</time>
      </trkpt>
      <trkpt lat="43.62418" lon="3.83693">
        <ele>73.68</ele>
        <time>2012-04-09T15:55:43Z</time>
      </trkpt>
      <trkpt lat="43.62422" lon="3.83699">
        <ele>73.2</ele>
        <time>2012-04-09T15:55:44Z</time>
      </trkpt>
      <trkpt lat="43.62426" lon="3.83708">
        <ele>73.2</ele>
        <time>2012-04-09T15:55:45Z</time>
      </trkpt>
      <trkpt lat="43.62429" lon="3.83719">
        <ele>73.2</ele>
        <time>2012-04-09T15:55:46Z</time>
      </trkpt>
      <trkpt lat="43.62432" lon="3.83731">
        <ele>73.2</ele>
        <time>2012-04-09T15:55:47Z</time>
      </trkpt>
      <trkpt lat="43.62438" lon="3.83764">
        <ele>73.68</ele>
        <time>2012-04-09T15:55:50Z</time>
      </trkpt>
      <trkpt lat="43.62438" lon="3.83773">
        <ele>73.68</ele>
        <time>2012-04-09T15:55:51Z</time>
      </trkpt>
      <trkpt lat="43.62436" lon="3.83781">
        <ele>73.68</ele>
        <time>2012-04-09T15:55:52Z</time>
      </trkpt>
      <trkpt lat="43.62433" lon="3.83787">
        <ele>74.16</ele>
        <time>2012-04-09T15:55:53Z</time>
      </trkpt>
      <trkpt lat="43.62431" lon="3.83792">
        <ele>75.12</ele>
        <time>2012-04-09T15:55:55Z</time>
      </trkpt>
      <trkpt lat="43.62437" lon="3.83798">
        <ele>77.52</ele>
        <time>2012-04-09T15:56:07Z</time>
      </trkpt>
    </trkseg>
  </trk>
</gpx>